Wetterdaten: Montag, 16.04.2018
Datum Zeit Temp. A. Feuchte A. Luftdruck Regen Wind Richtung Richtung Sonnenschein ET UV Solar Taupunkt Windchill Windböen
16.04.2018 00:00 10,1 °C 90 % 1009,8 hPa 0,0 mm 7,3 km/h (2 Bft) S-SW 196 ° 0 min 0,000 mm 0,0 UV-I 0 W/m² 8,5 °C 10,1 °C 9,7 km/h (2 Bft)
16.04.2018 00:01 10,1 °C 90 % 1009,7 hPa 0,0 mm 5,6 km/h (1 Bft) S-SW 200 ° 0 min 0,000 mm 0,0 UV-I 0 W/m² 8,5 °C 10,1 °C 9,7 km/h (2 Bft)
16.04.2018 00:02 10,1 °C 90 % 1009,7 hPa 0,0 mm 4,8 km/h (1 Bft) S 188 ° 0 min 0,000 mm 0,0 UV-I 0 W/m² 8,5 °C 10,1 °C 8,0 km/h (2 Bft)
16.04.2018 00:03 10,1 °C 90 % 1009,7 hPa 0,0 mm 2,3 km/h (1 Bft) S-SW 202 ° 0 min 0,000 mm 0,0 UV-I 0 W/m² 8,5 °C 10,1 °C 6,4 km/h (2 Bft)
16.04.2018 00:04 10,1 °C 90 % 1009,7 hPa 0,0 mm 4,9 km/h (1 Bft) S-SW 193 ° 0 min 0,000 mm 0,0 UV-I 0 W/m² 8,5 °C 10,1 °C 8,0 km/h (2 Bft)
16.04.2018 00:05 10,1 °C 90 % 1009,7 hPa 0,0 mm 3,7 km/h (1 Bft) S 187 ° 0 min 0,000 mm 0,0 UV-I 0 W/m² 8,5 °C 10,1 °C 6,4 km/h (2 Bft)
16.04.2018 00:06 10,1 °C 90 % 1009,7 hPa 0,0 mm 3,5 km/h (1 Bft) S-SW 202 ° 0 min 0,000 mm 0,0 UV-I 0 W/m² 8,5 °C 10,1 °C 4,8 km/h (1 Bft)
16.04.2018 00:07 10,0 °C 90 % 1009,7 hPa 0,0 mm 3,7 km/h (1 Bft) S-SW 194 ° 0 min 0,000 mm 0,0 UV-I 0 W/m² 8,4 °C 10,0 °C 6,4 km/h (2 Bft)
16.04.2018 00:08 10,0 °C 90 % 1009,7 hPa 0,0 mm 3,6 km/h (1 Bft) S-SW 202 ° 0 min 0,000 mm 0,0 UV-I 0 W/m² 8,4 °C 10,0 °C 4,8 km/h (1 Bft)
16.04.2018 00:09 9,9 °C 90 % 1009,7 hPa 0,0 mm 4,2 km/h (1 Bft) S 182 ° 0 min 0,000 mm 0,0 UV-I 0 W/m² 8,3 °C 9,9 °C 6,4 km/h (2 Bft)
16.04.2018 00:10 9,9 °C 91 % 1009,7 hPa 0,0 mm 6,4 km/h (2 Bft) S-SW 213 ° 0 min 0,000 mm 0,0 UV-I 0 W/m² 8,5 °C 9,3 °C 9,7 km/h (2 Bft)
16.04.2018 00:11 10,0 °C 91 % 1009,7 hPa 0,0 mm 5,2 km/h (1 Bft) S-SW 197 ° 0 min 0,000 mm 0,0 UV-I 0 W/m² 8,6 °C 9,7 °C 8,0 km/h (2 Bft)
16.04.2018 00:12 10,0 °C 91 % 1009,7 hPa 0,0 mm 4,6 km/h (1 Bft) S 184 ° 0 min 0,000 mm 0,0 UV-I 0 W/m² 8,6 °C 9,9 °C 6,4 km/h (2 Bft)
16.04.2018 00:13 10,0 °C 91 % 1009,6 hPa 0,0 mm 2,5 km/h (1 Bft) S 176 ° 0 min 0,000 mm 0,0 UV-I 0 W/m² 8,6 °C 10,0 °C 4,8 km/h (1 Bft)
16.04.2018 00:14 10,0 °C 91 % 1009,6 hPa 0,2 mm 4,2 km/h (1 Bft) S 186 ° 0 min 0,000 mm 0,0 UV-I 0 W/m² 8,6 °C 10,0 °C 8,0 km/h (2 Bft)
16.04.2018 00:15 10,0 °C 91 % 1009,7 hPa 0,0 mm 3,4 km/h (1 Bft) S-SW 207 ° 0 min 0,000 mm 0,0 UV-I 0 W/m² 8,6 °C 10,0 °C 4,8 km/h (1 Bft)
16.04.2018 00:16 9,9 °C 91 % 1009,7 hPa 0,0 mm 2,1 km/h (1 Bft) SW 217 ° 0 min 0,000 mm 0,0 UV-I 0 W/m² 8,5 °C 9,9 °C 6,4 km/h (2 Bft)
16.04.2018 00:17 9,9 °C 91 % 1009,7 hPa 0,0 mm 0,0 km/h (0 Bft) SW 217 ° 0 min 0,000 mm 0,0 UV-I 0 W/m² 8,5 °C 9,9 °C 0,0 km/h (0 Bft)
16.04.2018 00:18 9,9 °C 91 % 1009,7 hPa 0,0 mm 2,2 km/h (1 Bft) SW 220 ° 0 min 0,000 mm 0,0 UV-I 0 W/m² 8,5 °C 9,9 °C 4,8 km/h (1 Bft)
16.04.2018 00:19 9,9 °C 91 % 1009,7 hPa 0,0 mm 4,3 km/h (1 Bft) S-SW 203 ° 0 min 0,000 mm 0,0 UV-I 0 W/m² 8,5 °C 9,9 °C 6,4 km/h (2 Bft)
16.04.2018 00:20 9,9 °C 91 % 1009,6 hPa 0,0 mm 3,1 km/h (1 Bft) S-SW 207 ° 0 min 0,000 mm 0,0 UV-I 0 W/m² 8,5 °C 9,9 °C 8,0 km/h (2 Bft)
16.04.2018 00:21 9,9 °C 91 % 1009,6 hPa 0,0 mm 2,1 km/h (1 Bft) S-SW 199 ° 0 min 0,000 mm 0,0 UV-I 0 W/m² 8,5 °C 9,9 °C 4,8 km/h (1 Bft)
16.04.2018 00:22 9,9 °C 91 % 1009,6 hPa 0,0 mm 3,7 km/h (1 Bft) S-SW 209 ° 0 min 0,000 mm 0,0 UV-I 0 W/m² 8,5 °C 9,9 °C 4,8 km/h (1 Bft)
16.04.2018 00:23 10,0 °C 91 % 1009,6 hPa 0,0 mm 4,6 km/h (1 Bft) SW 214 ° 0 min 0,000 mm 0,0 UV-I 0 W/m² 8,6 °C 9,9 °C 6,4 km/h (2 Bft)
16.04.2018 00:24 10,0 °C 91 % 1009,5 hPa 0,0 mm 2,4 km/h (1 Bft) SW 214 ° 0 min 0,000 mm 0,0 UV-I 0 W/m² 8,6 °C 10,0 °C 4,8 km/h (1 Bft)
16.04.2018 00:25 9,9 °C 91 % 1009,5 hPa 0,0 mm 1,2 km/h (1 Bft) SW 214 ° 0 min 0,000 mm 0,0 UV-I 0 W/m² 8,5 °C 9,9 °C 3,2 km/h (1 Bft)
16.04.2018 00:26 9,9 °C 91 % 1009,5 hPa 0,0 mm 1,3 km/h (1 Bft) S 180 ° 0 min 0,000 mm 0,0 UV-I 0 W/m² 8,5 °C 9,9 °C 3,2 km/h (1 Bft)
16.04.2018 00:27 9,9 °C 91 % 1009,5 hPa 0,0 mm 0,6 km/h (0 Bft) S 190 ° 0 min 0,000 mm 0,0 UV-I 0 W/m² 8,5 °C 9,9 °C 1,6 km/h (1 Bft)
16.04.2018 00:28 9,9 °C 91 % 1009,5 hPa 0,0 mm 1,2 km/h (1 Bft) S 190 ° 0 min 0,000 mm 0,0 UV-I 0 W/m² 8,5 °C 9,9 °C 3,2 km/h (1 Bft)
16.04.2018 00:29 9,9 °C 91 % 1009,5 hPa 0,0 mm 0,9 km/h (0 Bft) S 190 ° 0 min 0,000 mm 0,0 UV-I 0 W/m² 8,5 °C 9,9 °C 1,6 km/h (1 Bft)
16.04.2018 00:30 9,9 °C 91 % 1009,4 hPa 0,0 mm 0,4 km/h (0 Bft) S 190 ° 0 min 0,000 mm 0,0 UV-I 0 W/m² 8,5 °C 9,9 °C 1,6 km/h (1 Bft)
16.04.2018 00:31 9,9 °C 91 % 1009,4 hPa 0,0 mm 1,3 km/h (1 Bft) S 189 ° 0 min 0,000 mm 0,0 UV-I 0 W/m² 8,5 °C 9,9 °C 3,2 km/h (1 Bft)
16.04.2018 00:32 9,9 °C 91 % 1009,5 hPa 0,0 mm 1,1 km/h (1 Bft) S 189 ° 0 min 0,000 mm 0,0 UV-I 0 W/m² 8,5 °C 9,9 °C 3,2 km/h (1 Bft)
16.04.2018 00:33 9,9 °C 91 % 1009,5 hPa 0,0 mm 0,0 km/h (0 Bft) S 189 ° 0 min 0,000 mm 0,0 UV-I 0 W/m² 8,5 °C 9,9 °C 0,0 km/h (0 Bft)
16.04.2018 00:34 9,8 °C 91 % 1009,5 hPa 0,0 mm 0,0 km/h (0 Bft) S 189 ° 0 min 0,000 mm 0,0 UV-I 0 W/m² 8,4 °C 9,8 °C 0,0 km/h (0 Bft)
16.04.2018 00:35 9,8 °C 91 % 1009,5 hPa 0,0 mm 0,0 km/h (0 Bft) S 189 ° 0 min 0,000 mm 0,0 UV-I 0 W/m² 8,4 °C 9,8 °C 0,0 km/h (0 Bft)
16.04.2018 00:36 9,8 °C 92 % 1009,5 hPa 0,0 mm 1,1 km/h (1 Bft) S-SW 200 ° 0 min 0,000 mm 0,0 UV-I 0 W/m² 8,6 °C 9,8 °C 3,2 km/h (1 Bft)
16.04.2018 00:37 9,8 °C 91 % 1009,4 hPa 0,0 mm 0,6 km/h (0 Bft) S-SW 200 ° 0 min 0,000 mm 0,0 UV-I 0 W/m² 8,4 °C 9,8 °C 3,2 km/h (1 Bft)
16.04.2018 00:38 9,7 °C 91 % 1009,4 hPa 0,0 mm 0,0 km/h (0 Bft) S-SW 200 ° 0 min 0,000 mm 0,0 UV-I 0 W/m² 8,3 °C 9,7 °C 0,0 km/h (0 Bft)
16.04.2018 00:39 9,7 °C 92 % 1009,4 hPa 0,0 mm 0,0 km/h (0 Bft) S-SW 200 ° 0 min 0,000 mm 0,0 UV-I 0 W/m² 8,5 °C 9,7 °C 0,0 km/h (0 Bft)
16.04.2018 00:40 9,7 °C 92 % 1009,4 hPa 0,0 mm 0,0 km/h (0 Bft) S-SW 200 ° 0 min 0,000 mm 0,0 UV-I 0 W/m² 8,5 °C 9,7 °C 0,0 km/h (0 Bft)
16.04.2018 00:41 9,8 °C 92 % 1009,4 hPa 0,0 mm 0,0 km/h (0 Bft) S-SW 200 ° 0 min 0,000 mm 0,0 UV-I 0 W/m² 8,6 °C 9,8 °C 0,0 km/h (0 Bft)
16.04.2018 00:42 9,7 °C 92 % 1009,4 hPa 0,0 mm 0,0 km/h (0 Bft) S-SW 200 ° 0 min 0,000 mm 0,0 UV-I 0 W/m² 8,5 °C 9,7 °C 0,0 km/h (0 Bft)
16.04.2018 00:43 9,7 °C 92 % 1009,4 hPa 0,0 mm 0,0 km/h (0 Bft) S-SW 200 ° 0 min 0,000 mm 0,0 UV-I 0 W/m² 8,5 °C 9,7 °C 0,0 km/h (0 Bft)
16.04.2018 00:44 9,7 °C 92 % 1009,4 hPa 0,0 mm 0,0 km/h (0 Bft) S-SW 200 ° 0 min 0,000 mm 0,0 UV-I 0 W/m² 8,5 °C 9,7 °C 0,0 km/h (0 Bft)
16.04.2018 00:45 9,7 °C 92 % 1009,4 hPa 0,0 mm 0,0 km/h (0 Bft) S-SW 200 ° 0 min 0,000 mm 0,0 UV-I 0 W/m² 8,5 °C 9,7 °C 0,0 km/h (0 Bft)
16.04.2018 00:46 9,7 °C 92 % 1009,4 hPa 0,0 mm 0,0 km/h (0 Bft) S-SW 202 ° 0 min 0,000 mm 0,0 UV-I 0 W/m² 8,5 °C 9,7 °C 0,0 km/h (0 Bft)
16.04.2018 00:47 9,7 °C 92 % 1009,3 hPa 0,0 mm 0,0 km/h (0 Bft) S-SW 202 ° 0 min 0,000 mm 0,0 UV-I 0 W/m² 8,5 °C 9,7 °C 0,0 km/h (0 Bft)
16.04.2018 00:48 9,7 °C 92 % 1009,4 hPa 0,0 mm 0,0 km/h (0 Bft) S-SW 202 ° 0 min 0,000 mm 0,0 UV-I 0 W/m² 8,5 °C 9,7 °C 0,0 km/h (0 Bft)
16.04.2018 00:49 9,7 °C 92 % 1009,4 hPa 0,0 mm 0,0 km/h (0 Bft) S-SW 202 ° 0 min 0,000 mm 0,0 UV-I 0 W/m² 8,5 °C 9,7 °C 0,0 km/h (0 Bft)
16.04.2018 00:50 9,7 °C 92 % 1009,4 hPa 0,0 mm 0,0 km/h (0 Bft) S-SW 202 ° 0 min 0,000 mm 0,0 UV-I 0 W/m² 8,5 °C 9,7 °C 0,0 km/h (0 Bft)
16.04.2018 00:51 9,7 °C 92 % 1009,4 hPa 0,0 mm 0,0 km/h (0 Bft) S-SW 202 ° 0 min 0,000 mm 0,0 UV-I 0 W/m² 8,5 °C 9,7 °C 0,0 km/h (0 Bft)
16.04.2018 00:52 9,7 °C 92 % 1009,4 hPa 0,0 mm 0,0 km/h (0 Bft) S-SW 202 ° 0 min 0,000 mm 0,0 UV-I 0 W/m² 8,5 °C 9,7 °C 0,0 km/h (0 Bft)
16.04.2018 00:53 9,6 °C 92 % 1009,4 hPa 0,0 mm 0,0 km/h (0 Bft) S-SW 202 ° 0 min 0,000 mm 0,0 UV-I 0 W/m² 8,4 °C 9,6 °C 0,0 km/h (0 Bft)
16.04.2018 00:54 9,6 °C 92 % 1009,2 hPa 0,0 mm 0,0 km/h (0 Bft) S-SW 202 ° 0 min 0,000 mm 0,0 UV-I 0 W/m² 8,4 °C 9,6 °C 0,0 km/h (0 Bft)
16.04.2018 00:55 9,7 °C 92 % 1009,4 hPa 0,0 mm 0,0 km/h (0 Bft) S-SW 202 ° 0 min 0,000 mm 0,0 UV-I 0 W/m² 8,5 °C 9,7 °C 0,0 km/h (0 Bft)
16.04.2018 00:56 9,6 °C 92 % 1009,4 hPa 0,0 mm 0,0 km/h (0 Bft) S-SW 202 ° 0 min 0,000 mm 0,0 UV-I 0 W/m² 8,4 °C 9,6 °C 0,0 km/h (0 Bft)
16.04.2018 00:57 9,6 °C 92 % 1009,3 hPa 0,0 mm 0,0 km/h (0 Bft) S-SW 202 ° 0 min 0,000 mm 0,0 UV-I 0 W/m² 8,4 °C 9,6 °C 0,0 km/h (0 Bft)
16.04.2018 00:58 9,6 °C 92 % 1009,3 hPa 0,0 mm 0,0 km/h (0 Bft) S-SW 202 ° 0 min 0,000 mm 0,0 UV-I 0 W/m² 8,4 °C 9,6 °C 0,0 km/h (0 Bft)
16.04.2018 00:59 9,6 °C 92 % 1009,4 hPa 0,0 mm 0,0 km/h (0 Bft) S-SW 202 ° 0 min 0,000 mm 0,0 UV-I 0 W/m² 8,4 °C 9,6 °C 0,0 km/h (0 Bft)
16.04.2018 01:00 9,5 °C 92 % 1009,3 hPa 0,0 mm 0,0 km/h (0 Bft) S-SW 202 ° 0 min 0,000 mm 0,0 UV-I 0 W/m² 8,3 °C 9,5 °C 0,0 km/h (0 Bft)
16.04.2018 01:01 9,6 °C 92 % 1009,3 hPa 0,0 mm 0,0 km/h (0 Bft) S-SW 202 ° 0 min 0,000 mm 0,0 UV-I 0 W/m² 8,4 °C 9,6 °C 0,0 km/h (0 Bft)
16.04.2018 01:02 9,6 °C 92 % 1009,4 hPa 0,0 mm 3,3 km/h (1 Bft) S-SW 202 ° 0 min 0,000 mm 0,0 UV-I 0 W/m² 8,4 °C 9,6 °C 6,4 km/h (2 Bft)
16.04.2018 01:03 9,6 °C 92 % 1009,4 hPa 0,0 mm 4,3 km/h (1 Bft) S-SW 202 ° 0 min 0,000 mm 0,0 UV-I 0 W/m² 8,4 °C 9,6 °C 4,8 km/h (1 Bft)
16.04.2018 01:04 9,6 °C 92 % 1009,4 hPa 0,0 mm 2,6 km/h (1 Bft) S-SW 194 ° 0 min 0,000 mm 0,0 UV-I 0 W/m² 8,4 °C 9,6 °C 4,8 km/h (1 Bft)
16.04.2018 01:05 9,6 °C 92 % 1009,4 hPa 0,0 mm 2,1 km/h (1 Bft) S-SW 194 ° 0 min 0,000 mm 0,0 UV-I 0 W/m² 8,4 °C 9,6 °C 3,2 km/h (1 Bft)
16.04.2018 01:06 9,6 °C 92 % 1009,4 hPa 0,0 mm 1,3 km/h (1 Bft) S-SW 194 ° 0 min 0,000 mm 0,0 UV-I 0 W/m² 8,4 °C 9,6 °C 3,2 km/h (1 Bft)
16.04.2018 01:07 9,6 °C 92 % 1009,4 hPa 0,0 mm 0,0 km/h (0 Bft) S-SW 194 ° 0 min 0,000 mm 0,0 UV-I 0 W/m² 8,4 °C 9,6 °C 0,0 km/h (0 Bft)
16.04.2018 01:08 9,6 °C 92 % 1009,4 hPa 0,0 mm 0,0 km/h (0 Bft) S-SW 194 ° 0 min 0,000 mm 0,0 UV-I 0 W/m² 8,4 °C 9,6 °C 0,0 km/h (0 Bft)
16.04.2018 01:09 9,6 °C 92 % 1009,5 hPa 0,0 mm 0,0 km/h (0 Bft) S-SW 194 ° 0 min 0,000 mm 0,0 UV-I 0 W/m² 8,4 °C 9,6 °C 0,0 km/h (0 Bft)
16.04.2018 01:10 9,6 °C 92 % 1009,5 hPa 0,0 mm 0,0 km/h (0 Bft) S-SW 194 ° 0 min 0,000 mm 0,0 UV-I 0 W/m² 8,4 °C 9,6 °C 0,0 km/h (0 Bft)
16.04.2018 01:11 9,6 °C 92 % 1009,5 hPa 0,0 mm 0,0 km/h (0 Bft) S-SW 194 ° 0 min 0,000 mm 0,0 UV-I 0 W/m² 8,4 °C 9,6 °C 0,0 km/h (0 Bft)
16.04.2018 01:12 9,5 °C 92 % 1009,5 hPa 0,0 mm 0,0 km/h (0 Bft) S-SW 194 ° 0 min 0,000 mm 0,0 UV-I 0 W/m² 8,3 °C 9,5 °C 0,0 km/h (0 Bft)
16.04.2018 01:13 9,6 °C 92 % 1009,5 hPa 0,0 mm 0,0 km/h (0 Bft) S-SW 194 ° 0 min 0,000 mm 0,0 UV-I 0 W/m² 8,4 °C 9,6 °C 0,0 km/h (0 Bft)
16.04.2018 01:14 9,6 °C 92 % 1009,5 hPa 0,0 mm 0,0 km/h (0 Bft) S-SW 194 ° 0 min 0,000 mm 0,0 UV-I 0 W/m² 8,4 °C 9,6 °C 0,0 km/h (0 Bft)
16.04.2018 01:15 9,6 °C 92 % 1009,5 hPa 0,0 mm 0,0 km/h (0 Bft) S-SW 194 ° 0 min 0,000 mm 0,0 UV-I 0 W/m² 8,4 °C 9,6 °C 0,0 km/h (0 Bft)
16.04.2018 01:16 9,6 °C 92 % 1009,5 hPa 0,0 mm 0,0 km/h (0 Bft) S-SW 194 ° 0 min 0,000 mm 0,0 UV-I 0 W/m² 8,4 °C 9,6 °C 0,0 km/h (0 Bft)
16.04.2018 01:17 9,6 °C 92 % 1009,5 hPa 0,0 mm 0,0 km/h (0 Bft) S-SW 194 ° 0 min 0,000 mm 0,0 UV-I 0 W/m² 8,4 °C 9,6 °C 0,0 km/h (0 Bft)
16.04.2018 01:18 9,5 °C 92 % 1009,5 hPa 0,0 mm 0,0 km/h (0 Bft) S-SW 194 ° 0 min 0,000 mm 0,0 UV-I 0 W/m² 8,3 °C 9,5 °C 0,0 km/h (0 Bft)
16.04.2018 01:19 9,4 °C 92 % 1009,5 hPa 0,0 mm 0,0 km/h (0 Bft) S-SW 194 ° 0 min 0,000 mm 0,0 UV-I 0 W/m² 8,2 °C 9,4 °C 0,0 km/h (0 Bft)
16.04.2018 01:20 9,4 °C 92 % 1009,5 hPa 0,0 mm 0,0 km/h (0 Bft) S-SW 194 ° 0 min 0,000 mm 0,0 UV-I 0 W/m² 8,2 °C 9,4 °C 0,0 km/h (0 Bft)
16.04.2018 01:21 9,4 °C 92 % 1009,5 hPa 0,0 mm 0,0 km/h (0 Bft) S-SW 194 ° 0 min 0,000 mm 0,0 UV-I 0 W/m² 8,2 °C 9,4 °C 0,0 km/h (0 Bft)
16.04.2018 01:22 9,4 °C 92 % 1009,4 hPa 0,0 mm 0,0 km/h (0 Bft) S-SW 194 ° 0 min 0,000 mm 0,0 UV-I 0 W/m² 8,2 °C 9,4 °C 0,0 km/h (0 Bft)
16.04.2018 01:23 9,4 °C 92 % 1009,4 hPa 0,0 mm 0,0 km/h (0 Bft) S-SW 194 ° 0 min 0,000 mm 0,0 UV-I 0 W/m² 8,2 °C 9,4 °C 0,0 km/h (0 Bft)
16.04.2018 01:24 9,3 °C 92 % 1009,5 hPa 0,0 mm 0,0 km/h (0 Bft) S-SW 194 ° 0 min 0,000 mm 0,0 UV-I 0 W/m² 8,1 °C 9,3 °C 0,0 km/h (0 Bft)
16.04.2018 01:25 9,4 °C 92 % 1009,6 hPa 0,0 mm 0,0 km/h (0 Bft) S-SW 194 ° 0 min 0,000 mm 0,0 UV-I 0 W/m² 8,2 °C 9,4 °C 0,0 km/h (0 Bft)
16.04.2018 01:26 9,4 °C 92 % 1009,5 hPa 0,0 mm 0,0 km/h (0 Bft) S-SW 194 ° 0 min 0,000 mm 0,0 UV-I 0 W/m² 8,2 °C 9,4 °C 0,0 km/h (0 Bft)
16.04.2018 01:27 9,4 °C 92 % 1009,5 hPa 0,0 mm 0,0 km/h (0 Bft) S-SW 194 ° 0 min 0,000 mm 0,0 UV-I 0 W/m² 8,2 °C 9,4 °C 0,0 km/h (0 Bft)
16.04.2018 01:28 9,4 °C 92 % 1009,6 hPa 0,0 mm 0,0 km/h (0 Bft) S-SW 194 ° 0 min 0,000 mm 0,0 UV-I 0 W/m² 8,2 °C 9,4 °C 0,0 km/h (0 Bft)
16.04.2018 01:29 9,4 °C 92 % 1009,5 hPa 0,0 mm 0,0 km/h (0 Bft) S-SW 194 ° 0 min 0,000 mm 0,0 UV-I 0 W/m² 8,2 °C 9,4 °C 0,0 km/h (0 Bft)
16.04.2018 01:30 9,4 °C 92 % 1009,5 hPa 0,0 mm 0,0 km/h (0 Bft) S-SW 194 ° 0 min 0,000 mm 0,0 UV-I 0 W/m² 8,2 °C 9,4 °C 0,0 km/h (0 Bft)
16.04.2018 01:31 9,4 °C 92 % 1009,5 hPa 0,0 mm 0,0 km/h (0 Bft) S-SW 194 ° 0 min 0,000 mm 0,0 UV-I 0 W/m² 8,2 °C 9,4 °C 0,0 km/h (0 Bft)
16.04.2018 01:32 9,4 °C 92 % 1009,5 hPa 0,0 mm 0,0 km/h (0 Bft) S-SW 194 ° 0 min 0,000 mm 0,0 UV-I 0 W/m² 8,2 °C 9,4 °C 0,0 km/h (0 Bft)
16.04.2018 01:33 9,4 °C 93 % 1009,5 hPa 0,0 mm 0,0 km/h (0 Bft) S-SW 194 ° 0 min 0,000 mm 0,0 UV-I 0 W/m² 8,3 °C 9,4 °C 0,0 km/h (0 Bft)
16.04.2018 01:34 9,4 °C 92 % 1009,5 hPa 0,0 mm 0,0 km/h (0 Bft) S-SW 194 ° 0 min 0,000 mm 0,0 UV-I 0 W/m² 8,2 °C 9,4 °C 0,0 km/h (0 Bft)
16.04.2018 01:35 9,4 °C 92 % 1009,5 hPa 0,0 mm 0,0 km/h (0 Bft) S-SW 194 ° 0 min 0,000 mm 0,0 UV-I 0 W/m² 8,2 °C 9,4 °C 0,0 km/h (0 Bft)
16.04.2018 01:36 9,4 °C 92 % 1009,5 hPa 0,0 mm 0,0 km/h (0 Bft) S-SW 194 ° 0 min 0,000 mm 0,0 UV-I 0 W/m² 8,2 °C 9,4 °C 0,0 km/h (0 Bft)
16.04.2018 01:37 9,4 °C 92 % 1009,5 hPa 0,0 mm 0,0 km/h (0 Bft) S-SW 194 ° 0 min 0,000 mm 0,0 UV-I 0 W/m² 8,2 °C 9,4 °C 0,0 km/h (0 Bft)
16.04.2018 01:38 9,4 °C 93 % 1009,5 hPa 0,0 mm 0,0 km/h (0 Bft) S-SW 194 ° 0 min 0,000 mm 0,0 UV-I 0 W/m² 8,3 °C 9,4 °C 0,0 km/h (0 Bft)
16.04.2018 01:39 9,4 °C 93 % 1009,5 hPa 0,0 mm 0,0 km/h (0 Bft) S-SW 194 ° 0 min 0,000 mm 0,0 UV-I 0 W/m² 8,3 °C 9,4 °C 0,0 km/h (0 Bft)
16.04.2018 01:40 9,4 °C 93 % 1009,5 hPa 0,0 mm 0,0 km/h (0 Bft) S-SW 194 ° 0 min 0,000 mm 0,0 UV-I 0 W/m² 8,3 °C 9,4 °C 0,0 km/h (0 Bft)
16.04.2018 01:41 9,4 °C 93 % 1009,5 hPa 0,0 mm 0,0 km/h (0 Bft) S-SW 194 ° 0 min 0,000 mm 0,0 UV-I 0 W/m² 8,3 °C 9,4 °C 0,0 km/h (0 Bft)
16.04.2018 01:42 9,4 °C 92 % 1009,5 hPa 0,0 mm 0,0 km/h (0 Bft) S-SW 194 ° 0 min 0,000 mm 0,0 UV-I 0 W/m² 8,2 °C 9,4 °C 0,0 km/h (0 Bft)
16.04.2018 01:43 9,4 °C 92 % 1009,5 hPa 0,0 mm 0,0 km/h (0 Bft) S-SW 194 ° 0 min 0,000 mm 0,0 UV-I 0 W/m² 8,2 °C 9,4 °C 0,0 km/h (0 Bft)
16.04.2018 01:44 9,4 °C 92 % 1009,5 hPa 0,0 mm 0,0 km/h (0 Bft) S-SW 194 ° 0 min 0,000 mm 0,0 UV-I 0 W/m² 8,2 °C 9,4 °C 0,0 km/h (0 Bft)
16.04.2018 01:45 9,4 °C 92 % 1009,5 hPa 0,0 mm 0,0 km/h (0 Bft) S-SW 194 ° 0 min 0,000 mm 0,0 UV-I 0 W/m² 8,2 °C 9,4 °C 0,0 km/h (0 Bft)
16.04.2018 01:46 9,4 °C 92 % 1009,5 hPa 0,0 mm 0,0 km/h (0 Bft) S-SW 194 ° 0 min 0,000 mm 0,0 UV-I 0 W/m² 8,2 °C 9,4 °C 0,0 km/h (0 Bft)
16.04.2018 01:47 9,4 °C 92 % 1009,6 hPa 0,0 mm 0,0 km/h (0 Bft) S-SW 194 ° 0 min 0,000 mm 0,0 UV-I 0 W/m² 8,2 °C 9,4 °C 0,0 km/h (0 Bft)
16.04.2018 01:48 9,4 °C 92 % 1009,6 hPa 0,0 mm 0,0 km/h (0 Bft) S-SW 194 ° 0 min 0,000 mm 0,0 UV-I 0 W/m² 8,2 °C 9,4 °C 0,0 km/h (0 Bft)
16.04.2018 01:49 9,4 °C 93 % 1009,6 hPa 0,0 mm 0,0 km/h (0 Bft) S-SW 194 ° 0 min 0,000 mm 0,0 UV-I 0 W/m² 8,3 °C 9,4 °C 0,0 km/h (0 Bft)
16.04.2018 01:50 9,4 °C 92 % 1009,5 hPa 0,0 mm 0,0 km/h (0 Bft) S-SW 194 ° 0 min 0,000 mm 0,0 UV-I 0 W/m² 8,2 °C 9,4 °C 0,0 km/h (0 Bft)
16.04.2018 01:51 9,4 °C 93 % 1009,5 hPa 0,0 mm 0,0 km/h (0 Bft) S-SW 194 ° 0 min 0,000 mm 0,0 UV-I 0 W/m² 8,3 °C 9,4 °C 0,0 km/h (0 Bft)
16.04.2018 01:52 9,4 °C 93 % 1009,5 hPa 0,0 mm 1,4 km/h (1 Bft) S-SW 194 ° 0 min 0,000 mm 0,0 UV-I 0 W/m² 8,3 °C 9,4 °C 3,2 km/h (1 Bft)
16.04.2018 01:53 9,4 °C 93 % 1009,5 hPa 0,0 mm 0,9 km/h (0 Bft) S-SW 194 ° 0 min 0,000 mm 0,0 UV-I 0 W/m² 8,3 °C 9,4 °C 3,2 km/h (1 Bft)
16.04.2018 01:54 9,4 °C 93 % 1009,5 hPa 0,0 mm 0,0 km/h (0 Bft) S-SW 194 ° 0 min 0,000 mm 0,0 UV-I 0 W/m² 8,3 °C 9,4 °C 0,0 km/h (0 Bft)
16.04.2018 01:55 9,5 °C 92 % 1009,5 hPa 0,0 mm 0,0 km/h (0 Bft) S-SW 194 ° 0 min 0,000 mm 0,0 UV-I 0 W/m² 8,3 °C 9,5 °C 0,0 km/h (0 Bft)
16.04.2018 01:56 9,4 °C 92 % 1009,5 hPa 0,0 mm 0,0 km/h (0 Bft) S-SW 194 ° 0 min 0,000 mm 0,0 UV-I 0 W/m² 8,2 °C 9,4 °C 0,0 km/h (0 Bft)
16.04.2018 01:57 9,4 °C 92 % 1009,5 hPa 0,0 mm 0,0 km/h (0 Bft) S-SW 194 ° 0 min 0,000 mm 0,0 UV-I 0 W/m² 8,2 °C 9,4 °C 0,0 km/h (0 Bft)
16.04.2018 01:58 9,5 °C 92 % 1009,5 hPa 0,0 mm 0,0 km/h (0 Bft) S-SW 194 ° 0 min 0,000 mm 0,0 UV-I 0 W/m² 8,3 °C 9,5 °C 0,0 km/h (0 Bft)
16.04.2018 01:59 9,5 °C 92 % 1009,6 hPa 0,0 mm 1,0 km/h (0 Bft) S-SW 196 ° 0 min 0,000 mm 0,0 UV-I 0 W/m² 8,3 °C 9,5 °C 3,2 km/h (1 Bft)
16.04.2018 02:00 9,4 °C 92 % 1009,6 hPa 0,0 mm 0,5 km/h (0 Bft) S-SW 196 ° 0 min 0,000 mm 0,0 UV-I 0 W/m² 8,2 °C 9,4 °C 3,2 km/h (1 Bft)
16.04.2018 02:01 9,6 °C 92 % 1009,6 hPa 0,0 mm 2,7 km/h (1 Bft) S-SW 196 ° 0 min 0,000 mm 0,0 UV-I 0 W/m² 8,4 °C 9,6 °C 6,4 km/h (2 Bft)
16.04.2018 02:02 9,6 °C 93 % 1009,6 hPa 0,0 mm 4,2 km/h (1 Bft) S-SW 205 ° 0 min 0,000 mm 0,0 UV-I 0 W/m² 8,5 °C 9,6 °C 6,4 km/h (2 Bft)
16.04.2018 02:03 9,6 °C 93 % 1009,6 hPa 0,0 mm 6,8 km/h (2 Bft) S-SW 194 ° 0 min 0,000 mm 0,0 UV-I 0 W/m² 8,5 °C 8,8 °C 11,3 km/h (2 Bft)
16.04.2018 02:04 9,6 °C 92 % 1009,6 hPa 0,0 mm 1,9 km/h (1 Bft) S-SW 194 ° 0 min 0,000 mm 0,0 UV-I 0 W/m² 8,4 °C 9,6 °C 3,2 km/h (1 Bft)
16.04.2018 02:05 9,6 °C 92 % 1009,6 hPa 0,0 mm 0,5 km/h (0 Bft) S-SW 194 ° 0 min 0,000 mm 0,0 UV-I 0 W/m² 8,4 °C 9,6 °C 1,6 km/h (1 Bft)
16.04.2018 02:06 9,6 °C 92 % 1009,6 hPa 0,0 mm 0,0 km/h (0 Bft) S-SW 194 ° 0 min 0,000 mm 0,0 UV-I 0 W/m² 8,4 °C 9,6 °C 0,0 km/h (0 Bft)
16.04.2018 02:07 9,6 °C 92 % 1009,6 hPa 0,0 mm 0,0 km/h (0 Bft) S-SW 194 ° 0 min 0,000 mm 0,0 UV-I 0 W/m² 8,4 °C 9,6 °C 0,0 km/h (0 Bft)
16.04.2018 02:08 9,6 °C 92 % 1009,6 hPa 0,0 mm 0,0 km/h (0 Bft) S-SW 194 ° 0 min 0,000 mm 0,0 UV-I 0 W/m² 8,4 °C 9,6 °C 0,0 km/h (0 Bft)
16.04.2018 02:09 9,6 °C 92 % 1009,6 hPa 0,0 mm 0,0 km/h (0 Bft) S-SW 194 ° 0 min 0,000 mm 0,0 UV-I 0 W/m² 8,4 °C 9,6 °C 0,0 km/h (0 Bft)
16.04.2018 02:10 9,6 °C 92 % 1009,6 hPa 0,0 mm 0,0 km/h (0 Bft) S-SW 194 ° 0 min 0,000 mm 0,0 UV-I 0 W/m² 8,4 °C 9,6 °C 0,0 km/h (0 Bft)
16.04.2018 02:11 9,6 °C 92 % 1009,7 hPa 0,0 mm 0,0 km/h (0 Bft) S-SW 194 ° 0 min 0,000 mm 0,0 UV-I 0 W/m² 8,4 °C 9,6 °C 0,0 km/h (0 Bft)
16.04.2018 02:12 9,6 °C 92 % 1009,7 hPa 0,0 mm 0,0 km/h (0 Bft) S-SW 194 ° 0 min 0,000 mm 0,0 UV-I 0 W/m² 8,4 °C 9,6 °C 0,0 km/h (0 Bft)
16.04.2018 02:13 9,6 °C 92 % 1009,7 hPa 0,0 mm 0,0 km/h (0 Bft) S-SW 194 ° 0 min 0,000 mm 0,0 UV-I 0 W/m² 8,4 °C 9,6 °C 0,0 km/h (0 Bft)
16.04.2018 02:14 9,6 °C 92 % 1009,7 hPa 0,0 mm 0,0 km/h (0 Bft) S-SW 194 ° 0 min 0,000 mm 0,0 UV-I 0 W/m² 8,4 °C 9,6 °C 0,0 km/h (0 Bft)
16.04.2018 02:15 9,6 °C 92 % 1009,7 hPa 0,0 mm 0,0 km/h (0 Bft) S-SW 194 ° 0 min 0,000 mm 0,0 UV-I 0 W/m² 8,4 °C 9,6 °C 0,0 km/h (0 Bft)
16.04.2018 02:16 9,6 °C 92 % 1009,7 hPa 0,0 mm 0,0 km/h (0 Bft) S-SW 194 ° 0 min 0,000 mm 0,0 UV-I 0 W/m² 8,4 °C 9,6 °C 0,0 km/h (0 Bft)
16.04.2018 02:17 9,6 °C 92 % 1009,7 hPa 0,0 mm 0,0 km/h (0 Bft) S-SW 194 ° 0 min 0,000 mm 0,0 UV-I 0 W/m² 8,4 °C 9,6 °C 0,0 km/h (0 Bft)
16.04.2018 02:18 9,6 °C 92 % 1009,7 hPa 0,0 mm 4,0 km/h (1 Bft) S-SW 196 ° 0 min 0,000 mm 0,0 UV-I 0 W/m² 8,4 °C 9,6 °C 4,8 km/h (1 Bft)
16.04.2018 02:19 9,7 °C 92 % 1009,7 hPa 0,0 mm 1,9 km/h (1 Bft) S-SW 196 ° 0 min 0,000 mm 0,0 UV-I 0 W/m² 8,5 °C 9,7 °C 3,2 km/h (1 Bft)
16.04.2018 02:20 9,6 °C 92 % 1009,7 hPa 0,0 mm 1,8 km/h (1 Bft) S-SW 196 ° 0 min 0,000 mm 0,0 UV-I 0 W/m² 8,4 °C 9,6 °C 3,2 km/h (1 Bft)
16.04.2018 02:21 9,6 °C 92 % 1009,7 hPa 0,0 mm 0,8 km/h (0 Bft) S-SW 196 ° 0 min 0,000 mm 0,0 UV-I 0 W/m² 8,4 °C 9,6 °C 1,6 km/h (1 Bft)
16.04.2018 02:22 9,6 °C 92 % 1009,7 hPa 0,2 mm 0,0 km/h (0 Bft) S-SW 196 ° 0 min 0,000 mm 0,0 UV-I 0 W/m² 8,4 °C 9,6 °C 0,0 km/h (0 Bft)
16.04.2018 02:23 9,6 °C 92 % 1009,7 hPa 0,0 mm 0,0 km/h (0 Bft) S-SW 196 ° 0 min 0,000 mm 0,0 UV-I 0 W/m² 8,4 °C 9,6 °C 0,0 km/h (0 Bft)
16.04.2018 02:24 9,6 °C 92 % 1009,7 hPa 0,0 mm 0,0 km/h (0 Bft) S-SW 196 ° 0 min 0,000 mm 0,0 UV-I 0 W/m² 8,4 °C 9,6 °C 0,0 km/h (0 Bft)
16.04.2018 02:25 9,6 °C 92 % 1009,7 hPa 0,0 mm 0,0 km/h (0 Bft) S-SW 196 ° 0 min 0,000 mm 0,0 UV-I 0 W/m² 8,4 °C 9,6 °C 0,0 km/h (0 Bft)
16.04.2018 02:26 9,6 °C 93 % 1009,7 hPa 0,0 mm 0,0 km/h (0 Bft) S-SW 196 ° 0 min 0,000 mm 0,0 UV-I 0 W/m² 8,5 °C 9,6 °C 0,0 km/h (0 Bft)
16.04.2018 02:27 9,6 °C 92 % 1009,7 hPa 0,0 mm 0,0 km/h (0 Bft) S-SW 196 ° 0 min 0,000 mm 0,0 UV-I 0 W/m² 8,4 °C 9,6 °C 0,0 km/h (0 Bft)
16.04.2018 02:28 9,6 °C 93 % 1009,7 hPa 0,0 mm 0,6 km/h (0 Bft) S-SW 196 ° 0 min 0,000 mm 0,0 UV-I 0 W/m² 8,5 °C 9,6 °C 1,6 km/h (1 Bft)
16.04.2018 02:29 9,6 °C 92 % 1009,7 hPa 0,0 mm 0,5 km/h (0 Bft) S-SW 196 ° 0 min 0,000 mm 0,0 UV-I 0 W/m² 8,4 °C 9,6 °C 1,6 km/h (1 Bft)
16.04.2018 02:30 9,5 °C 92 % 1009,7 hPa 0,0 mm 1,6 km/h (1 Bft) S-SW 196 ° 0 min 0,000 mm 0,0 UV-I 0 W/m² 8,3 °C 9,5 °C 1,6 km/h (1 Bft)
16.04.2018 02:31 9,6 °C 93 % 1009,7 hPa 0,0 mm 1,1 km/h (1 Bft) S-SW 196 ° 0 min 0,000 mm 0,0 UV-I 0 W/m² 8,5 °C 9,6 °C 1,6 km/h (1 Bft)
16.04.2018 02:32 9,5 °C 93 % 1009,7 hPa 0,0 mm 1,6 km/h (1 Bft) S-SW 196 ° 0 min 0,000 mm 0,0 UV-I 0 W/m² 8,4 °C 9,5 °C 3,2 km/h (1 Bft)
16.04.2018 02:33 9,5 °C 93 % 1009,9 hPa 0,0 mm 1,6 km/h (1 Bft) S-SW 196 ° 0 min 0,000 mm 0,0 UV-I 0 W/m² 8,4 °C 9,5 °C 1,6 km/h (1 Bft)
16.04.2018 02:34 9,6 °C 93 % 1009,7 hPa 0,0 mm 0,7 km/h (0 Bft) S-SW 196 ° 0 min 0,000 mm 0,0 UV-I 0 W/m² 8,5 °C 9,6 °C 1,6 km/h (1 Bft)
16.04.2018 02:35 9,5 °C 93 % 1009,7 hPa 0,0 mm 0,2 km/h (0 Bft) S-SW 196 ° 0 min 0,000 mm 0,0 UV-I 0 W/m² 8,4 °C 9,5 °C 1,6 km/h (1 Bft)
16.04.2018 02:36 9,4 °C 93 % 1009,7 hPa 0,0 mm 0,0 km/h (0 Bft) S-SW 196 ° 0 min 0,000 mm 0,0 UV-I 0 W/m² 8,3 °C 9,4 °C 0,0 km/h (0 Bft)
16.04.2018 02:37 9,4 °C 93 % 1009,8 hPa 0,0 mm 0,0 km/h (0 Bft) S-SW 196 ° 0 min 0,000 mm 0,0 UV-I 0 W/m² 8,3 °C 9,4 °C 0,0 km/h (0 Bft)
16.04.2018 02:38 9,4 °C 93 % 1009,8 hPa 0,0 mm 0,0 km/h (0 Bft) S-SW 196 ° 0 min 0,000 mm 0,0 UV-I 0 W/m² 8,3 °C 9,4 °C 0,0 km/h (0 Bft)
16.04.2018 02:39 9,4 °C 93 % 1009,8 hPa 0,0 mm 0,0 km/h (0 Bft) S-SW 196 ° 0 min 0,000 mm 0,0 UV-I 0 W/m² 8,3 °C 9,4 °C 0,0 km/h (0 Bft)
16.04.2018 02:40 9,4 °C 93 % 1009,8 hPa 0,0 mm 0,0 km/h (0 Bft) S-SW 196 ° 0 min 0,000 mm 0,0 UV-I 0 W/m² 8,3 °C 9,4 °C 0,0 km/h (0 Bft)
16.04.2018 02:41 9,4 °C 93 % 1009,8 hPa 0,0 mm 0,0 km/h (0 Bft) S-SW 196 ° 0 min 0,000 mm 0,0 UV-I 0 W/m² 8,3 °C 9,4 °C 0,0 km/h (0 Bft)
16.04.2018 02:42 9,4 °C 93 % 1009,8 hPa 0,0 mm 0,0 km/h (0 Bft) S-SW 196 ° 0 min 0,000 mm 0,0 UV-I 0 W/m² 8,3 °C 9,4 °C 0,0 km/h (0 Bft)
16.04.2018 02:43 9,4 °C 93 % 1009,8 hPa 0,0 mm 0,0 km/h (0 Bft) S-SW 196 ° 0 min 0,000 mm 0,0 UV-I 0 W/m² 8,3 °C 9,4 °C 0,0 km/h (0 Bft)
16.04.2018 02:44 9,3 °C 93 % 1009,8 hPa 0,0 mm 0,0 km/h (0 Bft) S-SW 196 ° 0 min 0,000 mm 0,0 UV-I 0 W/m² 8,2 °C 9,3 °C 0,0 km/h (0 Bft)
16.04.2018 02:45 9,3 °C 93 % 1009,8 hPa 0,0 mm 0,0 km/h (0 Bft) S-SW 196 ° 0 min 0,000 mm 0,0 UV-I 0 W/m² 8,2 °C 9,3 °C 0,0 km/h (0 Bft)
16.04.2018 02:46 9,3 °C 93 % 1009,8 hPa 0,0 mm 0,0 km/h (0 Bft) S-SW 196 ° 0 min 0,000 mm 0,0 UV-I 0 W/m² 8,2 °C 9,3 °C 0,0 km/h (0 Bft)
16.04.2018 02:47 9,3 °C 93 % 1009,8 hPa 0,0 mm 0,0 km/h (0 Bft) S-SW 196 ° 0 min 0,000 mm 0,0 UV-I 0 W/m² 8,2 °C 9,3 °C 0,0 km/h (0 Bft)
16.04.2018 02:48 9,3 °C 93 % 1009,8 hPa 0,0 mm 0,0 km/h (0 Bft) S-SW 196 ° 0 min 0,000 mm 0,0 UV-I 0 W/m² 8,2 °C 9,3 °C 0,0 km/h (0 Bft)
16.04.2018 02:49 9,3 °C 93 % 1009,8 hPa 0,0 mm 0,0 km/h (0 Bft) S-SW 196 ° 0 min 0,000 mm 0,0 UV-I 0 W/m² 8,2 °C 9,3 °C 0,0 km/h (0 Bft)
16.04.2018 02:50 9,3 °C 93 % 1009,8 hPa 0,0 mm 0,0 km/h (0 Bft) S-SW 196 ° 0 min 0,000 mm 0,0 UV-I 0 W/m² 8,2 °C 9,3 °C 0,0 km/h (0 Bft)
16.04.2018 02:51 9,3 °C 93 % 1009,8 hPa 0,0 mm 0,0 km/h (0 Bft) S-SW 196 ° 0 min 0,000 mm 0,0 UV-I 0 W/m² 8,2 °C 9,3 °C 0,0 km/h (0 Bft)
16.04.2018 02:52 9,3 °C 93 % 1009,8 hPa 0,0 mm 0,0 km/h (0 Bft) S-SW 196 ° 0 min 0,000 mm 0,0 UV-I 0 W/m² 8,2 °C 9,3 °C 0,0 km/h (0 Bft)
16.04.2018 02:53 9,3 °C 93 % 1009,8 hPa 0,2 mm 0,0 km/h (0 Bft) S-SW 196 ° 0 min 0,000 mm 0,0 UV-I 0 W/m² 8,2 °C 9,3 °C 0,0 km/h (0 Bft)
16.04.2018 02:54 9,3 °C 93 % 1009,8 hPa 0,0 mm 0,0 km/h (0 Bft) S-SW 196 ° 0 min 0,000 mm 0,0 UV-I 0 W/m² 8,2 °C 9,3 °C 0,0 km/h (0 Bft)
16.04.2018 02:55 9,3 °C 93 % 1009,8 hPa 0,0 mm 0,0 km/h (0 Bft) S-SW 196 ° 0 min 0,000 mm 0,0 UV-I 0 W/m² 8,2 °C 9,3 °C 0,0 km/h (0 Bft)
16.04.2018 02:56 9,3 °C 93 % 1009,7 hPa 0,0 mm 0,0 km/h (0 Bft) S-SW 196 ° 0 min 0,000 mm 0,0 UV-I 0 W/m² 8,2 °C 9,3 °C 0,0 km/h (0 Bft)
16.04.2018 02:57 9,3 °C 93 % 1009,8 hPa 0,0 mm 0,0 km/h (0 Bft) S-SW 196 ° 0 min 0,000 mm 0,0 UV-I 0 W/m² 8,2 °C 9,3 °C 0,0 km/h (0 Bft)
16.04.2018 02:58 9,3 °C 93 % 1009,8 hPa 0,0 mm 0,0 km/h (0 Bft) S-SW 196 ° 0 min 0,000 mm 0,0 UV-I 0 W/m² 8,2 °C 9,3 °C 0,0 km/h (0 Bft)
16.04.2018 02:59 9,3 °C 93 % 1009,8 hPa 0,0 mm 0,0 km/h (0 Bft) S-SW 196 ° 0 min 0,000 mm 0,0 UV-I 0 W/m² 8,2 °C 9,3 °C 0,0 km/h (0 Bft)
16.04.2018 03:00 9,3 °C 93 % 1009,8 hPa 0,0 mm 0,0 km/h (0 Bft) S-SW 196 ° 0 min 0,000 mm 0,0 UV-I 0 W/m² 8,2 °C 9,3 °C 0,0 km/h (0 Bft)
16.04.2018 03:01 9,3 °C 93 % 1009,8 hPa 0,0 mm 0,0 km/h (0 Bft) S-SW 196 ° 0 min 0,000 mm 0,0 UV-I 0 W/m² 8,2 °C 9,3 °C 0,0 km/h (0 Bft)
16.04.2018 03:02 9,3 °C 93 % 1009,8 hPa 0,0 mm 0,0 km/h (0 Bft) S-SW 196 ° 0 min 0,000 mm 0,0 UV-I 0 W/m² 8,2 °C 9,3 °C 0,0 km/h (0 Bft)
16.04.2018 03:03 9,3 °C 93 % 1009,8 hPa 0,0 mm 0,0 km/h (0 Bft) S-SW 196 ° 0 min 0,000 mm 0,0 UV-I 0 W/m² 8,2 °C 9,3 °C 0,0 km/h (0 Bft)
16.04.2018 03:04 9,3 °C 93 % 1009,8 hPa 0,0 mm 0,0 km/h (0 Bft) S-SW 196 ° 0 min 0,000 mm 0,0 UV-I 0 W/m² 8,2 °C 9,3 °C 0,0 km/h (0 Bft)
16.04.2018 03:05 9,2 °C 93 % 1009,8 hPa 0,0 mm 0,0 km/h (0 Bft) S-SW 196 ° 0 min 0,000 mm 0,0 UV-I 0 W/m² 8,1 °C 9,2 °C 0,0 km/h (0 Bft)
16.04.2018 03:06 9,3 °C 94 % 1009,7 hPa 0,0 mm 0,0 km/h (0 Bft) S-SW 196 ° 0 min 0,000 mm 0,0 UV-I 0 W/m² 8,4 °C 9,3 °C 0,0 km/h (0 Bft)
16.04.2018 03:07 9,3 °C 94 % 1009,7 hPa 0,0 mm 0,0 km/h (0 Bft) S-SW 196 ° 0 min 0,000 mm 0,0 UV-I 0 W/m² 8,4 °C 9,3 °C 0,0 km/h (0 Bft)
16.04.2018 03:08 9,2 °C 94 % 1009,7 hPa 0,0 mm 0,0 km/h (0 Bft) S-SW 196 ° 0 min 0,000 mm 0,0 UV-I 0 W/m² 8,3 °C 9,2 °C 0,0 km/h (0 Bft)
16.04.2018 03:09 9,2 °C 94 % 1009,7 hPa 0,0 mm 0,0 km/h (0 Bft) S-SW 196 ° 0 min 0,000 mm 0,0 UV-I 0 W/m² 8,3 °C 9,2 °C 0,0 km/h (0 Bft)
16.04.2018 03:10 9,3 °C 94 % 1009,7 hPa 0,0 mm 0,0 km/h (0 Bft) S-SW 196 ° 0 min 0,000 mm 0,0 UV-I 0 W/m² 8,4 °C 9,3 °C 0,0 km/h (0 Bft)
16.04.2018 03:11 9,2 °C 94 % 1009,8 hPa 0,2 mm 0,0 km/h (0 Bft) S-SW 196 ° 0 min 0,000 mm 0,0 UV-I 0 W/m² 8,3 °C 9,2 °C 0,0 km/h (0 Bft)
16.04.2018 03:12 9,3 °C 94 % 1009,7 hPa 0,0 mm 0,0 km/h (0 Bft) S-SW 196 ° 0 min 0,000 mm 0,0 UV-I 0 W/m² 8,4 °C 9,3 °C 0,0 km/h (0 Bft)
16.04.2018 03:13 9,2 °C 94 % 1009,8 hPa 0,0 mm 0,0 km/h (0 Bft) S-SW 196 ° 0 min 0,000 mm 0,0 UV-I 0 W/m² 8,3 °C 9,2 °C 0,0 km/h (0 Bft)
16.04.2018 03:14 9,2 °C 94 % 1009,7 hPa 0,0 mm 0,0 km/h (0 Bft) S-SW 196 ° 0 min 0,000 mm 0,0 UV-I 0 W/m² 8,3 °C 9,2 °C 0,0 km/h (0 Bft)
16.04.2018 03:15 9,2 °C 94 % 1009,8 hPa 0,0 mm 0,0 km/h (0 Bft) S-SW 196 ° 0 min 0,000 mm 0,0 UV-I 0 W/m² 8,3 °C 9,2 °C 0,0 km/h (0 Bft)
16.04.2018 03:16 9,2 °C 94 % 1009,8 hPa 0,0 mm 0,0 km/h (0 Bft) S-SW 196 ° 0 min 0,000 mm 0,0 UV-I 0 W/m² 8,3 °C 9,2 °C 0,0 km/h (0 Bft)
16.04.2018 03:17 9,2 °C 94 % 1009,6 hPa 0,0 mm 0,0 km/h (0 Bft) S-SW 196 ° 0 min 0,000 mm 0,0 UV-I 0 W/m² 8,3 °C 9,2 °C 0,0 km/h (0 Bft)
16.04.2018 03:18 9,2 °C 94 % 1009,6 hPa 0,0 mm 0,0 km/h (0 Bft) S-SW 196 ° 0 min 0,000 mm 0,0 UV-I 0 W/m² 8,3 °C 9,2 °C 0,0 km/h (0 Bft)
16.04.2018 03:19 9,2 °C 94 % 1009,7 hPa 0,0 mm 0,0 km/h (0 Bft) S-SW 196 ° 0 min 0,000 mm 0,0 UV-I 0 W/m² 8,3 °C 9,2 °C 0,0 km/h (0 Bft)
16.04.2018 03:20 9,2 °C 94 % 1009,7 hPa 0,0 mm 0,0 km/h (0 Bft) S-SW 196 ° 0 min 0,000 mm 0,0 UV-I 0 W/m² 8,3 °C 9,2 °C 0,0 km/h (0 Bft)
16.04.2018 03:21 9,2 °C 94 % 1009,7 hPa 0,0 mm 0,0 km/h (0 Bft) S-SW 196 ° 0 min 0,000 mm 0,0 UV-I 0 W/m² 8,3 °C 9,2 °C 0,0 km/h (0 Bft)
16.04.2018 03:22 9,2 °C 94 % 1009,7 hPa 0,0 mm 0,0 km/h (0 Bft) S-SW 196 ° 0 min 0,000 mm 0,0 UV-I 0 W/m² 8,3 °C 9,2 °C 0,0 km/h (0 Bft)
16.04.2018 03:23 9,2 °C 94 % 1009,7 hPa 0,0 mm 0,0 km/h (0 Bft) S-SW 196 ° 0 min 0,000 mm 0,0 UV-I 0 W/m² 8,3 °C 9,2 °C 0,0 km/h (0 Bft)
16.04.2018 03:24 9,2 °C 94 % 1009,7 hPa 0,0 mm 0,0 km/h (0 Bft) S-SW 196 ° 0 min 0,000 mm 0,0 UV-I 0 W/m² 8,3 °C 9,2 °C 0,0 km/h (0 Bft)
16.04.2018 03:25 9,2 °C 94 % 1009,7 hPa 0,0 mm 0,0 km/h (0 Bft) S-SW 196 ° 0 min 0,000 mm 0,0 UV-I 0 W/m² 8,3 °C 9,2 °C 0,0 km/h (0 Bft)
16.04.2018 03:26 9,2 °C 94 % 1009,7 hPa 0,0 mm 0,0 km/h (0 Bft) S-SW 196 ° 0 min 0,000 mm 0,0 UV-I 0 W/m² 8,3 °C 9,2 °C 0,0 km/h (0 Bft)
16.04.2018 03:27 9,2 °C 94 % 1009,7 hPa 0,0 mm 0,0 km/h (0 Bft) S-SW 196 ° 0 min 0,000 mm 0,0 UV-I 0 W/m² 8,3 °C 9,2 °C 0,0 km/h (0 Bft)
16.04.2018 03:28 9,2 °C 94 % 1009,7 hPa 0,0 mm 0,0 km/h (0 Bft) S-SW 196 ° 0 min 0,000 mm 0,0 UV-I 0 W/m² 8,3 °C 9,2 °C 0,0 km/h (0 Bft)
16.04.2018 03:29 9,2 °C 94 % 1009,7 hPa 0,0 mm 0,0 km/h (0 Bft) S-SW 196 ° 0 min 0,000 mm 0,0 UV-I 0 W/m² 8,3 °C 9,2 °C 0,0 km/h (0 Bft)
16.04.2018 03:30 9,2 °C 94 % 1009,7 hPa 0,0 mm 0,0 km/h (0 Bft) S-SW 196 ° 0 min 0,000 mm 0,0 UV-I 0 W/m² 8,3 °C 9,2 °C 0,0 km/h (0 Bft)
16.04.2018 03:31 9,1 °C 94 % 1009,7 hPa 0,0 mm 0,0 km/h (0 Bft) S-SW 196 ° 0 min 0,000 mm 0,0 UV-I 0 W/m² 8,2 °C 9,1 °C 0,0 km/h (0 Bft)
16.04.2018 03:32 9,2 °C 94 % 1009,7 hPa 0,0 mm 0,0 km/h (0 Bft) S-SW 196 ° 0 min 0,000 mm 0,0 UV-I 0 W/m² 8,3 °C 9,2 °C 0,0 km/h (0 Bft)
16.04.2018 03:33 9,2 °C 94 % 1009,7 hPa 0,0 mm 0,0 km/h (0 Bft) S-SW 196 ° 0 min 0,000 mm 0,0 UV-I 0 W/m² 8,3 °C 9,2 °C 0,0 km/h (0 Bft)
16.04.2018 03:34 9,2 °C 94 % 1009,7 hPa 0,0 mm 0,0 km/h (0 Bft) S-SW 196 ° 0 min 0,000 mm 0,0 UV-I 0 W/m² 8,3 °C 9,2 °C 0,0 km/h (0 Bft)
16.04.2018 03:35 9,2 °C 94 % 1009,7 hPa 0,0 mm 0,0 km/h (0 Bft) S-SW 196 ° 0 min 0,000 mm 0,0 UV-I 0 W/m² 8,3 °C 9,2 °C 0,0 km/h (0 Bft)
16.04.2018 03:36 9,2 °C 94 % 1009,7 hPa 0,0 mm 0,0 km/h (0 Bft) S-SW 196 ° 0 min 0,000 mm 0,0 UV-I 0 W/m² 8,3 °C 9,2 °C 0,0 km/h (0 Bft)
16.04.2018 03:37 9,2 °C 94 % 1009,8 hPa 0,0 mm 0,0 km/h (0 Bft) S-SW 196 ° 0 min 0,000 mm 0,0 UV-I 0 W/m² 8,3 °C 9,2 °C 0,0 km/h (0 Bft)
16.04.2018 03:38 9,2 °C 94 % 1009,8 hPa 0,2 mm 0,0 km/h (0 Bft) S-SW 196 ° 0 min 0,000 mm 0,0 UV-I 0 W/m² 8,3 °C 9,2 °C 0,0 km/h (0 Bft)
16.04.2018 03:39 9,1 °C 94 % 1009,8 hPa 0,0 mm 0,0 km/h (0 Bft) S-SW 196 ° 0 min 0,000 mm 0,0 UV-I 0 W/m² 8,2 °C 9,1 °C 0,0 km/h (0 Bft)
16.04.2018 03:40 9,1 °C 94 % 1009,8 hPa 0,0 mm 0,0 km/h (0 Bft) S-SW 196 ° 0 min 0,000 mm 0,0 UV-I 0 W/m² 8,2 °C 9,1 °C 0,0 km/h (0 Bft)
16.04.2018 03:41 9,1 °C 94 % 1009,8 hPa 0,0 mm 0,0 km/h (0 Bft) S-SW 196 ° 0 min 0,000 mm 0,0 UV-I 0 W/m² 8,2 °C 9,1 °C 0,0 km/h (0 Bft)
16.04.2018 03:42 9,1 °C 94 % 1009,8 hPa 0,0 mm 0,0 km/h (0 Bft) S-SW 196 ° 0 min 0,000 mm 0,0 UV-I 0 W/m² 8,2 °C 9,1 °C 0,0 km/h (0 Bft)
16.04.2018 03:43 9,1 °C 94 % 1009,8 hPa 0,0 mm 0,0 km/h (0 Bft) S-SW 196 ° 0 min 0,000 mm 0,0 UV-I 0 W/m² 8,2 °C 9,1 °C 0,0 km/h (0 Bft)
16.04.2018 03:44 9,1 °C 94 % 1009,8 hPa 0,0 mm 0,0 km/h (0 Bft) S-SW 196 ° 0 min 0,000 mm 0,0 UV-I 0 W/m² 8,2 °C 9,1 °C 0,0 km/h (0 Bft)
16.04.2018 03:45 9,0 °C 94 % 1009,7 hPa 0,0 mm 0,0 km/h (0 Bft) S-SW 196 ° 0 min 0,000 mm 0,0 UV-I 0 W/m² 8,1 °C 9,0 °C 0,0 km/h (0 Bft)
16.04.2018 03:46 9,1 °C 94 % 1009,8 hPa 0,0 mm 0,0 km/h (0 Bft) S-SW 196 ° 0 min 0,000 mm 0,0 UV-I 0 W/m² 8,2 °C 9,1 °C 0,0 km/h (0 Bft)
16.04.2018 03:47 9,1 °C 94 % 1009,8 hPa 0,0 mm 0,0 km/h (0 Bft) S-SW 196 ° 0 min 0,000 mm 0,0 UV-I 0 W/m² 8,2 °C 9,1 °C 0,0 km/h (0 Bft)
16.04.2018 03:48 9,1 °C 94 % 1009,8 hPa 0,0 mm 0,0 km/h (0 Bft) S-SW 196 ° 0 min 0,000 mm 0,0 UV-I 0 W/m² 8,2 °C 9,1 °C 0,0 km/h (0 Bft)
16.04.2018 03:49 9,1 °C 94 % 1009,8 hPa 0,0 mm 0,0 km/h (0 Bft) S-SW 196 ° 0 min 0,000 mm 0,0 UV-I 0 W/m² 8,2 °C 9,1 °C 0,0 km/h (0 Bft)
16.04.2018 03:50 9,1 °C 94 % 1009,8 hPa 0,0 mm 0,0 km/h (0 Bft) S-SW 196 ° 0 min 0,000 mm 0,0 UV-I 0 W/m² 8,2 °C 9,1 °C 0,0 km/h (0 Bft)
16.04.2018 03:51 9,1 °C 94 % 1009,8 hPa 0,0 mm 0,0 km/h (0 Bft) S-SW 196 ° 0 min 0,000 mm 0,0 UV-I 0 W/m² 8,2 °C 9,1 °C 0,0 km/h (0 Bft)
16.04.2018 03:52 9,1 °C 94 % 1009,8 hPa 0,0 mm 0,0 km/h (0 Bft) S-SW 196 ° 0 min 0,000 mm 0,0 UV-I 0 W/m² 8,2 °C 9,1 °C 0,0 km/h (0 Bft)
16.04.2018 03:53 9,1 °C 94 % 1009,8 hPa 0,0 mm 0,0 km/h (0 Bft) S-SW 196 ° 0 min 0,000 mm 0,0 UV-I 0 W/m² 8,2 °C 9,1 °C 0,0 km/h (0 Bft)
16.04.2018 03:54 9,1 °C 94 % 1009,9 hPa 0,0 mm 0,0 km/h (0 Bft) S-SW 196 ° 0 min 0,000 mm 0,0 UV-I 0 W/m² 8,2 °C 9,1 °C 0,0 km/h (0 Bft)
16.04.2018 03:55 9,1 °C 94 % 1009,8 hPa 0,0 mm 0,0 km/h (0 Bft) S-SW 196 ° 0 min 0,000 mm 0,0 UV-I 0 W/m² 8,2 °C 9,1 °C 0,0 km/h (0 Bft)
16.04.2018 03:56 9,0 °C 94 % 1009,8 hPa 0,2 mm 0,0 km/h (0 Bft) S-SW 196 ° 0 min 0,000 mm 0,0 UV-I 0 W/m² 8,1 °C 9,0 °C 0,0 km/h (0 Bft)
16.04.2018 03:57 9,0 °C 94 % 1009,8 hPa 0,0 mm 0,0 km/h (0 Bft) S-SW 196 ° 0 min 0,000 mm 0,0 UV-I 0 W/m² 8,1 °C 9,0 °C 0,0 km/h (0 Bft)
16.04.2018 03:58 9,0 °C 94 % 1009,8 hPa 0,0 mm 0,0 km/h (0 Bft) S-SW 196 ° 0 min 0,000 mm 0,0 UV-I 0 W/m² 8,1 °C 9,0 °C 0,0 km/h (0 Bft)
16.04.2018 03:59 9,0 °C 94 % 1009,8 hPa 0,0 mm 0,0 km/h (0 Bft) S-SW 196 ° 0 min 0,000 mm 0,0 UV-I 0 W/m² 8,1 °C 9,0 °C 0,0 km/h (0 Bft)
16.04.2018 04:00 9,0 °C 94 % 1009,8 hPa 0,0 mm 0,0 km/h (0 Bft) S-SW 196 ° 0 min 0,000 mm 0,0 UV-I 0 W/m² 8,1 °C 9,0 °C 0,0 km/h (0 Bft)
16.04.2018 04:01 8,9 °C 94 % 1009,8 hPa 0,0 mm 0,0 km/h (0 Bft) S-SW 196 ° 0 min 0,000 mm 0,0 UV-I 0 W/m² 8,0 °C 8,9 °C 0,0 km/h (0 Bft)
16.04.2018 04:02 9,0 °C 94 % 1009,8 hPa 0,0 mm 0,0 km/h (0 Bft) S-SW 196 ° 0 min 0,000 mm 0,0 UV-I 0 W/m² 8,1 °C 9,0 °C 0,0 km/h (0 Bft)
16.04.2018 04:03 9,0 °C 94 % 1009,8 hPa 0,0 mm 0,0 km/h (0 Bft) S-SW 196 ° 0 min 0,000 mm 0,0 UV-I 0 W/m² 8,1 °C 9,0 °C 0,0 km/h (0 Bft)
16.04.2018 04:04 8,9 °C 94 % 1009,9 hPa 0,0 mm 0,1 km/h (0 Bft) S-SW 196 ° 0 min 0,000 mm 0,0 UV-I 0 W/m² 8,0 °C 8,9 °C 1,6 km/h (1 Bft)
16.04.2018 04:05 8,9 °C 94 % 1009,9 hPa 0,0 mm 0,1 km/h (0 Bft) S-SW 196 ° 0 min 0,000 mm 0,0 UV-I 0 W/m² 8,0 °C 8,9 °C 1,6 km/h (1 Bft)
16.04.2018 04:06 8,9 °C 94 % 1009,9 hPa 0,0 mm 0,2 km/h (0 Bft) S-SW 196 ° 0 min 0,000 mm 0,0 UV-I 0 W/m² 8,0 °C 8,9 °C 1,6 km/h (1 Bft)
16.04.2018 04:07 8,9 °C 94 % 1009,9 hPa 0,0 mm 0,0 km/h (0 Bft) S-SW 196 ° 0 min 0,000 mm 0,0 UV-I 0 W/m² 8,0 °C 8,9 °C 0,0 km/h (0 Bft)
16.04.2018 04:08 8,9 °C 94 % 1009,9 hPa 0,0 mm 0,3 km/h (0 Bft) S-SW 196 ° 0 min 0,000 mm 0,0 UV-I 0 W/m² 8,0 °C 8,9 °C 1,6 km/h (1 Bft)
16.04.2018 04:09 8,9 °C 94 % 1009,9 hPa 0,0 mm 1,4 km/h (1 Bft) S 188 ° 0 min 0,000 mm 0,0 UV-I 0 W/m² 8,0 °C 8,9 °C 4,8 km/h (1 Bft)
16.04.2018 04:10 8,9 °C 94 % 1009,9 hPa 0,0 mm 2,5 km/h (1 Bft) S-SW 205 ° 0 min 0,000 mm 0,0 UV-I 0 W/m² 8,0 °C 8,9 °C 4,8 km/h (1 Bft)
16.04.2018 04:11 8,9 °C 94 % 1009,9 hPa 0,0 mm 4,1 km/h (1 Bft) S-SW 211 ° 0 min 0,000 mm 0,0 UV-I 0 W/m² 8,0 °C 8,9 °C 4,8 km/h (1 Bft)
16.04.2018 04:12 8,9 °C 94 % 1009,9 hPa 0,0 mm 2,8 km/h (1 Bft) SW 229 ° 0 min 0,000 mm 0,0 UV-I 0 W/m² 8,0 °C 8,9 °C 4,8 km/h (1 Bft)
16.04.2018 04:13 8,9 °C 94 % 1010,0 hPa 0,0 mm 1,1 km/h (1 Bft) SW 229 ° 0 min 0,000 mm 0,0 UV-I 0 W/m² 8,0 °C 8,9 °C 3,2 km/h (1 Bft)
16.04.2018 04:14 8,9 °C 94 % 1009,9 hPa 0,0 mm 1,4 km/h (1 Bft) SW 229 ° 0 min 0,000 mm 0,0 UV-I 0 W/m² 8,0 °C 8,9 °C 1,6 km/h (1 Bft)
16.04.2018 04:15 8,9 °C 94 % 1010,0 hPa 0,0 mm 0,6 km/h (0 Bft) SW 229 ° 0 min 0,000 mm 0,0 UV-I 0 W/m² 8,0 °C 8,9 °C 3,2 km/h (1 Bft)
16.04.2018 04:16 8,9 °C 94 % 1009,9 hPa 0,0 mm 3,0 km/h (1 Bft) SW 228 ° 0 min 0,000 mm 0,0 UV-I 0 W/m² 8,0 °C 8,9 °C 4,8 km/h (1 Bft)
16.04.2018 04:17 8,9 °C 94 % 1010,0 hPa 0,0 mm 0,5 km/h (0 Bft) SW 228 ° 0 min 0,000 mm 0,0 UV-I 0 W/m² 8,0 °C 8,9 °C 1,6 km/h (1 Bft)
16.04.2018 04:18 8,9 °C 94 % 1010,0 hPa 0,0 mm 1,4 km/h (1 Bft) SW 228 ° 0 min 0,000 mm 0,0 UV-I 0 W/m² 8,0 °C 8,9 °C 3,2 km/h (1 Bft)
16.04.2018 04:19 8,9 °C 94 % 1010,0 hPa 0,0 mm 0,1 km/h (0 Bft) SW 228 ° 0 min 0,000 mm 0,0 UV-I 0 W/m² 8,0 °C 8,9 °C 1,6 km/h (1 Bft)
16.04.2018 04:20 8,9 °C 94 % 1009,9 hPa 0,2 mm 0,0 km/h (0 Bft) SW 228 ° 0 min 0,000 mm 0,0 UV-I 0 W/m² 8,0 °C 8,9 °C 0,0 km/h (0 Bft)
16.04.2018 04:21 8,8 °C 94 % 1009,9 hPa 0,0 mm 0,4 km/h (0 Bft) SW 228 ° 0 min 0,000 mm 0,0 UV-I 0 W/m² 7,9 °C 8,8 °C 3,2 km/h (1 Bft)
16.04.2018 04:22 8,9 °C 94 % 1010,0 hPa 0,0 mm 0,7 km/h (0 Bft) SW 228 ° 0 min 0,000 mm 0,0 UV-I 0 W/m² 8,0 °C 8,9 °C 3,2 km/h (1 Bft)
16.04.2018 04:23 8,9 °C 94 % 1010,0 hPa 0,0 mm 0,0 km/h (0 Bft) SW 228 ° 0 min 0,000 mm 0,0 UV-I 0 W/m² 8,0 °C 8,9 °C 0,0 km/h (0 Bft)
16.04.2018 04:24 8,9 °C 94 % 1009,9 hPa 0,0 mm 0,0 km/h (0 Bft) SW 228 ° 0 min 0,000 mm 0,0 UV-I 0 W/m² 8,0 °C 8,9 °C 0,0 km/h (0 Bft)
16.04.2018 04:25 8,8 °C 94 % 1009,9 hPa 0,0 mm 0,0 km/h (0 Bft) SW 228 ° 0 min 0,000 mm 0,0 UV-I 0 W/m² 7,9 °C 8,8 °C 0,0 km/h (0 Bft)
16.04.2018 04:26 8,8 °C 94 % 1010,0 hPa 0,0 mm 0,0 km/h (0 Bft) SW 228 ° 0 min 0,000 mm 0,0 UV-I 0 W/m² 7,9 °C 8,8 °C 0,0 km/h (0 Bft)
16.04.2018 04:27 8,8 °C 94 % 1010,0 hPa 0,0 mm 0,0 km/h (0 Bft) SW 228 ° 0 min 0,000 mm 0,0 UV-I 0 W/m² 7,9 °C 8,8 °C 0,0 km/h (0 Bft)
16.04.2018 04:28 8,8 °C 94 % 1010,0 hPa 0,0 mm 0,0 km/h (0 Bft) SW 228 ° 0 min 0,000 mm 0,0 UV-I 0 W/m² 7,9 °C 8,8 °C 0,0 km/h (0 Bft)
16.04.2018 04:29 8,8 °C 94 % 1009,9 hPa 0,0 mm 0,0 km/h (0 Bft) SW 228 ° 0 min 0,000 mm 0,0 UV-I 0 W/m² 7,9 °C 8,8 °C 0,0 km/h (0 Bft)
16.04.2018 04:30 8,8 °C 94 % 1009,9 hPa 0,0 mm 0,0 km/h (0 Bft) SW 228 ° 0 min 0,000 mm 0,0 UV-I 0 W/m² 7,9 °C 8,8 °C 0,0 km/h (0 Bft)
16.04.2018 04:31 8,8 °C 94 % 1010,0 hPa 0,0 mm 0,0 km/h (0 Bft) SW 228 ° 0 min 0,000 mm 0,0 UV-I 0 W/m² 7,9 °C 8,8 °C 0,0 km/h (0 Bft)
16.04.2018 04:32 8,8 °C 94 % 1009,9 hPa 0,0 mm 0,0 km/h (0 Bft) SW 228 ° 0 min 0,000 mm 0,0 UV-I 0 W/m² 7,9 °C 8,8 °C 0,0 km/h (0 Bft)
16.04.2018 04:33 8,8 °C 94 % 1010,0 hPa 0,0 mm 0,0 km/h (0 Bft) SW 228 ° 0 min 0,000 mm 0,0 UV-I 0 W/m² 7,9 °C 8,8 °C 0,0 km/h (0 Bft)
16.04.2018 04:34 8,8 °C 94 % 1009,9 hPa 0,0 mm 0,0 km/h (0 Bft) SW 228 ° 0 min 0,000 mm 0,0 UV-I 0 W/m² 7,9 °C 8,8 °C 0,0 km/h (0 Bft)
16.04.2018 04:35 8,8 °C 94 % 1009,9 hPa 0,0 mm 0,7 km/h (0 Bft) SW 228 ° 0 min 0,000 mm 0,0 UV-I 0 W/m² 7,9 °C 8,8 °C 1,6 km/h (1 Bft)
16.04.2018 04:36 8,8 °C 94 % 1010,0 hPa 0,0 mm 1,9 km/h (1 Bft) SW 228 ° 0 min 0,000 mm 0,0 UV-I 0 W/m² 7,9 °C 8,8 °C 3,2 km/h (1 Bft)
16.04.2018 04:37 8,8 °C 94 % 1010,0 hPa 0,0 mm 3,0 km/h (1 Bft) SW 217 ° 0 min 0,000 mm 0,0 UV-I 0 W/m² 7,9 °C 8,8 °C 4,8 km/h (1 Bft)
16.04.2018 04:38 8,8 °C 94 % 1010,0 hPa 0,0 mm 0,4 km/h (0 Bft) S-SW 209 ° 0 min 0,000 mm 0,0 UV-I 0 W/m² 7,9 °C 8,8 °C 1,6 km/h (1 Bft)
16.04.2018 04:39 8,8 °C 94 % 1010,0 hPa 0,0 mm 0,3 km/h (0 Bft) S-SW 209 ° 0 min 0,000 mm 0,0 UV-I 0 W/m² 7,9 °C 8,8 °C 1,6 km/h (1 Bft)
16.04.2018 04:40 8,8 °C 94 % 1010,0 hPa 0,2 mm 0,1 km/h (0 Bft) S-SW 209 ° 0 min 0,000 mm 0,0 UV-I 0 W/m² 7,9 °C 8,8 °C 1,6 km/h (1 Bft)
16.04.2018 04:41 8,8 °C 94 % 1010,0 hPa 0,0 mm 0,0 km/h (0 Bft) S-SW 209 ° 0 min 0,000 mm 0,0 UV-I 0 W/m² 7,9 °C 8,8 °C 0,0 km/h (0 Bft)
16.04.2018 04:42 8,8 °C 94 % 1010,0 hPa 0,0 mm 0,0 km/h (0 Bft) S-SW 209 ° 0 min 0,000 mm 0,0 UV-I 0 W/m² 7,9 °C 8,8 °C 0,0 km/h (0 Bft)
16.04.2018 04:43 8,8 °C 94 % 1010,0 hPa 0,0 mm 0,0 km/h (0 Bft) S-SW 209 ° 0 min 0,000 mm 0,0 UV-I 0 W/m² 7,9 °C 8,8 °C 0,0 km/h (0 Bft)
16.04.2018 04:44 8,7 °C 94 % 1010,0 hPa 0,0 mm 0,0 km/h (0 Bft) S-SW 209 ° 0 min 0,000 mm 0,0 UV-I 0 W/m² 7,8 °C 8,7 °C 0,0 km/h (0 Bft)
16.04.2018 04:45 8,7 °C 94 % 1010,0 hPa 0,0 mm 0,0 km/h (0 Bft) S-SW 209 ° 0 min 0,000 mm 0,0 UV-I 0 W/m² 7,8 °C 8,7 °C 0,0 km/h (0 Bft)
16.04.2018 04:46 8,7 °C 94 % 1009,9 hPa 0,0 mm 0,0 km/h (0 Bft) S-SW 209 ° 0 min 0,000 mm 0,0 UV-I 0 W/m² 7,8 °C 8,7 °C 0,0 km/h (0 Bft)
16.04.2018 04:47 8,7 °C 94 % 1009,9 hPa 0,0 mm 0,0 km/h (0 Bft) S-SW 209 ° 0 min 0,000 mm 0,0 UV-I 0 W/m² 7,8 °C 8,7 °C 0,0 km/h (0 Bft)
16.04.2018 04:48 8,7 °C 94 % 1009,9 hPa 0,0 mm 0,0 km/h (0 Bft) S-SW 209 ° 0 min 0,000 mm 0,0 UV-I 0 W/m² 7,8 °C 8,7 °C 0,0 km/h (0 Bft)
16.04.2018 04:49 8,7 °C 94 % 1009,9 hPa 0,0 mm 0,0 km/h (0 Bft) S-SW 209 ° 0 min 0,000 mm 0,0 UV-I 0 W/m² 7,8 °C 8,7 °C 0,0 km/h (0 Bft)
16.04.2018 04:50 8,7 °C 94 % 1009,9 hPa 0,0 mm 0,0 km/h (0 Bft) S-SW 209 ° 0 min 0,000 mm 0,0 UV-I 0 W/m² 7,8 °C 8,7 °C 0,0 km/h (0 Bft)
16.04.2018 04:51 8,7 °C 94 % 1009,8 hPa 0,0 mm 0,0 km/h (0 Bft) S-SW 209 ° 0 min 0,000 mm 0,0 UV-I 0 W/m² 7,8 °C 8,7 °C 0,0 km/h (0 Bft)
16.04.2018 04:52 8,7 °C 94 % 1009,9 hPa 0,0 mm 0,0 km/h (0 Bft) S-SW 209 ° 0 min 0,000 mm 0,0 UV-I 0 W/m² 7,8 °C 8,7 °C 0,0 km/h (0 Bft)
16.04.2018 04:53 8,6 °C 94 % 1009,8 hPa 0,0 mm 0,0 km/h (0 Bft) S-SW 209 ° 0 min 0,000 mm 0,0 UV-I 0 W/m² 7,7 °C 8,6 °C 0,0 km/h (0 Bft)
16.04.2018 04:54 8,7 °C 94 % 1009,8 hPa 0,0 mm 0,0 km/h (0 Bft) S-SW 209 ° 0 min 0,000 mm 0,0 UV-I 0 W/m² 7,8 °C 8,7 °C 0,0 km/h (0 Bft)
16.04.2018 04:55 8,7 °C 94 % 1009,8 hPa 0,0 mm 0,0 km/h (0 Bft) S-SW 209 ° 0 min 0,000 mm 0,0 UV-I 0 W/m² 7,8 °C 8,7 °C 0,0 km/h (0 Bft)
16.04.2018 04:56 8,7 °C 94 % 1009,9 hPa 0,0 mm 0,0 km/h (0 Bft) S-SW 209 ° 0 min 0,000 mm 0,0 UV-I 0 W/m² 7,8 °C 8,7 °C 0,0 km/h (0 Bft)
16.04.2018 04:57 8,7 °C 94 % 1009,8 hPa 0,0 mm 0,0 km/h (0 Bft) S-SW 209 ° 0 min 0,000 mm 0,0 UV-I 0 W/m² 7,8 °C 8,7 °C 0,0 km/h (0 Bft)
16.04.2018 04:58 8,7 °C 94 % 1009,8 hPa 0,0 mm 0,0 km/h (0 Bft) S-SW 209 ° 0 min 0,000 mm 0,0 UV-I 0 W/m² 7,8 °C 8,7 °C 0,0 km/h (0 Bft)
16.04.2018 04:59 8,7 °C 94 % 1009,8 hPa 0,0 mm 0,0 km/h (0 Bft) S-SW 209 ° 0 min 0,000 mm 0,0 UV-I 0 W/m² 7,8 °C 8,7 °C 0,0 km/h (0 Bft)
16.04.2018 05:00 8,6 °C 94 % 1009,8 hPa 0,2 mm 0,0 km/h (0 Bft) S-SW 209 ° 0 min 0,000 mm 0,0 UV-I 0 W/m² 7,7 °C 8,6 °C 0,0 km/h (0 Bft)
16.04.2018 05:01 8,6 °C 94 % 1009,8 hPa 0,0 mm 0,0 km/h (0 Bft) S-SW 209 ° 0 min 0,000 mm 0,0 UV-I 0 W/m² 7,7 °C 8,6 °C 0,0 km/h (0 Bft)
16.04.2018 05:02 8,7 °C 94 % 1009,8 hPa 0,0 mm 0,0 km/h (0 Bft) S-SW 209 ° 0 min 0,000 mm 0,0 UV-I 0 W/m² 7,8 °C 8,7 °C 0,0 km/h (0 Bft)
16.04.2018 05:03 8,7 °C 94 % 1009,7 hPa 0,0 mm 0,0 km/h (0 Bft) S-SW 209 ° 0 min 0,000 mm 0,0 UV-I 0 W/m² 7,8 °C 8,7 °C 0,0 km/h (0 Bft)
16.04.2018 05:04 8,7 °C 94 % 1009,7 hPa 0,0 mm 0,0 km/h (0 Bft) S-SW 209 ° 0 min 0,000 mm 0,0 UV-I 0 W/m² 7,8 °C 8,7 °C 0,0 km/h (0 Bft)
16.04.2018 05:05 8,7 °C 94 % 1009,7 hPa 0,0 mm 0,4 km/h (0 Bft) S-SW 209 ° 0 min 0,000 mm 0,0 UV-I 0 W/m² 7,8 °C 8,7 °C 1,6 km/h (1 Bft)
16.04.2018 05:06 8,7 °C 94 % 1009,6 hPa 0,0 mm 2,2 km/h (1 Bft) S-SW 209 ° 0 min 0,000 mm 0,0 UV-I 0 W/m² 7,8 °C 8,7 °C 3,2 km/h (1 Bft)
16.04.2018 05:07 8,7 °C 94 % 1009,6 hPa 0,0 mm 2,3 km/h (1 Bft) S 186 ° 0 min 0,000 mm 0,0 UV-I 0 W/m² 7,8 °C 8,7 °C 3,2 km/h (1 Bft)
16.04.2018 05:08 8,7 °C 94 % 1009,7 hPa 0,0 mm 0,4 km/h (0 Bft) S 186 ° 0 min 0,000 mm 0,0 UV-I 0 W/m² 7,8 °C 8,7 °C 1,6 km/h (1 Bft)
16.04.2018 05:09 8,7 °C 94 % 1009,7 hPa 0,0 mm 0,2 km/h (0 Bft) S 186 ° 0 min 0,000 mm 0,0 UV-I 0 W/m² 7,8 °C 8,7 °C 1,6 km/h (1 Bft)
16.04.2018 05:10 8,7 °C 94 % 1009,8 hPa 0,0 mm 0,0 km/h (0 Bft) S 186 ° 0 min 0,000 mm 0,0 UV-I 0 W/m² 7,8 °C 8,7 °C 0,0 km/h (0 Bft)
16.04.2018 05:11 8,7 °C 94 % 1009,8 hPa 0,0 mm 0,0 km/h (0 Bft) S 186 ° 0 min 0,000 mm 0,0 UV-I 0 W/m² 7,8 °C 8,7 °C 0,0 km/h (0 Bft)
16.04.2018 05:12 8,7 °C 94 % 1009,8 hPa 0,0 mm 0,0 km/h (0 Bft) S 186 ° 0 min 0,000 mm 0,0 UV-I 0 W/m² 7,8 °C 8,7 °C 0,0 km/h (0 Bft)
16.04.2018 05:13 8,7 °C 94 % 1009,8 hPa 0,0 mm 0,0 km/h (0 Bft) S 186 ° 0 min 0,000 mm 0,0 UV-I 0 W/m² 7,8 °C 8,7 °C 0,0 km/h (0 Bft)
16.04.2018 05:14 8,6 °C 94 % 1009,7 hPa 0,0 mm 0,0 km/h (0 Bft) S 186 ° 0 min 0,000 mm 0,0 UV-I 0 W/m² 7,7 °C 8,6 °C 0,0 km/h (0 Bft)
16.04.2018 05:15 8,7 °C 94 % 1009,8 hPa 0,0 mm 0,0 km/h (0 Bft) S 189 ° 0 min 0,000 mm 0,0 UV-I 0 W/m² 7,8 °C 8,7 °C 0,0 km/h (0 Bft)
16.04.2018 05:16 8,6 °C 94 % 1009,8 hPa 0,0 mm 1,9 km/h (1 Bft) W-SW 253 ° 0 min 0,000 mm 0,0 UV-I 0 W/m² 7,7 °C 8,6 °C 4,8 km/h (1 Bft)
16.04.2018 05:17 8,6 °C 94 % 1009,8 hPa 0,0 mm 0,5 km/h (0 Bft) W-SW 252 ° 0 min 0,000 mm 0,0 UV-I 0 W/m² 7,7 °C 8,6 °C 3,2 km/h (1 Bft)
16.04.2018 05:18 8,6 °C 94 % 1009,8 hPa 0,0 mm 0,0 km/h (0 Bft) W-SW 252 ° 0 min 0,000 mm 0,0 UV-I 0 W/m² 7,7 °C 8,6 °C 0,0 km/h (0 Bft)
16.04.2018 05:19 8,6 °C 94 % 1009,9 hPa 0,0 mm 0,0 km/h (0 Bft) W-SW 252 ° 0 min 0,000 mm 0,0 UV-I 0 W/m² 7,7 °C 8,6 °C 0,0 km/h (0 Bft)
16.04.2018 05:20 8,6 °C 94 % 1010,0 hPa 0,0 mm 0,0 km/h (0 Bft) W-SW 252 ° 0 min 0,000 mm 0,0 UV-I 0 W/m² 7,7 °C 8,6 °C 0,0 km/h (0 Bft)
16.04.2018 05:21 8,6 °C 94 % 1010,0 hPa 0,0 mm 0,0 km/h (0 Bft) W-SW 252 ° 0 min 0,000 mm 0,0 UV-I 0 W/m² 7,7 °C 8,6 °C 0,0 km/h (0 Bft)
16.04.2018 05:22 8,6 °C 94 % 1010,1 hPa 0,0 mm 0,0 km/h (0 Bft) W-SW 252 ° 0 min 0,000 mm 0,0 UV-I 0 W/m² 7,7 °C 8,6 °C 0,0 km/h (0 Bft)
16.04.2018 05:23 8,6 °C 94 % 1010,1 hPa 0,0 mm 0,0 km/h (0 Bft) W-SW 252 ° 0 min 0,000 mm 0,0 UV-I 0 W/m² 7,7 °C 8,6 °C 0,0 km/h (0 Bft)
16.04.2018 05:24 8,6 °C 94 % 1010,1 hPa 0,0 mm 0,0 km/h (0 Bft) W-SW 252 ° 0 min 0,000 mm 0,0 UV-I 0 W/m² 7,7 °C 8,6 °C 0,0 km/h (0 Bft)
16.04.2018 05:25 8,6 °C 94 % 1010,0 hPa 0,0 mm 0,0 km/h (0 Bft) W-SW 252 ° 0 min 0,000 mm 0,0 UV-I 0 W/m² 7,7 °C 8,6 °C 0,0 km/h (0 Bft)
16.04.2018 05:26 8,6 °C 94 % 1010,0 hPa 0,0 mm 0,0 km/h (0 Bft) W-SW 252 ° 0 min 0,000 mm 0,0 UV-I 0 W/m² 7,7 °C 8,6 °C 0,0 km/h (0 Bft)
16.04.2018 05:27 8,5 °C 94 % 1010,0 hPa 0,0 mm 0,0 km/h (0 Bft) W-SW 252 ° 0 min 0,000 mm 0,0 UV-I 0 W/m² 7,6 °C 8,5 °C 0,0 km/h (0 Bft)
16.04.2018 05:28 8,5 °C 94 % 1010,0 hPa 0,0 mm 0,0 km/h (0 Bft) W-SW 252 ° 0 min 0,000 mm 0,0 UV-I 0 W/m² 7,6 °C 8,5 °C 0,0 km/h (0 Bft)
16.04.2018 05:29 8,5 °C 94 % 1009,9 hPa 0,0 mm 0,0 km/h (0 Bft) W-SW 252 ° 0 min 0,000 mm 0,0 UV-I 0 W/m² 7,6 °C 8,5 °C 0,0 km/h (0 Bft)
16.04.2018 05:30 8,5 °C 94 % 1009,9 hPa 0,0 mm 0,0 km/h (0 Bft) W-SW 252 ° 0 min 0,000 mm 0,0 UV-I 0 W/m² 7,6 °C 8,5 °C 0,0 km/h (0 Bft)
16.04.2018 05:31 8,5 °C 94 % 1009,9 hPa 0,0 mm 0,0 km/h (0 Bft) W-SW 252 ° 0 min 0,000 mm 0,0 UV-I 0 W/m² 7,6 °C 8,5 °C 0,0 km/h (0 Bft)
16.04.2018 05:32 8,4 °C 94 % 1010,0 hPa 0,0 mm 0,4 km/h (0 Bft) W-SW 252 ° 0 min 0,000 mm 0,0 UV-I 0 W/m² 7,5 °C 8,4 °C 1,6 km/h (1 Bft)
16.04.2018 05:33 8,4 °C 94 % 1009,9 hPa 0,0 mm 0,1 km/h (0 Bft) W-SW 252 ° 0 min 0,000 mm 0,0 UV-I 0 W/m² 7,5 °C 8,4 °C 1,6 km/h (1 Bft)
16.04.2018 05:34 8,5 °C 94 % 1009,9 hPa 0,0 mm 0,0 km/h (0 Bft) W-SW 252 ° 0 min 0,000 mm 0,0 UV-I 0 W/m² 7,6 °C 8,5 °C 0,0 km/h (0 Bft)
16.04.2018 05:35 8,4 °C 94 % 1009,9 hPa 0,0 mm 0,0 km/h (0 Bft) W-SW 252 ° 0 min 0,000 mm 0,0 UV-I 0 W/m² 7,5 °C 8,4 °C 0,0 km/h (0 Bft)
16.04.2018 05:36 8,4 °C 94 % 1009,8 hPa 0,0 mm 0,1 km/h (0 Bft) W-SW 252 ° 0 min 0,000 mm 0,0 UV-I 0 W/m² 7,5 °C 8,4 °C 1,6 km/h (1 Bft)
16.04.2018 05:37 8,5 °C 94 % 1009,8 hPa 0,0 mm 0,0 km/h (0 Bft) W-SW 252 ° 0 min 0,000 mm 0,0 UV-I 0 W/m² 7,6 °C 8,5 °C 0,0 km/h (0 Bft)
16.04.2018 05:38 8,5 °C 94 % 1009,8 hPa 0,0 mm 0,0 km/h (0 Bft) W-SW 252 ° 0 min 0,000 mm 0,0 UV-I 0 W/m² 7,6 °C 8,5 °C 0,0 km/h (0 Bft)
16.04.2018 05:39 8,4 °C 94 % 1009,8 hPa 0,0 mm 0,6 km/h (0 Bft) W-SW 252 ° 0 min 0,000 mm 0,0 UV-I 0 W/m² 7,5 °C 8,4 °C 1,6 km/h (1 Bft)
16.04.2018 05:40 8,4 °C 94 % 1009,8 hPa 0,0 mm 1,8 km/h (1 Bft) W-SW 252 ° 0 min 0,000 mm 0,0 UV-I 0 W/m² 7,5 °C 8,4 °C 3,2 km/h (1 Bft)
16.04.2018 05:41 8,5 °C 94 % 1009,8 hPa 0,0 mm 0,5 km/h (0 Bft) W-SW 252 ° 0 min 0,000 mm 0,0 UV-I 0 W/m² 7,6 °C 8,5 °C 1,6 km/h (1 Bft)
16.04.2018 05:42 8,5 °C 94 % 1009,8 hPa 0,0 mm 0,2 km/h (0 Bft) W-SW 252 ° 0 min 0,000 mm 0,0 UV-I 0 W/m² 7,6 °C 8,5 °C 1,6 km/h (1 Bft)
16.04.2018 05:43 8,4 °C 94 % 1009,8 hPa 0,0 mm 0,0 km/h (0 Bft) W-SW 252 ° 0 min 0,000 mm 0,0 UV-I 0 W/m² 7,5 °C 8,4 °C 0,0 km/h (0 Bft)
16.04.2018 05:44 8,4 °C 94 % 1009,9 hPa 0,0 mm 0,0 km/h (0 Bft) W-SW 252 ° 0 min 0,000 mm 0,0 UV-I 0 W/m² 7,5 °C 8,4 °C 0,0 km/h (0 Bft)
16.04.2018 05:45 8,4 °C 94 % 1009,8 hPa 0,0 mm 0,0 km/h (0 Bft) W-SW 252 ° 0 min 0,000 mm 0,0 UV-I 0 W/m² 7,5 °C 8,4 °C 0,0 km/h (0 Bft)
16.04.2018 05:46 8,4 °C 94 % 1009,8 hPa 0,0 mm 0,0 km/h (0 Bft) W-SW 252 ° 0 min 0,000 mm 0,0 UV-I 0 W/m² 7,5 °C 8,4 °C 0,0 km/h (0 Bft)
16.04.2018 05:47 8,4 °C 94 % 1009,9 hPa 0,0 mm 0,0 km/h (0 Bft) W-SW 252 ° 0 min 0,000 mm 0,0 UV-I 0 W/m² 7,5 °C 8,4 °C 0,0 km/h (0 Bft)
16.04.2018 05:48 8,4 °C 94 % 1009,8 hPa 0,0 mm 0,0 km/h (0 Bft) W-SW 252 ° 0 min 0,000 mm 0,0 UV-I 0 W/m² 7,5 °C 8,4 °C 0,0 km/h (0 Bft)
16.04.2018 05:49 8,4 °C 94 % 1009,9 hPa 0,0 mm 1,4 km/h (1 Bft) W-SW 252 ° 0 min 0,000 mm 0,0 UV-I 0 W/m² 7,5 °C 8,4 °C 3,2 km/h (1 Bft)
16.04.2018 05:50 8,4 °C 94 % 1009,9 hPa 0,0 mm 0,8 km/h (0 Bft) W-SW 252 ° 0 min 0,000 mm 0,0 UV-I 0 W/m² 7,5 °C 8,4 °C 1,6 km/h (1 Bft)
16.04.2018 05:51 8,4 °C 94 % 1009,9 hPa 0,0 mm 0,1 km/h (0 Bft) W-SW 252 ° 0 min 0,000 mm 0,0 UV-I 0 W/m² 7,5 °C 8,4 °C 1,6 km/h (1 Bft)
16.04.2018 05:52 8,4 °C 94 % 1009,9 hPa 0,0 mm 0,0 km/h (0 Bft) W-SW 252 ° 0 min 0,000 mm 0,0 UV-I 0 W/m² 7,5 °C 8,4 °C 0,0 km/h (0 Bft)
16.04.2018 05:53 8,4 °C 94 % 1009,9 hPa 0,0 mm 0,3 km/h (0 Bft) W-SW 252 ° 0 min 0,000 mm 0,0 UV-I 0 W/m² 7,5 °C 8,4 °C 1,6 km/h (1 Bft)
16.04.2018 05:54 8,4 °C 94 % 1009,9 hPa 0,0 mm 0,3 km/h (0 Bft) W-SW 252 ° 0 min 0,000 mm 0,0 UV-I 0 W/m² 7,5 °C 8,4 °C 1,6 km/h (1 Bft)
16.04.2018 05:55 8,4 °C 94 % 1009,9 hPa 0,0 mm 0,3 km/h (0 Bft) W-SW 252 ° 0 min 0,000 mm 0,0 UV-I 0 W/m² 7,5 °C 8,4 °C 1,6 km/h (1 Bft)
16.04.2018 05:56 8,4 °C 94 % 1010,0 hPa 0,0 mm 0,1 km/h (0 Bft) W-SW 252 ° 0 min 0,000 mm 0,0 UV-I 0 W/m² 7,5 °C 8,4 °C 1,6 km/h (1 Bft)
16.04.2018 05:57 8,4 °C 94 % 1010,0 hPa 0,0 mm 0,6 km/h (0 Bft) W-SW 252 ° 0 min 0,000 mm 0,0 UV-I 0 W/m² 7,5 °C 8,4 °C 1,6 km/h (1 Bft)
16.04.2018 05:58 8,4 °C 94 % 1010,1 hPa 0,0 mm 1,2 km/h (1 Bft) W-SW 252 ° 0 min 0,000 mm 0,0 UV-I 0 W/m² 7,5 °C 8,4 °C 3,2 km/h (1 Bft)
16.04.2018 05:59 8,4 °C 94 % 1010,1 hPa 0,0 mm 1,0 km/h (0 Bft) W-SW 252 ° 0 min 0,000 mm 0,0 UV-I 0 W/m² 7,5 °C 8,4 °C 3,2 km/h (1 Bft)
16.04.2018 06:00 8,4 °C 94 % 1010,1 hPa 0,0 mm 0,5 km/h (0 Bft) W-SW 252 ° 0 min 0,000 mm 0,0 UV-I 0 W/m² 7,5 °C 8,4 °C 1,6 km/h (1 Bft)
16.04.2018 06:01 8,4 °C 94 % 1010,1 hPa 0,0 mm 0,1 km/h (0 Bft) W-SW 252 ° 0 min 0,000 mm 0,0 UV-I 0 W/m² 7,5 °C 8,4 °C 1,6 km/h (1 Bft)
16.04.2018 06:02 8,5 °C 94 % 1010,1 hPa 0,0 mm 0,0 km/h (0 Bft) W-SW 252 ° 0 min 0,000 mm 0,0 UV-I 0 W/m² 7,6 °C 8,5 °C 0,0 km/h (0 Bft)
16.04.2018 06:03 8,5 °C 94 % 1010,2 hPa 0,0 mm 0,0 km/h (0 Bft) W-SW 252 ° 0 min 0,000 mm 0,0 UV-I 0 W/m² 7,6 °C 8,5 °C 0,0 km/h (0 Bft)
16.04.2018 06:04 8,5 °C 94 % 1010,2 hPa 0,0 mm 0,4 km/h (0 Bft) W-SW 252 ° 0 min 0,000 mm 0,0 UV-I 0 W/m² 7,6 °C 8,5 °C 1,6 km/h (1 Bft)
16.04.2018 06:05 8,5 °C 94 % 1010,2 hPa 0,0 mm 1,9 km/h (1 Bft) W-SW 252 ° 0 min 0,000 mm 0,0 UV-I 0 W/m² 7,6 °C 8,5 °C 3,2 km/h (1 Bft)
16.04.2018 06:06 8,5 °C 94 % 1010,2 hPa 0,0 mm 0,6 km/h (0 Bft) W-SW 252 ° 0 min 0,000 mm 0,0 UV-I 0 W/m² 7,6 °C 8,5 °C 1,6 km/h (1 Bft)
16.04.2018 06:07 8,6 °C 94 % 1010,2 hPa 0,0 mm 1,1 km/h (1 Bft) W-SW 252 ° 0 min 0,000 mm 0,0 UV-I 0 W/m² 7,7 °C 8,6 °C 3,2 km/h (1 Bft)
16.04.2018 06:08 8,6 °C 94 % 1010,2 hPa 0,0 mm 1,8 km/h (1 Bft) W-SW 252 ° 0 min 0,000 mm 0,0 UV-I 0 W/m² 7,7 °C 8,6 °C 3,2 km/h (1 Bft)
16.04.2018 06:09 8,6 °C 94 % 1010,2 hPa 0,0 mm 2,3 km/h (1 Bft) W-SW 252 ° 0 min 0,000 mm 0,0 UV-I 0 W/m² 7,7 °C 8,6 °C 3,2 km/h (1 Bft)
16.04.2018 06:10 8,6 °C 94 % 1010,2 hPa 0,0 mm 1,0 km/h (0 Bft) W-SW 252 ° 0 min 0,000 mm 0,0 UV-I 0 W/m² 7,7 °C 8,6 °C 1,6 km/h (1 Bft)
16.04.2018 06:11 8,6 °C 94 % 1010,1 hPa 0,0 mm 0,1 km/h (0 Bft) W-SW 252 ° 0 min 0,000 mm 0,0 UV-I 0 W/m² 7,7 °C 8,6 °C 1,6 km/h (1 Bft)
16.04.2018 06:12 8,6 °C 94 % 1010,2 hPa 0,0 mm 0,3 km/h (0 Bft) W-SW 252 ° 0 min 0,000 mm 0,0 UV-I 0 W/m² 7,7 °C 8,6 °C 1,6 km/h (1 Bft)
16.04.2018 06:13 8,6 °C 94 % 1010,2 hPa 0,0 mm 0,0 km/h (0 Bft) W-SW 252 ° 0 min 0,000 mm 0,0 UV-I 0 W/m² 7,7 °C 8,6 °C 0,0 km/h (0 Bft)
16.04.2018 06:14 8,5 °C 94 % 1010,2 hPa 0,0 mm 0,0 km/h (0 Bft) W-SW 252 ° 0 min 0,000 mm 0,0 UV-I 0 W/m² 7,6 °C 8,5 °C 0,0 km/h (0 Bft)
16.04.2018 06:15 8,6 °C 94 % 1010,3 hPa 0,0 mm 0,0 km/h (0 Bft) W-SW 252 ° 0 min 0,000 mm 0,0 UV-I 0 W/m² 7,7 °C 8,6 °C 0,0 km/h (0 Bft)
16.04.2018 06:16 8,6 °C 94 % 1010,3 hPa 0,0 mm 0,0 km/h (0 Bft) W-SW 252 ° 0 min 0,000 mm 0,0 UV-I 0 W/m² 7,7 °C 8,6 °C 0,0 km/h (0 Bft)
16.04.2018 06:17 8,6 °C 94 % 1010,3 hPa 0,0 mm 0,0 km/h (0 Bft) W-SW 252 ° 0 min 0,000 mm 0,0 UV-I 0 W/m² 7,7 °C 8,6 °C 0,0 km/h (0 Bft)
16.04.2018 06:18 8,6 °C 94 % 1010,3 hPa 0,0 mm 0,0 km/h (0 Bft) W-SW 252 ° 0 min 0,000 mm 0,0 UV-I 0 W/m² 7,7 °C 8,6 °C 0,0 km/h (0 Bft)
16.04.2018 06:19 8,6 °C 94 % 1010,4 hPa 0,0 mm 0,0 km/h (0 Bft) W-SW 252 ° 0 min 0,000 mm 0,0 UV-I 0 W/m² 7,7 °C 8,6 °C 0,0 km/h (0 Bft)
16.04.2018 06:20 8,6 °C 94 % 1010,4 hPa 0,0 mm 0,0 km/h (0 Bft) W-SW 252 ° 0 min 0,000 mm 0,0 UV-I 0 W/m² 7,7 °C 8,6 °C 0,0 km/h (0 Bft)
16.04.2018 06:21 8,5 °C 94 % 1010,4 hPa 0,0 mm 0,0 km/h (0 Bft) W-SW 252 ° 0 min 0,000 mm 0,0 UV-I 0 W/m² 7,6 °C 8,5 °C 0,0 km/h (0 Bft)
16.04.2018 06:22 8,6 °C 94 % 1010,4 hPa 0,0 mm 0,0 km/h (0 Bft) W-SW 252 ° 0 min 0,000 mm 0,0 UV-I 0 W/m² 7,7 °C 8,6 °C 0,0 km/h (0 Bft)
16.04.2018 06:23 8,5 °C 94 % 1010,4 hPa 0,0 mm 0,0 km/h (0 Bft) W-SW 252 ° 0 min 0,000 mm 0,0 UV-I 0 W/m² 7,6 °C 8,5 °C 0,0 km/h (0 Bft)
16.04.2018 06:24 8,5 °C 94 % 1010,4 hPa 0,0 mm 0,0 km/h (0 Bft) W-SW 252 ° 0 min 0,000 mm 0,0 UV-I 0 W/m² 7,6 °C 8,5 °C 0,0 km/h (0 Bft)
16.04.2018 06:25 8,6 °C 94 % 1010,4 hPa 0,0 mm 0,0 km/h (0 Bft) W-SW 252 ° 0 min 0,000 mm 0,0 UV-I 0 W/m² 7,7 °C 8,6 °C 0,0 km/h (0 Bft)
16.04.2018 06:26 8,5 °C 94 % 1010,4 hPa 0,0 mm 0,0 km/h (0 Bft) W-SW 252 ° 0 min 0,000 mm 0,0 UV-I 0 W/m² 7,6 °C 8,5 °C 0,0 km/h (0 Bft)
16.04.2018 06:27 8,5 °C 94 % 1010,5 hPa 0,0 mm 0,0 km/h (0 Bft) W-SW 252 ° 0 min 0,000 mm 0,0 UV-I 0 W/m² 7,6 °C 8,5 °C 0,0 km/h (0 Bft)
16.04.2018 06:28 8,5 °C 94 % 1010,5 hPa 0,0 mm 0,0 km/h (0 Bft) W-SW 252 ° 0 min 0,000 mm 0,0 UV-I 0 W/m² 7,6 °C 8,5 °C 0,0 km/h (0 Bft)
16.04.2018 06:29 8,4 °C 94 % 1010,5 hPa 0,0 mm 0,0 km/h (0 Bft) W-SW 252 ° 0 min 0,000 mm 0,0 UV-I 0 W/m² 7,5 °C 8,4 °C 0,0 km/h (0 Bft)
16.04.2018 06:30 8,4 °C 94 % 1010,5 hPa 0,0 mm 0,0 km/h (0 Bft) W-SW 252 ° 0 min 0,000 mm 0,0 UV-I 0 W/m² 7,5 °C 8,4 °C 0,0 km/h (0 Bft)
16.04.2018 06:31 8,4 °C 94 % 1010,5 hPa 0,0 mm 0,0 km/h (0 Bft) W-SW 252 ° 0 min 0,000 mm 0,0 UV-I 0 W/m² 7,5 °C 8,4 °C 0,0 km/h (0 Bft)
16.04.2018 06:32 8,4 °C 94 % 1010,5 hPa 0,0 mm 0,0 km/h (0 Bft) W-SW 252 ° 0 min 0,000 mm 0,0 UV-I 0 W/m² 7,5 °C 8,4 °C 0,0 km/h (0 Bft)
16.04.2018 06:33 8,4 °C 94 % 1010,5 hPa 0,0 mm 0,5 km/h (0 Bft) W-SW 252 ° 0 min 0,000 mm 0,0 UV-I 0 W/m² 7,5 °C 8,4 °C 3,2 km/h (1 Bft)
16.04.2018 06:34 8,4 °C 94 % 1010,4 hPa 0,0 mm 0,3 km/h (0 Bft) W-SW 252 ° 0 min 0,000 mm 0,0 UV-I 0 W/m² 7,5 °C 8,4 °C 1,6 km/h (1 Bft)
16.04.2018 06:35 8,4 °C 94 % 1010,4 hPa 0,0 mm 0,0 km/h (0 Bft) W-SW 252 ° 0 min 0,000 mm 0,0 UV-I 0 W/m² 7,5 °C 8,4 °C 0,0 km/h (0 Bft)
16.04.2018 06:36 8,4 °C 94 % 1010,3 hPa 0,0 mm 0,0 km/h (0 Bft) W-SW 252 ° 0 min 0,000 mm 0,0 UV-I 0 W/m² 7,5 °C 8,4 °C 0,0 km/h (0 Bft)
16.04.2018 06:37 8,4 °C 94 % 1010,4 hPa 0,0 mm 0,0 km/h (0 Bft) W-SW 252 ° 0 min 0,000 mm 0,0 UV-I 0 W/m² 7,5 °C 8,4 °C 0,0 km/h (0 Bft)
16.04.2018 06:38 8,4 °C 94 % 1010,3 hPa 0,0 mm 0,0 km/h (0 Bft) W-SW 252 ° 0 min 0,000 mm 0,0 UV-I 0 W/m² 7,5 °C 8,4 °C 0,0 km/h (0 Bft)
16.04.2018 06:39 8,4 °C 94 % 1010,3 hPa 0,0 mm 0,0 km/h (0 Bft) W-SW 252 ° 0 min 0,000 mm 0,0 UV-I 0 W/m² 7,5 °C 8,4 °C 0,0 km/h (0 Bft)
16.04.2018 06:40 8,4 °C 94 % 1010,3 hPa 0,0 mm 0,0 km/h (0 Bft) W-SW 252 ° 0 min 0,000 mm 0,0 UV-I 0 W/m² 7,5 °C 8,4 °C 0,0 km/h (0 Bft)
16.04.2018 06:41 8,4 °C 94 % 1010,3 hPa 0,0 mm 0,0 km/h (0 Bft) W-SW 252 ° 0 min 0,000 mm 0,0 UV-I 0 W/m² 7,5 °C 8,4 °C 0,0 km/h (0 Bft)
16.04.2018 06:42 8,3 °C 94 % 1010,3 hPa 0,0 mm 0,0 km/h (0 Bft) W-SW 252 ° 0 min 0,000 mm 0,0 UV-I 0 W/m² 7,4 °C 8,3 °C 0,0 km/h (0 Bft)
16.04.2018 06:43 8,3 °C 94 % 1010,4 hPa 0,0 mm 0,0 km/h (0 Bft) W-SW 252 ° 0 min 0,000 mm 0,0 UV-I 0 W/m² 7,4 °C 8,3 °C 0,0 km/h (0 Bft)
16.04.2018 06:44 8,3 °C 94 % 1010,4 hPa 0,0 mm 0,0 km/h (0 Bft) W-SW 252 ° 0 min 0,000 mm 0,0 UV-I 0 W/m² 7,4 °C 8,3 °C 0,0 km/h (0 Bft)
16.04.2018 06:45 8,3 °C 94 % 1010,4 hPa 0,0 mm 0,0 km/h (0 Bft) W-SW 252 ° 0 min 0,000 mm 0,0 UV-I 0 W/m² 7,4 °C 8,3 °C 0,0 km/h (0 Bft)
16.04.2018 06:46 8,3 °C 94 % 1010,4 hPa 0,0 mm 0,0 km/h (0 Bft) W-SW 252 ° 0 min 0,000 mm 0,0 UV-I 0 W/m² 7,4 °C 8,3 °C 0,0 km/h (0 Bft)
16.04.2018 06:47 8,4 °C 94 % 1010,4 hPa 0,0 mm 0,0 km/h (0 Bft) W-SW 252 ° 0 min 0,000 mm 0,0 UV-I 0 W/m² 7,5 °C 8,4 °C 0,0 km/h (0 Bft)
16.04.2018 06:48 8,4 °C 95 % 1010,4 hPa 0,0 mm 0,0 km/h (0 Bft) W-SW 252 ° 0 min 0,000 mm 0,0 UV-I 0 W/m² 7,6 °C 8,4 °C 0,0 km/h (0 Bft)
16.04.2018 06:49 8,4 °C 94 % 1010,4 hPa 0,0 mm 0,0 km/h (0 Bft) W-SW 252 ° 0 min 0,000 mm 0,0 UV-I 0 W/m² 7,5 °C 8,4 °C 0,0 km/h (0 Bft)
16.04.2018 06:50 8,4 °C 95 % 1010,4 hPa 0,0 mm 0,0 km/h (0 Bft) W-SW 252 ° 0 min 0,000 mm 0,0 UV-I 0 W/m² 7,6 °C 8,4 °C 0,0 km/h (0 Bft)
16.04.2018 06:51 8,4 °C 94 % 1010,4 hPa 0,0 mm 0,0 km/h (0 Bft) W-SW 252 ° 0 min 0,000 mm 0,0 UV-I 0 W/m² 7,5 °C 8,4 °C 0,0 km/h (0 Bft)
16.04.2018 06:52 8,4 °C 94 % 1010,4 hPa 0,0 mm 0,0 km/h (0 Bft) W-SW 252 ° 0 min 0,000 mm 0,0 UV-I 0 W/m² 7,5 °C 8,4 °C 0,0 km/h (0 Bft)
16.04.2018 06:53 8,4 °C 94 % 1010,4 hPa 0,0 mm 0,0 km/h (0 Bft) W-SW 252 ° 0 min 0,000 mm 0,0 UV-I 0 W/m² 7,5 °C 8,4 °C 0,0 km/h (0 Bft)
16.04.2018 06:54 8,4 °C 94 % 1010,5 hPa 0,0 mm 0,0 km/h (0 Bft) W-SW 252 ° 0 min 0,000 mm 0,0 UV-I 0 W/m² 7,5 °C 8,4 °C 0,0 km/h (0 Bft)
16.04.2018 06:55 8,4 °C 94 % 1010,5 hPa 0,0 mm 0,0 km/h (0 Bft) W-SW 252 ° 0 min 0,000 mm 0,0 UV-I 0 W/m² 7,5 °C 8,4 °C 0,0 km/h (0 Bft)
16.04.2018 06:56 8,4 °C 94 % 1010,5 hPa 0,0 mm 0,0 km/h (0 Bft) W-SW 252 ° 0 min 0,000 mm 0,0 UV-I 0 W/m² 7,5 °C 8,4 °C 0,0 km/h (0 Bft)
16.04.2018 06:57 8,4 °C 94 % 1010,4 hPa 0,0 mm 0,0 km/h (0 Bft) W-SW 252 ° 0 min 0,000 mm 0,0 UV-I 5 W/m² 7,5 °C 8,4 °C 0,0 km/h (0 Bft)
16.04.2018 06:58 8,3 °C 94 % 1010,4 hPa 0,0 mm 0,0 km/h (0 Bft) W-SW 252 ° 0 min 0,000 mm 0,0 UV-I 5 W/m² 7,4 °C 8,3 °C 0,0 km/h (0 Bft)
16.04.2018 06:59 8,3 °C 94 % 1010,4 hPa 0,0 mm 0,0 km/h (0 Bft) W-SW 252 ° 0 min 0,000 mm 0,0 UV-I 7 W/m² 7,4 °C 8,3 °C 0,0 km/h (0 Bft)
16.04.2018 07:00 8,3 °C 94 % 1010,5 hPa 0,0 mm 0,0 km/h (0 Bft) W-SW 252 ° 0 min 0,000 mm 0,0 UV-I 7 W/m² 7,4 °C 8,3 °C 0,0 km/h (0 Bft)
16.04.2018 07:01 8,3 °C 94 % 1010,4 hPa 0,0 mm 0,0 km/h (0 Bft) W-SW 252 ° 0 min 0,000 mm 0,0 UV-I 7 W/m² 7,4 °C 8,3 °C 0,0 km/h (0 Bft)
16.04.2018 07:02 8,3 °C 94 % 1010,4 hPa 0,0 mm 0,0 km/h (0 Bft) W-SW 252 ° 0 min 0,000 mm 0,0 UV-I 7 W/m² 7,4 °C 8,3 °C 0,0 km/h (0 Bft)
16.04.2018 07:03 8,3 °C 94 % 1010,5 hPa 0,0 mm 0,0 km/h (0 Bft) W-SW 252 ° 0 min 0,000 mm 0,0 UV-I 7 W/m² 7,4 °C 8,3 °C 0,0 km/h (0 Bft)
16.04.2018 07:04 8,3 °C 94 % 1010,5 hPa 0,0 mm 0,0 km/h (0 Bft) W-SW 252 ° 0 min 0,000 mm 0,0 UV-I 7 W/m² 7,4 °C 8,3 °C 0,0 km/h (0 Bft)
16.04.2018 07:05 8,3 °C 94 % 1010,5 hPa 0,0 mm 0,0 km/h (0 Bft) W-SW 252 ° 0 min 0,000 mm 0,0 UV-I 9 W/m² 7,4 °C 8,3 °C 0,0 km/h (0 Bft)
16.04.2018 07:06 8,3 °C 95 % 1010,5 hPa 0,0 mm 0,0 km/h (0 Bft) W-SW 252 ° 0 min 0,000 mm 0,0 UV-I 9 W/m² 7,5 °C 8,3 °C 0,0 km/h (0 Bft)
16.04.2018 07:07 8,3 °C 95 % 1010,5 hPa 0,0 mm 0,0 km/h (0 Bft) W-SW 252 ° 0 min 0,000 mm 0,0 UV-I 9 W/m² 7,5 °C 8,3 °C 0,0 km/h (0 Bft)
16.04.2018 07:08 8,3 °C 95 % 1010,6 hPa 0,0 mm 0,0 km/h (0 Bft) W-SW 252 ° 0 min 0,000 mm 0,0 UV-I 9 W/m² 7,5 °C 8,3 °C 0,0 km/h (0 Bft)
16.04.2018 07:09 8,3 °C 95 % 1010,6 hPa 0,0 mm 0,0 km/h (0 Bft) W-SW 252 ° 0 min 0,000 mm 0,0 UV-I 11 W/m² 7,5 °C 8,3 °C 0,0 km/h (0 Bft)
16.04.2018 07:10 8,3 °C 95 % 1010,6 hPa 0,0 mm 0,0 km/h (0 Bft) W-SW 252 ° 0 min 0,000 mm 0,0 UV-I 11 W/m² 7,5 °C 8,3 °C 0,0 km/h (0 Bft)
16.04.2018 07:11 8,3 °C 95 % 1010,6 hPa 0,0 mm 0,0 km/h (0 Bft) W-SW 252 ° 0 min 0,000 mm 0,0 UV-I 12 W/m² 7,5 °C 8,3 °C 0,0 km/h (0 Bft)
16.04.2018 07:12 8,3 °C 95 % 1010,5 hPa 0,2 mm 0,0 km/h (0 Bft) W-SW 252 ° 0 min 0,000 mm 0,0 UV-I 12 W/m² 7,5 °C 8,3 °C 0,0 km/h (0 Bft)
16.04.2018 07:13 8,3 °C 95 % 1010,6 hPa 0,0 mm 0,0 km/h (0 Bft) W-SW 252 ° 0 min 0,000 mm 0,0 UV-I 12 W/m² 7,5 °C 8,3 °C 0,0 km/h (0 Bft)
16.04.2018 07:14 8,3 °C 95 % 1010,6 hPa 0,0 mm 0,0 km/h (0 Bft) W-SW 252 ° 0 min 0,000 mm 0,0 UV-I 12 W/m² 7,5 °C 8,3 °C 0,0 km/h (0 Bft)
16.04.2018 07:15 8,3 °C 95 % 1010,6 hPa 0,0 mm 0,0 km/h (0 Bft) W-SW 252 ° 0 min 0,000 mm 0,0 UV-I 14 W/m² 7,5 °C 8,3 °C 0,0 km/h (0 Bft)
16.04.2018 07:16 8,3 °C 95 % 1010,7 hPa 0,0 mm 0,0 km/h (0 Bft) W-SW 252 ° 0 min 0,000 mm 0,0 UV-I 14 W/m² 7,5 °C 8,3 °C 0,0 km/h (0 Bft)
16.04.2018 07:17 8,3 °C 95 % 1010,6 hPa 0,0 mm 0,0 km/h (0 Bft) W-SW 252 ° 0 min 0,000 mm 0,0 UV-I 14 W/m² 7,5 °C 8,3 °C 0,0 km/h (0 Bft)
16.04.2018 07:18 8,3 °C 95 % 1010,7 hPa 0,0 mm 0,0 km/h (0 Bft) W-SW 252 ° 0 min 0,000 mm 0,0 UV-I 16 W/m² 7,5 °C 8,3 °C 0,0 km/h (0 Bft)
16.04.2018 07:19 8,3 °C 95 % 1010,7 hPa 0,0 mm 0,0 km/h (0 Bft) W-SW 252 ° 0 min 0,000 mm 0,0 UV-I 16 W/m² 7,5 °C 8,3 °C 0,0 km/h (0 Bft)
16.04.2018 07:20 8,3 °C 95 % 1010,7 hPa 0,0 mm 0,0 km/h (0 Bft) W-SW 252 ° 0 min 0,000 mm 0,0 UV-I 18 W/m² 7,5 °C 8,3 °C 0,0 km/h (0 Bft)
16.04.2018 07:21 8,3 °C 95 % 1010,7 hPa 0,0 mm 0,0 km/h (0 Bft) W-SW 252 ° 0 min 0,000 mm 0,0 UV-I 19 W/m² 7,5 °C 8,3 °C 0,0 km/h (0 Bft)
16.04.2018 07:22 8,3 °C 95 % 1010,7 hPa 0,0 mm 0,0 km/h (0 Bft) W-SW 252 ° 0 min 0,000 mm 0,0 UV-I 19 W/m² 7,5 °C 8,3 °C 0,0 km/h (0 Bft)
16.04.2018 07:23 8,4 °C 95 % 1010,7 hPa 0,0 mm 0,0 km/h (0 Bft) W-SW 252 ° 0 min 0,000 mm 0,0 UV-I 19 W/m² 7,6 °C 8,4 °C 0,0 km/h (0 Bft)
16.04.2018 07:24 8,4 °C 95 % 1010,7 hPa 0,0 mm 0,0 km/h (0 Bft) W-SW 252 ° 0 min 0,000 mm 0,0 UV-I 19 W/m² 7,6 °C 8,4 °C 0,0 km/h (0 Bft)
16.04.2018 07:25 8,4 °C 95 % 1010,8 hPa 0,2 mm 0,0 km/h (0 Bft) W-SW 252 ° 0 min 0,000 mm 0,0 UV-I 19 W/m² 7,6 °C 8,4 °C 0,0 km/h (0 Bft)
16.04.2018 07:26 8,4 °C 95 % 1010,8 hPa 0,0 mm 0,0 km/h (0 Bft) W-SW 252 ° 0 min 0,000 mm 0,0 UV-I 19 W/m² 7,6 °C 8,4 °C 0,0 km/h (0 Bft)
16.04.2018 07:27 8,4 °C 95 % 1010,8 hPa 0,0 mm 0,0 km/h (0 Bft) W-SW 252 ° 0 min 0,000 mm 0,0 UV-I 19 W/m² 7,6 °C 8,4 °C 0,0 km/h (0 Bft)
16.04.2018 07:28 8,4 °C 95 % 1010,8 hPa 0,0 mm 0,0 km/h (0 Bft) W-SW 252 ° 0 min 0,000 mm 0,0 UV-I 19 W/m² 7,6 °C 8,4 °C 0,0 km/h (0 Bft)
16.04.2018 07:29 8,4 °C 95 % 1010,8 hPa 0,0 mm 0,0 km/h (0 Bft) W-SW 252 ° 0 min 0,000 mm 0,0 UV-I 21 W/m² 7,6 °C 8,4 °C 0,0 km/h (0 Bft)
16.04.2018 07:30 8,4 °C 95 % 1010,8 hPa 0,0 mm 0,0 km/h (0 Bft) W-SW 252 ° 0 min 0,000 mm 0,0 UV-I 21 W/m² 7,6 °C 8,4 °C 0,0 km/h (0 Bft)
16.04.2018 07:31 8,4 °C 95 % 1010,8 hPa 0,0 mm 0,0 km/h (0 Bft) W-SW 252 ° 0 min 0,000 mm 0,0 UV-I 21 W/m² 7,6 °C 8,4 °C 0,0 km/h (0 Bft)
16.04.2018 07:32 8,4 °C 95 % 1010,8 hPa 0,0 mm 0,0 km/h (0 Bft) W-SW 252 ° 0 min 0,000 mm 0,0 UV-I 21 W/m² 7,6 °C 8,4 °C 0,0 km/h (0 Bft)
16.04.2018 07:33 8,4 °C 95 % 1010,9 hPa 0,0 mm 0,0 km/h (0 Bft) W-SW 252 ° 0 min 0,000 mm 0,0 UV-I 21 W/m² 7,6 °C 8,4 °C 0,0 km/h (0 Bft)
16.04.2018 07:34 8,4 °C 95 % 1010,9 hPa 0,2 mm 0,0 km/h (0 Bft) W-SW 252 ° 0 min 0,000 mm 0,0 UV-I 21 W/m² 7,6 °C 8,4 °C 0,0 km/h (0 Bft)
16.04.2018 07:35 8,4 °C 95 % 1010,9 hPa 0,0 mm 0,0 km/h (0 Bft) W-SW 252 ° 0 min 0,000 mm 0,0 UV-I 21 W/m² 7,6 °C 8,4 °C 0,0 km/h (0 Bft)
16.04.2018 07:36 8,4 °C 95 % 1011,0 hPa 0,0 mm 0,0 km/h (0 Bft) W-SW 252 ° 0 min 0,000 mm 0,0 UV-I 21 W/m² 7,6 °C 8,4 °C 0,0 km/h (0 Bft)
16.04.2018 07:37 8,4 °C 95 % 1011,0 hPa 0,0 mm 0,0 km/h (0 Bft) W-SW 252 ° 0 min 0,000 mm 0,0 UV-I 21 W/m² 7,6 °C 8,4 °C 0,0 km/h (0 Bft)
16.04.2018 07:38 8,4 °C 95 % 1011,0 hPa 0,0 mm 0,0 km/h (0 Bft) W-SW 252 ° 0 min 0,000 mm 0,0 UV-I 21 W/m² 7,6 °C 8,4 °C 0,0 km/h (0 Bft)
16.04.2018 07:39 8,4 °C 95 % 1011,0 hPa 0,0 mm 0,0 km/h (0 Bft) W-SW 252 ° 0 min 0,000 mm 0,0 UV-I 21 W/m² 7,6 °C 8,4 °C 0,0 km/h (0 Bft)
16.04.2018 07:40 8,4 °C 95 % 1011,0 hPa 0,0 mm 0,0 km/h (0 Bft) W-SW 252 ° 0 min 0,000 mm 0,0 UV-I 21 W/m² 7,6 °C 8,4 °C 0,0 km/h (0 Bft)
16.04.2018 07:41 8,4 °C 95 % 1011,0 hPa 0,0 mm 0,0 km/h (0 Bft) W-SW 252 ° 0 min 0,000 mm 0,0 UV-I 21 W/m² 7,6 °C 8,4 °C 0,0 km/h (0 Bft)
16.04.2018 07:42 8,4 °C 95 % 1011,0 hPa 0,0 mm 0,0 km/h (0 Bft) W-SW 252 ° 0 min 0,000 mm 0,0 UV-I 23 W/m² 7,6 °C 8,4 °C 0,0 km/h (0 Bft)
16.04.2018 07:43 8,5 °C 95 % 1011,0 hPa 0,0 mm 0,0 km/h (0 Bft) W-SW 252 ° 0 min 0,000 mm 0,0 UV-I 23 W/m² 7,7 °C 8,5 °C 0,0 km/h (0 Bft)
16.04.2018 07:44 8,5 °C 95 % 1011,0 hPa 0,0 mm 0,0 km/h (0 Bft) W-SW 252 ° 0 min 0,000 mm 0,0 UV-I 25 W/m² 7,7 °C 8,5 °C 0,0 km/h (0 Bft)
16.04.2018 07:45 8,5 °C 95 % 1011,0 hPa 0,0 mm 0,0 km/h (0 Bft) W-SW 252 ° 0 min 0,000 mm 0,0 UV-I 25 W/m² 7,7 °C 8,5 °C 0,0 km/h (0 Bft)
16.04.2018 07:46 8,4 °C 95 % 1011,0 hPa 0,0 mm 0,0 km/h (0 Bft) W-SW 252 ° 0 min 0,000 mm 0,0 UV-I 25 W/m² 7,6 °C 8,4 °C 0,0 km/h (0 Bft)
16.04.2018 07:47 8,5 °C 95 % 1011,0 hPa 0,0 mm 0,0 km/h (0 Bft) W-SW 252 ° 0 min 0,000 mm 0,0 UV-I 23 W/m² 7,7 °C 8,5 °C 0,0 km/h (0 Bft)
16.04.2018 07:48 8,5 °C 95 % 1011,0 hPa 0,2 mm 0,0 km/h (0 Bft) W-SW 252 ° 0 min 0,000 mm 0,0 UV-I 23 W/m² 7,7 °C 8,5 °C 0,0 km/h (0 Bft)
16.04.2018 07:49 8,5 °C 95 % 1011,1 hPa 0,0 mm 0,0 km/h (0 Bft) W-SW 252 ° 0 min 0,000 mm 0,0 UV-I 21 W/m² 7,7 °C 8,5 °C 0,0 km/h (0 Bft)
16.04.2018 07:50 8,5 °C 95 % 1011,1 hPa 0,0 mm 0,0 km/h (0 Bft) W-SW 252 ° 0 min 0,000 mm 0,0 UV-I 21 W/m² 7,7 °C 8,5 °C 0,0 km/h (0 Bft)
16.04.2018 07:51 8,5 °C 95 % 1011,1 hPa 0,0 mm 0,0 km/h (0 Bft) W-SW 252 ° 0 min 0,000 mm 0,0 UV-I 21 W/m² 7,7 °C 8,5 °C 0,0 km/h (0 Bft)
16.04.2018 07:52 8,6 °C 95 % 1011,1 hPa 0,0 mm 0,0 km/h (0 Bft) W-SW 252 ° 0 min 0,000 mm 0,0 UV-I 21 W/m² 7,8 °C 8,6 °C 0,0 km/h (0 Bft)
16.04.2018 07:53 8,5 °C 95 % 1011,1 hPa 0,0 mm 0,0 km/h (0 Bft) W-SW 252 ° 0 min 0,000 mm 0,0 UV-I 21 W/m² 7,7 °C 8,5 °C 0,0 km/h (0 Bft)
16.04.2018 07:54 8,6 °C 95 % 1011,2 hPa 0,0 mm 0,0 km/h (0 Bft) W-SW 252 ° 0 min 0,000 mm 0,0 UV-I 21 W/m² 7,8 °C 8,6 °C 0,0 km/h (0 Bft)
16.04.2018 07:55 8,6 °C 95 % 1011,1 hPa 0,0 mm 0,0 km/h (0 Bft) W-SW 252 ° 0 min 0,000 mm 0,0 UV-I 21 W/m² 7,8 °C 8,6 °C 0,0 km/h (0 Bft)
16.04.2018 07:56 8,6 °C 95 % 1011,2 hPa 0,0 mm 0,0 km/h (0 Bft) W-SW 252 ° 0 min 0,000 mm 0,0 UV-I 19 W/m² 7,8 °C 8,6 °C 0,0 km/h (0 Bft)
16.04.2018 07:57 8,6 °C 95 % 1011,2 hPa 0,0 mm 0,0 km/h (0 Bft) W-SW 252 ° 0 min 0,000 mm 0,0 UV-I 21 W/m² 7,8 °C 8,6 °C 0,0 km/h (0 Bft)
16.04.2018 07:58 8,6 °C 95 % 1011,2 hPa 0,0 mm 0,0 km/h (0 Bft) W-SW 252 ° 0 min 0,000 mm 0,0 UV-I 21 W/m² 7,8 °C 8,6 °C 0,0 km/h (0 Bft)
16.04.2018 07:59 8,6 °C 95 % 1011,2 hPa 0,0 mm 0,0 km/h (0 Bft) W-SW 252 ° 0 min 0,000 mm 0,0 UV-I 23 W/m² 7,8 °C 8,6 °C 0,0 km/h (0 Bft)
16.04.2018 08:00 8,6 °C 95 % 1011,2 hPa 0,0 mm 0,0 km/h (0 Bft) W-SW 252 ° 0 min 0,000 mm 0,0 UV-I 25 W/m² 7,8 °C 8,6 °C 0,0 km/h (0 Bft)
16.04.2018 08:01 8,6 °C 95 % 1011,2 hPa 0,0 mm 0,0 km/h (0 Bft) W-SW 252 ° 0 min 0,000 mm 0,0 UV-I 26 W/m² 7,8 °C 8,6 °C 0,0 km/h (0 Bft)
16.04.2018 08:02 8,6 °C 95 % 1011,2 hPa 0,2 mm 0,0 km/h (0 Bft) W-SW 252 ° 0 min 0,000 mm 0,0 UV-I 25 W/m² 7,8 °C 8,6 °C 0,0 km/h (0 Bft)
16.04.2018 08:03 8,6 °C 95 % 1011,2 hPa 0,0 mm 0,0 km/h (0 Bft) W-SW 252 ° 0 min 0,000 mm 0,0 UV-I 23 W/m² 7,8 °C 8,6 °C 0,0 km/h (0 Bft)
16.04.2018 08:04 8,6 °C 95 % 1011,2 hPa 0,0 mm 0,0 km/h (0 Bft) W-SW 252 ° 0 min 0,000 mm 0,0 UV-I 21 W/m² 7,8 °C 8,6 °C 0,0 km/h (0 Bft)
16.04.2018 08:05 8,6 °C 95 % 1011,2 hPa 0,0 mm 0,0 km/h (0 Bft) W-SW 252 ° 0 min 0,000 mm 0,0 UV-I 19 W/m² 7,8 °C 8,6 °C 0,0 km/h (0 Bft)
16.04.2018 08:06 8,6 °C 95 % 1011,2 hPa 0,0 mm 0,0 km/h (0 Bft) W-SW 252 ° 0 min 0,000 mm 0,0 UV-I 19 W/m² 7,8 °C 8,6 °C 0,0 km/h (0 Bft)
16.04.2018 08:07 8,6 °C 95 % 1011,2 hPa 0,0 mm 0,0 km/h (0 Bft) W-SW 252 ° 0 min 0,000 mm 0,0 UV-I 18 W/m² 7,8 °C 8,6 °C 0,0 km/h (0 Bft)
16.04.2018 08:08 8,6 °C 95 % 1011,3 hPa 0,0 mm 0,0 km/h (0 Bft) W-SW 252 ° 0 min 0,000 mm 0,0 UV-I 18 W/m² 7,8 °C 8,6 °C 0,0 km/h (0 Bft)
16.04.2018 08:09 8,6 °C 95 % 1011,2 hPa 0,0 mm 0,0 km/h (0 Bft) W-SW 252 ° 0 min 0,000 mm 0,0 UV-I 19 W/m² 7,8 °C 8,6 °C 0,0 km/h (0 Bft)
16.04.2018 08:10 8,7 °C 95 % 1011,3 hPa 0,0 mm 0,0 km/h (0 Bft) W-SW 252 ° 0 min 0,000 mm 0,0 UV-I 21 W/m² 7,9 °C 8,7 °C 0,0 km/h (0 Bft)
16.04.2018 08:11 8,7 °C 95 % 1011,3 hPa 0,0 mm 0,0 km/h (0 Bft) W-SW 252 ° 0 min 0,000 mm 0,0 UV-I 21 W/m² 7,9 °C 8,7 °C 0,0 km/h (0 Bft)
16.04.2018 08:12 8,6 °C 95 % 1011,3 hPa 0,0 mm 0,0 km/h (0 Bft) W-SW 252 ° 0 min 0,000 mm 0,0 UV-I 21 W/m² 7,8 °C 8,6 °C 0,0 km/h (0 Bft)
16.04.2018 08:13 8,6 °C 95 % 1011,3 hPa 0,0 mm 0,0 km/h (0 Bft) W-SW 252 ° 0 min 0,000 mm 0,0 UV-I 19 W/m² 7,8 °C 8,6 °C 0,0 km/h (0 Bft)
16.04.2018 08:14 8,7 °C 95 % 1011,3 hPa 0,0 mm 0,0 km/h (0 Bft) W-SW 252 ° 0 min 0,000 mm 0,0 UV-I 19 W/m² 7,9 °C 8,7 °C 0,0 km/h (0 Bft)
16.04.2018 08:15 8,6 °C 95 % 1011,4 hPa 0,0 mm 0,0 km/h (0 Bft) W-SW 252 ° 0 min 0,000 mm 0,0 UV-I 18 W/m² 7,8 °C 8,6 °C 0,0 km/h (0 Bft)
16.04.2018 08:16 8,7 °C 95 % 1011,4 hPa 0,0 mm 0,0 km/h (0 Bft) W-SW 252 ° 0 min 0,000 mm 0,0 UV-I 18 W/m² 7,9 °C 8,7 °C 0,0 km/h (0 Bft)
16.04.2018 08:17 8,7 °C 95 % 1011,4 hPa 0,0 mm 0,0 km/h (0 Bft) W-SW 252 ° 0 min 0,000 mm 0,0 UV-I 16 W/m² 7,9 °C 8,7 °C 0,0 km/h (0 Bft)
16.04.2018 08:18 8,7 °C 95 % 1011,4 hPa 0,0 mm 0,0 km/h (0 Bft) W-SW 252 ° 0 min 0,000 mm 0,0 UV-I 16 W/m² 7,9 °C 8,7 °C 0,0 km/h (0 Bft)
16.04.2018 08:19 8,7 °C 95 % 1011,4 hPa 0,0 mm 0,0 km/h (0 Bft) W-SW 252 ° 0 min 0,000 mm 0,0 UV-I 14 W/m² 7,9 °C 8,7 °C 0,0 km/h (0 Bft)
16.04.2018 08:20 8,7 °C 95 % 1011,3 hPa 0,0 mm 0,0 km/h (0 Bft) W-SW 252 ° 0 min 0,000 mm 0,0 UV-I 14 W/m² 7,9 °C 8,7 °C 0,0 km/h (0 Bft)
16.04.2018 08:21 8,7 °C 95 % 1011,4 hPa 0,0 mm 0,0 km/h (0 Bft) W-SW 252 ° 0 min 0,000 mm 0,0 UV-I 12 W/m² 7,9 °C 8,7 °C 0,0 km/h (0 Bft)
16.04.2018 08:22 8,7 °C 95 % 1011,4 hPa 0,0 mm 0,0 km/h (0 Bft) W-SW 252 ° 0 min 0,000 mm 0,0 UV-I 12 W/m² 7,9 °C 8,7 °C 0,0 km/h (0 Bft)
16.04.2018 08:23 8,7 °C 95 % 1011,4 hPa 0,0 mm 0,0 km/h (0 Bft) W-SW 252 ° 0 min 0,000 mm 0,0 UV-I 12 W/m² 7,9 °C 8,7 °C 0,0 km/h (0 Bft)
16.04.2018 08:24 8,7 °C 95 % 1011,4 hPa 0,0 mm 0,0 km/h (0 Bft) W-SW 252 ° 0 min 0,000 mm 0,0 UV-I 14 W/m² 7,9 °C 8,7 °C 0,0 km/h (0 Bft)
16.04.2018 08:25 8,7 °C 95 % 1011,4 hPa 0,0 mm 0,0 km/h (0 Bft) W-SW 252 ° 0 min 0,000 mm 0,0 UV-I 18 W/m² 7,9 °C 8,7 °C 0,0 km/h (0 Bft)
16.04.2018 08:26 8,6 °C 95 % 1011,4 hPa 0,0 mm 0,2 km/h (0 Bft) W-SW 252 ° 0 min 0,000 mm 0,0 UV-I 21 W/m² 7,8 °C 8,6 °C 1,6 km/h (1 Bft)
16.04.2018 08:27 8,7 °C 94 % 1011,4 hPa 0,2 mm 0,1 km/h (0 Bft) W-SW 252 ° 0 min 0,000 mm 0,0 UV-I 21 W/m² 7,8 °C 8,7 °C 1,6 km/h (1 Bft)
16.04.2018 08:28 8,7 °C 94 % 1011,4 hPa 0,0 mm 0,9 km/h (0 Bft) W-SW 252 ° 0 min 0,000 mm 0,0 UV-I 21 W/m² 7,8 °C 8,7 °C 1,6 km/h (1 Bft)
16.04.2018 08:29 8,7 °C 94 % 1011,3 hPa 0,0 mm 2,5 km/h (1 Bft) W-SW 252 ° 0 min 0,000 mm 0,0 UV-I 19 W/m² 7,8 °C 8,7 °C 3,2 km/h (1 Bft)
16.04.2018 08:30 8,7 °C 94 % 1011,4 hPa 0,0 mm 2,9 km/h (1 Bft) W-SW 252 ° 0 min 0,000 mm 0,0 UV-I 19 W/m² 7,8 °C 8,7 °C 4,8 km/h (1 Bft)
16.04.2018 08:31 8,7 °C 94 % 1011,4 hPa 0,0 mm 1,7 km/h (1 Bft) W-SW 252 ° 0 min 0,000 mm 0,0 UV-I 19 W/m² 7,8 °C 8,7 °C 3,2 km/h (1 Bft)
16.04.2018 08:32 8,7 °C 94 % 1011,4 hPa 0,0 mm 0,8 km/h (0 Bft) W-SW 252 ° 0 min 0,000 mm 0,0 UV-I 21 W/m² 7,8 °C 8,7 °C 1,6 km/h (1 Bft)
16.04.2018 08:33 8,7 °C 94 % 1011,4 hPa 0,0 mm 0,0 km/h (0 Bft) W-SW 252 ° 0 min 0,000 mm 0,0 UV-I 23 W/m² 7,8 °C 8,7 °C 0,0 km/h (0 Bft)
16.04.2018 08:34 8,7 °C 94 % 1011,4 hPa 0,0 mm 0,0 km/h (0 Bft) W-SW 252 ° 0 min 0,000 mm 0,0 UV-I 23 W/m² 7,8 °C 8,7 °C 0,0 km/h (0 Bft)
16.04.2018 08:35 8,7 °C 94 % 1011,5 hPa 0,0 mm 0,0 km/h (0 Bft) W-SW 252 ° 0 min 0,000 mm 0,0 UV-I 25 W/m² 7,8 °C 8,7 °C 0,0 km/h (0 Bft)
16.04.2018 08:36 8,7 °C 94 % 1011,5 hPa 0,0 mm 0,0 km/h (0 Bft) W-SW 252 ° 0 min 0,000 mm 0,0 UV-I 23 W/m² 7,8 °C 8,7 °C 0,0 km/h (0 Bft)
16.04.2018 08:37 8,7 °C 94 % 1011,5 hPa 0,0 mm 0,0 km/h (0 Bft) W-SW 252 ° 0 min 0,000 mm 0,0 UV-I 23 W/m² 7,8 °C 8,7 °C 0,0 km/h (0 Bft)
16.04.2018 08:38 8,7 °C 94 % 1011,5 hPa 0,0 mm 0,0 km/h (0 Bft) W-SW 252 ° 0 min 0,000 mm 0,0 UV-I 25 W/m² 7,8 °C 8,7 °C 0,0 km/h (0 Bft)
16.04.2018 08:39 8,7 °C 94 % 1011,5 hPa 0,0 mm 0,0 km/h (0 Bft) W-SW 252 ° 0 min 0,000 mm 0,0 UV-I 25 W/m² 7,8 °C 8,7 °C 0,0 km/h (0 Bft)
16.04.2018 08:40 8,7 °C 94 % 1011,5 hPa 0,0 mm 0,0 km/h (0 Bft) W-SW 252 ° 0 min 0,000 mm 0,0 UV-I 25 W/m² 7,8 °C 8,7 °C 0,0 km/h (0 Bft)
16.04.2018 08:41 8,7 °C 94 % 1011,6 hPa 0,0 mm 0,0 km/h (0 Bft) W-SW 252 ° 0 min 0,000 mm 0,0 UV-I 25 W/m² 7,8 °C 8,7 °C 0,0 km/h (0 Bft)
16.04.2018 08:42 8,7 °C 94 % 1011,5 hPa 0,0 mm 0,0 km/h (0 Bft) W-SW 252 ° 0 min 0,000 mm 0,0 UV-I 23 W/m² 7,8 °C 8,7 °C 0,0 km/h (0 Bft)
16.04.2018 08:43 8,7 °C 94 % 1011,6 hPa 0,0 mm 0,0 km/h (0 Bft) W-SW 252 ° 0 min 0,000 mm 0,0 UV-I 23 W/m² 7,8 °C 8,7 °C 0,0 km/h (0 Bft)
16.04.2018 08:44 8,8 °C 94 % 1011,6 hPa 0,0 mm 0,0 km/h (0 Bft) W-SW 252 ° 0 min 0,000 mm 0,0 UV-I 23 W/m² 7,9 °C 8,8 °C 0,0 km/h (0 Bft)
16.04.2018 08:45 8,7 °C 94 % 1011,6 hPa 0,0 mm 0,0 km/h (0 Bft) W-SW 252 ° 0 min 0,000 mm 0,0 UV-I 23 W/m² 7,8 °C 8,7 °C 0,0 km/h (0 Bft)
16.04.2018 08:46 8,7 °C 94 % 1011,6 hPa 0,0 mm 0,0 km/h (0 Bft) W-SW 252 ° 0 min 0,000 mm 0,0 UV-I 25 W/m² 7,8 °C 8,7 °C 0,0 km/h (0 Bft)
16.04.2018 08:47 8,7 °C 94 % 1011,6 hPa 0,0 mm 0,0 km/h (0 Bft) W-SW 252 ° 0 min 0,000 mm 0,0 UV-I 28 W/m² 7,8 °C 8,7 °C 0,0 km/h (0 Bft)
16.04.2018 08:48 8,8 °C 94 % 1011,6 hPa 0,2 mm 0,0 km/h (0 Bft) W-SW 252 ° 0 min 0,000 mm 0,0 UV-I 26 W/m² 7,9 °C 8,8 °C 0,0 km/h (0 Bft)
16.04.2018 08:49 8,8 °C 94 % 1011,6 hPa 0,0 mm 0,0 km/h (0 Bft) W-SW 252 ° 0 min 0,000 mm 0,0 UV-I 25 W/m² 7,9 °C 8,8 °C 0,0 km/h (0 Bft)
16.04.2018 08:50 8,8 °C 94 % 1011,6 hPa 0,0 mm 0,0 km/h (0 Bft) W-SW 252 ° 0 min 0,000 mm 0,0 UV-I 23 W/m² 7,9 °C 8,8 °C 0,0 km/h (0 Bft)
16.04.2018 08:51 8,8 °C 94 % 1011,6 hPa 0,0 mm 0,0 km/h (0 Bft) W-SW 252 ° 0 min 0,000 mm 0,0 UV-I 23 W/m² 7,9 °C 8,8 °C 0,0 km/h (0 Bft)
16.04.2018 08:52 8,8 °C 94 % 1011,6 hPa 0,0 mm 0,0 km/h (0 Bft) W-SW 252 ° 0 min 0,000 mm 0,0 UV-I 25 W/m² 7,9 °C 8,8 °C 0,0 km/h (0 Bft)
16.04.2018 08:53 8,8 °C 94 % 1011,6 hPa 0,0 mm 0,0 km/h (0 Bft) W-SW 252 ° 0 min 0,000 mm 0,0 UV-I 25 W/m² 7,9 °C 8,8 °C 0,0 km/h (0 Bft)
16.04.2018 08:54 8,7 °C 94 % 1011,6 hPa 0,0 mm 2,8 km/h (1 Bft) S-SW 209 ° 0 min 0,000 mm 0,0 UV-I 26 W/m² 7,8 °C 8,7 °C 4,8 km/h (1 Bft)
16.04.2018 08:55 8,8 °C 94 % 1011,7 hPa 0,0 mm 1,4 km/h (1 Bft) S-SW 209 ° 0 min 0,000 mm 0,0 UV-I 28 W/m² 7,9 °C 8,8 °C 3,2 km/h (1 Bft)
16.04.2018 08:56 8,8 °C 94 % 1011,6 hPa 0,0 mm 0,3 km/h (0 Bft) S-SW 209 ° 0 min 0,000 mm 0,0 UV-I 28 W/m² 7,9 °C 8,8 °C 1,6 km/h (1 Bft)
16.04.2018 08:57 8,8 °C 94 % 1011,7 hPa 0,0 mm 0,5 km/h (0 Bft) S-SW 209 ° 0 min 0,000 mm 0,0 UV-I 28 W/m² 7,9 °C 8,8 °C 3,2 km/h (1 Bft)
16.04.2018 08:58 8,8 °C 94 % 1011,6 hPa 0,0 mm 0,3 km/h (0 Bft) S-SW 209 ° 0 min 0,000 mm 0,0 UV-I 26 W/m² 7,9 °C 8,8 °C 1,6 km/h (1 Bft)
16.04.2018 08:59 8,8 °C 94 % 1011,6 hPa 0,0 mm 2,2 km/h (1 Bft) S-SW 209 ° 0 min 0,000 mm 0,0 UV-I 26 W/m² 7,9 °C 8,8 °C 3,2 km/h (1 Bft)
16.04.2018 09:00 8,8 °C 94 % 1011,8 hPa 0,2 mm 2,3 km/h (1 Bft) S-SW 209 ° 0 min 0,000 mm 0,0 UV-I 23 W/m² 7,9 °C 8,8 °C 3,2 km/h (1 Bft)
16.04.2018 09:01 8,8 °C 94 % 1011,6 hPa 0,0 mm 1,9 km/h (1 Bft) S-SW 209 ° 0 min 0,000 mm 0,0 UV-I 23 W/m² 7,9 °C 8,8 °C 3,2 km/h (1 Bft)
16.04.2018 09:02 8,8 °C 94 % 1011,7 hPa 0,0 mm 3,1 km/h (1 Bft) S-SW 210 ° 0 min 0,000 mm 0,0 UV-I 23 W/m² 7,9 °C 8,8 °C 4,8 km/h (1 Bft)
16.04.2018 09:03 8,8 °C 94 % 1011,7 hPa 0,0 mm 1,7 km/h (1 Bft) S-SW 210 ° 0 min 0,000 mm 0,0 UV-I 23 W/m² 7,9 °C 8,8 °C 3,2 km/h (1 Bft)
16.04.2018 09:04 8,8 °C 94 % 1011,7 hPa 0,2 mm 1,4 km/h (1 Bft) S-SW 210 ° 0 min 0,000 mm 0,0 UV-I 21 W/m² 7,9 °C 8,8 °C 3,2 km/h (1 Bft)
16.04.2018 09:05 8,8 °C 94 % 1011,7 hPa 0,0 mm 1,5 km/h (1 Bft) S-SW 210 ° 0 min 0,000 mm 0,0 UV-I 25 W/m² 7,9 °C 8,8 °C 3,2 km/h (1 Bft)
16.04.2018 09:06 8,8 °C 94 % 1011,8 hPa 0,0 mm 0,1 km/h (0 Bft) S-SW 210 ° 0 min 0,000 mm 0,0 UV-I 25 W/m² 7,9 °C 8,8 °C 1,6 km/h (1 Bft)
16.04.2018 09:07 8,8 °C 94 % 1011,8 hPa 0,0 mm 0,9 km/h (0 Bft) S-SW 210 ° 0 min 0,000 mm 0,0 UV-I 25 W/m² 7,9 °C 8,8 °C 3,2 km/h (1 Bft)
16.04.2018 09:08 8,8 °C 94 % 1011,8 hPa 0,0 mm 2,7 km/h (1 Bft) W-SW 238 ° 0 min 0,000 mm 0,0 UV-I 25 W/m² 7,9 °C 8,8 °C 4,8 km/h (1 Bft)
16.04.2018 09:09 8,8 °C 94 % 1011,8 hPa 0,2 mm 0,3 km/h (0 Bft) W-SW 238 ° 0 min 0,000 mm 0,0 UV-I 26 W/m² 7,9 °C 8,8 °C 1,6 km/h (1 Bft)
16.04.2018 09:10 8,8 °C 94 % 1011,8 hPa 0,0 mm 1,0 km/h (0 Bft) W-SW 238 ° 0 min 0,000 mm 0,0 UV-I 32 W/m² 7,9 °C 8,8 °C 3,2 km/h (1 Bft)
16.04.2018 09:11 8,8 °C 94 % 1011,8 hPa 0,0 mm 1,1 km/h (1 Bft) W-SW 238 ° 0 min 0,000 mm 0,0 UV-I 37 W/m² 7,9 °C 8,8 °C 3,2 km/h (1 Bft)
16.04.2018 09:12 8,8 °C 94 % 1011,8 hPa 0,2 mm 0,3 km/h (0 Bft) W-SW 238 ° 0 min 0,000 mm 0,0 UV-I 37 W/m² 7,9 °C 8,8 °C 1,6 km/h (1 Bft)
16.04.2018 09:13 8,8 °C 94 % 1011,8 hPa 0,0 mm 1,5 km/h (1 Bft) W-SW 238 ° 0 min 0,000 mm 0,0 UV-I 37 W/m² 7,9 °C 8,8 °C 3,2 km/h (1 Bft)
16.04.2018 09:14 8,8 °C 94 % 1011,8 hPa 0,0 mm 1,1 km/h (1 Bft) W-SW 238 ° 0 min 0,000 mm 0,0 UV-I 40 W/m² 7,9 °C 8,8 °C 3,2 km/h (1 Bft)
16.04.2018 09:15 8,8 °C 94 % 1011,8 hPa 0,0 mm 0,2 km/h (0 Bft) W-SW 238 ° 0 min 0,000 mm 0,0 UV-I 44 W/m² 7,9 °C 8,8 °C 1,6 km/h (1 Bft)
16.04.2018 09:16 8,8 °C 94 % 1011,8 hPa 0,2 mm 0,3 km/h (0 Bft) W-SW 238 ° 0 min 0,000 mm 0,0 UV-I 49 W/m² 7,9 °C 8,8 °C 1,6 km/h (1 Bft)
16.04.2018 09:17 8,8 °C 94 % 1011,9 hPa 0,0 mm 2,6 km/h (1 Bft) W-SW 238 ° 0 min 0,000 mm 0,0 UV-I 58 W/m² 7,9 °C 8,8 °C 4,8 km/h (1 Bft)
16.04.2018 09:18 8,8 °C 94 % 1011,9 hPa 0,0 mm 3,1 km/h (1 Bft) W-SW 238 ° 0 min 0,000 mm 0,0 UV-I 58 W/m² 7,9 °C 8,8 °C 4,8 km/h (1 Bft)
16.04.2018 09:19 8,8 °C 94 % 1011,9 hPa 0,0 mm 2,9 km/h (1 Bft) W-SW 239 ° 0 min 0,000 mm 0,0 UV-I 54 W/m² 7,9 °C 8,8 °C 4,8 km/h (1 Bft)
16.04.2018 09:20 8,8 °C 94 % 1011,9 hPa 0,2 mm 2,7 km/h (1 Bft) W-SW 239 ° 0 min 0,000 mm 0,0 UV-I 54 W/m² 7,9 °C 8,8 °C 4,8 km/h (1 Bft)
16.04.2018 09:21 8,8 °C 94 % 1011,9 hPa 0,0 mm 0,5 km/h (0 Bft) W-SW 239 ° 0 min 0,000 mm 0,0 UV-I 56 W/m² 7,9 °C 8,8 °C 1,6 km/h (1 Bft)
16.04.2018 09:22 8,8 °C 94 % 1011,9 hPa 0,0 mm 2,7 km/h (1 Bft) W-SW 239 ° 0 min 0,000 mm 0,0 UV-I 58 W/m² 7,9 °C 8,8 °C 4,8 km/h (1 Bft)
16.04.2018 09:23 8,8 °C 94 % 1011,9 hPa 0,0 mm 3,5 km/h (1 Bft) W-SW 238 ° 0 min 0,000 mm 0,0 UV-I 63 W/m² 7,9 °C 8,8 °C 4,8 km/h (1 Bft)
16.04.2018 09:24 8,9 °C 94 % 1011,9 hPa 0,0 mm 1,7 km/h (1 Bft) W-SW 238 ° 0 min 0,000 mm 0,5 UV-I 70 W/m² 8,0 °C 8,9 °C 3,2 km/h (1 Bft)
16.04.2018 09:25 8,9 °C 94 % 1011,9 hPa 0,0 mm 2,4 km/h (1 Bft) W-SW 238 ° 0 min 0,000 mm 0,5 UV-I 70 W/m² 8,0 °C 8,9 °C 4,8 km/h (1 Bft)
16.04.2018 09:26 8,9 °C 93 % 1011,9 hPa 0,0 mm 1,5 km/h (1 Bft) W-SW 238 ° 0 min 0,000 mm 0,5 UV-I 67 W/m² 7,8 °C 8,9 °C 3,2 km/h (1 Bft)
16.04.2018 09:27 8,9 °C 94 % 1011,9 hPa 0,0 mm 1,9 km/h (1 Bft) W-SW 238 ° 0 min 0,000 mm 0,5 UV-I 63 W/m² 8,0 °C 8,9 °C 3,2 km/h (1 Bft)
16.04.2018 09:28 8,9 °C 94 % 1011,9 hPa 0,0 mm 1,1 km/h (1 Bft) W-SW 238 ° 0 min 0,000 mm 0,0 UV-I 62 W/m² 8,0 °C 8,9 °C 1,6 km/h (1 Bft)
16.04.2018 09:29 8,9 °C 94 % 1011,9 hPa 0,2 mm 0,6 km/h (0 Bft) W-SW 238 ° 0 min 0,000 mm 0,0 UV-I 60 W/m² 8,0 °C 8,9 °C 1,6 km/h (1 Bft)
16.04.2018 09:30 8,9 °C 93 % 1011,9 hPa 0,0 mm 2,3 km/h (1 Bft) W-SW 238 ° 0 min 0,000 mm 0,0 UV-I 62 W/m² 7,8 °C 8,9 °C 4,8 km/h (1 Bft)
16.04.2018 09:31 8,9 °C 93 % 1011,9 hPa 0,0 mm 2,2 km/h (1 Bft) W-SW 238 ° 0 min 0,000 mm 0,0 UV-I 62 W/m² 7,8 °C 8,9 °C 4,8 km/h (1 Bft)
16.04.2018 09:32 8,9 °C 93 % 1011,9 hPa 0,0 mm 3,6 km/h (1 Bft) S 187 ° 0 min 0,000 mm 0,0 UV-I 60 W/m² 7,8 °C 8,9 °C 6,4 km/h (2 Bft)
16.04.2018 09:33 9,0 °C 93 % 1012,0 hPa 0,0 mm 0,7 km/h (0 Bft) S 187 ° 0 min 0,000 mm 0,0 UV-I 54 W/m² 7,9 °C 9,0 °C 3,2 km/h (1 Bft)
16.04.2018 09:34 9,0 °C 93 % 1012,0 hPa 0,0 mm 0,5 km/h (0 Bft) S 187 ° 0 min 0,000 mm 0,0 UV-I 47 W/m² 7,9 °C 9,0 °C 1,6 km/h (1 Bft)
16.04.2018 09:35 9,0 °C 93 % 1012,0 hPa 0,0 mm 2,1 km/h (1 Bft) S 187 ° 0 min 0,000 mm 0,0 UV-I 37 W/m² 7,9 °C 9,0 °C 3,2 km/h (1 Bft)
16.04.2018 09:36 9,0 °C 93 % 1012,0 hPa 0,0 mm 0,1 km/h (0 Bft) S 187 ° 0 min 0,000 mm 0,0 UV-I 32 W/m² 7,9 °C 9,0 °C 1,6 km/h (1 Bft)
16.04.2018 09:37 9,0 °C 93 % 1012,0 hPa 0,0 mm 3,2 km/h (1 Bft) W-SW 245 ° 0 min 0,000 mm 0,0 UV-I 28 W/m² 7,9 °C 9,0 °C 4,8 km/h (1 Bft)
16.04.2018 09:38 9,0 °C 93 % 1011,9 hPa 0,0 mm 1,2 km/h (1 Bft) W-SW 246 ° 0 min 0,000 mm 0,0 UV-I 28 W/m² 7,9 °C 9,0 °C 3,2 km/h (1 Bft)
16.04.2018 09:39 9,0 °C 93 % 1012,0 hPa 0,0 mm 2,3 km/h (1 Bft) W-SW 246 ° 0 min 0,000 mm 0,0 UV-I 28 W/m² 7,9 °C 9,0 °C 3,2 km/h (1 Bft)
16.04.2018 09:40 9,1 °C 93 % 1012,0 hPa 0,0 mm 0,7 km/h (0 Bft) W-SW 246 ° 0 min 0,000 mm 0,0 UV-I 28 W/m² 8,0 °C 9,1 °C 1,6 km/h (1 Bft)
16.04.2018 09:41 9,1 °C 93 % 1012,0 hPa 0,2 mm 0,0 km/h (0 Bft) W-SW 246 ° 0 min 0,000 mm 0,0 UV-I 28 W/m² 8,0 °C 9,1 °C 0,0 km/h (0 Bft)
16.04.2018 09:42 9,0 °C 93 % 1012,0 hPa 0,0 mm 1,7 km/h (1 Bft) W-SW 246 ° 0 min 0,000 mm 0,0 UV-I 28 W/m² 7,9 °C 9,0 °C 3,2 km/h (1 Bft)
16.04.2018 09:43 9,1 °C 93 % 1012,0 hPa 0,0 mm 0,1 km/h (0 Bft) W-SW 246 ° 0 min 0,000 mm 0,0 UV-I 28 W/m² 8,0 °C 9,1 °C 1,6 km/h (1 Bft)
16.04.2018 09:44 9,0 °C 93 % 1012,0 hPa 0,0 mm 0,0 km/h (0 Bft) W-SW 246 ° 0 min 0,000 mm 0,0 UV-I 32 W/m² 7,9 °C 9,0 °C 0,0 km/h (0 Bft)
16.04.2018 09:45 9,1 °C 93 % 1012,0 hPa 0,0 mm 2,1 km/h (1 Bft) W-SW 246 ° 0 min 0,000 mm 0,0 UV-I 32 W/m² 8,0 °C 9,1 °C 4,8 km/h (1 Bft)
16.04.2018 09:46 9,1 °C 93 % 1012,2 hPa 0,0 mm 0,7 km/h (0 Bft) W-SW 246 ° 0 min 0,000 mm 0,0 UV-I 33 W/m² 8,0 °C 9,1 °C 1,6 km/h (1 Bft)
16.04.2018 09:47 9,1 °C 93 % 1012,1 hPa 0,0 mm 0,1 km/h (0 Bft) W-SW 245 ° 0 min 0,000 mm 0,0 UV-I 33 W/m² 8,0 °C 9,1 °C 1,6 km/h (1 Bft)
16.04.2018 09:48 9,1 °C 93 % 1012,1 hPa 0,0 mm 1,8 km/h (1 Bft) W-SW 245 ° 0 min 0,000 mm 0,0 UV-I 33 W/m² 8,0 °C 9,1 °C 3,2 km/h (1 Bft)
16.04.2018 09:49 9,1 °C 93 % 1012,1 hPa 0,0 mm 2,5 km/h (1 Bft) W-SW 245 ° 0 min 0,000 mm 0,0 UV-I 33 W/m² 8,0 °C 9,1 °C 4,8 km/h (1 Bft)
16.04.2018 09:50 9,1 °C 93 % 1012,2 hPa 0,2 mm 1,6 km/h (1 Bft) W-SW 245 ° 0 min 0,000 mm 0,0 UV-I 35 W/m² 8,0 °C 9,1 °C 3,2 km/h (1 Bft)
16.04.2018 09:51 9,1 °C 93 % 1012,2 hPa 0,0 mm 0,0 km/h (0 Bft) W-SW 245 ° 0 min 0,000 mm 0,0 UV-I 35 W/m² 8,0 °C 9,1 °C 0,0 km/h (0 Bft)
16.04.2018 09:52 9,1 °C 93 % 1012,2 hPa 0,0 mm 0,9 km/h (0 Bft) W-SW 245 ° 0 min 0,000 mm 0,0 UV-I 32 W/m² 8,0 °C 9,1 °C 3,2 km/h (1 Bft)
16.04.2018 09:53 9,0 °C 93 % 1012,2 hPa 0,0 mm 0,0 km/h (0 Bft) W-SW 245 ° 0 min 0,000 mm 0,0 UV-I 32 W/m² 7,9 °C 9,0 °C 0,0 km/h (0 Bft)
16.04.2018 09:54 9,1 °C 93 % 1012,3 hPa 0,0 mm 0,0 km/h (0 Bft) W-SW 245 ° 0 min 0,000 mm 0,0 UV-I 32 W/m² 8,0 °C 9,1 °C 0,0 km/h (0 Bft)
16.04.2018 09:55 9,1 °C 93 % 1012,3 hPa 0,0 mm 0,0 km/h (0 Bft) W-SW 245 ° 0 min 0,000 mm 0,0 UV-I 33 W/m² 8,0 °C 9,1 °C 0,0 km/h (0 Bft)
16.04.2018 09:56 9,1 °C 93 % 1012,3 hPa 0,2 mm 0,0 km/h (0 Bft) W-SW 245 ° 0 min 0,000 mm 0,0 UV-I 35 W/m² 8,0 °C 9,1 °C 0,0 km/h (0 Bft)
16.04.2018 09:57 9,1 °C 93 % 1012,3 hPa 0,0 mm 0,0 km/h (0 Bft) W-SW 245 ° 0 min 0,000 mm 0,0 UV-I 35 W/m² 8,0 °C 9,1 °C 0,0 km/h (0 Bft)
16.04.2018 09:58 9,1 °C 93 % 1012,3 hPa 0,0 mm 0,0 km/h (0 Bft) W-SW 245 ° 0 min 0,000 mm 0,0 UV-I 33 W/m² 8,0 °C 9,1 °C 0,0 km/h (0 Bft)
16.04.2018 09:59 9,1 °C 93 % 1012,3 hPa 0,0 mm 0,0 km/h (0 Bft) W-SW 245 ° 0 min 0,000 mm 0,0 UV-I 32 W/m² 8,0 °C 9,1 °C 0,0 km/h (0 Bft)
16.04.2018 10:00 9,1 °C 93 % 1012,3 hPa 0,0 mm 0,0 km/h (0 Bft) W-SW 245 ° 0 min 0,025 mm 0,0 UV-I 30 W/m² 8,0 °C 9,1 °C 0,0 km/h (0 Bft)
16.04.2018 10:01 9,1 °C 93 % 1012,3 hPa 0,0 mm 0,0 km/h (0 Bft) W-SW 245 ° 0 min 0,000 mm 0,0 UV-I 28 W/m² 8,0 °C 9,1 °C 0,0 km/h (0 Bft)
16.04.2018 10:02 9,1 °C 93 % 1012,3 hPa 0,0 mm 0,0 km/h (0 Bft) W-SW 245 ° 0 min 0,000 mm 0,0 UV-I 26 W/m² 8,0 °C 9,1 °C 0,0 km/h (0 Bft)
16.04.2018 10:03 9,1 °C 93 % 1012,3 hPa 0,0 mm 0,0 km/h (0 Bft) W-SW 245 ° 0 min 0,000 mm 0,0 UV-I 25 W/m² 8,0 °C 9,1 °C 0,0 km/h (0 Bft)
16.04.2018 10:04 9,1 °C 93 % 1012,3 hPa 0,0 mm 0,0 km/h (0 Bft) W-SW 245 ° 0 min 0,000 mm 0,0 UV-I 21 W/m² 8,0 °C 9,1 °C 0,0 km/h (0 Bft)
16.04.2018 10:05 9,1 °C 93 % 1012,4 hPa 0,0 mm 0,0 km/h (0 Bft) W-SW 245 ° 0 min 0,000 mm 0,0 UV-I 21 W/m² 8,0 °C 9,1 °C 0,0 km/h (0 Bft)
16.04.2018 10:06 9,1 °C 93 % 1012,3 hPa 0,0 mm 0,0 km/h (0 Bft) W-SW 245 ° 0 min 0,000 mm 0,0 UV-I 21 W/m² 8,0 °C 9,1 °C 0,0 km/h (0 Bft)
16.04.2018 10:07 9,1 °C 93 % 1012,4 hPa 0,0 mm 0,0 km/h (0 Bft) W-SW 245 ° 0 min 0,000 mm 0,0 UV-I 23 W/m² 8,0 °C 9,1 °C 0,0 km/h (0 Bft)
16.04.2018 10:08 9,1 °C 93 % 1012,4 hPa 0,2 mm 0,0 km/h (0 Bft) W-SW 245 ° 0 min 0,000 mm 0,0 UV-I 25 W/m² 8,0 °C 9,1 °C 0,0 km/h (0 Bft)
16.04.2018 10:09 9,2 °C 93 % 1012,4 hPa 0,0 mm 0,0 km/h (0 Bft) W-SW 245 ° 0 min 0,000 mm 0,0 UV-I 28 W/m² 8,1 °C 9,2 °C 0,0 km/h (0 Bft)
16.04.2018 10:10 9,2 °C 93 % 1012,4 hPa 0,0 mm 0,0 km/h (0 Bft) W-SW 245 ° 0 min 0,000 mm 0,0 UV-I 35 W/m² 8,1 °C 9,2 °C 0,0 km/h (0 Bft)
16.04.2018 10:11 9,2 °C 93 % 1012,4 hPa 0,0 mm 0,0 km/h (0 Bft) W-SW 245 ° 0 min 0,000 mm 0,0 UV-I 39 W/m² 8,1 °C 9,2 °C 0,0 km/h (0 Bft)
16.04.2018 10:12 9,1 °C 93 % 1012,4 hPa 0,0 mm 0,0 km/h (0 Bft) W-SW 245 ° 0 min 0,000 mm 0,0 UV-I 42 W/m² 8,0 °C 9,1 °C 0,0 km/h (0 Bft)
16.04.2018 10:13 9,1 °C 93 % 1012,4 hPa 0,0 mm 0,0 km/h (0 Bft) W-SW 245 ° 0 min 0,000 mm 0,0 UV-I 44 W/m² 8,0 °C 9,1 °C 0,0 km/h (0 Bft)
16.04.2018 10:14 9,2 °C 93 % 1012,4 hPa 0,0 mm 0,0 km/h (0 Bft) W-SW 245 ° 0 min 0,000 mm 0,0 UV-I 46 W/m² 8,1 °C 9,2 °C 0,0 km/h (0 Bft)
16.04.2018 10:15 9,2 °C 93 % 1012,5 hPa 0,0 mm 0,0 km/h (0 Bft) W-SW 245 ° 0 min 0,000 mm 0,0 UV-I 49 W/m² 8,1 °C 9,2 °C 0,0 km/h (0 Bft)
16.04.2018 10:16 9,2 °C 93 % 1012,4 hPa 0,0 mm 0,0 km/h (0 Bft) W-SW 245 ° 0 min 0,000 mm 0,0 UV-I 53 W/m² 8,1 °C 9,2 °C 0,0 km/h (0 Bft)
16.04.2018 10:17 9,2 °C 93 % 1012,5 hPa 0,0 mm 0,0 km/h (0 Bft) W-SW 245 ° 0 min 0,000 mm 0,0 UV-I 53 W/m² 8,1 °C 9,2 °C 0,0 km/h (0 Bft)
16.04.2018 10:18 9,1 °C 93 % 1012,5 hPa 0,0 mm 0,0 km/h (0 Bft) W-SW 245 ° 0 min 0,000 mm 0,0 UV-I 53 W/m² 8,0 °C 9,1 °C 0,0 km/h (0 Bft)
16.04.2018 10:19 9,2 °C 93 % 1012,5 hPa 0,0 mm 0,0 km/h (0 Bft) W-SW 245 ° 0 min 0,000 mm 0,0 UV-I 54 W/m² 8,1 °C 9,2 °C 0,0 km/h (0 Bft)
16.04.2018 10:20 9,2 °C 94 % 1012,5 hPa 0,0 mm 0,0 km/h (0 Bft) W-SW 245 ° 0 min 0,000 mm 0,0 UV-I 56 W/m² 8,3 °C 9,2 °C 0,0 km/h (0 Bft)
16.04.2018 10:21 9,2 °C 93 % 1012,5 hPa 0,0 mm 0,0 km/h (0 Bft) W-SW 245 ° 0 min 0,000 mm 0,5 UV-I 60 W/m² 8,1 °C 9,2 °C 0,0 km/h (0 Bft)
16.04.2018 10:22 9,2 °C 93 % 1012,5 hPa 0,2 mm 0,0 km/h (0 Bft) W-SW 245 ° 0 min 0,000 mm 0,5 UV-I 70 W/m² 8,1 °C 9,2 °C 0,0 km/h (0 Bft)
16.04.2018 10:23 9,2 °C 93 % 1012,5 hPa 0,0 mm 0,0 km/h (0 Bft) W-SW 245 ° 0 min 0,000 mm 0,6 UV-I 74 W/m² 8,1 °C 9,2 °C 0,0 km/h (0 Bft)
16.04.2018 10:24 9,2 °C 93 % 1012,5 hPa 0,0 mm 0,0 km/h (0 Bft) W-SW 245 ° 0 min 0,000 mm 0,6 UV-I 79 W/m² 8,1 °C 9,2 °C 0,0 km/h (0 Bft)
16.04.2018 10:25 9,2 °C 93 % 1012,5 hPa 0,0 mm 0,0 km/h (0 Bft) W-SW 245 ° 0 min 0,000 mm 0,7 UV-I 84 W/m² 8,1 °C 9,2 °C 0,0 km/h (0 Bft)
16.04.2018 10:26 9,3 °C 94 % 1012,5 hPa 0,0 mm 0,0 km/h (0 Bft) W-SW 245 ° 0 min 0,000 mm 0,7 UV-I 91 W/m² 8,4 °C 9,3 °C 0,0 km/h (0 Bft)
16.04.2018 10:27 9,3 °C 94 % 1012,5 hPa 0,0 mm 0,0 km/h (0 Bft) W-SW 245 ° 0 min 0,000 mm 0,8 UV-I 98 W/m² 8,4 °C 9,3 °C 0,0 km/h (0 Bft)
16.04.2018 10:28 9,3 °C 94 % 1012,4 hPa 0,0 mm 0,0 km/h (0 Bft) W-SW 245 ° 0 min 0,000 mm 0,8 UV-I 104 W/m² 8,4 °C 9,3 °C 0,0 km/h (0 Bft)
16.04.2018 10:29 9,3 °C 94 % 1012,5 hPa 0,0 mm 0,0 km/h (0 Bft) W-SW 245 ° 0 min 0,000 mm 0,8 UV-I 105 W/m² 8,4 °C 9,3 °C 0,0 km/h (0 Bft)
16.04.2018 10:30 9,4 °C 94 % 1012,5 hPa 0,0 mm 0,0 km/h (0 Bft) W-SW 245 ° 0 min 0,000 mm 0,8 UV-I 107 W/m² 8,5 °C 9,4 °C 0,0 km/h (0 Bft)
16.04.2018 10:31 9,4 °C 94 % 1012,5 hPa 0,0 mm 0,0 km/h (0 Bft) W-SW 245 ° 0 min 0,000 mm 0,8 UV-I 105 W/m² 8,5 °C 9,4 °C 0,0 km/h (0 Bft)
16.04.2018 10:32 9,4 °C 94 % 1012,5 hPa 0,0 mm 0,0 km/h (0 Bft) W-SW 245 ° 0 min 0,000 mm 0,8 UV-I 104 W/m² 8,5 °C 9,4 °C 0,0 km/h (0 Bft)
16.04.2018 10:33 9,4 °C 94 % 1012,5 hPa 0,0 mm 0,0 km/h (0 Bft) W-SW 245 ° 0 min 0,000 mm 0,8 UV-I 102 W/m² 8,5 °C 9,4 °C 0,0 km/h (0 Bft)
16.04.2018 10:34 9,4 °C 94 % 1012,6 hPa 0,0 mm 0,0 km/h (0 Bft) W-SW 245 ° 0 min 0,000 mm 0,8 UV-I 97 W/m² 8,5 °C 9,4 °C 0,0 km/h (0 Bft)
16.04.2018 10:35 9,4 °C 94 % 1012,6 hPa 0,0 mm 0,0 km/h (0 Bft) W-SW 245 ° 0 min 0,000 mm 0,8 UV-I 95 W/m² 8,5 °C 9,4 °C 0,0 km/h (0 Bft)
16.04.2018 10:36 9,5 °C 93 % 1012,6 hPa 0,0 mm 1,0 km/h (0 Bft) W-SW 245 ° 0 min 0,000 mm 0,7 UV-I 95 W/m² 8,4 °C 9,5 °C 3,2 km/h (1 Bft)
16.04.2018 10:37 9,5 °C 94 % 1012,6 hPa 0,0 mm 3,5 km/h (1 Bft) W-SW 245 ° 0 min 0,000 mm 0,8 UV-I 93 W/m² 8,6 °C 9,5 °C 4,8 km/h (1 Bft)
16.04.2018 10:38 9,5 °C 93 % 1012,5 hPa 0,0 mm 2,0 km/h (1 Bft) W-SW 245 ° 0 min 0,000 mm 0,7 UV-I 93 W/m² 8,4 °C 9,5 °C 3,2 km/h (1 Bft)
16.04.2018 10:39 9,5 °C 93 % 1012,6 hPa 0,2 mm 0,7 km/h (0 Bft) W-SW 245 ° 0 min 0,000 mm 0,7 UV-I 91 W/m² 8,4 °C 9,5 °C 1,6 km/h (1 Bft)
16.04.2018 10:40 9,4 °C 93 % 1012,6 hPa 0,0 mm 1,0 km/h (0 Bft) W-SW 245 ° 0 min 0,000 mm 0,7 UV-I 81 W/m² 8,3 °C 9,4 °C 1,6 km/h (1 Bft)
16.04.2018 10:41 9,4 °C 93 % 1012,6 hPa 0,0 mm 0,4 km/h (0 Bft) W-SW 245 ° 0 min 0,000 mm 0,6 UV-I 76 W/m² 8,3 °C 9,4 °C 1,6 km/h (1 Bft)
16.04.2018 10:42 9,5 °C 93 % 1012,6 hPa 0,0 mm 2,5 km/h (1 Bft) W-SW 245 ° 0 min 0,000 mm 0,6 UV-I 72 W/m² 8,4 °C 9,5 °C 4,8 km/h (1 Bft)
16.04.2018 10:43 9,5 °C 93 % 1012,6 hPa 0,0 mm 1,7 km/h (1 Bft) W-SW 245 ° 0 min 0,000 mm 0,5 UV-I 69 W/m² 8,4 °C 9,5 °C 4,8 km/h (1 Bft)
16.04.2018 10:44 9,4 °C 93 % 1012,7 hPa 0,0 mm 1,0 km/h (0 Bft) W-SW 245 ° 0 min 0,000 mm 0,5 UV-I 65 W/m² 8,3 °C 9,4 °C 1,6 km/h (1 Bft)
16.04.2018 10:45 9,4 °C 93 % 1012,7 hPa 0,2 mm 0,9 km/h (0 Bft) W-SW 245 ° 0 min 0,000 mm 0,5 UV-I 56 W/m² 8,3 °C 9,4 °C 3,2 km/h (1 Bft)
16.04.2018 10:46 9,4 °C 93 % 1012,7 hPa 0,0 mm 1,5 km/h (1 Bft) W-SW 245 ° 0 min 0,000 mm 0,0 UV-I 53 W/m² 8,3 °C 9,4 °C 3,2 km/h (1 Bft)
16.04.2018 10:47 9,4 °C 93 % 1012,7 hPa 0,0 mm 2,0 km/h (1 Bft) W-SW 245 ° 0 min 0,000 mm 0,0 UV-I 51 W/m² 8,3 °C 9,4 °C 3,2 km/h (1 Bft)
16.04.2018 10:48 9,4 °C 93 % 1012,7 hPa 0,0 mm 0,8 km/h (0 Bft) W-SW 245 ° 0 min 0,000 mm 0,0 UV-I 51 W/m² 8,3 °C 9,4 °C 3,2 km/h (1 Bft)
16.04.2018 10:49 9,4 °C 93 % 1012,8 hPa 0,0 mm 1,0 km/h (0 Bft) W-SW 245 ° 0 min 0,000 mm 0,0 UV-I 54 W/m² 8,3 °C 9,4 °C 3,2 km/h (1 Bft)
16.04.2018 10:50 9,4 °C 93 % 1012,8 hPa 0,0 mm 2,7 km/h (1 Bft) W-SW 245 ° 0 min 0,000 mm 0,0 UV-I 56 W/m² 8,3 °C 9,4 °C 3,2 km/h (1 Bft)
16.04.2018 10:51 9,5 °C 93 % 1012,8 hPa 0,2 mm 1,3 km/h (1 Bft) W-SW 245 ° 0 min 0,000 mm 0,5 UV-I 63 W/m² 8,4 °C 9,5 °C 3,2 km/h (1 Bft)
16.04.2018 10:52 9,4 °C 93 % 1012,8 hPa 0,0 mm 1,2 km/h (1 Bft) W-SW 245 ° 0 min 0,000 mm 0,5 UV-I 63 W/m² 8,3 °C 9,4 °C 3,2 km/h (1 Bft)
16.04.2018 10:53 9,4 °C 93 % 1012,8 hPa 0,0 mm 0,0 km/h (0 Bft) W-SW 245 ° 0 min 0,000 mm 0,5 UV-I 65 W/m² 8,3 °C 9,4 °C 0,0 km/h (0 Bft)
16.04.2018 10:54 9,4 °C 93 % 1012,8 hPa 0,2 mm 0,0 km/h (0 Bft) W-SW 245 ° 0 min 0,000 mm 0,5 UV-I 67 W/m² 8,3 °C 9,4 °C 0,0 km/h (0 Bft)
16.04.2018 10:55 9,4 °C 93 % 1012,8 hPa 0,0 mm 1,8 km/h (1 Bft) W-SW 245 ° 0 min 0,000 mm 0,6 UV-I 70 W/m² 8,3 °C 9,4 °C 3,2 km/h (1 Bft)
16.04.2018 10:56 9,4 °C 93 % 1012,8 hPa 0,0 mm 2,8 km/h (1 Bft) W-SW 245 ° 0 min 0,000 mm 0,6 UV-I 74 W/m² 8,3 °C 9,4 °C 4,8 km/h (1 Bft)
16.04.2018 10:57 9,4 °C 93 % 1012,8 hPa 0,0 mm 2,5 km/h (1 Bft) W-SW 245 ° 0 min 0,000 mm 0,6 UV-I 79 W/m² 8,3 °C 9,4 °C 3,2 km/h (1 Bft)
16.04.2018 10:58 9,5 °C 93 % 1012,8 hPa 0,0 mm 4,2 km/h (1 Bft) W 267 ° 0 min 0,000 mm 0,7 UV-I 83 W/m² 8,4 °C 9,5 °C 6,4 km/h (2 Bft)
16.04.2018 10:59 9,5 °C 93 % 1012,9 hPa 0,2 mm 5,7 km/h (1 Bft) W-SW 241 ° 0 min 0,000 mm 0,7 UV-I 84 W/m² 8,4 °C 9,0 °C 11,3 km/h (2 Bft)
16.04.2018 11:00 9,6 °C 93 % 1012,9 hPa 0,0 mm 6,1 km/h (2 Bft) W 262 ° 0 min 0,000 mm 0,7 UV-I 86 W/m² 8,5 °C 9,0 °C 11,3 km/h (2 Bft)
16.04.2018 11:01 9,5 °C 93 % 1012,9 hPa 0,0 mm 2,1 km/h (1 Bft) W 262 ° 0 min 0,026 mm 0,7 UV-I 86 W/m² 8,4 °C 9,5 °C 4,8 km/h (1 Bft)
16.04.2018 11:02 9,6 °C 93 % 1012,9 hPa 0,2 mm 3,3 km/h (1 Bft) S-SW 212 ° 0 min 0,000 mm 0,7 UV-I 86 W/m² 8,5 °C 9,6 °C 6,4 km/h (2 Bft)
16.04.2018 11:03 9,6 °C 93 % 1012,9 hPa 0,0 mm 2,7 km/h (1 Bft) W-SW 255 ° 0 min 0,000 mm 0,7 UV-I 90 W/m² 8,5 °C 9,6 °C 4,8 km/h (1 Bft)
16.04.2018 11:04 9,6 °C 93 % 1012,9 hPa 0,0 mm 1,3 km/h (1 Bft) W-SW 255 ° 0 min 0,000 mm 0,7 UV-I 91 W/m² 8,5 °C 9,6 °C 3,2 km/h (1 Bft)
16.04.2018 11:05 9,6 °C 93 % 1013,0 hPa 0,0 mm 0,0 km/h (0 Bft) W-SW 255 ° 0 min 0,000 mm 0,7 UV-I 93 W/m² 8,5 °C 9,6 °C 0,0 km/h (0 Bft)
16.04.2018 11:06 9,6 °C 93 % 1013,0 hPa 0,0 mm 0,5 km/h (0 Bft) W-SW 255 ° 0 min 0,000 mm 0,8 UV-I 95 W/m² 8,5 °C 9,6 °C 1,6 km/h (1 Bft)
16.04.2018 11:07 9,6 °C 93 % 1012,9 hPa 0,2 mm 1,4 km/h (1 Bft) W-SW 255 ° 0 min 0,000 mm 0,8 UV-I 97 W/m² 8,5 °C 9,6 °C 3,2 km/h (1 Bft)
16.04.2018 11:08 9,6 °C 93 % 1012,9 hPa 0,0 mm 4,2 km/h (1 Bft) W 259 ° 0 min 0,000 mm 0,8 UV-I 100 W/m² 8,5 °C 9,6 °C 6,4 km/h (2 Bft)
16.04.2018 11:09 9,6 °C 93 % 1013,0 hPa 0,0 mm 4,2 km/h (1 Bft) W-SW 255 ° 0 min 0,000 mm 0,8 UV-I 109 W/m² 8,5 °C 9,6 °C 4,8 km/h (1 Bft)
16.04.2018 11:10 9,6 °C 93 % 1013,0 hPa 0,0 mm 4,0 km/h (1 Bft) W-SW 257 ° 0 min 0,000 mm 0,9 UV-I 114 W/m² 8,5 °C 9,6 °C 6,4 km/h (2 Bft)
16.04.2018 11:11 9,6 °C 93 % 1013,0 hPa 0,0 mm 1,1 km/h (1 Bft) W-SW 257 ° 0 min 0,000 mm 1,0 UV-I 118 W/m² 8,5 °C 9,6 °C 3,2 km/h (1 Bft)
16.04.2018 11:12 9,6 °C 93 % 1013,0 hPa 0,0 mm 1,2 km/h (1 Bft) W-SW 257 ° 0 min 0,000 mm 1,0 UV-I 123 W/m² 8,5 °C 9,6 °C 3,2 km/h (1 Bft)
16.04.2018 11:13 9,6 °C 93 % 1013,0 hPa 0,2 mm 1,5 km/h (1 Bft) W-SW 257 ° 0 min 0,000 mm 1,0 UV-I 128 W/m² 8,5 °C 9,6 °C 3,2 km/h (1 Bft)
16.04.2018 11:14 9,6 °C 93 % 1013,0 hPa 0,0 mm 0,5 km/h (0 Bft) W-SW 257 ° 0 min 0,000 mm 1,1 UV-I 134 W/m² 8,5 °C 9,6 °C 1,6 km/h (1 Bft)
16.04.2018 11:15 9,6 °C 93 % 1013,0 hPa 0,0 mm 3,2 km/h (1 Bft) W 262 ° 0 min 0,000 mm 1,1 UV-I 142 W/m² 8,5 °C 9,6 °C 6,4 km/h (2 Bft)
16.04.2018 11:16 9,6 °C 93 % 1013,1 hPa 0,0 mm 2,3 km/h (1 Bft) W 261 ° 0 min 0,000 mm 1,2 UV-I 146 W/m² 8,5 °C 9,6 °C 4,8 km/h (1 Bft)
16.04.2018 11:17 9,6 °C 93 % 1013,0 hPa 0,0 mm 3,8 km/h (1 Bft) W 269 ° 0 min 0,000 mm 1,2 UV-I 153 W/m² 8,5 °C 9,6 °C 4,8 km/h (1 Bft)
16.04.2018 11:18 9,6 °C 93 % 1013,0 hPa 0,0 mm 4,1 km/h (1 Bft) W 269 ° 0 min 0,000 mm 1,3 UV-I 158 W/m² 8,5 °C 9,6 °C 6,4 km/h (2 Bft)
16.04.2018 11:19 9,7 °C 93 % 1013,0 hPa 0,0 mm 1,4 km/h (1 Bft) W 269 ° 0 min 0,000 mm 1,3 UV-I 163 W/m² 8,6 °C 9,7 °C 3,2 km/h (1 Bft)
16.04.2018 11:20 9,7 °C 93 % 1013,0 hPa 0,0 mm 1,7 km/h (1 Bft) W 269 ° 0 min 0,000 mm 1,3 UV-I 167 W/m² 8,6 °C 9,7 °C 3,2 km/h (1 Bft)
16.04.2018 11:21 9,8 °C 93 % 1013,0 hPa 0,0 mm 2,6 km/h (1 Bft) W-SW 246 ° 0 min 0,000 mm 1,3 UV-I 171 W/m² 8,7 °C 9,8 °C 4,8 km/h (1 Bft)
16.04.2018 11:22 9,8 °C 93 % 1013,0 hPa 0,0 mm 3,6 km/h (1 Bft) W 263 ° 0 min 0,000 mm 1,3 UV-I 169 W/m² 8,7 °C 9,8 °C 4,8 km/h (1 Bft)
16.04.2018 11:23 9,8 °C 93 % 1013,1 hPa 0,2 mm 6,3 km/h (2 Bft) W 267 ° 0 min 0,000 mm 1,3 UV-I 162 W/m² 8,7 °C 9,2 °C 9,7 km/h (2 Bft)
16.04.2018 11:24 9,8 °C 93 % 1013,0 hPa 0,0 mm 4,3 km/h (1 Bft) W 277 ° 0 min 0,000 mm 1,2 UV-I 155 W/m² 8,7 °C 9,8 °C 6,4 km/h (2 Bft)
16.04.2018 11:25 9,8 °C 93 % 1013,0 hPa 0,0 mm 5,6 km/h (1 Bft) W 269 ° 0 min 0,000 mm 1,2 UV-I 146 W/m² 8,7 °C 9,4 °C 9,7 km/h (2 Bft)
16.04.2018 11:26 9,8 °C 93 % 1013,1 hPa 0,0 mm 8,4 km/h (2 Bft) W 267 ° 0 min 0,000 mm 1,1 UV-I 137 W/m² 8,7 °C 8,7 °C 11,3 km/h (2 Bft)
16.04.2018 11:27 9,8 °C 93 % 1013,1 hPa 0,0 mm 4,9 km/h (1 Bft) W 264 ° 0 min 0,000 mm 1,0 UV-I 123 W/m² 8,7 °C 9,6 °C 6,4 km/h (2 Bft)
16.04.2018 11:28 9,9 °C 93 % 1013,1 hPa 0,0 mm 5,1 km/h (1 Bft) W-SW 246 ° 0 min 0,000 mm 1,0 UV-I 121 W/m² 8,8 °C 9,6 °C 9,7 km/h (2 Bft)
16.04.2018 11:29 9,9 °C 93 % 1013,1 hPa 0,0 mm 2,1 km/h (1 Bft) W-SW 246 ° 0 min 0,000 mm 1,0 UV-I 120 W/m² 8,8 °C 9,9 °C 4,8 km/h (1 Bft)
16.04.2018 11:30 9,9 °C 93 % 1013,1 hPa 0,0 mm 7,2 km/h (2 Bft) W-SW 257 ° 0 min 0,000 mm 1,0 UV-I 121 W/m² 8,8 °C 9,1 °C 11,3 km/h (2 Bft)
16.04.2018 11:31 9,9 °C 93 % 1013,1 hPa 0,0 mm 5,2 km/h (1 Bft) SW 217 ° 0 min 0,000 mm 1,0 UV-I 123 W/m² 8,8 °C 9,6 °C 6,4 km/h (2 Bft)
16.04.2018 11:32 9,9 °C 93 % 1013,2 hPa 0,0 mm 7,0 km/h (2 Bft) W 260 ° 0 min 0,000 mm 1,0 UV-I 127 W/m² 8,8 °C 9,1 °C 12,9 km/h (3 Bft)
16.04.2018 11:33 9,9 °C 92 % 1013,2 hPa 0,0 mm 4,0 km/h (1 Bft) W 278 ° 0 min 0,000 mm 1,1 UV-I 130 W/m² 8,7 °C 9,9 °C 11,3 km/h (2 Bft)
16.04.2018 11:34 9,9 °C 92 % 1013,1 hPa 0,2 mm 7,6 km/h (2 Bft) W 266 ° 0 min 0,000 mm 1,1 UV-I 132 W/m² 8,7 °C 9,0 °C 12,9 km/h (3 Bft)
16.04.2018 11:35 9,9 °C 93 % 1013,1 hPa 0,0 mm 5,9 km/h (2 Bft) W 270 ° 0 min 0,000 mm 1,1 UV-I 134 W/m² 8,8 °C 9,4 °C 9,7 km/h (2 Bft)
16.04.2018 11:36 9,9 °C 92 % 1013,2 hPa 0,0 mm 3,3 km/h (1 Bft) SW 229 ° 0 min 0,000 mm 1,1 UV-I 135 W/m² 8,7 °C 9,9 °C 4,8 km/h (1 Bft)
16.04.2018 11:37 9,9 °C 92 % 1013,1 hPa 0,0 mm 4,3 km/h (1 Bft) W 263 ° 0 min 0,000 mm 1,2 UV-I 137 W/m² 8,7 °C 9,9 °C 9,7 km/h (2 Bft)
16.04.2018 11:38 9,9 °C 93 % 1013,2 hPa 0,0 mm 9,5 km/h (2 Bft) W-SW 242 ° 0 min 0,000 mm 1,2 UV-I 139 W/m² 8,8 °C 8,6 °C 14,5 km/h (3 Bft)
16.04.2018 11:39 9,9 °C 92 % 1013,2 hPa 0,0 mm 5,9 km/h (2 Bft) W-SW 248 ° 0 min 0,000 mm 1,2 UV-I 139 W/m² 8,7 °C 9,4 °C 8,0 km/h (2 Bft)
16.04.2018 11:40 9,8 °C 92 % 1013,2 hPa 0,0 mm 2,1 km/h (1 Bft) W-SW 244 ° 0 min 0,000 mm 1,2 UV-I 139 W/m² 8,6 °C 9,8 °C 6,4 km/h (2 Bft)
16.04.2018 11:41 9,8 °C 92 % 1013,2 hPa 0,0 mm 4,4 km/h (1 Bft) W 268 ° 0 min 0,000 mm 1,2 UV-I 137 W/m² 8,6 °C 9,8 °C 6,4 km/h (2 Bft)
16.04.2018 11:42 9,9 °C 92 % 1013,2 hPa 0,0 mm 4,1 km/h (1 Bft) W-SW 251 ° 0 min 0,000 mm 1,2 UV-I 135 W/m² 8,7 °C 9,9 °C 11,3 km/h (2 Bft)
16.04.2018 11:43 9,9 °C 92 % 1013,2 hPa 0,0 mm 6,4 km/h (2 Bft) W 264 ° 0 min 0,000 mm 1,1 UV-I 132 W/m² 8,7 °C 9,3 °C 11,3 km/h (2 Bft)
16.04.2018 11:44 9,9 °C 92 % 1013,2 hPa 0,0 mm 8,7 km/h (2 Bft) W 275 ° 0 min 0,000 mm 1,1 UV-I 127 W/m² 8,7 °C 8,7 °C 11,3 km/h (2 Bft)
16.04.2018 11:45 9,9 °C 92 % 1013,3 hPa 0,0 mm 5,2 km/h (1 Bft) W-SW 249 ° 0 min 0,000 mm 1,1 UV-I 125 W/m² 8,7 °C 9,6 °C 8,0 km/h (2 Bft)
16.04.2018 11:46 9,9 °C 92 % 1013,2 hPa 0,0 mm 7,6 km/h (2 Bft) W 262 ° 0 min 0,000 mm 1,1 UV-I 125 W/m² 8,7 °C 9,0 °C 11,3 km/h (2 Bft)
16.04.2018 11:47 9,9 °C 92 % 1013,3 hPa 0,0 mm 4,8 km/h (1 Bft) W 265 ° 0 min 0,000 mm 1,1 UV-I 125 W/m² 8,7 °C 9,7 °C 11,3 km/h (2 Bft)
16.04.2018 11:48 9,9 °C 92 % 1013,3 hPa 0,0 mm 9,0 km/h (2 Bft) W 268 ° 0 min 0,000 mm 1,0 UV-I 123 W/m² 8,7 °C 8,7 °C 11,3 km/h (2 Bft)
16.04.2018 11:49 9,9 °C 92 % 1013,3 hPa 0,0 mm 4,9 km/h (1 Bft) W-SW 253 ° 0 min 0,000 mm 1,0 UV-I 121 W/m² 8,7 °C 9,7 °C 6,4 km/h (2 Bft)
16.04.2018 11:50 9,9 °C 92 % 1013,2 hPa 0,0 mm 2,7 km/h (1 Bft) W-SW 252 ° 0 min 0,000 mm 1,0 UV-I 118 W/m² 8,7 °C 9,9 °C 4,8 km/h (1 Bft)
16.04.2018 11:51 9,9 °C 92 % 1013,3 hPa 0,0 mm 3,9 km/h (1 Bft) W 277 ° 0 min 0,000 mm 1,0 UV-I 114 W/m² 8,7 °C 9,9 °C 6,4 km/h (2 Bft)
16.04.2018 11:52 9,9 °C 92 % 1013,3 hPa 0,0 mm 10,7 km/h (2 Bft) W-SW 245 ° 0 min 0,000 mm 1,0 UV-I 113 W/m² 8,7 °C 8,4 °C 17,7 km/h (3 Bft)
16.04.2018 11:53 9,9 °C 92 % 1013,2 hPa 0,0 mm 5,4 km/h (1 Bft) W-SW 239 ° 0 min 0,000 mm 0,9 UV-I 111 W/m² 8,7 °C 9,5 °C 8,0 km/h (2 Bft)
16.04.2018 11:54 9,9 °C 92 % 1013,3 hPa 0,0 mm 7,2 km/h (2 Bft) W-SW 244 ° 0 min 0,000 mm 0,9 UV-I 111 W/m² 8,7 °C 9,1 °C 11,3 km/h (2 Bft)
16.04.2018 11:55 9,9 °C 92 % 1013,2 hPa 0,0 mm 7,2 km/h (2 Bft) W 267 ° 0 min 0,000 mm 0,9 UV-I 109 W/m² 8,7 °C 9,1 °C 11,3 km/h (2 Bft)
16.04.2018 11:56 9,8 °C 92 % 1013,3 hPa 0,0 mm 3,7 km/h (1 Bft) W 264 ° 0 min 0,000 mm 0,9 UV-I 107 W/m² 8,6 °C 9,8 °C 6,4 km/h (2 Bft)
16.04.2018 11:57 9,9 °C 92 % 1013,3 hPa 0,0 mm 6,6 km/h (2 Bft) W 259 ° 0 min 0,000 mm 0,9 UV-I 107 W/m² 8,7 °C 9,2 °C 9,7 km/h (2 Bft)
16.04.2018 11:58 9,9 °C 92 % 1013,3 hPa 0,0 mm 7,0 km/h (2 Bft) W-SW 258 ° 0 min 0,000 mm 0,9 UV-I 105 W/m² 8,7 °C 9,1 °C 9,7 km/h (2 Bft)
16.04.2018 11:59 9,8 °C 92 % 1013,3 hPa 0,0 mm 4,7 km/h (1 Bft) W 267 ° 0 min 0,000 mm 0,9 UV-I 105 W/m² 8,6 °C 9,6 °C 8,0 km/h (2 Bft)
16.04.2018 12:00 9,8 °C 92 % 1013,3 hPa 0,0 mm 2,2 km/h (1 Bft) W 267 ° 0 min 0,000 mm 0,9 UV-I 105 W/m² 8,6 °C 9,8 °C 4,8 km/h (1 Bft)
16.04.2018 12:01 9,8 °C 92 % 1013,3 hPa 0,0 mm 1,5 km/h (1 Bft) W 267 ° 0 min 0,051 mm 0,9 UV-I 107 W/m² 8,6 °C 9,8 °C 4,8 km/h (1 Bft)
16.04.2018 12:02 9,8 °C 92 % 1013,3 hPa 0,0 mm 4,1 km/h (1 Bft) W 266 ° 0 min 0,000 mm 0,9 UV-I 109 W/m² 8,6 °C 9,8 °C 6,4 km/h (2 Bft)
16.04.2018 12:03 9,8 °C 92 % 1013,2 hPa 0,0 mm 6,3 km/h (2 Bft) W 264 ° 0 min 0,000 mm 1,0 UV-I 111 W/m² 8,6 °C 9,2 °C 9,7 km/h (2 Bft)
16.04.2018 12:04 9,9 °C 92 % 1013,2 hPa 0,0 mm 6,7 km/h (2 Bft) W-SW 253 ° 0 min 0,000 mm 1,0 UV-I 113 W/m² 8,7 °C 9,2 °C 11,3 km/h (2 Bft)
16.04.2018 12:05 9,9 °C 92 % 1013,2 hPa 0,0 mm 4,0 km/h (1 Bft) W-SW 242 ° 0 min 0,000 mm 1,0 UV-I 116 W/m² 8,7 °C 9,9 °C 6,4 km/h (2 Bft)
16.04.2018 12:06 9,9 °C 92 % 1013,2 hPa 0,0 mm 5,8 km/h (2 Bft) W-SW 252 ° 0 min 0,000 mm 1,1 UV-I 120 W/m² 8,7 °C 9,4 °C 8,0 km/h (2 Bft)
16.04.2018 12:07 9,9 °C 92 % 1013,3 hPa 0,0 mm 5,9 km/h (2 Bft) W 261 ° 0 min 0,000 mm 1,1 UV-I 125 W/m² 8,7 °C 9,4 °C 9,7 km/h (2 Bft)
16.04.2018 12:08 9,9 °C 92 % 1013,3 hPa 0,0 mm 5,3 km/h (1 Bft) W-SW 258 ° 0 min 0,000 mm 1,1 UV-I 127 W/m² 8,7 °C 9,6 °C 6,4 km/h (2 Bft)
16.04.2018 12:09 9,9 °C 92 % 1013,3 hPa 0,0 mm 4,5 km/h (1 Bft) W 263 ° 0 min 0,000 mm 1,1 UV-I 127 W/m² 8,7 °C 9,9 °C 6,4 km/h (2 Bft)
16.04.2018 12:10 9,9 °C 92 % 1013,3 hPa 0,0 mm 2,5 km/h (1 Bft) W 262 ° 0 min 0,000 mm 1,1 UV-I 128 W/m² 8,7 °C 9,9 °C 4,8 km/h (1 Bft)
16.04.2018 12:11 9,9 °C 91 % 1013,3 hPa 0,0 mm 8,6 km/h (2 Bft) W-SW 254 ° 0 min 0,000 mm 1,1 UV-I 130 W/m² 8,5 °C 8,8 °C 12,9 km/h (3 Bft)
16.04.2018 12:12 9,9 °C 91 % 1013,3 hPa 0,0 mm 5,2 km/h (1 Bft) W-SW 250 ° 0 min 0,000 mm 1,2 UV-I 130 W/m² 8,5 °C 9,6 °C 9,7 km/h (2 Bft)
16.04.2018 12:13 10,0 °C 92 % 1013,3 hPa 0,0 mm 7,4 km/h (2 Bft) W-SW 255 ° 0 min 0,000 mm 1,2 UV-I 135 W/m² 8,8 °C 9,1 °C 12,9 km/h (3 Bft)
16.04.2018 12:14 10,0 °C 92 % 1013,3 hPa 0,0 mm 5,7 km/h (1 Bft) W 263 ° 0 min 0,000 mm 1,2 UV-I 139 W/m² 8,8 °C 9,6 °C 11,3 km/h (2 Bft)
16.04.2018 12:15 10,0 °C 91 % 1013,3 hPa 0,0 mm 3,6 km/h (1 Bft) W 267 ° 0 min 0,000 mm 1,3 UV-I 144 W/m² 8,6 °C 10,0 °C 4,8 km/h (1 Bft)
16.04.2018 12:16 10,0 °C 92 % 1013,4 hPa 0,0 mm 3,1 km/h (1 Bft) W-SW 250 ° 0 min 0,000 mm 1,3 UV-I 149 W/m² 8,8 °C 10,0 °C 9,7 km/h (2 Bft)
16.04.2018 12:17 10,0 °C 92 % 1013,4 hPa 0,0 mm 7,2 km/h (2 Bft) W 268 ° 0 min 0,000 mm 1,4 UV-I 158 W/m² 8,8 °C 9,2 °C 11,3 km/h (2 Bft)
16.04.2018 12:18 10,0 °C 92 % 1013,3 hPa 0,0 mm 5,8 km/h (2 Bft) W-SW 248 ° 0 min 0,000 mm 1,4 UV-I 165 W/m² 8,8 °C 9,5 °C 8,0 km/h (2 Bft)
16.04.2018 12:19 10,1 °C 92 % 1013,4 hPa 0,0 mm 3,8 km/h (1 Bft) W-SW 244 ° 0 min 0,000 mm 1,5 UV-I 181 W/m² 8,9 °C 10,1 °C 6,4 km/h (2 Bft)
16.04.2018 12:20 10,2 °C 92 % 1013,4 hPa 0,0 mm 3,2 km/h (1 Bft) S-SW 205 ° 0 min 0,000 mm 1,6 UV-I 188 W/m² 9,0 °C 10,2 °C 9,7 km/h (2 Bft)
16.04.2018 12:21 10,2 °C 92 % 1013,3 hPa 0,0 mm 7,4 km/h (2 Bft) W-SW 257 ° 0 min 0,000 mm 1,6 UV-I 193 W/m² 9,0 °C 10,2 °C 12,9 km/h (3 Bft)
16.04.2018 12:22 10,2 °C 92 % 1013,4 hPa 0,0 mm 2,3 km/h (1 Bft) W-SW 257 ° 0 min 0,000 mm 1,6 UV-I 197 W/m² 9,0 °C 10,2 °C 4,8 km/h (1 Bft)
16.04.2018 12:23 10,2 °C 91 % 1013,4 hPa 0,0 mm 3,8 km/h (1 Bft) S-SW 203 ° 0 min 0,000 mm 1,6 UV-I 197 W/m² 8,8 °C 10,2 °C 8,0 km/h (2 Bft)
16.04.2018 12:24 10,2 °C 91 % 1013,4 hPa 0,0 mm 3,5 km/h (1 Bft) SW 217 ° 0 min 0,000 mm 1,6 UV-I 193 W/m² 8,8 °C 10,2 °C 4,8 km/h (1 Bft)
16.04.2018 12:25 10,2 °C 91 % 1013,4 hPa 0,0 mm 3,6 km/h (1 Bft) W-SW 254 ° 0 min 0,000 mm 1,6 UV-I 186 W/m² 8,8 °C 10,2 °C 6,4 km/h (2 Bft)
16.04.2018 12:26 10,2 °C 91 % 1013,4 hPa 0,0 mm 3,5 km/h (1 Bft) W-SW 254 ° 0 min 0,000 mm 1,6 UV-I 185 W/m² 8,8 °C 10,2 °C 4,8 km/h (1 Bft)
16.04.2018 12:27 10,3 °C 91 % 1013,4 hPa 0,0 mm 6,8 km/h (2 Bft) W-SW 241 ° 0 min 0,000 mm 1,6 UV-I 186 W/m² 8,9 °C 10,3 °C 9,7 km/h (2 Bft)
16.04.2018 12:28 10,3 °C 91 % 1013,4 hPa 0,0 mm 3,6 km/h (1 Bft) W-SW 239 ° 0 min 0,000 mm 1,6 UV-I 190 W/m² 8,9 °C 10,3 °C 8,0 km/h (2 Bft)
16.04.2018 12:29 10,3 °C 91 % 1013,5 hPa 0,0 mm 1,1 km/h (1 Bft) W-SW 252 ° 0 min 0,000 mm 1,6 UV-I 195 W/m² 8,9 °C 10,3 °C 1,6 km/h (1 Bft)
16.04.2018 12:30 10,3 °C 92 % 1013,4 hPa 0,0 mm 4,1 km/h (1 Bft) W 271 ° 0 min 0,000 mm 1,6 UV-I 204 W/m² 9,1 °C 10,3 °C 6,4 km/h (2 Bft)
16.04.2018 12:31 10,3 °C 91 % 1013,5 hPa 0,0 mm 2,9 km/h (1 Bft) W 271 ° 0 min 0,000 mm 1,7 UV-I 216 W/m² 8,9 °C 10,3 °C 4,8 km/h (1 Bft)
16.04.2018 12:32 10,3 °C 91 % 1013,5 hPa 0,0 mm 3,8 km/h (1 Bft) W 267 ° 0 min 0,000 mm 1,7 UV-I 216 W/m² 8,9 °C 10,3 °C 9,7 km/h (2 Bft)
16.04.2018 12:33 10,3 °C 91 % 1013,5 hPa 0,0 mm 5,5 km/h (1 Bft) W 275 ° 0 min 0,000 mm 1,7 UV-I 211 W/m² 8,9 °C 10,3 °C 8,0 km/h (2 Bft)
16.04.2018 12:34 10,3 °C 91 % 1013,5 hPa 0,0 mm 4,9 km/h (1 Bft) W 265 ° 0 min 0,000 mm 1,7 UV-I 202 W/m² 8,9 °C 10,3 °C 6,4 km/h (2 Bft)
16.04.2018 12:35 10,4 °C 91 % 1013,5 hPa 0,0 mm 2,6 km/h (1 Bft) W 277 ° 0 min 0,000 mm 1,5 UV-I 188 W/m² 9,0 °C 10,4 °C 4,8 km/h (1 Bft)
16.04.2018 12:36 10,3 °C 91 % 1013,5 hPa 0,0 mm 4,0 km/h (1 Bft) W 259 ° 0 min 0,000 mm 1,4 UV-I 176 W/m² 8,9 °C 10,3 °C 11,3 km/h (2 Bft)
16.04.2018 12:37 10,3 °C 91 % 1013,5 hPa 0,0 mm 6,2 km/h (2 Bft) W-SW 257 ° 0 min 0,000 mm 1,4 UV-I 158 W/m² 8,9 °C 10,3 °C 8,0 km/h (2 Bft)
16.04.2018 12:38 10,3 °C 91 % 1013,5 hPa 0,0 mm 6,0 km/h (2 Bft) W 261 ° 0 min 0,000 mm 1,3 UV-I 153 W/m² 8,9 °C 10,3 °C 9,7 km/h (2 Bft)
16.04.2018 12:39 10,3 °C 91 % 1013,5 hPa 0,0 mm 4,2 km/h (1 Bft) W 263 ° 0 min 0,000 mm 1,3 UV-I 151 W/m² 8,9 °C 10,3 °C 6,4 km/h (2 Bft)
16.04.2018 12:40 10,3 °C 91 % 1013,5 hPa 0,0 mm 1,9 km/h (1 Bft) W 262 ° 0 min 0,000 mm 1,3 UV-I 148 W/m² 8,9 °C 10,3 °C 4,8 km/h (1 Bft)
16.04.2018 12:41 10,3 °C 91 % 1013,5 hPa 0,0 mm 2,3 km/h (1 Bft) W-SW 244 ° 0 min 0,000 mm 1,3 UV-I 148 W/m² 8,9 °C 10,3 °C 4,8 km/h (1 Bft)
16.04.2018 12:42 10,3 °C 91 % 1013,5 hPa 0,0 mm 2,1 km/h (1 Bft) W 269 ° 0 min 0,000 mm 1,2 UV-I 148 W/m² 8,9 °C 10,3 °C 9,7 km/h (2 Bft)
16.04.2018 12:43 10,3 °C 91 % 1013,5 hPa 0,0 mm 5,6 km/h (1 Bft) W-SW 257 ° 0 min 0,000 mm 1,2 UV-I 146 W/m² 8,9 °C 10,3 °C 9,7 km/h (2 Bft)
16.04.2018 12:44 10,3 °C 91 % 1013,5 hPa 0,0 mm 4,9 km/h (1 Bft) W 265 ° 0 min 0,000 mm 1,2 UV-I 144 W/m² 8,9 °C 10,3 °C 9,7 km/h (2 Bft)
16.04.2018 12:45 10,3 °C 91 % 1013,5 hPa 0,0 mm 5,4 km/h (1 Bft) W 265 ° 0 min 0,000 mm 1,2 UV-I 142 W/m² 8,9 °C 10,3 °C 9,7 km/h (2 Bft)
16.04.2018 12:46 10,3 °C 91 % 1013,5 hPa 0,0 mm 5,9 km/h (2 Bft) W 260 ° 0 min 0,000 mm 1,2 UV-I 141 W/m² 8,9 °C 10,3 °C 9,7 km/h (2 Bft)
16.04.2018 12:47 10,3 °C 91 % 1013,4 hPa 0,0 mm 3,6 km/h (1 Bft) W 260 ° 0 min 0,000 mm 1,2 UV-I 139 W/m² 8,9 °C 10,3 °C 4,8 km/h (1 Bft)
16.04.2018 12:48 10,3 °C 91 % 1013,5 hPa 0,0 mm 3,4 km/h (1 Bft) W 263 ° 0 min 0,000 mm 1,2 UV-I 134 W/m² 8,9 °C 10,3 °C 4,8 km/h (1 Bft)
16.04.2018 12:49 10,3 °C 91 % 1013,5 hPa 0,0 mm 4,4 km/h (1 Bft) W 267 ° 0 min 0,000 mm 1,1 UV-I 130 W/m² 8,9 °C 10,3 °C 6,4 km/h (2 Bft)
16.04.2018 12:50 10,3 °C 91 % 1013,5 hPa 0,0 mm 6,6 km/h (2 Bft) W 277 ° 0 min 0,000 mm 1,1 UV-I 128 W/m² 8,9 °C 10,3 °C 11,3 km/h (2 Bft)
16.04.2018 12:51 10,3 °C 91 % 1013,5 hPa 0,0 mm 4,7 km/h (1 Bft) W 269 ° 0 min 0,000 mm 1,1 UV-I 128 W/m² 8,9 °C 10,3 °C 6,4 km/h (2 Bft)
16.04.2018 12:52 10,3 °C 91 % 1013,5 hPa 0,0 mm 3,7 km/h (1 Bft) W-SW 255 ° 0 min 0,000 mm 1,1 UV-I 128 W/m² 8,9 °C 10,3 °C 6,4 km/h (2 Bft)
16.04.2018 12:53 10,3 °C 91 % 1013,5 hPa 0,0 mm 4,2 km/h (1 Bft) W 277 ° 0 min 0,000 mm 1,1 UV-I 130 W/m² 8,9 °C 10,3 °C 6,4 km/h (2 Bft)
16.04.2018 12:54 10,3 °C 91 % 1013,6 hPa 0,0 mm 1,7 km/h (1 Bft) W 277 ° 0 min 0,000 mm 1,2 UV-I 134 W/m² 8,9 °C 10,3 °C 3,2 km/h (1 Bft)
16.04.2018 12:55 10,3 °C 91 % 1013,5 hPa 0,0 mm 3,6 km/h (1 Bft) W 270 ° 0 min 0,000 mm 1,2 UV-I 137 W/m² 8,9 °C 10,3 °C 4,8 km/h (1 Bft)
16.04.2018 12:56 10,3 °C 91 % 1013,6 hPa 0,0 mm 2,9 km/h (1 Bft) W 265 ° 0 min 0,000 mm 1,2 UV-I 139 W/m² 8,9 °C 10,3 °C 6,4 km/h (2 Bft)
16.04.2018 12:57 10,3 °C 91 % 1013,5 hPa 0,0 mm 4,6 km/h (1 Bft) W-NW 292 ° 0 min 0,000 mm 1,2 UV-I 141 W/m² 8,9 °C 10,3 °C 8,0 km/h (2 Bft)
16.04.2018 12:58 10,4 °C 91 % 1013,5 hPa 0,0 mm 3,6 km/h (1 Bft) W 263 ° 0 min 0,000 mm 1,2 UV-I 141 W/m² 9,0 °C 10,4 °C 4,8 km/h (1 Bft)
16.04.2018 12:59 10,4 °C 91 % 1013,6 hPa 0,0 mm 6,0 km/h (2 Bft) W 265 ° 0 min 0,000 mm 1,2 UV-I 139 W/m² 9,0 °C 10,4 °C 11,3 km/h (2 Bft)
16.04.2018 13:00 10,3 °C 91 % 1013,6 hPa 0,0 mm 6,2 km/h (2 Bft) W 261 ° 0 min 0,000 mm 1,2 UV-I 137 W/m² 8,9 °C 10,3 °C 9,7 km/h (2 Bft)
16.04.2018 13:01 10,3 °C 91 % 1013,5 hPa 0,0 mm 5,9 km/h (2 Bft) W-SW 240 ° 0 min 0,076 mm 1,2 UV-I 134 W/m² 8,9 °C 10,3 °C 9,7 km/h (2 Bft)
16.04.2018 13:02 10,3 °C 91 % 1013,6 hPa 0,0 mm 4,3 km/h (1 Bft) W 259 ° 0 min 0,000 mm 1,1 UV-I 130 W/m² 8,9 °C 10,3 °C 6,4 km/h (2 Bft)
16.04.2018 13:03 10,3 °C 91 % 1013,6 hPa 0,0 mm 3,9 km/h (1 Bft) W-SW 253 ° 0 min 0,000 mm 1,1 UV-I 127 W/m² 8,9 °C 10,3 °C 4,8 km/h (1 Bft)
16.04.2018 13:04 10,3 °C 91 % 1013,6 hPa 0,0 mm 8,0 km/h (2 Bft) W 277 ° 0 min 0,000 mm 1,1 UV-I 123 W/m² 8,9 °C 10,3 °C 11,3 km/h (2 Bft)
16.04.2018 13:05 10,4 °C 91 % 1013,6 hPa 0,0 mm 6,0 km/h (2 Bft) W 272 ° 0 min 0,000 mm 1,0 UV-I 118 W/m² 9,0 °C 10,4 °C 9,7 km/h (2 Bft)
16.04.2018 13:06 10,4 °C 91 % 1013,6 hPa 0,0 mm 5,6 km/h (1 Bft) W 268 ° 0 min 0,000 mm 1,0 UV-I 116 W/m² 9,0 °C 10,4 °C 9,7 km/h (2 Bft)
16.04.2018 13:07 10,3 °C 91 % 1013,7 hPa 0,0 mm 2,9 km/h (1 Bft) W 259 ° 0 min 0,000 mm 1,0 UV-I 114 W/m² 8,9 °C 10,3 °C 6,4 km/h (2 Bft)
16.04.2018 13:08 10,3 °C 90 % 1013,7 hPa 0,0 mm 4,8 km/h (1 Bft) W 270 ° 0 min 0,000 mm 1,0 UV-I 116 W/m² 8,7 °C 10,3 °C 6,4 km/h (2 Bft)
16.04.2018 13:09 10,3 °C 90 % 1013,7 hPa 0,0 mm 3,4 km/h (1 Bft) W-SW 242 ° 0 min 0,000 mm 1,0 UV-I 116 W/m² 8,7 °C 10,3 °C 6,4 km/h (2 Bft)
16.04.2018 13:10 10,3 °C 90 % 1013,7 hPa 0,0 mm 2,4 km/h (1 Bft) W-SW 256 ° 0 min 0,000 mm 1,0 UV-I 116 W/m² 8,7 °C 10,3 °C 4,8 km/h (1 Bft)
16.04.2018 13:11 10,4 °C 91 % 1013,7 hPa 0,0 mm 5,2 km/h (1 Bft) W-SW 244 ° 0 min 0,000 mm 1,0 UV-I 118 W/m² 9,0 °C 10,4 °C 9,7 km/h (2 Bft)
16.04.2018 13:12 10,4 °C 91 % 1013,7 hPa 0,0 mm 3,5 km/h (1 Bft) W-SW 240 ° 0 min 0,000 mm 1,1 UV-I 118 W/m² 9,0 °C 10,4 °C 6,4 km/h (2 Bft)
16.04.2018 13:13 10,4 °C 90 % 1013,7 hPa 0,0 mm 1,3 km/h (1 Bft) W-SW 242 ° 0 min 0,000 mm 1,1 UV-I 120 W/m² 8,8 °C 10,4 °C 3,2 km/h (1 Bft)
16.04.2018 13:14 10,4 °C 91 % 1013,7 hPa 0,0 mm 3,0 km/h (1 Bft) W-SW 249 ° 0 min 0,000 mm 1,1 UV-I 120 W/m² 9,0 °C 10,4 °C 4,8 km/h (1 Bft)
16.04.2018 13:15 10,4 °C 91 % 1013,7 hPa 0,0 mm 2,8 km/h (1 Bft) W-SW 249 ° 0 min 0,000 mm 1,1 UV-I 121 W/m² 9,0 °C 10,4 °C 4,8 km/h (1 Bft)
16.04.2018 13:16 10,4 °C 90 % 1013,7 hPa 0,0 mm 0,5 km/h (0 Bft) W-NW 282 ° 0 min 0,000 mm 1,1 UV-I 123 W/m² 8,8 °C 10,4 °C 6,4 km/h (2 Bft)
16.04.2018 13:17 10,4 °C 91 % 1013,7 hPa 0,0 mm 6,0 km/h (2 Bft) W-SW 253 ° 0 min 0,000 mm 1,1 UV-I 123 W/m² 9,0 °C 10,4 °C 8,0 km/h (2 Bft)
16.04.2018 13:18 10,4 °C 90 % 1013,7 hPa 0,0 mm 4,1 km/h (1 Bft) W-SW 256 ° 0 min 0,000 mm 1,1 UV-I 125 W/m² 8,8 °C 10,4 °C 6,4 km/h (2 Bft)
16.04.2018 13:19 10,4 °C 90 % 1013,7 hPa 0,0 mm 4,7 km/h (1 Bft) W-SW 256 ° 0 min 0,000 mm 1,1 UV-I 125 W/m² 8,8 °C 10,4 °C 6,4 km/h (2 Bft)
16.04.2018 13:20 10,4 °C 90 % 1013,7 hPa 0,0 mm 4,9 km/h (1 Bft) W-SW 242 ° 0 min 0,000 mm 1,1 UV-I 125 W/m² 8,8 °C 10,4 °C 9,7 km/h (2 Bft)
16.04.2018 13:21 10,4 °C 90 % 1013,7 hPa 0,0 mm 5,6 km/h (1 Bft) W 266 ° 0 min 0,000 mm 1,1 UV-I 121 W/m² 8,8 °C 10,4 °C 11,3 km/h (2 Bft)
16.04.2018 13:22 10,4 °C 91 % 1013,7 hPa 0,0 mm 4,7 km/h (1 Bft) W 266 ° 0 min 0,000 mm 1,1 UV-I 120 W/m² 9,0 °C 10,4 °C 6,4 km/h (2 Bft)
16.04.2018 13:23 10,5 °C 91 % 1013,7 hPa 0,0 mm 5,4 km/h (1 Bft) W 261 ° 0 min 0,000 mm 1,1 UV-I 120 W/m² 9,1 °C 10,5 °C 8,0 km/h (2 Bft)
16.04.2018 13:24 10,5 °C 91 % 1013,7 hPa 0,0 mm 3,4 km/h (1 Bft) W 261 ° 0 min 0,000 mm 1,1 UV-I 120 W/m² 9,1 °C 10,5 °C 11,3 km/h (2 Bft)
16.04.2018 13:25 10,5 °C 91 % 1013,7 hPa 0,0 mm 8,2 km/h (2 Bft) W 261 ° 0 min 0,000 mm 1,1 UV-I 120 W/m² 9,1 °C 10,5 °C 11,3 km/h (2 Bft)
16.04.2018 13:26 10,5 °C 91 % 1013,7 hPa 0,0 mm 5,9 km/h (2 Bft) W 269 ° 0 min 0,000 mm 1,1 UV-I 121 W/m² 9,1 °C 10,5 °C 9,7 km/h (2 Bft)
16.04.2018 13:27 10,4 °C 90 % 1013,7 hPa 0,0 mm 6,1 km/h (2 Bft) W 265 ° 0 min 0,000 mm 1,1 UV-I 121 W/m² 8,8 °C 10,4 °C 9,7 km/h (2 Bft)
16.04.2018 13:28 10,4 °C 90 % 1013,8 hPa 0,0 mm 2,5 km/h (1 Bft) W 265 ° 0 min 0,000 mm 1,1 UV-I 123 W/m² 8,8 °C 10,4 °C 6,4 km/h (2 Bft)
16.04.2018 13:29 10,4 °C 90 % 1013,8 hPa 0,0 mm 4,2 km/h (1 Bft) W-SW 254 ° 0 min 0,000 mm 1,1 UV-I 125 W/m² 8,8 °C 10,4 °C 8,0 km/h (2 Bft)
16.04.2018 13:30 10,4 °C 90 % 1013,7 hPa 0,0 mm 6,8 km/h (2 Bft) W 275 ° 0 min 0,000 mm 1,1 UV-I 127 W/m² 8,8 °C 10,4 °C 11,3 km/h (2 Bft)
16.04.2018 13:31 10,4 °C 90 % 1013,8 hPa 0,0 mm 4,8 km/h (1 Bft) W 279 ° 0 min 0,000 mm 1,2 UV-I 128 W/m² 8,8 °C 10,4 °C 8,0 km/h (2 Bft)
16.04.2018 13:32 10,4 °C 91 % 1013,8 hPa 0,0 mm 3,7 km/h (1 Bft) W 268 ° 0 min 0,000 mm 1,2 UV-I 132 W/m² 9,0 °C 10,4 °C 6,4 km/h (2 Bft)
16.04.2018 13:33 10,4 °C 90 % 1013,8 hPa 0,0 mm 5,6 km/h (1 Bft) W 265 ° 0 min 0,000 mm 1,2 UV-I 137 W/m² 8,8 °C 10,4 °C 12,9 km/h (3 Bft)
16.04.2018 13:34 10,4 °C 91 % 1013,9 hPa 0,0 mm 3,3 km/h (1 Bft) W-NW 284 ° 0 min 0,000 mm 1,3 UV-I 141 W/m² 9,0 °C 10,4 °C 6,4 km/h (2 Bft)
16.04.2018 13:35 10,6 °C 91 % 1013,9 hPa 0,0 mm 3,4 km/h (1 Bft) W 269 ° 0 min 0,000 mm 1,3 UV-I 149 W/m² 9,2 °C 10,6 °C 4,8 km/h (1 Bft)
16.04.2018 13:36 10,6 °C 91 % 1013,9 hPa 0,0 mm 2,9 km/h (1 Bft) W 269 ° 0 min 0,000 mm 1,3 UV-I 151 W/m² 9,2 °C 10,6 °C 4,8 km/h (1 Bft)
16.04.2018 13:37 10,6 °C 91 % 1013,9 hPa 0,0 mm 4,8 km/h (1 Bft) W 271 ° 0 min 0,000 mm 1,3 UV-I 153 W/m² 9,2 °C 10,6 °C 9,7 km/h (2 Bft)
16.04.2018 13:38 10,6 °C 91 % 1013,9 hPa 0,0 mm 6,0 km/h (2 Bft) W 269 ° 0 min 0,000 mm 1,3 UV-I 155 W/m² 9,2 °C 10,6 °C 9,7 km/h (2 Bft)
16.04.2018 13:39 10,6 °C 90 % 1013,9 hPa 0,0 mm 6,9 km/h (2 Bft) W 263 ° 0 min 0,000 mm 1,3 UV-I 155 W/m² 9,0 °C 10,6 °C 12,9 km/h (3 Bft)
16.04.2018 13:40 10,6 °C 90 % 1013,9 hPa 0,0 mm 10,0 km/h (2 Bft) W 265 ° 0 min 0,000 mm 1,4 UV-I 156 W/m² 9,0 °C 10,6 °C 14,5 km/h (3 Bft)
16.04.2018 13:41 10,6 °C 90 % 1013,9 hPa 0,0 mm 8,4 km/h (2 Bft) W 265 ° 0 min 0,000 mm 1,4 UV-I 160 W/m² 9,0 °C 10,6 °C 11,3 km/h (2 Bft)
16.04.2018 13:42 10,6 °C 90 % 1013,9 hPa 0,0 mm 7,1 km/h (2 Bft) W 278 ° 0 min 0,000 mm 1,4 UV-I 160 W/m² 9,0 °C 10,6 °C 9,7 km/h (2 Bft)
16.04.2018 13:43 10,6 °C 90 % 1014,0 hPa 0,0 mm 7,8 km/h (2 Bft) W-NW 282 ° 0 min 0,000 mm 1,4 UV-I 162 W/m² 9,0 °C 10,6 °C 11,3 km/h (2 Bft)
16.04.2018 13:44 10,6 °C 90 % 1013,9 hPa 0,0 mm 6,0 km/h (2 Bft) W-SW 248 ° 0 min 0,000 mm 1,4 UV-I 162 W/m² 9,0 °C 10,6 °C 11,3 km/h (2 Bft)
16.04.2018 13:45 10,7 °C 91 % 1014,0 hPa 0,0 mm 8,0 km/h (2 Bft) W 267 ° 0 min 0,000 mm 1,4 UV-I 162 W/m² 9,3 °C 10,7 °C 14,5 km/h (3 Bft)
16.04.2018 13:46 10,7 °C 90 % 1014,0 hPa 0,0 mm 6,6 km/h (2 Bft) W 272 ° 0 min 0,000 mm 1,4 UV-I 160 W/m² 9,1 °C 10,7 °C 12,9 km/h (3 Bft)
16.04.2018 13:47 10,7 °C 90 % 1014,0 hPa 0,0 mm 7,5 km/h (2 Bft) W 269 ° 0 min 0,000 mm 1,4 UV-I 155 W/m² 9,1 °C 10,7 °C 11,3 km/h (2 Bft)
16.04.2018 13:48 10,8 °C 90 % 1014,0 hPa 0,0 mm 7,0 km/h (2 Bft) W 265 ° 0 min 0,000 mm 1,4 UV-I 153 W/m² 9,2 °C 10,8 °C 11,3 km/h (2 Bft)
16.04.2018 13:49 10,8 °C 91 % 1014,0 hPa 0,0 mm 7,0 km/h (2 Bft) W-SW 249 ° 0 min 0,000 mm 1,3 UV-I 151 W/m² 9,4 °C 10,8 °C 9,7 km/h (2 Bft)
16.04.2018 13:50 10,8 °C 90 % 1014,0 hPa 0,0 mm 7,6 km/h (2 Bft) W 278 ° 0 min 0,000 mm 1,3 UV-I 149 W/m² 9,2 °C 10,8 °C 12,9 km/h (3 Bft)
16.04.2018 13:51 10,8 °C 90 % 1013,9 hPa 0,0 mm 7,7 km/h (2 Bft) W-SW 238 ° 0 min 0,000 mm 1,3 UV-I 148 W/m² 9,2 °C 10,8 °C 11,3 km/h (2 Bft)
16.04.2018 13:52 10,8 °C 90 % 1014,0 hPa 0,0 mm 9,5 km/h (2 Bft) W 274 ° 0 min 0,000 mm 1,3 UV-I 144 W/m² 9,2 °C 10,8 °C 12,9 km/h (3 Bft)
16.04.2018 13:53 10,7 °C 89 % 1014,0 hPa 0,0 mm 5,8 km/h (2 Bft) W 262 ° 0 min 0,000 mm 1,3 UV-I 139 W/m² 9,0 °C 10,7 °C 9,7 km/h (2 Bft)
16.04.2018 13:54 10,7 °C 90 % 1014,0 hPa 0,0 mm 6,5 km/h (2 Bft) W-NW 282 ° 0 min 0,000 mm 1,3 UV-I 139 W/m² 9,1 °C 10,7 °C 9,7 km/h (2 Bft)
16.04.2018 13:55 10,7 °C 90 % 1014,0 hPa 0,0 mm 2,6 km/h (1 Bft) W-NW 282 ° 0 min 0,000 mm 1,3 UV-I 137 W/m² 9,1 °C 10,7 °C 4,8 km/h (1 Bft)
16.04.2018 13:56 10,7 °C 90 % 1014,0 hPa 0,0 mm 3,9 km/h (1 Bft) W 278 ° 0 min 0,000 mm 1,2 UV-I 134 W/m² 9,1 °C 10,7 °C 6,4 km/h (2 Bft)
16.04.2018 13:57 10,7 °C 90 % 1014,0 hPa 0,0 mm 8,7 km/h (2 Bft) NW 306 ° 0 min 0,000 mm 1,2 UV-I 130 W/m² 9,1 °C 10,7 °C 14,5 km/h (3 Bft)
16.04.2018 13:58 10,7 °C 90 % 1014,0 hPa 0,0 mm 8,1 km/h (2 Bft) NW 305 ° 0 min 0,000 mm 1,2 UV-I 130 W/m² 9,1 °C 10,7 °C 11,3 km/h (2 Bft)
16.04.2018 13:59 10,7 °C 89 % 1014,0 hPa 0,0 mm 4,3 km/h (1 Bft) W 266 ° 0 min 0,000 mm 1,2 UV-I 132 W/m² 9,0 °C 10,7 °C 6,4 km/h (2 Bft)
16.04.2018 14:00 10,7 °C 90 % 1014,0 hPa 0,0 mm 4,7 km/h (1 Bft) W 268 ° 0 min 0,000 mm 1,2 UV-I 132 W/m² 9,1 °C 10,7 °C 6,4 km/h (2 Bft)
16.04.2018 14:01 10,7 °C 90 % 1014,0 hPa 0,0 mm 3,5 km/h (1 Bft) W 269 ° 0 min 0,076 mm 1,2 UV-I 132 W/m² 9,1 °C 10,7 °C 4,8 km/h (1 Bft)
16.04.2018 14:02 10,7 °C 90 % 1014,0 hPa 0,0 mm 5,0 km/h (1 Bft) W-NW 283 ° 0 min 0,000 mm 1,2 UV-I 134 W/m² 9,1 °C 10,7 °C 11,3 km/h (2 Bft)
16.04.2018 14:03 10,7 °C 89 % 1014,0 hPa 0,0 mm 8,0 km/h (2 Bft) W 276 ° 0 min 0,000 mm 1,2 UV-I 134 W/m² 9,0 °C 10,7 °C 11,3 km/h (2 Bft)
16.04.2018 14:04 10,7 °C 89 % 1014,0 hPa 0,0 mm 4,8 km/h (1 Bft) W-NW 292 ° 0 min 0,000 mm 1,2 UV-I 134 W/m² 9,0 °C 10,7 °C 6,4 km/h (2 Bft)
16.04.2018 14:05 10,7 °C 89 % 1014,0 hPa 0,0 mm 6,6 km/h (2 Bft) W-NW 298 ° 0 min 0,000 mm 1,2 UV-I 132 W/m² 9,0 °C 10,7 °C 9,7 km/h (2 Bft)
16.04.2018 14:06 10,7 °C 90 % 1014,0 hPa 0,0 mm 7,1 km/h (2 Bft) W-NW 288 ° 0 min 0,000 mm 1,1 UV-I 130 W/m² 9,1 °C 10,7 °C 12,9 km/h (3 Bft)
16.04.2018 14:07 10,7 °C 90 % 1014,0 hPa 0,0 mm 8,0 km/h (2 Bft) W-NW 284 ° 0 min 0,000 mm 1,1 UV-I 128 W/m² 9,1 °C 10,7 °C 14,5 km/h (3 Bft)
16.04.2018 14:08 10,7 °C 90 % 1014,0 hPa 0,0 mm 8,3 km/h (2 Bft) W 262 ° 0 min 0,000 mm 1,1 UV-I 128 W/m² 9,1 °C 10,7 °C 14,5 km/h (3 Bft)
16.04.2018 14:09 10,6 °C 89 % 1014,0 hPa 0,0 mm 5,4 km/h (1 Bft) W 264 ° 0 min 0,000 mm 1,1 UV-I 128 W/m² 8,9 °C 10,6 °C 9,7 km/h (2 Bft)
16.04.2018 14:10 10,6 °C 90 % 1014,1 hPa 0,0 mm 7,7 km/h (2 Bft) W 265 ° 0 min 0,000 mm 1,1 UV-I 123 W/m² 9,0 °C 10,6 °C 12,9 km/h (3 Bft)
16.04.2018 14:11 10,6 °C 90 % 1014,1 hPa 0,0 mm 7,4 km/h (2 Bft) W 272 ° 0 min 0,000 mm 1,1 UV-I 127 W/m² 9,0 °C 10,6 °C 11,3 km/h (2 Bft)
16.04.2018 14:12 10,6 °C 90 % 1014,1 hPa 0,0 mm 3,6 km/h (1 Bft) W 271 ° 0 min 0,000 mm 1,1 UV-I 132 W/m² 9,0 °C 10,6 °C 4,8 km/h (1 Bft)
16.04.2018 14:13 10,6 °C 90 % 1014,1 hPa 0,0 mm 3,6 km/h (1 Bft) W-SW 249 ° 0 min 0,000 mm 1,2 UV-I 135 W/m² 9,0 °C 10,6 °C 6,4 km/h (2 Bft)
16.04.2018 14:14 10,6 °C 90 % 1014,1 hPa 0,0 mm 7,6 km/h (2 Bft) W-SW 242 ° 0 min 0,000 mm 1,2 UV-I 137 W/m² 9,0 °C 10,6 °C 12,9 km/h (3 Bft)
16.04.2018 14:15 10,6 °C 90 % 1014,1 hPa 0,0 mm 6,5 km/h (2 Bft) W-SW 254 ° 0 min 0,000 mm 1,2 UV-I 139 W/m² 9,0 °C 10,6 °C 11,3 km/h (2 Bft)
16.04.2018 14:16 10,6 °C 90 % 1014,1 hPa 0,0 mm 7,6 km/h (2 Bft) W-SW 240 ° 0 min 0,000 mm 1,2 UV-I 142 W/m² 9,0 °C 10,6 °C 11,3 km/h (2 Bft)
16.04.2018 14:17 10,6 °C 90 % 1014,1 hPa 0,0 mm 6,1 km/h (2 Bft) W-SW 254 ° 0 min 0,000 mm 1,2 UV-I 142 W/m² 9,0 °C 10,6 °C 11,3 km/h (2 Bft)
16.04.2018 14:18 10,6 °C 90 % 1014,1 hPa 0,0 mm 3,4 km/h (1 Bft) W 273 ° 0 min 0,000 mm 1,2 UV-I 142 W/m² 9,0 °C 10,6 °C 6,4 km/h (2 Bft)
16.04.2018 14:19 10,6 °C 90 % 1014,2 hPa 0,0 mm 5,0 km/h (1 Bft) W 270 ° 0 min 0,000 mm 1,2 UV-I 142 W/m² 9,0 °C 10,6 °C 9,7 km/h (2 Bft)
16.04.2018 14:20 10,6 °C 90 % 1014,2 hPa 0,0 mm 7,5 km/h (2 Bft) W 268 ° 0 min 0,000 mm 1,2 UV-I 142 W/m² 9,0 °C 10,6 °C 11,3 km/h (2 Bft)
16.04.2018 14:21 10,6 °C 90 % 1014,1 hPa 0,0 mm 6,4 km/h (2 Bft) W 271 ° 0 min 0,000 mm 1,2 UV-I 142 W/m² 9,0 °C 10,6 °C 12,9 km/h (3 Bft)
16.04.2018 14:22 10,6 °C 90 % 1014,2 hPa 0,0 mm 6,6 km/h (2 Bft) W 277 ° 0 min 0,000 mm 1,2 UV-I 144 W/m² 9,0 °C 10,6 °C 12,9 km/h (3 Bft)
16.04.2018 14:23 10,6 °C 90 % 1014,2 hPa 0,0 mm 6,5 km/h (2 Bft) W-NW 286 ° 0 min 0,000 mm 1,2 UV-I 146 W/m² 9,0 °C 10,6 °C 11,3 km/h (2 Bft)
16.04.2018 14:24 10,6 °C 90 % 1014,2 hPa 0,0 mm 8,0 km/h (2 Bft) W 273 ° 0 min 0,000 mm 1,2 UV-I 149 W/m² 9,0 °C 10,6 °C 11,3 km/h (2 Bft)
16.04.2018 14:25 10,6 °C 90 % 1014,2 hPa 0,0 mm 3,7 km/h (1 Bft) W-SW 251 ° 0 min 0,000 mm 1,2 UV-I 151 W/m² 9,0 °C 10,6 °C 6,4 km/h (2 Bft)
16.04.2018 14:26 10,6 °C 91 % 1014,2 hPa 0,0 mm 5,7 km/h (1 Bft) W 274 ° 0 min 0,000 mm 1,2 UV-I 156 W/m² 9,2 °C 10,6 °C 9,7 km/h (2 Bft)
16.04.2018 14:27 10,6 °C 90 % 1014,2 hPa 0,0 mm 3,6 km/h (1 Bft) W 259 ° 0 min 0,000 mm 1,2 UV-I 160 W/m² 9,0 °C 10,6 °C 4,8 km/h (1 Bft)
16.04.2018 14:28 10,6 °C 90 % 1014,2 hPa 0,0 mm 7,1 km/h (2 Bft) W 272 ° 0 min 0,000 mm 1,3 UV-I 169 W/m² 9,0 °C 10,6 °C 11,3 km/h (2 Bft)
16.04.2018 14:29 10,6 °C 90 % 1014,2 hPa 0,0 mm 6,8 km/h (2 Bft) W-SW 242 ° 0 min 0,000 mm 1,4 UV-I 171 W/m² 9,0 °C 10,6 °C 9,7 km/h (2 Bft)
16.04.2018 14:30 10,6 °C 90 % 1014,2 hPa 0,0 mm 5,4 km/h (1 Bft) W-SW 246 ° 0 min 0,000 mm 1,4 UV-I 172 W/m² 9,0 °C 10,6 °C 9,7 km/h (2 Bft)
16.04.2018 14:31 10,6 °C 90 % 1014,2 hPa 0,0 mm 8,2 km/h (2 Bft) W 281 ° 0 min 0,000 mm 1,4 UV-I 172 W/m² 9,0 °C 10,6 °C 11,3 km/h (2 Bft)
16.04.2018 14:32 10,6 °C 90 % 1014,2 hPa 0,0 mm 2,9 km/h (1 Bft) W-SW 256 ° 0 min 0,000 mm 1,4 UV-I 174 W/m² 9,0 °C 10,6 °C 6,4 km/h (2 Bft)
16.04.2018 14:33 10,7 °C 91 % 1014,2 hPa 0,0 mm 5,1 km/h (1 Bft) W 260 ° 0 min 0,000 mm 1,4 UV-I 172 W/m² 9,3 °C 10,7 °C 6,4 km/h (2 Bft)
16.04.2018 14:34 10,6 °C 90 % 1014,2 hPa 0,0 mm 6,3 km/h (2 Bft) W 267 ° 0 min 0,000 mm 1,4 UV-I 171 W/m² 9,0 °C 10,6 °C 9,7 km/h (2 Bft)
16.04.2018 14:35 10,6 °C 90 % 1014,2 hPa 0,0 mm 6,0 km/h (2 Bft) W 259 ° 0 min 0,000 mm 1,3 UV-I 169 W/m² 9,0 °C 10,6 °C 11,3 km/h (2 Bft)
16.04.2018 14:36 10,6 °C 90 % 1014,3 hPa 0,0 mm 7,2 km/h (2 Bft) W 266 ° 0 min 0,000 mm 1,3 UV-I 167 W/m² 9,0 °C 10,6 °C 9,7 km/h (2 Bft)
16.04.2018 14:37 10,6 °C 90 % 1014,3 hPa 0,0 mm 2,0 km/h (1 Bft) W 266 ° 0 min 0,000 mm 1,3 UV-I 165 W/m² 9,0 °C 10,6 °C 3,2 km/h (1 Bft)
16.04.2018 14:38 10,7 °C 90 % 1014,3 hPa 0,0 mm 3,4 km/h (1 Bft) W 268 ° 0 min 0,000 mm 1,3 UV-I 162 W/m² 9,1 °C 10,7 °C 6,4 km/h (2 Bft)
16.04.2018 14:39 10,7 °C 90 % 1014,3 hPa 0,0 mm 5,0 km/h (1 Bft) W 281 ° 0 min 0,000 mm 1,3 UV-I 158 W/m² 9,1 °C 10,7 °C 6,4 km/h (2 Bft)
16.04.2018 14:40 10,7 °C 90 % 1014,3 hPa 0,0 mm 3,0 km/h (1 Bft) W 275 ° 0 min 0,000 mm 1,3 UV-I 155 W/m² 9,1 °C 10,7 °C 4,8 km/h (1 Bft)
16.04.2018 14:41 10,7 °C 90 % 1014,3 hPa 0,0 mm 1,6 km/h (1 Bft) W 275 ° 0 min 0,000 mm 1,2 UV-I 153 W/m² 9,1 °C 10,7 °C 3,2 km/h (1 Bft)
16.04.2018 14:42 10,8 °C 90 % 1014,3 hPa 0,0 mm 3,0 km/h (1 Bft) W 264 ° 0 min 0,000 mm 1,2 UV-I 149 W/m² 9,2 °C 10,8 °C 9,7 km/h (2 Bft)
16.04.2018 14:43 10,7 °C 90 % 1014,2 hPa 0,0 mm 8,3 km/h (2 Bft) NW 306 ° 0 min 0,000 mm 1,2 UV-I 146 W/m² 9,1 °C 10,7 °C 11,3 km/h (2 Bft)
16.04.2018 14:44 10,7 °C 89 % 1014,2 hPa 0,0 mm 6,2 km/h (2 Bft) W 270 ° 0 min 0,000 mm 1,1 UV-I 144 W/m² 9,0 °C 10,7 °C 9,7 km/h (2 Bft)
16.04.2018 14:45 10,7 °C 89 % 1014,2 hPa 0,0 mm 6,6 km/h (2 Bft) W-NW 303 ° 0 min 0,000 mm 1,1 UV-I 142 W/m² 9,0 °C 10,7 °C 9,7 km/h (2 Bft)
16.04.2018 14:46 10,7 °C 89 % 1014,2 hPa 0,0 mm 4,6 km/h (1 Bft) W-SW 257 ° 0 min 0,000 mm 1,1 UV-I 141 W/m² 9,0 °C 10,7 °C 6,4 km/h (2 Bft)
16.04.2018 14:47 10,7 °C 89 % 1014,2 hPa 0,0 mm 3,9 km/h (1 Bft) W 281 ° 0 min 0,000 mm 1,1 UV-I 142 W/m² 9,0 °C 10,7 °C 6,4 km/h (2 Bft)
16.04.2018 14:48 10,7 °C 90 % 1014,2 hPa 0,0 mm 7,6 km/h (2 Bft) W 279 ° 0 min 0,000 mm 1,1 UV-I 142 W/m² 9,1 °C 10,7 °C 9,7 km/h (2 Bft)
16.04.2018 14:49 10,7 °C 89 % 1014,2 hPa 0,0 mm 4,7 km/h (1 Bft) W 275 ° 0 min 0,000 mm 1,1 UV-I 144 W/m² 9,0 °C 10,7 °C 9,7 km/h (2 Bft)
16.04.2018 14:50 10,8 °C 89 % 1014,2 hPa 0,0 mm 2,0 km/h (1 Bft) W-NW 303 ° 0 min 0,000 mm 1,1 UV-I 148 W/m² 9,1 °C 10,8 °C 6,4 km/h (2 Bft)
16.04.2018 14:51 10,8 °C 90 % 1014,2 hPa 0,0 mm 4,4 km/h (1 Bft) W 274 ° 0 min 0,000 mm 1,2 UV-I 155 W/m² 9,2 °C 10,8 °C 6,4 km/h (2 Bft)
16.04.2018 14:52 10,8 °C 89 % 1014,2 hPa 0,0 mm 5,2 km/h (1 Bft) W-NW 296 ° 0 min 0,000 mm 1,2 UV-I 158 W/m² 9,1 °C 10,8 °C 11,3 km/h (2 Bft)
16.04.2018 14:53 10,8 °C 89 % 1014,2 hPa 0,0 mm 7,7 km/h (2 Bft) W-NW 300 ° 0 min 0,000 mm 1,2 UV-I 162 W/m² 9,1 °C 10,8 °C 11,3 km/h (2 Bft)
16.04.2018 14:54 10,8 °C 89 % 1014,2 hPa 0,0 mm 6,1 km/h (2 Bft) W-SW 253 ° 0 min 0,000 mm 1,3 UV-I 163 W/m² 9,1 °C 10,8 °C 8,0 km/h (2 Bft)
16.04.2018 14:55 10,8 °C 90 % 1014,2 hPa 0,0 mm 6,6 km/h (2 Bft) W 276 ° 0 min 0,000 mm 1,3 UV-I 165 W/m² 9,2 °C 10,8 °C 11,3 km/h (2 Bft)
16.04.2018 14:56 10,8 °C 90 % 1014,2 hPa 0,0 mm 6,5 km/h (2 Bft) W 271 ° 0 min 0,000 mm 1,3 UV-I 167 W/m² 9,2 °C 10,8 °C 11,3 km/h (2 Bft)
16.04.2018 14:57 10,9 °C 89 % 1014,2 hPa 0,0 mm 5,8 km/h (2 Bft) W 279 ° 0 min 0,000 mm 1,3 UV-I 169 W/m² 9,2 °C 10,9 °C 11,3 km/h (2 Bft)
16.04.2018 14:58 10,8 °C 89 % 1014,1 hPa 0,0 mm 5,2 km/h (1 Bft) W 267 ° 0 min 0,000 mm 1,3 UV-I 171 W/m² 9,1 °C 10,8 °C 9,7 km/h (2 Bft)
16.04.2018 14:59 10,8 °C 89 % 1014,1 hPa 0,0 mm 5,8 km/h (2 Bft) W-NW 285 ° 0 min 0,000 mm 1,3 UV-I 171 W/m² 9,1 °C 10,8 °C 12,9 km/h (3 Bft)
16.04.2018 15:00 10,9 °C 89 % 1014,2 hPa 0,0 mm 8,2 km/h (2 Bft) W 260 ° 0 min 0,000 mm 1,3 UV-I 171 W/m² 9,2 °C 10,9 °C 12,9 km/h (3 Bft)
16.04.2018 15:01 10,9 °C 90 % 1014,1 hPa 0,0 mm 6,2 km/h (2 Bft) W 279 ° 0 min 0,076 mm 1,3 UV-I 171 W/m² 9,3 °C 10,9 °C 11,3 km/h (2 Bft)
16.04.2018 15:02 11,0 °C 89 % 1014,1 hPa 0,0 mm 7,8 km/h (2 Bft) NW 306 ° 0 min 0,000 mm 1,3 UV-I 171 W/m² 9,3 °C 11,0 °C 11,3 km/h (2 Bft)
16.04.2018 15:03 11,1 °C 90 % 1014,2 hPa 0,0 mm 7,0 km/h (2 Bft) W-NW 288 ° 0 min 0,000 mm 1,3 UV-I 169 W/m² 9,5 °C 11,1 °C 12,9 km/h (3 Bft)
16.04.2018 15:04 11,1 °C 89 % 1014,1 hPa 0,0 mm 7,0 km/h (2 Bft) W 265 ° 0 min 0,000 mm 1,3 UV-I 169 W/m² 9,4 °C 11,1 °C 11,3 km/h (2 Bft)
16.04.2018 15:05 11,1 °C 89 % 1014,1 hPa 0,0 mm 6,8 km/h (2 Bft) W 279 ° 0 min 0,000 mm 1,3 UV-I 169 W/m² 9,4 °C 11,1 °C 11,3 km/h (2 Bft)
16.04.2018 15:06 11,1 °C 89 % 1014,2 hPa 0,0 mm 8,0 km/h (2 Bft) W-SW 254 ° 0 min 0,000 mm 1,3 UV-I 169 W/m² 9,4 °C 11,1 °C 11,3 km/h (2 Bft)
16.04.2018 15:07 11,1 °C 89 % 1014,1 hPa 0,0 mm 6,6 km/h (2 Bft) W 260 ° 0 min 0,000 mm 1,3 UV-I 172 W/m² 9,4 °C 11,1 °C 9,7 km/h (2 Bft)
16.04.2018 15:08 11,1 °C 89 % 1014,1 hPa 0,0 mm 5,2 km/h (1 Bft) W 268 ° 0 min 0,000 mm 1,4 UV-I 176 W/m² 9,4 °C 11,1 °C 6,4 km/h (2 Bft)
16.04.2018 15:09 11,2 °C 90 % 1014,2 hPa 0,0 mm 4,2 km/h (1 Bft) W 270 ° 0 min 0,000 mm 1,4 UV-I 181 W/m² 9,6 °C 11,2 °C 6,4 km/h (2 Bft)
16.04.2018 15:10 11,2 °C 90 % 1014,2 hPa 0,0 mm 6,1 km/h (2 Bft) W-NW 296 ° 0 min 0,000 mm 1,4 UV-I 183 W/m² 9,6 °C 11,2 °C 11,3 km/h (2 Bft)
16.04.2018 15:11 11,2 °C 89 % 1014,2 hPa 0,0 mm 7,0 km/h (2 Bft) NW 304 ° 0 min 0,000 mm 1,5 UV-I 186 W/m² 9,5 °C 11,2 °C 11,3 km/h (2 Bft)
16.04.2018 15:12 11,2 °C 89 % 1014,2 hPa 0,0 mm 8,4 km/h (2 Bft) W-NW 296 ° 0 min 0,000 mm 1,5 UV-I 192 W/m² 9,5 °C 11,2 °C 12,9 km/h (3 Bft)
16.04.2018 15:13 11,2 °C 89 % 1014,2 hPa 0,0 mm 3,9 km/h (1 Bft) W 279 ° 0 min 0,000 mm 1,5 UV-I 195 W/m² 9,5 °C 11,2 °C 9,7 km/h (2 Bft)
16.04.2018 15:14 11,3 °C 89 % 1014,1 hPa 0,0 mm 7,3 km/h (2 Bft) W-NW 288 ° 0 min 0,000 mm 1,5 UV-I 200 W/m² 9,6 °C 11,3 °C 11,3 km/h (2 Bft)
16.04.2018 15:15 11,3 °C 89 % 1014,2 hPa 0,0 mm 3,3 km/h (1 Bft) W 278 ° 0 min 0,000 mm 1,6 UV-I 213 W/m² 9,6 °C 11,3 °C 4,8 km/h (1 Bft)
16.04.2018 15:16 11,3 °C 89 % 1014,2 hPa 0,0 mm 5,4 km/h (1 Bft) W-NW 300 ° 0 min 0,000 mm 1,7 UV-I 221 W/m² 9,6 °C 11,3 °C 6,4 km/h (2 Bft)
16.04.2018 15:17 11,3 °C 89 % 1014,2 hPa 0,0 mm 5,8 km/h (2 Bft) NW 304 ° 0 min 0,000 mm 1,7 UV-I 230 W/m² 9,6 °C 11,3 °C 9,7 km/h (2 Bft)
16.04.2018 15:18 11,3 °C 89 % 1014,2 hPa 0,0 mm 6,2 km/h (2 Bft) W 265 ° 0 min 0,000 mm 1,8 UV-I 237 W/m² 9,6 °C 11,3 °C 11,3 km/h (2 Bft)
16.04.2018 15:19 11,3 °C 88 % 1014,2 hPa 0,0 mm 8,5 km/h (2 Bft) W 278 ° 0 min 0,000 mm 1,8 UV-I 244 W/m² 9,4 °C 11,3 °C 14,5 km/h (3 Bft)
16.04.2018 15:20 11,3 °C 88 % 1014,2 hPa 0,0 mm 6,1 km/h (2 Bft) W 273 ° 0 min 0,000 mm 1,9 UV-I 250 W/m² 9,4 °C 11,3 °C 11,3 km/h (2 Bft)
16.04.2018 15:21 11,3 °C 88 % 1014,2 hPa 0,0 mm 5,1 km/h (1 Bft) W 274 ° 0 min 0,000 mm 1,9 UV-I 251 W/m² 9,4 °C 11,3 °C 8,0 km/h (2 Bft)
16.04.2018 15:22 11,3 °C 88 % 1014,2 hPa 0,0 mm 9,3 km/h (2 Bft) W-NW 284 ° 0 min 0,000 mm 1,9 UV-I 251 W/m² 9,4 °C 11,3 °C 14,5 km/h (3 Bft)
16.04.2018 15:23 11,2 °C 88 % 1014,2 hPa 0,0 mm 8,9 km/h (2 Bft) W-NW 292 ° 0 min 0,000 mm 1,9 UV-I 248 W/m² 9,3 °C 11,2 °C 12,9 km/h (3 Bft)
16.04.2018 15:24 11,3 °C 89 % 1014,2 hPa 0,0 mm 4,5 km/h (1 Bft) W 269 ° 0 min 0,000 mm 1,9 UV-I 244 W/m² 9,6 °C 11,3 °C 6,4 km/h (2 Bft)
16.04.2018 15:25 11,3 °C 89 % 1014,2 hPa 0,0 mm 4,7 km/h (1 Bft) W 276 ° 0 min 0,000 mm 1,9 UV-I 241 W/m² 9,6 °C 11,3 °C 6,4 km/h (2 Bft)
16.04.2018 15:26 11,3 °C 88 % 1014,3 hPa 0,0 mm 5,4 km/h (1 Bft) W-NW 297 ° 0 min 0,000 mm 1,9 UV-I 244 W/m² 9,4 °C 11,3 °C 9,7 km/h (2 Bft)
16.04.2018 15:27 11,3 °C 88 % 1014,3 hPa 0,0 mm 3,0 km/h (1 Bft) W-NW 297 ° 0 min 0,000 mm 1,9 UV-I 248 W/m² 9,4 °C 11,3 °C 4,8 km/h (1 Bft)
16.04.2018 15:28 11,3 °C 88 % 1014,3 hPa 0,0 mm 8,5 km/h (2 Bft) W 275 ° 0 min 0,000 mm 2,0 UV-I 251 W/m² 9,4 °C 11,3 °C 12,9 km/h (3 Bft)
16.04.2018 15:29 11,3 °C 89 % 1014,4 hPa 0,0 mm 10,3 km/h (2 Bft) W 269 ° 0 min 0,000 mm 2,0 UV-I 255 W/m² 9,6 °C 11,3 °C 14,5 km/h (3 Bft)
16.04.2018 15:30 11,3 °C 89 % 1014,3 hPa 0,0 mm 7,6 km/h (2 Bft) W-SW 258 ° 0 min 0,000 mm 2,0 UV-I 255 W/m² 9,6 °C 11,3 °C 11,3 km/h (2 Bft)
16.04.2018 15:31 11,3 °C 89 % 1014,4 hPa 0,0 mm 7,6 km/h (2 Bft) W 270 ° 0 min 0,000 mm 2,0 UV-I 251 W/m² 9,6 °C 11,3 °C 9,7 km/h (2 Bft)
16.04.2018 15:32 11,4 °C 89 % 1014,4 hPa 0,0 mm 6,9 km/h (2 Bft) W 280 ° 0 min 0,000 mm 1,9 UV-I 236 W/m² 9,7 °C 11,4 °C 11,3 km/h (2 Bft)
16.04.2018 15:33 11,3 °C 88 % 1014,4 hPa 0,0 mm 8,9 km/h (2 Bft) W 273 ° 0 min 0,000 mm 1,8 UV-I 225 W/m² 9,4 °C 11,3 °C 12,9 km/h (3 Bft)
16.04.2018 15:34 11,3 °C 88 % 1014,4 hPa 0,0 mm 4,8 km/h (1 Bft) W 270 ° 0 min 0,000 mm 1,8 UV-I 218 W/m² 9,4 °C 11,3 °C 9,7 km/h (2 Bft)
16.04.2018 15:35 11,3 °C 89 % 1014,4 hPa 0,0 mm 7,1 km/h (2 Bft) W 266 ° 0 min 0,000 mm 1,8 UV-I 214 W/m² 9,6 °C 11,3 °C 11,3 km/h (2 Bft)
16.04.2018 15:36 11,4 °C 89 % 1014,4 hPa 0,0 mm 9,4 km/h (2 Bft) W 281 ° 0 min 0,000 mm 1,8 UV-I 211 W/m² 9,7 °C 11,4 °C 12,9 km/h (3 Bft)
16.04.2018 15:37 11,4 °C 88 % 1014,4 hPa 0,0 mm 10,5 km/h (2 Bft) W-NW 287 ° 0 min 0,000 mm 1,8 UV-I 209 W/m² 9,5 °C 11,4 °C 16,1 km/h (3 Bft)
16.04.2018 15:38 11,3 °C 88 % 1014,5 hPa 0,0 mm 7,8 km/h (2 Bft) W 265 ° 0 min 0,000 mm 1,7 UV-I 209 W/m² 9,4 °C 11,3 °C 11,3 km/h (2 Bft)
16.04.2018 15:39 11,3 °C 88 % 1014,4 hPa 0,0 mm 7,2 km/h (2 Bft) W 268 ° 0 min 0,000 mm 1,7 UV-I 213 W/m² 9,4 °C 11,3 °C 14,5 km/h (3 Bft)
16.04.2018 15:40 11,3 °C 88 % 1014,4 hPa 0,0 mm 9,9 km/h (2 Bft) W 267 ° 0 min 0,000 mm 1,8 UV-I 220 W/m² 9,4 °C 11,3 °C 14,5 km/h (3 Bft)
16.04.2018 15:41 11,3 °C 88 % 1014,4 hPa 0,0 mm 4,2 km/h (1 Bft) W 272 ° 0 min 0,000 mm 1,7 UV-I 225 W/m² 9,4 °C 11,3 °C 4,8 km/h (1 Bft)
16.04.2018 15:42 11,3 °C 88 % 1014,4 hPa 0,0 mm 3,1 km/h (1 Bft) W 275 ° 0 min 0,000 mm 1,8 UV-I 232 W/m² 9,4 °C 11,3 °C 4,8 km/h (1 Bft)
16.04.2018 15:43 11,4 °C 89 % 1014,4 hPa 0,0 mm 6,6 km/h (2 Bft) W 266 ° 0 min 0,000 mm 1,7 UV-I 236 W/m² 9,7 °C 11,4 °C 11,3 km/h (2 Bft)
16.04.2018 15:44 11,4 °C 89 % 1014,4 hPa 0,0 mm 8,7 km/h (2 Bft) W-NW 288 ° 0 min 0,000 mm 1,8 UV-I 255 W/m² 9,7 °C 11,4 °C 12,9 km/h (3 Bft)
16.04.2018 15:45 11,4 °C 88 % 1014,4 hPa 0,0 mm 4,9 km/h (1 Bft) W-NW 288 ° 0 min 0,000 mm 1,9 UV-I 267 W/m² 9,5 °C 11,4 °C 9,7 km/h (2 Bft)
16.04.2018 15:46 11,5 °C 89 % 1014,5 hPa 0,0 mm 7,6 km/h (2 Bft) W-SW 243 ° 0 min 0,000 mm 1,9 UV-I 272 W/m² 9,8 °C 11,5 °C 12,9 km/h (3 Bft)
16.04.2018 15:47 11,5 °C 89 % 1014,4 hPa 0,0 mm 7,2 km/h (2 Bft) W-NW 296 ° 0 min 0,000 mm 1,9 UV-I 271 W/m² 9,8 °C 11,5 °C 11,3 km/h (2 Bft)
16.04.2018 15:48 11,6 °C 89 % 1014,5 hPa 0,0 mm 7,4 km/h (2 Bft) W 267 ° 0 min 0,000 mm 1,9 UV-I 262 W/m² 9,8 °C 11,6 °C 12,9 km/h (3 Bft)
16.04.2018 15:49 11,5 °C 87 % 1014,4 hPa 0,0 mm 6,8 km/h (2 Bft) W-NW 292 ° 0 min 0,000 mm 1,8 UV-I 251 W/m² 9,4 °C 11,5 °C 11,3 km/h (2 Bft)
16.04.2018 15:50 11,4 °C 87 % 1014,4 hPa 0,0 mm 5,8 km/h (2 Bft) W-SW 244 ° 0 min 0,000 mm 1,8 UV-I 227 W/m² 9,3 °C 11,4 °C 9,7 km/h (2 Bft)
16.04.2018 15:51 11,5 °C 88 % 1014,4 hPa 0,0 mm 8,9 km/h (2 Bft) W 264 ° 0 min 0,000 mm 1,6 UV-I 218 W/m² 9,6 °C 11,5 °C 14,5 km/h (3 Bft)
16.04.2018 15:52 11,5 °C 89 % 1014,5 hPa 0,0 mm 9,0 km/h (2 Bft) W 271 ° 0 min 0,000 mm 1,5 UV-I 209 W/m² 9,8 °C 11,5 °C 12,9 km/h (3 Bft)
16.04.2018 15:53 11,5 °C 88 % 1014,5 hPa 0,0 mm 3,6 km/h (1 Bft) W 271 ° 0 min 0,000 mm 1,5 UV-I 209 W/m² 9,6 °C 11,5 °C 6,4 km/h (2 Bft)
16.04.2018 15:54 11,5 °C 88 % 1014,5 hPa 0,0 mm 4,8 km/h (1 Bft) W 267 ° 0 min 0,000 mm 1,6 UV-I 214 W/m² 9,6 °C 11,5 °C 6,4 km/h (2 Bft)
16.04.2018 15:55 11,5 °C 88 % 1014,5 hPa 0,0 mm 4,3 km/h (1 Bft) W 273 ° 0 min 0,000 mm 1,6 UV-I 221 W/m² 9,6 °C 11,5 °C 6,4 km/h (2 Bft)
16.04.2018 15:56 11,4 °C 87 % 1014,4 hPa 0,0 mm 6,1 km/h (2 Bft) W-NW 282 ° 0 min 0,000 mm 1,6 UV-I 220 W/m² 9,3 °C 11,4 °C 11,3 km/h (2 Bft)
16.04.2018 15:57 11,4 °C 87 % 1014,4 hPa 0,0 mm 4,4 km/h (1 Bft) W 273 ° 0 min 0,000 mm 1,6 UV-I 214 W/m² 9,3 °C 11,4 °C 6,4 km/h (2 Bft)
16.04.2018 15:58 11,4 °C 87 % 1014,4 hPa 0,0 mm 4,6 km/h (1 Bft) W 273 ° 0 min 0,000 mm 1,5 UV-I 211 W/m² 9,3 °C 11,4 °C 9,7 km/h (2 Bft)
16.04.2018 15:59 11,4 °C 87 % 1014,4 hPa 0,0 mm 10,5 km/h (2 Bft) W 263 ° 0 min 0,000 mm 1,5 UV-I 209 W/m² 9,3 °C 11,4 °C 14,5 km/h (3 Bft)
16.04.2018 16:00 11,3 °C 87 % 1014,4 hPa 0,0 mm 9,5 km/h (2 Bft) W-SW 252 ° 0 min 0,000 mm 1,5 UV-I 206 W/m² 9,2 °C 11,3 °C 12,9 km/h (3 Bft)
16.04.2018 16:01 11,4 °C 87 % 1014,4 hPa 0,0 mm 5,5 km/h (1 Bft) W 266 ° 0 min 0,102 mm 1,5 UV-I 200 W/m² 9,3 °C 11,4 °C 6,4 km/h (2 Bft)
16.04.2018 16:02 11,3 °C 87 % 1014,5 hPa 0,0 mm 5,0 km/h (1 Bft) W-SW 257 ° 0 min 0,000 mm 1,4 UV-I 190 W/m² 9,2 °C 11,3 °C 8,0 km/h (2 Bft)
16.04.2018 16:03 11,3 °C 87 % 1014,4 hPa 0,0 mm 7,7 km/h (2 Bft) W 265 ° 0 min 0,000 mm 1,4 UV-I 185 W/m² 9,2 °C 11,3 °C 11,3 km/h (2 Bft)
16.04.2018 16:04 11,3 °C 87 % 1014,4 hPa 0,0 mm 6,2 km/h (2 Bft) W 278 ° 0 min 0,000 mm 1,3 UV-I 179 W/m² 9,2 °C 11,3 °C 11,3 km/h (2 Bft)
16.04.2018 16:05 11,3 °C 88 % 1014,4 hPa 0,0 mm 6,4 km/h (2 Bft) W-NW 283 ° 0 min 0,000 mm 1,3 UV-I 176 W/m² 9,4 °C 11,3 °C 9,7 km/h (2 Bft)
16.04.2018 16:06 11,3 °C 88 % 1014,5 hPa 0,0 mm 6,8 km/h (2 Bft) W-NW 289 ° 0 min 0,000 mm 1,3 UV-I 174 W/m² 9,4 °C 11,3 °C 11,3 km/h (2 Bft)
16.04.2018 16:07 11,3 °C 88 % 1014,4 hPa 0,0 mm 3,5 km/h (1 Bft) W-NW 284 ° 0 min 0,000 mm 1,2 UV-I 167 W/m² 9,4 °C 11,3 °C 6,4 km/h (2 Bft)
16.04.2018 16:08 11,3 °C 89 % 1014,4 hPa 0,0 mm 4,0 km/h (1 Bft) NW 305 ° 0 min 0,000 mm 1,2 UV-I 165 W/m² 9,6 °C 11,3 °C 8,0 km/h (2 Bft)
16.04.2018 16:09 11,3 °C 88 % 1014,4 hPa 0,0 mm 9,1 km/h (2 Bft) W-NW 289 ° 0 min 0,000 mm 1,2 UV-I 162 W/m² 9,4 °C 11,3 °C 12,9 km/h (3 Bft)
16.04.2018 16:10 11,2 °C 88 % 1014,4 hPa 0,0 mm 9,1 km/h (2 Bft) NW 312 ° 0 min 0,000 mm 1,1 UV-I 158 W/m² 9,3 °C 11,2 °C 12,9 km/h (3 Bft)
16.04.2018 16:11 11,2 °C 88 % 1014,5 hPa 0,0 mm 3,8 km/h (1 Bft) NW 309 ° 0 min 0,000 mm 1,1 UV-I 155 W/m² 9,3 °C 11,2 °C 6,4 km/h (2 Bft)
16.04.2018 16:12 11,2 °C 89 % 1014,5 hPa 0,0 mm 9,0 km/h (2 Bft) W-NW 290 ° 0 min 0,000 mm 1,1 UV-I 149 W/m² 9,5 °C 11,2 °C 12,9 km/h (3 Bft)
16.04.2018 16:13 11,2 °C 88 % 1014,5 hPa 0,0 mm 5,2 km/h (1 Bft) W-NW 296 ° 0 min 0,000 mm 1,1 UV-I 144 W/m² 9,3 °C 11,2 °C 9,7 km/h (2 Bft)
16.04.2018 16:14 11,2 °C 89 % 1014,5 hPa 0,0 mm 4,0 km/h (1 Bft) W-NW 287 ° 0 min 0,000 mm 1,0 UV-I 142 W/m² 9,5 °C 11,2 °C 8,0 km/h (2 Bft)
16.04.2018 16:15 11,2 °C 89 % 1014,5 hPa 0,0 mm 4,1 km/h (1 Bft) NW 306 ° 0 min 0,000 mm 1,0 UV-I 141 W/m² 9,5 °C 11,2 °C 8,0 km/h (2 Bft)
16.04.2018 16:16 11,2 °C 89 % 1014,5 hPa 0,0 mm 6,0 km/h (2 Bft) W 277 ° 0 min 0,000 mm 1,0 UV-I 141 W/m² 9,5 °C 11,2 °C 9,7 km/h (2 Bft)
16.04.2018 16:17 11,2 °C 89 % 1014,5 hPa 0,0 mm 7,1 km/h (2 Bft) W-NW 300 ° 0 min 0,000 mm 1,0 UV-I 141 W/m² 9,5 °C 11,2 °C 11,3 km/h (2 Bft)
16.04.2018 16:18 11,2 °C 88 % 1014,5 hPa 0,0 mm 4,1 km/h (1 Bft) W-NW 300 ° 0 min 0,000 mm 1,0 UV-I 141 W/m² 9,3 °C 11,2 °C 6,4 km/h (2 Bft)
16.04.2018 16:19 11,2 °C 88 % 1014,5 hPa 0,0 mm 2,1 km/h (1 Bft) W-NW 300 ° 0 min 0,000 mm 1,0 UV-I 141 W/m² 9,3 °C 11,2 °C 3,2 km/h (1 Bft)
16.04.2018 16:20 11,1 °C 88 % 1014,5 hPa 0,0 mm 5,4 km/h (1 Bft) W-NW 301 ° 0 min 0,000 mm 1,0 UV-I 139 W/m² 9,2 °C 11,1 °C 9,7 km/h (2 Bft)
16.04.2018 16:21 11,1 °C 88 % 1014,5 hPa 0,0 mm 3,0 km/h (1 Bft) W-NW 286 ° 0 min 0,000 mm 1,0 UV-I 137 W/m² 9,2 °C 11,1 °C 6,4 km/h (2 Bft)
16.04.2018 16:22 11,1 °C 88 % 1014,6 hPa 0,0 mm 5,3 km/h (1 Bft) NW 307 ° 0 min 0,000 mm 1,0 UV-I 137 W/m² 9,2 °C 11,1 °C 9,7 km/h (2 Bft)
16.04.2018 16:23 11,1 °C 89 % 1014,6 hPa 0,0 mm 5,3 km/h (1 Bft) W-NW 283 ° 0 min 0,000 mm 0,9 UV-I 135 W/m² 9,4 °C 11,1 °C 6,4 km/h (2 Bft)
16.04.2018 16:24 11,1 °C 88 % 1014,6 hPa 0,0 mm 4,7 km/h (1 Bft) W-NW 287 ° 0 min 0,000 mm 0,9 UV-I 134 W/m² 9,2 °C 11,1 °C 6,4 km/h (2 Bft)
16.04.2018 16:25 11,1 °C 88 % 1014,5 hPa 0,0 mm 4,8 km/h (1 Bft) NW 317 ° 0 min 0,000 mm 0,9 UV-I 132 W/m² 9,2 °C 11,1 °C 6,4 km/h (2 Bft)
16.04.2018 16:26 11,1 °C 88 % 1014,5 hPa 0,0 mm 6,1 km/h (2 Bft) W 281 ° 0 min 0,000 mm 0,9 UV-I 130 W/m² 9,2 °C 11,1 °C 9,7 km/h (2 Bft)
16.04.2018 16:27 11,1 °C 88 % 1014,6 hPa 0,0 mm 7,0 km/h (2 Bft) W 271 ° 0 min 0,000 mm 0,9 UV-I 130 W/m² 9,2 °C 11,1 °C 11,3 km/h (2 Bft)
16.04.2018 16:28 11,1 °C 88 % 1014,6 hPa 0,0 mm 8,2 km/h (2 Bft) W-NW 296 ° 0 min 0,000 mm 0,9 UV-I 130 W/m² 9,2 °C 11,1 °C 12,9 km/h (3 Bft)
16.04.2018 16:29 11,0 °C 88 % 1014,5 hPa 0,0 mm 6,4 km/h (2 Bft) W-NW 283 ° 0 min 0,000 mm 0,9 UV-I 130 W/m² 9,1 °C 11,0 °C 9,7 km/h (2 Bft)
16.04.2018 16:30 11,1 °C 88 % 1014,6 hPa 0,0 mm 3,0 km/h (1 Bft) W 279 ° 0 min 0,000 mm 0,9 UV-I 130 W/m² 9,2 °C 11,1 °C 4,8 km/h (1 Bft)
16.04.2018 16:31 11,0 °C 88 % 1014,5 hPa 0,0 mm 7,6 km/h (2 Bft) W-SW 250 ° 0 min 0,000 mm 0,9 UV-I 132 W/m² 9,1 °C 11,0 °C 9,7 km/h (2 Bft)
16.04.2018 16:32 11,0 °C 88 % 1014,5 hPa 0,0 mm 5,2 km/h (1 Bft) W 263 ° 0 min 0,000 mm 0,9 UV-I 132 W/m² 9,1 °C 11,0 °C 8,0 km/h (2 Bft)
16.04.2018 16:33 11,0 °C 89 % 1014,6 hPa 0,0 mm 5,1 km/h (1 Bft) W 271 ° 0 min 0,000 mm 0,9 UV-I 130 W/m² 9,3 °C 11,0 °C 8,0 km/h (2 Bft)
16.04.2018 16:34 11,0 °C 89 % 1014,6 hPa 0,0 mm 4,6 km/h (1 Bft) W-SW 255 ° 0 min 0,000 mm 0,9 UV-I 128 W/m² 9,3 °C 11,0 °C 6,4 km/h (2 Bft)
16.04.2018 16:35 11,1 °C 89 % 1014,5 hPa 0,0 mm 5,2 km/h (1 Bft) W 274 ° 0 min 0,000 mm 0,9 UV-I 127 W/m² 9,4 °C 11,1 °C 6,4 km/h (2 Bft)
16.04.2018 16:36 11,1 °C 88 % 1014,6 hPa 0,0 mm 4,5 km/h (1 Bft) W-NW 288 ° 0 min 0,000 mm 0,9 UV-I 123 W/m² 9,2 °C 11,1 °C 9,7 km/h (2 Bft)
16.04.2018 16:37 11,0 °C 88 % 1014,6 hPa 0,0 mm 5,7 km/h (1 Bft) W-SW 254 ° 0 min 0,000 mm 0,9 UV-I 118 W/m² 9,1 °C 11,0 °C 12,9 km/h (3 Bft)
16.04.2018 16:38 11,0 °C 89 % 1014,6 hPa 0,0 mm 5,5 km/h (1 Bft) W-NW 292 ° 0 min 0,000 mm 0,8 UV-I 116 W/m² 9,3 °C 11,0 °C 11,3 km/h (2 Bft)
16.04.2018 16:39 11,0 °C 89 % 1014,6 hPa 0,0 mm 9,5 km/h (2 Bft) W 276 ° 0 min 0,000 mm 0,8 UV-I 114 W/m² 9,3 °C 11,0 °C 12,9 km/h (3 Bft)
16.04.2018 16:40 11,0 °C 89 % 1014,6 hPa 0,0 mm 6,8 km/h (2 Bft) W 265 ° 0 min 0,000 mm 0,8 UV-I 113 W/m² 9,3 °C 11,0 °C 9,7 km/h (2 Bft)
16.04.2018 16:41 10,9 °C 89 % 1014,6 hPa 0,0 mm 5,7 km/h (1 Bft) W 267 ° 0 min 0,000 mm 0,8 UV-I 113 W/m² 9,2 °C 10,9 °C 9,7 km/h (2 Bft)
16.04.2018 16:42 10,9 °C 89 % 1014,6 hPa 0,0 mm 4,1 km/h (1 Bft) W 270 ° 0 min 0,000 mm 0,8 UV-I 111 W/m² 9,2 °C 10,9 °C 6,4 km/h (2 Bft)
16.04.2018 16:43 11,0 °C 88 % 1014,6 hPa 0,0 mm 3,6 km/h (1 Bft) W-NW 291 ° 0 min 0,000 mm 0,8 UV-I 109 W/m² 9,1 °C 11,0 °C 8,0 km/h (2 Bft)
16.04.2018 16:44 11,0 °C 89 % 1014,6 hPa 0,0 mm 1,7 km/h (1 Bft) W-NW 291 ° 0 min 0,000 mm 0,8 UV-I 109 W/m² 9,3 °C 11,0 °C 3,2 km/h (1 Bft)
16.04.2018 16:45 10,9 °C 89 % 1014,6 hPa 0,0 mm 2,3 km/h (1 Bft) W-NW 291 ° 0 min 0,000 mm 0,8 UV-I 109 W/m² 9,2 °C 10,9 °C 3,2 km/h (1 Bft)
16.04.2018 16:46 10,9 °C 89 % 1014,6 hPa 0,0 mm 2,4 km/h (1 Bft) W-NW 291 ° 0 min 0,000 mm 0,8 UV-I 111 W/m² 9,2 °C 10,9 °C 4,8 km/h (1 Bft)
16.04.2018 16:47 11,0 °C 89 % 1014,6 hPa 0,0 mm 3,5 km/h (1 Bft) W-NW 291 ° 0 min 0,000 mm 0,8 UV-I 113 W/m² 9,3 °C 11,0 °C 4,8 km/h (1 Bft)
16.04.2018 16:48 11,0 °C 89 % 1014,7 hPa 0,0 mm 4,3 km/h (1 Bft) W-NW 284 ° 0 min 0,000 mm 0,8 UV-I 116 W/m² 9,3 °C 11,0 °C 6,4 km/h (2 Bft)
16.04.2018 16:49 11,0 °C 89 % 1014,7 hPa 0,0 mm 2,3 km/h (1 Bft) W-NW 284 ° 0 min 0,000 mm 0,9 UV-I 118 W/m² 9,3 °C 11,0 °C 3,2 km/h (1 Bft)
16.04.2018 16:50 11,1 °C 89 % 1014,7 hPa 0,0 mm 2,0 km/h (1 Bft) W-NW 284 ° 0 min 0,000 mm 0,9 UV-I 120 W/m² 9,4 °C 11,1 °C 3,2 km/h (1 Bft)
16.04.2018 16:51 11,1 °C 89 % 1014,7 hPa 0,0 mm 1,3 km/h (1 Bft) W-NW 284 ° 0 min 0,000 mm 0,9 UV-I 123 W/m² 9,4 °C 11,1 °C 3,2 km/h (1 Bft)
16.04.2018 16:52 11,1 °C 89 % 1014,7 hPa 0,0 mm 0,8 km/h (0 Bft) W-NW 284 ° 0 min 0,000 mm 1,0 UV-I 125 W/m² 9,4 °C 11,1 °C 4,8 km/h (1 Bft)
16.04.2018 16:53 11,2 °C 89 % 1014,7 hPa 0,0 mm 5,0 km/h (1 Bft) NW 305 ° 0 min 0,000 mm 1,0 UV-I 128 W/m² 9,5 °C 11,2 °C 9,7 km/h (2 Bft)
16.04.2018 16:54 11,2 °C 89 % 1014,7 hPa 0,0 mm 2,8 km/h (1 Bft) NW 305 ° 0 min 0,000 mm 1,0 UV-I 134 W/m² 9,5 °C 11,2 °C 4,8 km/h (1 Bft)
16.04.2018 16:55 11,2 °C 89 % 1014,8 hPa 0,0 mm 2,7 km/h (1 Bft) NW 305 ° 0 min 0,000 mm 1,0 UV-I 137 W/m² 9,5 °C 11,2 °C 4,8 km/h (1 Bft)
16.04.2018 16:56 11,2 °C 89 % 1014,8 hPa 0,0 mm 3,2 km/h (1 Bft) W-NW 292 ° 0 min 0,000 mm 1,1 UV-I 141 W/m² 9,5 °C 11,2 °C 4,8 km/h (1 Bft)
16.04.2018 16:57 11,2 °C 88 % 1014,8 hPa 0,0 mm 5,6 km/h (1 Bft) W-NW 289 ° 0 min 0,000 mm 1,1 UV-I 142 W/m² 9,3 °C 11,2 °C 11,3 km/h (2 Bft)
16.04.2018 16:58 11,2 °C 89 % 1014,8 hPa 0,0 mm 5,1 km/h (1 Bft) W-NW 286 ° 0 min 0,000 mm 1,1 UV-I 146 W/m² 9,5 °C 11,2 °C 9,7 km/h (2 Bft)
16.04.2018 16:59 11,2 °C 89 % 1014,8 hPa 0,0 mm 3,8 km/h (1 Bft) W-NW 288 ° 0 min 0,000 mm 1,1 UV-I 148 W/m² 9,5 °C 11,2 °C 4,8 km/h (1 Bft)
16.04.2018 17:00 11,2 °C 89 % 1014,8 hPa 0,0 mm 1,5 km/h (1 Bft) W-NW 288 ° 0 min 0,000 mm 1,1 UV-I 151 W/m² 9,5 °C 11,2 °C 3,2 km/h (1 Bft)
16.04.2018 17:01 11,3 °C 88 % 1014,8 hPa 0,0 mm 1,6 km/h (1 Bft) W-NW 288 ° 0 min 0,076 mm 1,1 UV-I 153 W/m² 9,4 °C 11,3 °C 4,8 km/h (1 Bft)
16.04.2018 17:02 11,2 °C 89 % 1014,8 hPa 0,0 mm 2,5 km/h (1 Bft) W-NW 288 ° 0 min 0,000 mm 1,1 UV-I 153 W/m² 9,5 °C 11,2 °C 4,8 km/h (1 Bft)
16.04.2018 17:03 11,3 °C 89 % 1014,8 hPa 0,0 mm 2,1 km/h (1 Bft) W-NW 288 ° 0 min 0,000 mm 1,1 UV-I 153 W/m² 9,6 °C 11,3 °C 3,2 km/h (1 Bft)
16.04.2018 17:04 11,3 °C 89 % 1014,8 hPa 0,0 mm 1,2 km/h (1 Bft) W-NW 288 ° 0 min 0,000 mm 1,1 UV-I 153 W/m² 9,6 °C 11,3 °C 3,2 km/h (1 Bft)
16.04.2018 17:05 11,3 °C 89 % 1014,8 hPa 0,0 mm 4,1 km/h (1 Bft) W-SW 254 ° 0 min 0,000 mm 1,1 UV-I 151 W/m² 9,6 °C 11,3 °C 6,4 km/h (2 Bft)
16.04.2018 17:06 11,3 °C 89 % 1014,8 hPa 0,0 mm 2,9 km/h (1 Bft) W 279 ° 0 min 0,000 mm 1,1 UV-I 151 W/m² 9,6 °C 11,3 °C 4,8 km/h (1 Bft)
16.04.2018 17:07 11,3 °C 88 % 1014,8 hPa 0,0 mm 4,5 km/h (1 Bft) W-NW 284 ° 0 min 0,000 mm 1,1 UV-I 149 W/m² 9,4 °C 11,3 °C 6,4 km/h (2 Bft)
16.04.2018 17:08 11,3 °C 88 % 1014,9 hPa 0,0 mm 2,6 km/h (1 Bft) W-NW 284 ° 0 min 0,000 mm 1,1 UV-I 149 W/m² 9,4 °C 11,3 °C 4,8 km/h (1 Bft)
16.04.2018 17:09 11,3 °C 89 % 1014,8 hPa 0,0 mm 2,3 km/h (1 Bft) W-NW 284 ° 0 min 0,000 mm 1,1 UV-I 151 W/m² 9,6 °C 11,3 °C 4,8 km/h (1 Bft)
16.04.2018 17:10 11,4 °C 89 % 1014,9 hPa 0,0 mm 1,9 km/h (1 Bft) W-NW 284 ° 0 min 0,000 mm 1,1 UV-I 153 W/m² 9,7 °C 11,4 °C 3,2 km/h (1 Bft)
16.04.2018 17:11 11,4 °C 89 % 1014,8 hPa 0,0 mm 4,0 km/h (1 Bft) W-SW 247 ° 0 min 0,000 mm 1,1 UV-I 153 W/m² 9,7 °C 11,4 °C 6,4 km/h (2 Bft)
16.04.2018 17:12 11,4 °C 89 % 1014,8 hPa 0,0 mm 7,1 km/h (2 Bft) W-SW 255 ° 0 min 0,000 mm 1,1 UV-I 156 W/m² 9,7 °C 11,4 °C 9,7 km/h (2 Bft)
16.04.2018 17:13 11,4 °C 89 % 1014,9 hPa 0,0 mm 4,8 km/h (1 Bft) W 269 ° 0 min 0,000 mm 1,1 UV-I 156 W/m² 9,7 °C 11,4 °C 8,0 km/h (2 Bft)
16.04.2018 17:14 11,4 °C 89 % 1014,9 hPa 0,0 mm 2,3 km/h (1 Bft) W 269 ° 0 min 0,000 mm 1,1 UV-I 156 W/m² 9,7 °C 11,4 °C 4,8 km/h (1 Bft)
16.04.2018 17:15 11,4 °C 89 % 1014,9 hPa 0,0 mm 6,7 km/h (2 Bft) W-NW 286 ° 0 min 0,000 mm 1,0 UV-I 155 W/m² 9,7 °C 11,4 °C 9,7 km/h (2 Bft)
16.04.2018 17:16 11,5 °C 89 % 1014,9 hPa 0,0 mm 5,5 km/h (1 Bft) W-NW 294 ° 0 min 0,000 mm 1,0 UV-I 151 W/m² 9,8 °C 11,5 °C 8,0 km/h (2 Bft)
16.04.2018 17:17 11,6 °C 89 % 1014,9 hPa 0,0 mm 5,4 km/h (1 Bft) NW 307 ° 0 min 0,000 mm 1,0 UV-I 149 W/m² 9,8 °C 11,6 °C 11,3 km/h (2 Bft)
16.04.2018 17:18 11,6 °C 89 % 1014,9 hPa 0,0 mm 3,3 km/h (1 Bft) NW 312 ° 0 min 0,000 mm 1,0 UV-I 146 W/m² 9,8 °C 11,6 °C 4,8 km/h (1 Bft)
16.04.2018 17:19 11,6 °C 89 % 1014,9 hPa 0,0 mm 6,6 km/h (2 Bft) W 265 ° 0 min 0,000 mm 0,9 UV-I 146 W/m² 9,8 °C 11,6 °C 12,9 km/h (3 Bft)
16.04.2018 17:20 11,6 °C 88 % 1015,0 hPa 0,0 mm 8,0 km/h (2 Bft) W 269 ° 0 min 0,000 mm 0,9 UV-I 148 W/m² 9,7 °C 11,6 °C 14,5 km/h (3 Bft)
16.04.2018 17:21 11,6 °C 88 % 1014,9 hPa 0,0 mm 5,9 km/h (2 Bft) W-NW 285 ° 0 min 0,000 mm 0,9 UV-I 148 W/m² 9,7 °C 11,6 °C 9,7 km/h (2 Bft)
16.04.2018 17:22 11,6 °C 88 % 1014,9 hPa 0,0 mm 5,4 km/h (1 Bft) W-NW 291 ° 0 min 0,000 mm 0,9 UV-I 155 W/m² 9,7 °C 11,6 °C 8,0 km/h (2 Bft)
16.04.2018 17:23 11,6 °C 88 % 1014,9 hPa 0,0 mm 6,6 km/h (2 Bft) W-NW 301 ° 0 min 0,000 mm 1,0 UV-I 158 W/m² 9,7 °C 11,6 °C 9,7 km/h (2 Bft)
16.04.2018 17:24 11,6 °C 87 % 1014,9 hPa 0,0 mm 6,0 km/h (2 Bft) W 275 ° 0 min 0,000 mm 1,0 UV-I 163 W/m² 9,5 °C 11,6 °C 11,3 km/h (2 Bft)
16.04.2018 17:25 11,6 °C 87 % 1015,0 hPa 0,0 mm 6,4 km/h (2 Bft) NW 306 ° 0 min 0,000 mm 1,0 UV-I 165 W/m² 9,5 °C 11,6 °C 9,7 km/h (2 Bft)
16.04.2018 17:26 11,6 °C 87 % 1015,0 hPa 0,0 mm 6,3 km/h (2 Bft) W-NW 283 ° 0 min 0,000 mm 1,0 UV-I 165 W/m² 9,5 °C 11,6 °C 9,7 km/h (2 Bft)
16.04.2018 17:27 11,6 °C 87 % 1015,0 hPa 0,0 mm 5,6 km/h (1 Bft) W-NW 288 ° 0 min 0,000 mm 1,0 UV-I 165 W/m² 9,5 °C 11,6 °C 8,0 km/h (2 Bft)
16.04.2018 17:28 11,6 °C 87 % 1015,0 hPa 0,0 mm 3,3 km/h (1 Bft) W-NW 288 ° 0 min 0,000 mm 1,0 UV-I 167 W/m² 9,5 °C 11,6 °C 4,8 km/h (1 Bft)
16.04.2018 17:29 11,6 °C 87 % 1015,0 hPa 0,0 mm 3,8 km/h (1 Bft) W-NW 287 ° 0 min 0,000 mm 1,0 UV-I 171 W/m² 9,5 °C 11,6 °C 4,8 km/h (1 Bft)
16.04.2018 17:30 11,6 °C 87 % 1015,0 hPa 0,0 mm 6,8 km/h (2 Bft) W 275 ° 0 min 0,000 mm 1,0 UV-I 171 W/m² 9,5 °C 11,6 °C 11,3 km/h (2 Bft)
16.04.2018 17:31 11,6 °C 87 % 1015,0 hPa 0,0 mm 3,6 km/h (1 Bft) W-NW 290 ° 0 min 0,000 mm 1,0 UV-I 169 W/m² 9,5 °C 11,6 °C 6,4 km/h (2 Bft)
16.04.2018 17:32 11,6 °C 87 % 1015,0 hPa 0,0 mm 5,6 km/h (1 Bft) W-NW 282 ° 0 min 0,000 mm 1,0 UV-I 165 W/m² 9,5 °C 11,6 °C 9,7 km/h (2 Bft)
16.04.2018 17:33 11,6 °C 86 % 1015,0 hPa 0,0 mm 4,2 km/h (1 Bft) W-NW 292 ° 0 min 0,000 mm 0,9 UV-I 162 W/m² 9,3 °C 11,6 °C 6,4 km/h (2 Bft)
16.04.2018 17:34 11,6 °C 86 % 1015,1 hPa 0,0 mm 4,2 km/h (1 Bft) W 263 ° 0 min 0,000 mm 0,9 UV-I 160 W/m² 9,3 °C 11,6 °C 4,8 km/h (1 Bft)
16.04.2018 17:35 11,6 °C 86 % 1015,0 hPa 0,0 mm 2,7 km/h (1 Bft) W 270 ° 0 min 0,000 mm 0,9 UV-I 174 W/m² 9,3 °C 11,6 °C 4,8 km/h (1 Bft)
16.04.2018 17:36 11,6 °C 87 % 1015,0 hPa 0,0 mm 7,5 km/h (2 Bft) W 262 ° 0 min 0,000 mm 1,0 UV-I 183 W/m² 9,5 °C 11,6 °C 11,3 km/h (2 Bft)
16.04.2018 17:37 11,7 °C 88 % 1015,0 hPa 0,0 mm 6,4 km/h (2 Bft) W 260 ° 0 min 0,000 mm 1,0 UV-I 186 W/m² 9,8 °C 11,7 °C 9,7 km/h (2 Bft)
16.04.2018 17:38 11,7 °C 87 % 1015,0 hPa 0,0 mm 4,9 km/h (1 Bft) W 262 ° 0 min 0,000 mm 1,0 UV-I 188 W/m² 9,6 °C 11,7 °C 6,4 km/h (2 Bft)
16.04.2018 17:39 11,8 °C 87 % 1015,0 hPa 0,0 mm 6,0 km/h (2 Bft) W 265 ° 0 min 0,000 mm 1,0 UV-I 188 W/m² 9,7 °C 11,8 °C 9,7 km/h (2 Bft)
16.04.2018 17:40 11,7 °C 87 % 1015,0 hPa 0,0 mm 5,1 km/h (1 Bft) W 265 ° 0 min 0,000 mm 1,0 UV-I 190 W/m² 9,6 °C 11,7 °C 9,7 km/h (2 Bft)
16.04.2018 17:41 11,8 °C 88 % 1015,0 hPa 0,0 mm 1,6 km/h (1 Bft) W 265 ° 0 min 0,000 mm 1,0 UV-I 186 W/m² 9,9 °C 11,8 °C 3,2 km/h (1 Bft)
16.04.2018 17:42 11,8 °C 88 % 1015,0 hPa 0,0 mm 2,5 km/h (1 Bft) W 266 ° 0 min 0,000 mm 1,0 UV-I 185 W/m² 9,9 °C 11,8 °C 3,2 km/h (1 Bft)
16.04.2018 17:43 11,9 °C 88 % 1015,0 hPa 0,0 mm 3,4 km/h (1 Bft) W 266 ° 0 min 0,000 mm 1,0 UV-I 179 W/m² 10,0 °C 11,9 °C 4,8 km/h (1 Bft)
16.04.2018 17:44 11,8 °C 87 % 1015,0 hPa 0,0 mm 1,9 km/h (1 Bft) W 281 ° 0 min 0,000 mm 1,0 UV-I 181 W/m² 9,7 °C 11,8 °C 3,2 km/h (1 Bft)
16.04.2018 17:45 11,8 °C 87 % 1015,1 hPa 0,0 mm 3,7 km/h (1 Bft) W 278 ° 0 min 0,000 mm 1,0 UV-I 185 W/m² 9,7 °C 11,8 °C 6,4 km/h (2 Bft)
16.04.2018 17:46 11,8 °C 87 % 1015,0 hPa 0,0 mm 6,3 km/h (2 Bft) W-SW 247 ° 0 min 0,000 mm 1,0 UV-I 186 W/m² 9,7 °C 11,8 °C 9,7 km/h (2 Bft)
16.04.2018 17:47 11,8 °C 87 % 1015,0 hPa 0,0 mm 4,8 km/h (1 Bft) W-NW 287 ° 0 min 0,000 mm 1,0 UV-I 185 W/m² 9,7 °C 11,8 °C 9,7 km/h (2 Bft)
16.04.2018 17:48 11,8 °C 87 % 1015,1 hPa 0,0 mm 3,0 km/h (1 Bft) W-SW 250 ° 0 min 0,000 mm 0,9 UV-I 183 W/m² 9,7 °C 11,8 °C 8,0 km/h (2 Bft)
16.04.2018 17:49 11,8 °C 87 % 1015,1 hPa 0,0 mm 5,1 km/h (1 Bft) W-NW 290 ° 0 min 0,000 mm 0,9 UV-I 176 W/m² 9,7 °C 11,8 °C 8,0 km/h (2 Bft)
16.04.2018 17:50 11,8 °C 87 % 1015,1 hPa 0,0 mm 4,6 km/h (1 Bft) W 277 ° 0 min 0,000 mm 0,8 UV-I 165 W/m² 9,7 °C 11,8 °C 9,7 km/h (2 Bft)
16.04.2018 17:51 11,8 °C 87 % 1015,1 hPa 0,0 mm 5,1 km/h (1 Bft) W 263 ° 0 min 0,000 mm 0,8 UV-I 156 W/m² 9,7 °C 11,8 °C 6,4 km/h (2 Bft)
16.04.2018 17:52 11,8 °C 86 % 1015,0 hPa 0,0 mm 4,6 km/h (1 Bft) W-NW 297 ° 0 min 0,000 mm 0,7 UV-I 148 W/m² 9,5 °C 11,8 °C 6,4 km/h (2 Bft)
16.04.2018 17:53 11,8 °C 87 % 1015,1 hPa 0,0 mm 6,0 km/h (2 Bft) W 279 ° 0 min 0,000 mm 0,7 UV-I 134 W/m² 9,7 °C 11,8 °C 11,3 km/h (2 Bft)
16.04.2018 17:54 11,8 °C 87 % 1015,1 hPa 0,0 mm 5,4 km/h (1 Bft) W 272 ° 0 min 0,000 mm 0,6 UV-I 128 W/m² 9,7 °C 11,8 °C 9,7 km/h (2 Bft)
16.04.2018 17:55 11,8 °C 87 % 1015,1 hPa 0,0 mm 5,9 km/h (2 Bft) W 271 ° 0 min 0,000 mm 0,6 UV-I 125 W/m² 9,7 °C 11,8 °C 9,7 km/h (2 Bft)
16.04.2018 17:56 11,8 °C 86 % 1015,2 hPa 0,0 mm 5,4 km/h (1 Bft) W-NW 283 ° 0 min 0,000 mm 0,6 UV-I 121 W/m² 9,5 °C 11,8 °C 6,4 km/h (2 Bft)
16.04.2018 17:57 11,8 °C 87 % 1015,1 hPa 0,0 mm 4,6 km/h (1 Bft) W-NW 291 ° 0 min 0,000 mm 0,6 UV-I 120 W/m² 9,7 °C 11,8 °C 8,0 km/h (2 Bft)
16.04.2018 17:58 11,8 °C 87 % 1015,2 hPa 0,0 mm 3,2 km/h (1 Bft) W-NW 291 ° 0 min 0,000 mm 0,6 UV-I 120 W/m² 9,7 °C 11,8 °C 6,4 km/h (2 Bft)
16.04.2018 17:59 11,8 °C 86 % 1015,2 hPa 0,0 mm 5,9 km/h (2 Bft) W-NW 289 ° 0 min 0,000 mm 0,6 UV-I 132 W/m² 9,5 °C 11,8 °C 9,7 km/h (2 Bft)
16.04.2018 18:00 11,8 °C 87 % 1015,2 hPa 0,0 mm 3,5 km/h (1 Bft) W 278 ° 0 min 0,000 mm 0,7 UV-I 139 W/m² 9,7 °C 11,8 °C 4,8 km/h (1 Bft)
16.04.2018 18:01 11,8 °C 87 % 1015,2 hPa 0,0 mm 3,7 km/h (1 Bft) W-NW 290 ° 0 min 0,076 mm 0,7 UV-I 144 W/m² 9,7 °C 11,8 °C 6,4 km/h (2 Bft)
16.04.2018 18:02 11,8 °C 86 % 1015,1 hPa 0,0 mm 2,9 km/h (1 Bft) W-NW 290 ° 0 min 0,000 mm 0,8 UV-I 149 W/m² 9,5 °C 11,8 °C 4,8 km/h (1 Bft)
16.04.2018 18:03 11,8 °C 86 % 1015,1 hPa 0,0 mm 1,7 km/h (1 Bft) W-NW 290 ° 0 min 0,000 mm 0,8 UV-I 153 W/m² 9,5 °C 11,8 °C 3,2 km/h (1 Bft)
16.04.2018 18:04 11,8 °C 87 % 1015,1 hPa 0,0 mm 2,7 km/h (1 Bft) W 270 ° 0 min 0,000 mm 0,8 UV-I 148 W/m² 9,7 °C 11,8 °C 4,8 km/h (1 Bft)
16.04.2018 18:05 11,9 °C 87 % 1015,1 hPa 0,0 mm 2,6 km/h (1 Bft) W 269 ° 0 min 0,000 mm 0,8 UV-I 146 W/m² 9,8 °C 11,9 °C 3,2 km/h (1 Bft)
16.04.2018 18:06 11,8 °C 86 % 1015,2 hPa 0,0 mm 3,9 km/h (1 Bft) W 264 ° 0 min 0,000 mm 0,8 UV-I 144 W/m² 9,5 °C 11,8 °C 9,7 km/h (2 Bft)
16.04.2018 18:07 11,8 °C 86 % 1015,1 hPa 0,0 mm 5,8 km/h (2 Bft) W 272 ° 0 min 0,000 mm 0,7 UV-I 144 W/m² 9,5 °C 11,8 °C 9,7 km/h (2 Bft)
16.04.2018 18:08 11,8 °C 87 % 1015,2 hPa 0,0 mm 3,3 km/h (1 Bft) W 271 ° 0 min 0,000 mm 0,7 UV-I 146 W/m² 9,7 °C 11,8 °C 4,8 km/h (1 Bft)
16.04.2018 18:09 11,9 °C 86 % 1015,3 hPa 0,0 mm 6,0 km/h (2 Bft) W 273 ° 0 min 0,000 mm 0,7 UV-I 148 W/m² 9,6 °C 11,9 °C 11,3 km/h (2 Bft)
16.04.2018 18:10 11,9 °C 86 % 1015,2 hPa 0,0 mm 8,9 km/h (2 Bft) W-SW 246 ° 0 min 0,000 mm 0,7 UV-I 146 W/m² 9,6 °C 11,9 °C 12,9 km/h (3 Bft)
16.04.2018 18:11 11,8 °C 86 % 1015,2 hPa 0,0 mm 4,8 km/h (1 Bft) W-SW 248 ° 0 min 0,000 mm 0,7 UV-I 137 W/m² 9,5 °C 11,8 °C 6,4 km/h (2 Bft)
16.04.2018 18:12 11,8 °C 86 % 1015,3 hPa 0,0 mm 5,1 km/h (1 Bft) W-SW 248 ° 0 min 0,000 mm 0,6 UV-I 134 W/m² 9,5 °C 11,8 °C 6,4 km/h (2 Bft)
16.04.2018 18:13 11,8 °C 86 % 1015,3 hPa 0,0 mm 8,2 km/h (2 Bft) W 263 ° 0 min 0,000 mm 0,6 UV-I 130 W/m² 9,5 °C 11,8 °C 11,3 km/h (2 Bft)
16.04.2018 18:14 11,8 °C 86 % 1015,3 hPa 0,0 mm 3,9 km/h (1 Bft) W 273 ° 0 min 0,000 mm 0,6 UV-I 130 W/m² 9,5 °C 11,8 °C 6,4 km/h (2 Bft)
16.04.2018 18:15 11,8 °C 87 % 1015,3 hPa 0,0 mm 6,8 km/h (2 Bft) W-NW 287 ° 0 min 0,000 mm 0,6 UV-I 121 W/m² 9,7 °C 11,8 °C 9,7 km/h (2 Bft)
16.04.2018 18:16 11,8 °C 86 % 1015,3 hPa 0,0 mm 4,3 km/h (1 Bft) W-NW 288 ° 0 min 0,000 mm 0,5 UV-I 113 W/m² 9,5 °C 11,8 °C 6,4 km/h (2 Bft)
16.04.2018 18:17 11,8 °C 86 % 1015,3 hPa 0,0 mm 2,5 km/h (1 Bft) W-NW 288 ° 0 min 0,000 mm 0,5 UV-I 107 W/m² 9,5 °C 11,8 °C 6,4 km/h (2 Bft)
16.04.2018 18:18 11,8 °C 86 % 1015,3 hPa 0,0 mm 3,8 km/h (1 Bft) W-NW 288 ° 0 min 0,000 mm 0,5 UV-I 102 W/m² 9,5 °C 11,8 °C 4,8 km/h (1 Bft)
16.04.2018 18:19 11,8 °C 86 % 1015,4 hPa 0,0 mm 2,1 km/h (1 Bft) W 269 ° 0 min 0,000 mm 0,5 UV-I 100 W/m² 9,5 °C 11,8 °C 6,4 km/h (2 Bft)
16.04.2018 18:20 11,8 °C 87 % 1015,4 hPa 0,0 mm 4,4 km/h (1 Bft) W 263 ° 0 min 0,000 mm 0,5 UV-I 100 W/m² 9,7 °C 11,8 °C 9,7 km/h (2 Bft)
16.04.2018 18:21 11,8 °C 86 % 1015,3 hPa 0,0 mm 6,6 km/h (2 Bft) W-NW 285 ° 0 min 0,000 mm 0,5 UV-I 102 W/m² 9,5 °C 11,8 °C 11,3 km/h (2 Bft)
16.04.2018 18:22 11,8 °C 86 % 1015,4 hPa 0,0 mm 6,3 km/h (2 Bft) W-NW 283 ° 0 min 0,000 mm 0,5 UV-I 105 W/m² 9,5 °C 11,8 °C 9,7 km/h (2 Bft)
16.04.2018 18:23 11,8 °C 87 % 1015,4 hPa 0,0 mm 5,0 km/h (1 Bft) W-NW 284 ° 0 min 0,000 mm 0,5 UV-I 107 W/m² 9,7 °C 11,8 °C 6,4 km/h (2 Bft)
16.04.2018 18:24 11,8 °C 86 % 1015,4 hPa 0,0 mm 5,0 km/h (1 Bft) W-NW 286 ° 0 min 0,000 mm 0,6 UV-I 107 W/m² 9,5 °C 11,8 °C 6,4 km/h (2 Bft)
16.04.2018 18:25 11,8 °C 86 % 1015,4 hPa 0,0 mm 5,1 km/h (1 Bft) W 273 ° 0 min 0,000 mm 0,6 UV-I 107 W/m² 9,5 °C 11,8 °C 9,7 km/h (2 Bft)
16.04.2018 18:26 11,8 °C 86 % 1015,4 hPa 0,0 mm 4,9 km/h (1 Bft) W 281 ° 0 min 0,000 mm 0,6 UV-I 105 W/m² 9,5 °C 11,8 °C 9,7 km/h (2 Bft)
16.04.2018 18:27 11,8 °C 87 % 1015,4 hPa 0,0 mm 3,5 km/h (1 Bft) W-SW 252 ° 0 min 0,000 mm 0,6 UV-I 105 W/m² 9,7 °C 11,8 °C 4,8 km/h (1 Bft)
16.04.2018 18:28 11,8 °C 87 % 1015,4 hPa 0,0 mm 5,0 km/h (1 Bft) W 263 ° 0 min 0,000 mm 0,6 UV-I 104 W/m² 9,7 °C 11,8 °C 6,4 km/h (2 Bft)
16.04.2018 18:29 11,8 °C 87 % 1015,5 hPa 0,0 mm 2,6 km/h (1 Bft) W 264 ° 0 min 0,000 mm 0,5 UV-I 104 W/m² 9,7 °C 11,8 °C 4,8 km/h (1 Bft)
16.04.2018 18:30 11,8 °C 87 % 1015,5 hPa 0,0 mm 2,4 km/h (1 Bft) W 264 ° 0 min 0,000 mm 0,5 UV-I 104 W/m² 9,7 °C 11,8 °C 3,2 km/h (1 Bft)
16.04.2018 18:31 11,7 °C 86 % 1015,5 hPa 0,0 mm 3,2 km/h (1 Bft) W 265 ° 0 min 0,000 mm 0,5 UV-I 102 W/m² 9,4 °C 11,7 °C 6,4 km/h (2 Bft)
16.04.2018 18:32 11,8 °C 87 % 1015,5 hPa 0,0 mm 2,8 km/h (1 Bft) W 265 ° 0 min 0,000 mm 0,5 UV-I 102 W/m² 9,7 °C 11,8 °C 4,8 km/h (1 Bft)
16.04.2018 18:33 11,7 °C 87 % 1015,5 hPa 0,0 mm 4,2 km/h (1 Bft) W-NW 290 ° 0 min 0,000 mm 0,5 UV-I 100 W/m² 9,6 °C 11,7 °C 8,0 km/h (2 Bft)
16.04.2018 18:34 11,7 °C 87 % 1015,5 hPa 0,0 mm 5,1 km/h (1 Bft) W-NW 284 ° 0 min 0,000 mm 0,5 UV-I 97 W/m² 9,6 °C 11,7 °C 6,4 km/h (2 Bft)
16.04.2018 18:35 11,7 °C 86 % 1015,5 hPa 0,0 mm 6,0 km/h (2 Bft) W-NW 285 ° 0 min 0,000 mm 0,5 UV-I 93 W/m² 9,4 °C 11,7 °C 9,7 km/h (2 Bft)
16.04.2018 18:36 11,7 °C 86 % 1015,5 hPa 0,0 mm 5,2 km/h (1 Bft) W-NW 286 ° 0 min 0,000 mm 0,5 UV-I 90 W/m² 9,4 °C 11,7 °C 9,7 km/h (2 Bft)
16.04.2018 18:37 11,7 °C 86 % 1015,6 hPa 0,0 mm 3,9 km/h (1 Bft) W 275 ° 0 min 0,000 mm 0,0 UV-I 84 W/m² 9,4 °C 11,7 °C 6,4 km/h (2 Bft)
16.04.2018 18:38 11,7 °C 86 % 1015,5 hPa 0,0 mm 4,3 km/h (1 Bft) W-NW 288 ° 0 min 0,000 mm 0,0 UV-I 81 W/m² 9,4 °C 11,7 °C 6,4 km/h (2 Bft)
16.04.2018 18:39 11,7 °C 86 % 1015,5 hPa 0,0 mm 3,7 km/h (1 Bft) W-NW 289 ° 0 min 0,000 mm 0,0 UV-I 76 W/m² 9,4 °C 11,7 °C 6,4 km/h (2 Bft)
16.04.2018 18:40 11,7 °C 86 % 1015,6 hPa 0,0 mm 3,6 km/h (1 Bft) W-NW 300 ° 0 min 0,000 mm 0,0 UV-I 69 W/m² 9,4 °C 11,7 °C 6,4 km/h (2 Bft)
16.04.2018 18:41 11,7 °C 85 % 1015,6 hPa 0,0 mm 3,8 km/h (1 Bft) NW 304 ° 0 min 0,000 mm 0,0 UV-I 65 W/m² 9,3 °C 11,7 °C 6,4 km/h (2 Bft)
16.04.2018 18:42 11,6 °C 84 % 1015,6 hPa 0,0 mm 4,1 km/h (1 Bft) W-SW 242 ° 0 min 0,000 mm 0,0 UV-I 63 W/m² 9,0 °C 11,6 °C 11,3 km/h (2 Bft)
16.04.2018 18:43 11,6 °C 85 % 1015,6 hPa 0,0 mm 9,1 km/h (2 Bft) W 260 ° 0 min 0,000 mm 0,0 UV-I 60 W/m² 9,2 °C 11,6 °C 12,9 km/h (3 Bft)
16.04.2018 18:44 11,6 °C 84 % 1015,6 hPa 0,0 mm 4,4 km/h (1 Bft) W 273 ° 0 min 0,000 mm 0,0 UV-I 58 W/m² 9,0 °C 11,6 °C 6,4 km/h (2 Bft)
16.04.2018 18:45 11,6 °C 83 % 1015,6 hPa 0,0 mm 5,3 km/h (1 Bft) W-NW 282 ° 0 min 0,000 mm 0,0 UV-I 56 W/m² 8,8 °C 11,6 °C 9,7 km/h (2 Bft)
16.04.2018 18:46 11,6 °C 83 % 1015,6 hPa 0,0 mm 5,4 km/h (1 Bft) W-NW 291 ° 0 min 0,000 mm 0,0 UV-I 53 W/m² 8,8 °C 11,6 °C 8,0 km/h (2 Bft)
16.04.2018 18:47 11,5 °C 84 % 1015,7 hPa 0,0 mm 5,5 km/h (1 Bft) W-NW 294 ° 0 min 0,000 mm 0,0 UV-I 51 W/m² 8,9 °C 11,5 °C 11,3 km/h (2 Bft)
16.04.2018 18:48 11,5 °C 84 % 1015,7 hPa 0,0 mm 5,3 km/h (1 Bft) W-NW 297 ° 0 min 0,000 mm 0,0 UV-I 47 W/m² 8,9 °C 11,5 °C 6,4 km/h (2 Bft)
16.04.2018 18:49 11,5 °C 85 % 1015,7 hPa 0,0 mm 5,5 km/h (1 Bft) W-SW 256 ° 0 min 0,000 mm 0,0 UV-I 46 W/m² 9,1 °C 11,5 °C 11,3 km/h (2 Bft)
16.04.2018 18:50 11,5 °C 85 % 1015,8 hPa 0,0 mm 5,8 km/h (2 Bft) W 268 ° 0 min 0,000 mm 0,0 UV-I 44 W/m² 9,1 °C 11,5 °C 8,0 km/h (2 Bft)
16.04.2018 18:51 11,5 °C 85 % 1015,7 hPa 0,0 mm 6,4 km/h (2 Bft) NW 304 ° 0 min 0,000 mm 0,0 UV-I 42 W/m² 9,1 °C 11,5 °C 11,3 km/h (2 Bft)
16.04.2018 18:52 11,4 °C 85 % 1015,7 hPa 0,0 mm 4,1 km/h (1 Bft) W-NW 283 ° 0 min 0,000 mm 0,0 UV-I 42 W/m² 9,0 °C 11,4 °C 8,0 km/h (2 Bft)
16.04.2018 18:53 11,4 °C 85 % 1015,8 hPa 0,0 mm 2,1 km/h (1 Bft) W-NW 285 ° 0 min 0,000 mm 0,0 UV-I 40 W/m² 9,0 °C 11,4 °C 3,2 km/h (1 Bft)
16.04.2018 18:54 11,4 °C 85 % 1015,7 hPa 0,0 mm 1,7 km/h (1 Bft) W-NW 285 ° 0 min 0,000 mm 0,0 UV-I 40 W/m² 9,0 °C 11,4 °C 3,2 km/h (1 Bft)
16.04.2018 18:55 11,4 °C 86 % 1015,8 hPa 0,0 mm 0,7 km/h (0 Bft) W-NW 285 ° 0 min 0,000 mm 0,0 UV-I 39 W/m² 9,1 °C 11,4 °C 1,6 km/h (1 Bft)
16.04.2018 18:56 11,4 °C 86 % 1015,8 hPa 0,0 mm 2,3 km/h (1 Bft) W-NW 285 ° 0 min 0,000 mm 0,0 UV-I 37 W/m² 9,1 °C 11,4 °C 4,8 km/h (1 Bft)
16.04.2018 18:57 11,4 °C 86 % 1015,8 hPa 0,0 mm 2,1 km/h (1 Bft) W-NW 285 ° 0 min 0,000 mm 0,0 UV-I 33 W/m² 9,1 °C 11,4 °C 3,2 km/h (1 Bft)
16.04.2018 18:58 11,3 °C 86 % 1015,8 hPa 0,0 mm 2,5 km/h (1 Bft) W-NW 283 ° 0 min 0,000 mm 0,0 UV-I 32 W/m² 9,0 °C 11,3 °C 4,8 km/h (1 Bft)
16.04.2018 18:59 11,3 °C 86 % 1015,8 hPa 0,0 mm 1,8 km/h (1 Bft) W-NW 282 ° 0 min 0,000 mm 0,0 UV-I 30 W/m² 9,0 °C 11,3 °C 4,8 km/h (1 Bft)
16.04.2018 19:00 11,3 °C 86 % 1015,8 hPa 0,0 mm 4,6 km/h (1 Bft) W 260 ° 0 min 0,000 mm 0,0 UV-I 28 W/m² 9,0 °C 11,3 °C 6,4 km/h (2 Bft)
16.04.2018 19:01 11,3 °C 86 % 1015,8 hPa 0,0 mm 2,3 km/h (1 Bft) W 260 ° 0 min 0,051 mm 0,0 UV-I 26 W/m² 9,0 °C 11,3 °C 4,8 km/h (1 Bft)
16.04.2018 19:02 11,3 °C 86 % 1015,9 hPa 0,0 mm 2,6 km/h (1 Bft) W 269 ° 0 min 0,000 mm 0,0 UV-I 25 W/m² 9,0 °C 11,3 °C 4,8 km/h (1 Bft)
16.04.2018 19:03 11,3 °C 86 % 1015,8 hPa 0,0 mm 4,4 km/h (1 Bft) W 279 ° 0 min 0,000 mm 0,0 UV-I 21 W/m² 9,0 °C 11,3 °C 6,4 km/h (2 Bft)
16.04.2018 19:04 11,3 °C 86 % 1015,9 hPa 0,0 mm 3,6 km/h (1 Bft) W 273 ° 0 min 0,000 mm 0,0 UV-I 21 W/m² 9,0 °C 11,3 °C 4,8 km/h (1 Bft)
16.04.2018 19:05 11,3 °C 86 % 1015,9 hPa 0,0 mm 3,1 km/h (1 Bft) W 267 ° 0 min 0,000 mm 0,0 UV-I 21 W/m² 9,0 °C 11,3 °C 4,8 km/h (1 Bft)
16.04.2018 19:06 11,2 °C 87 % 1015,9 hPa 0,0 mm 3,4 km/h (1 Bft) W 269 ° 0 min 0,000 mm 0,0 UV-I 21 W/m² 9,1 °C 11,2 °C 4,8 km/h (1 Bft)
16.04.2018 19:07 11,2 °C 87 % 1015,9 hPa 0,0 mm 2,9 km/h (1 Bft) W 264 ° 0 min 0,000 mm 0,0 UV-I 21 W/m² 9,1 °C 11,2 °C 4,8 km/h (1 Bft)
16.04.2018 19:08 11,2 °C 87 % 1015,9 hPa 0,0 mm 1,9 km/h (1 Bft) W 264 ° 0 min 0,000 mm 0,0 UV-I 21 W/m² 9,1 °C 11,2 °C 3,2 km/h (1 Bft)
16.04.2018 19:09 11,2 °C 87 % 1015,9 hPa 0,0 mm 0,8 km/h (0 Bft) W 264 ° 0 min 0,000 mm 0,0 UV-I 19 W/m² 9,1 °C 11,2 °C 1,6 km/h (1 Bft)
16.04.2018 19:10 11,1 °C 87 % 1015,9 hPa 0,0 mm 3,3 km/h (1 Bft) W 267 ° 0 min 0,000 mm 0,0 UV-I 19 W/m² 9,0 °C 11,1 °C 4,8 km/h (1 Bft)
16.04.2018 19:11 11,1 °C 87 % 1015,9 hPa 0,0 mm 4,3 km/h (1 Bft) W-SW 254 ° 0 min 0,000 mm 0,0 UV-I 19 W/m² 9,0 °C 11,1 °C 6,4 km/h (2 Bft)
16.04.2018 19:12 11,1 °C 88 % 1015,9 hPa 0,0 mm 2,5 km/h (1 Bft) W-SW 254 ° 0 min 0,000 mm 0,0 UV-I 18 W/m² 9,2 °C 11,1 °C 4,8 km/h (1 Bft)
16.04.2018 19:13 11,0 °C 88 % 1016,0 hPa 0,0 mm 1,7 km/h (1 Bft) W-SW 254 ° 0 min 0,000 mm 0,0 UV-I 18 W/m² 9,1 °C 11,0 °C 3,2 km/h (1 Bft)
16.04.2018 19:14 11,0 °C 88 % 1015,9 hPa 0,0 mm 0,4 km/h (0 Bft) W-SW 254 ° 0 min 0,000 mm 0,0 UV-I 18 W/m² 9,1 °C 11,0 °C 1,6 km/h (1 Bft)
16.04.2018 19:15 10,9 °C 88 % 1016,0 hPa 0,0 mm 0,6 km/h (0 Bft) W-SW 254 ° 0 min 0,000 mm 0,0 UV-I 18 W/m² 9,0 °C 10,9 °C 1,6 km/h (1 Bft)
16.04.2018 19:16 10,9 °C 88 % 1016,0 hPa 0,0 mm 0,2 km/h (0 Bft) W-SW 254 ° 0 min 0,000 mm 0,0 UV-I 16 W/m² 9,0 °C 10,9 °C 1,6 km/h (1 Bft)
16.04.2018 19:17 10,9 °C 88 % 1016,0 hPa 0,0 mm 0,0 km/h (0 Bft) W-SW 254 ° 0 min 0,000 mm 0,0 UV-I 16 W/m² 9,0 °C 10,9 °C 0,0 km/h (0 Bft)
16.04.2018 19:18 10,9 °C 88 % 1016,0 hPa 0,0 mm 0,0 km/h (0 Bft) W-SW 254 ° 0 min 0,000 mm 0,0 UV-I 16 W/m² 9,0 °C 10,9 °C 0,0 km/h (0 Bft)
16.04.2018 19:19 10,8 °C 88 % 1016,1 hPa 0,0 mm 0,0 km/h (0 Bft) W-SW 254 ° 0 min 0,000 mm 0,0 UV-I 14 W/m² 8,9 °C 10,8 °C 0,0 km/h (0 Bft)
16.04.2018 19:20 10,8 °C 89 % 1016,1 hPa 0,0 mm 0,0 km/h (0 Bft) W-SW 254 ° 0 min 0,000 mm 0,0 UV-I 14 W/m² 9,1 °C 10,8 °C 0,0 km/h (0 Bft)
16.04.2018 19:21 10,8 °C 89 % 1016,1 hPa 0,0 mm 0,0 km/h (0 Bft) W-SW 254 ° 0 min 0,000 mm 0,0 UV-I 14 W/m² 9,1 °C 10,8 °C 0,0 km/h (0 Bft)
16.04.2018 19:22 10,8 °C 89 % 1016,1 hPa 0,0 mm 0,0 km/h (0 Bft) W-SW 254 ° 0 min 0,000 mm 0,0 UV-I 12 W/m² 9,1 °C 10,8 °C 0,0 km/h (0 Bft)
16.04.2018 19:23 10,8 °C 89 % 1016,1 hPa 0,0 mm 0,0 km/h (0 Bft) W-SW 254 ° 0 min 0,000 mm 0,0 UV-I 12 W/m² 9,1 °C 10,8 °C 0,0 km/h (0 Bft)
16.04.2018 19:24 10,7 °C 89 % 1016,2 hPa 0,0 mm 0,0 km/h (0 Bft) W-SW 254 ° 0 min 0,000 mm 0,0 UV-I 12 W/m² 9,0 °C 10,7 °C 0,0 km/h (0 Bft)
16.04.2018 19:25 10,7 °C 89 % 1016,1 hPa 0,0 mm 0,0 km/h (0 Bft) W-SW 254 ° 0 min 0,000 mm 0,0 UV-I 11 W/m² 9,0 °C 10,7 °C 0,0 km/h (0 Bft)
16.04.2018 19:26 10,7 °C 89 % 1016,1 hPa 0,0 mm 0,0 km/h (0 Bft) W-SW 254 ° 0 min 0,000 mm 0,0 UV-I 11 W/m² 9,0 °C 10,7 °C 0,0 km/h (0 Bft)
16.04.2018 19:27 10,7 °C 89 % 1016,2 hPa 0,0 mm 0,7 km/h (0 Bft) W-SW 254 ° 0 min 0,000 mm 0,0 UV-I 11 W/m² 9,0 °C 10,7 °C 3,2 km/h (1 Bft)
16.04.2018 19:28 10,7 °C 89 % 1016,2 hPa 0,0 mm 1,0 km/h (0 Bft) W-SW 254 ° 0 min 0,000 mm 0,0 UV-I 11 W/m² 9,0 °C 10,7 °C 3,2 km/h (1 Bft)
16.04.2018 19:29 10,6 °C 89 % 1016,2 hPa 0,0 mm 0,0 km/h (0 Bft) W-SW 254 ° 0 min 0,000 mm 0,0 UV-I 11 W/m² 8,9 °C 10,6 °C 0,0 km/h (0 Bft)
16.04.2018 19:30 10,6 °C 89 % 1016,2 hPa 0,0 mm 0,0 km/h (0 Bft) W-SW 254 ° 0 min 0,000 mm 0,0 UV-I 9 W/m² 8,9 °C 10,6 °C 0,0 km/h (0 Bft)
16.04.2018 19:31 10,6 °C 89 % 1016,2 hPa 0,0 mm 0,0 km/h (0 Bft) W-SW 254 ° 0 min 0,000 mm 0,0 UV-I 9 W/m² 8,9 °C 10,6 °C 0,0 km/h (0 Bft)
16.04.2018 19:32 10,6 °C 89 % 1016,2 hPa 0,0 mm 0,8 km/h (0 Bft) W-SW 254 ° 0 min 0,000 mm 0,0 UV-I 9 W/m² 8,9 °C 10,6 °C 1,6 km/h (1 Bft)
16.04.2018 19:33 10,6 °C 89 % 1016,2 hPa 0,0 mm 0,4 km/h (0 Bft) W-SW 254 ° 0 min 0,000 mm 0,0 UV-I 7 W/m² 8,9 °C 10,6 °C 1,6 km/h (1 Bft)
16.04.2018 19:34 10,6 °C 90 % 1016,3 hPa 0,0 mm 0,0 km/h (0 Bft) W-SW 254 ° 0 min 0,000 mm 0,0 UV-I 7 W/m² 9,0 °C 10,6 °C 0,0 km/h (0 Bft)
16.04.2018 19:35 10,6 °C 90 % 1016,3 hPa 0,0 mm 0,0 km/h (0 Bft) W-SW 254 ° 0 min 0,000 mm 0,0 UV-I 7 W/m² 9,0 °C 10,6 °C 0,0 km/h (0 Bft)
16.04.2018 19:36 10,6 °C 90 % 1016,2 hPa 0,0 mm 0,0 km/h (0 Bft) W-SW 254 ° 0 min 0,000 mm 0,0 UV-I 7 W/m² 9,0 °C 10,6 °C 0,0 km/h (0 Bft)
16.04.2018 19:37 10,5 °C 90 % 1016,3 hPa 0,0 mm 0,0 km/h (0 Bft) W-SW 254 ° 0 min 0,000 mm 0,0 UV-I 7 W/m² 8,9 °C 10,5 °C 0,0 km/h (0 Bft)
16.04.2018 19:38 10,5 °C 90 % 1016,3 hPa 0,0 mm 0,9 km/h (0 Bft) W-SW 254 ° 0 min 0,000 mm 0,0 UV-I 7 W/m² 8,9 °C 10,5 °C 1,6 km/h (1 Bft)
16.04.2018 19:39 10,4 °C 90 % 1016,3 hPa 0,0 mm 0,0 km/h (0 Bft) W-SW 254 ° 0 min 0,000 mm 0,0 UV-I 5 W/m² 8,8 °C 10,4 °C 0,0 km/h (0 Bft)
16.04.2018 19:40 10,4 °C 90 % 1016,3 hPa 0,0 mm 0,1 km/h (0 Bft) W-SW 254 ° 0 min 0,000 mm 0,0 UV-I 5 W/m² 8,8 °C 10,4 °C 1,6 km/h (1 Bft)
16.04.2018 19:41 10,4 °C 90 % 1016,3 hPa 0,0 mm 0,0 km/h (0 Bft) W-SW 254 ° 0 min 0,000 mm 0,0 UV-I 5 W/m² 8,8 °C 10,4 °C 0,0 km/h (0 Bft)
16.04.2018 19:42 10,4 °C 90 % 1016,3 hPa 0,0 mm 0,0 km/h (0 Bft) W-SW 254 ° 0 min 0,000 mm 0,0 UV-I 5 W/m² 8,8 °C 10,4 °C 0,0 km/h (0 Bft)
16.04.2018 19:43 10,4 °C 90 % 1016,3 hPa 0,0 mm 0,0 km/h (0 Bft) W-SW 254 ° 0 min 0,000 mm 0,0 UV-I 5 W/m² 8,8 °C 10,4 °C 0,0 km/h (0 Bft)
16.04.2018 19:44 10,4 °C 90 % 1016,3 hPa 0,0 mm 0,0 km/h (0 Bft) W-SW 254 ° 0 min 0,000 mm 0,0 UV-I 5 W/m² 8,8 °C 10,4 °C 0,0 km/h (0 Bft)
16.04.2018 19:45 10,4 °C 90 % 1016,3 hPa 0,0 mm 1,5 km/h (1 Bft) W-SW 254 ° 0 min 0,000 mm 0,0 UV-I 5 W/m² 8,8 °C 10,4 °C 3,2 km/h (1 Bft)
16.04.2018 19:46 10,4 °C 90 % 1016,3 hPa 0,0 mm 1,0 km/h (0 Bft) W-SW 254 ° 0 min 0,000 mm 0,0 UV-I 5 W/m² 8,8 °C 10,4 °C 1,6 km/h (1 Bft)
16.04.2018 19:47 10,4 °C 90 % 1016,4 hPa 0,0 mm 0,0 km/h (0 Bft) W-SW 254 ° 0 min 0,000 mm 0,0 UV-I 0 W/m² 8,8 °C 10,4 °C 0,0 km/h (0 Bft)
16.04.2018 19:48 10,4 °C 90 % 1016,3 hPa 0,0 mm 0,0 km/h (0 Bft) W-SW 254 ° 0 min 0,000 mm 0,0 UV-I 0 W/m² 8,8 °C 10,4 °C 0,0 km/h (0 Bft)
16.04.2018 19:49 10,4 °C 90 % 1016,4 hPa 0,0 mm 0,0 km/h (0 Bft) W-SW 254 ° 0 min 0,000 mm 0,0 UV-I 0 W/m² 8,8 °C 10,4 °C 0,0 km/h (0 Bft)
16.04.2018 19:50 10,3 °C 90 % 1016,4 hPa 0,0 mm 0,0 km/h (0 Bft) W-SW 254 ° 0 min 0,000 mm 0,0 UV-I 0 W/m² 8,7 °C 10,3 °C 0,0 km/h (0 Bft)
16.04.2018 19:51 10,3 °C 90 % 1016,4 hPa 0,0 mm 0,0 km/h (0 Bft) W-SW 254 ° 0 min 0,000 mm 0,0 UV-I 0 W/m² 8,7 °C 10,3 °C 0,0 km/h (0 Bft)
16.04.2018 19:52 10,3 °C 90 % 1016,4 hPa 0,0 mm 0,0 km/h (0 Bft) W-SW 254 ° 0 min 0,000 mm 0,0 UV-I 0 W/m² 8,7 °C 10,3 °C 0,0 km/h (0 Bft)
16.04.2018 19:53 10,3 °C 90 % 1016,5 hPa 0,0 mm 0,0 km/h (0 Bft) W-SW 254 ° 0 min 0,000 mm 0,0 UV-I 0 W/m² 8,7 °C 10,3 °C 0,0 km/h (0 Bft)
16.04.2018 19:54 10,3 °C 91 % 1016,5 hPa 0,0 mm 0,0 km/h (0 Bft) W-SW 254 ° 0 min 0,000 mm 0,0 UV-I 0 W/m² 8,9 °C 10,3 °C 0,0 km/h (0 Bft)
16.04.2018 19:55 10,3 °C 91 % 1016,5 hPa 0,0 mm 0,0 km/h (0 Bft) W-SW 254 ° 0 min 0,000 mm 0,0 UV-I 0 W/m² 8,9 °C 10,3 °C 0,0 km/h (0 Bft)
16.04.2018 19:56 10,3 °C 91 % 1016,5 hPa 0,0 mm 0,0 km/h (0 Bft) W-SW 254 ° 0 min 0,000 mm 0,0 UV-I 0 W/m² 8,9 °C 10,3 °C 0,0 km/h (0 Bft)
16.04.2018 19:57 10,3 °C 91 % 1016,5 hPa 0,0 mm 0,0 km/h (0 Bft) W-SW 254 ° 0 min 0,000 mm 0,0 UV-I 0 W/m² 8,9 °C 10,3 °C 0,0 km/h (0 Bft)
16.04.2018 19:58 10,3 °C 90 % 1016,5 hPa 0,0 mm 0,0 km/h (0 Bft) W-SW 254 ° 0 min 0,000 mm 0,0 UV-I 0 W/m² 8,7 °C 10,3 °C 0,0 km/h (0 Bft)
16.04.2018 19:59 10,2 °C 91 % 1016,5 hPa 0,0 mm 0,0 km/h (0 Bft) W-SW 254 ° 0 min 0,000 mm 0,0 UV-I 0 W/m² 8,8 °C 10,2 °C 0,0 km/h (0 Bft)
16.04.2018 20:00 10,2 °C 91 % 1016,5 hPa 0,0 mm 0,0 km/h (0 Bft) W-SW 254 ° 0 min 0,000 mm 0,0 UV-I 0 W/m² 8,8 °C 10,2 °C 0,0 km/h (0 Bft)
16.04.2018 20:01 10,2 °C 91 % 1016,6 hPa 0,0 mm 0,0 km/h (0 Bft) W-SW 254 ° 0 min 0,000 mm 0,0 UV-I 0 W/m² 8,8 °C 10,2 °C 0,0 km/h (0 Bft)
16.04.2018 20:02 10,2 °C 91 % 1016,6 hPa 0,0 mm 0,0 km/h (0 Bft) W-SW 254 ° 0 min 0,000 mm 0,0 UV-I 0 W/m² 8,8 °C 10,2 °C 0,0 km/h (0 Bft)
16.04.2018 20:03 10,1 °C 91 % 1016,6 hPa 0,0 mm 0,0 km/h (0 Bft) W-SW 254 ° 0 min 0,000 mm 0,0 UV-I 0 W/m² 8,7 °C 10,1 °C 0,0 km/h (0 Bft)
16.04.2018 20:04 10,1 °C 91 % 1016,6 hPa 0,0 mm 0,0 km/h (0 Bft) W-SW 254 ° 0 min 0,000 mm 0,0 UV-I 0 W/m² 8,7 °C 10,1 °C 0,0 km/h (0 Bft)
16.04.2018 20:05 10,1 °C 91 % 1016,6 hPa 0,0 mm 0,0 km/h (0 Bft) W-SW 254 ° 0 min 0,000 mm 0,0 UV-I 0 W/m² 8,7 °C 10,1 °C 0,0 km/h (0 Bft)
16.04.2018 20:06 10,1 °C 91 % 1016,6 hPa 0,0 mm 0,0 km/h (0 Bft) W-SW 254 ° 0 min 0,000 mm 0,0 UV-I 0 W/m² 8,7 °C 10,1 °C 0,0 km/h (0 Bft)
16.04.2018 20:07 10,1 °C 91 % 1016,6 hPa 0,0 mm 0,0 km/h (0 Bft) W-SW 254 ° 0 min 0,000 mm 0,0 UV-I 0 W/m² 8,7 °C 10,1 °C 0,0 km/h (0 Bft)
16.04.2018 20:08 10,0 °C 91 % 1016,7 hPa 0,0 mm 0,0 km/h (0 Bft) W-SW 254 ° 0 min 0,000 mm 0,0 UV-I 0 W/m² 8,6 °C 10,0 °C 0,0 km/h (0 Bft)
16.04.2018 20:09 10,0 °C 91 % 1016,6 hPa 0,0 mm 0,0 km/h (0 Bft) W-SW 254 ° 0 min 0,000 mm 0,0 UV-I 0 W/m² 8,6 °C 10,0 °C 0,0 km/h (0 Bft)
16.04.2018 20:10 10,0 °C 91 % 1016,7 hPa 0,0 mm 0,0 km/h (0 Bft) W-SW 254 ° 0 min 0,000 mm 0,0 UV-I 0 W/m² 8,6 °C 10,0 °C 0,0 km/h (0 Bft)
16.04.2018 20:11 10,0 °C 91 % 1016,7 hPa 0,0 mm 0,0 km/h (0 Bft) W-SW 254 ° 0 min 0,000 mm 0,0 UV-I 0 W/m² 8,6 °C 10,0 °C 0,0 km/h (0 Bft)
16.04.2018 20:12 9,9 °C 91 % 1016,7 hPa 0,0 mm 0,0 km/h (0 Bft) W-SW 254 ° 0 min 0,000 mm 0,0 UV-I 0 W/m² 8,5 °C 9,9 °C 0,0 km/h (0 Bft)
16.04.2018 20:13 9,9 °C 91 % 1016,7 hPa 0,0 mm 0,0 km/h (0 Bft) W-SW 254 ° 0 min 0,000 mm 0,0 UV-I 0 W/m² 8,5 °C 9,9 °C 0,0 km/h (0 Bft)
16.04.2018 20:14 9,9 °C 91 % 1016,8 hPa 0,0 mm 0,0 km/h (0 Bft) W-SW 254 ° 0 min 0,000 mm 0,0 UV-I 0 W/m² 8,5 °C 9,9 °C 0,0 km/h (0 Bft)
16.04.2018 20:15 10,0 °C 91 % 1016,8 hPa 0,0 mm 0,0 km/h (0 Bft) W-SW 254 ° 0 min 0,000 mm 0,0 UV-I 0 W/m² 8,6 °C 10,0 °C 0,0 km/h (0 Bft)
16.04.2018 20:16 10,0 °C 91 % 1016,8 hPa 0,0 mm 0,0 km/h (0 Bft) W-SW 254 ° 0 min 0,000 mm 0,0 UV-I 0 W/m² 8,6 °C 10,0 °C 0,0 km/h (0 Bft)
16.04.2018 20:17 9,9 °C 91 % 1016,8 hPa 0,0 mm 0,0 km/h (0 Bft) W-SW 254 ° 0 min 0,000 mm 0,0 UV-I 0 W/m² 8,5 °C 9,9 °C 0,0 km/h (0 Bft)
16.04.2018 20:18 9,9 °C 91 % 1016,8 hPa 0,0 mm 1,5 km/h (1 Bft) W-SW 254 ° 0 min 0,000 mm 0,0 UV-I 0 W/m² 8,5 °C 9,9 °C 3,2 km/h (1 Bft)
16.04.2018 20:19 9,9 °C 91 % 1016,8 hPa 0,0 mm 1,5 km/h (1 Bft) W-SW 254 ° 0 min 0,000 mm 0,0 UV-I 0 W/m² 8,5 °C 9,9 °C 3,2 km/h (1 Bft)
16.04.2018 20:20 9,9 °C 91 % 1016,9 hPa 0,0 mm 1,6 km/h (1 Bft) W-SW 254 ° 0 min 0,000 mm 0,0 UV-I 0 W/m² 8,5 °C 9,9 °C 3,2 km/h (1 Bft)
16.04.2018 20:21 9,9 °C 91 % 1016,9 hPa 0,0 mm 1,5 km/h (1 Bft) W-SW 254 ° 0 min 0,000 mm 0,0 UV-I 0 W/m² 8,5 °C 9,9 °C 3,2 km/h (1 Bft)
16.04.2018 20:22 9,9 °C 91 % 1017,0 hPa 0,0 mm 2,3 km/h (1 Bft) W-SW 254 ° 0 min 0,000 mm 0,0 UV-I 0 W/m² 8,5 °C 9,9 °C 3,2 km/h (1 Bft)
16.04.2018 20:23 9,9 °C 91 % 1017,0 hPa 0,0 mm 2,6 km/h (1 Bft) W-SW 254 ° 0 min 0,000 mm 0,0 UV-I 0 W/m² 8,5 °C 9,9 °C 3,2 km/h (1 Bft)
16.04.2018 20:24 9,9 °C 91 % 1017,0 hPa 0,0 mm 3,3 km/h (1 Bft) W-SW 254 ° 0 min 0,000 mm 0,0 UV-I 0 W/m² 8,5 °C 9,9 °C 4,8 km/h (1 Bft)
16.04.2018 20:25 9,9 °C 91 % 1017,0 hPa 0,0 mm 3,1 km/h (1 Bft) W-SW 254 ° 0 min 0,000 mm 0,0 UV-I 0 W/m² 8,5 °C 9,9 °C 3,2 km/h (1 Bft)
16.04.2018 20:26 9,9 °C 91 % 1017,0 hPa 0,0 mm 2,5 km/h (1 Bft) W-SW 254 ° 0 min 0,000 mm 0,0 UV-I 0 W/m² 8,5 °C 9,9 °C 3,2 km/h (1 Bft)
16.04.2018 20:27 9,9 °C 91 % 1017,0 hPa 0,0 mm 4,2 km/h (1 Bft) W-SW 254 ° 0 min 0,000 mm 0,0 UV-I 0 W/m² 8,5 °C 9,9 °C 4,8 km/h (1 Bft)
16.04.2018 20:28 9,9 °C 92 % 1017,1 hPa 0,0 mm 3,4 km/h (1 Bft) W-SW 254 ° 0 min 0,000 mm 0,0 UV-I 0 W/m² 8,7 °C 9,9 °C 4,8 km/h (1 Bft)
16.04.2018 20:29 9,9 °C 92 % 1017,1 hPa 0,0 mm 3,0 km/h (1 Bft) W-SW 254 ° 0 min 0,000 mm 0,0 UV-I 0 W/m² 8,7 °C 9,9 °C 3,2 km/h (1 Bft)
16.04.2018 20:30 9,9 °C 92 % 1017,1 hPa 0,0 mm 2,9 km/h (1 Bft) W-SW 254 ° 0 min 0,000 mm 0,0 UV-I 0 W/m² 8,7 °C 9,9 °C 3,2 km/h (1 Bft)
16.04.2018 20:31 9,9 °C 92 % 1017,1 hPa 0,0 mm 0,3 km/h (0 Bft) W-SW 254 ° 0 min 0,000 mm 0,0 UV-I 0 W/m² 8,7 °C 9,9 °C 1,6 km/h (1 Bft)
16.04.2018 20:32 9,8 °C 92 % 1017,1 hPa 0,0 mm 0,0 km/h (0 Bft) W-SW 254 ° 0 min 0,000 mm 0,0 UV-I 0 W/m² 8,6 °C 9,8 °C 0,0 km/h (0 Bft)
16.04.2018 20:33 9,8 °C 92 % 1017,1 hPa 0,0 mm 0,0 km/h (0 Bft) W-SW 254 ° 0 min 0,000 mm 0,0 UV-I 0 W/m² 8,6 °C 9,8 °C 0,0 km/h (0 Bft)
16.04.2018 20:34 9,7 °C 92 % 1017,1 hPa 0,0 mm 0,0 km/h (0 Bft) W-SW 254 ° 0 min 0,000 mm 0,0 UV-I 0 W/m² 8,5 °C 9,7 °C 0,0 km/h (0 Bft)
16.04.2018 20:35 9,7 °C 92 % 1017,2 hPa 0,0 mm 0,0 km/h (0 Bft) W-SW 254 ° 0 min 0,000 mm 0,0 UV-I 0 W/m² 8,5 °C 9,7 °C 0,0 km/h (0 Bft)
16.04.2018 20:36 9,7 °C 92 % 1017,2 hPa 0,0 mm 0,0 km/h (0 Bft) W-SW 254 ° 0 min 0,000 mm 0,0 UV-I 0 W/m² 8,5 °C 9,7 °C 0,0 km/h (0 Bft)
16.04.2018 20:37 9,7 °C 92 % 1017,2 hPa 0,0 mm 0,0 km/h (0 Bft) W-SW 254 ° 0 min 0,000 mm 0,0 UV-I 0 W/m² 8,5 °C 9,7 °C 0,0 km/h (0 Bft)
16.04.2018 20:38 9,7 °C 92 % 1017,3 hPa 0,0 mm 0,0 km/h (0 Bft) W-SW 254 ° 0 min 0,000 mm 0,0 UV-I 0 W/m² 8,5 °C 9,7 °C 0,0 km/h (0 Bft)
16.04.2018 20:39 9,7 °C 92 % 1017,2 hPa 0,0 mm 0,0 km/h (0 Bft) W-SW 254 ° 0 min 0,000 mm 0,0 UV-I 0 W/m² 8,5 °C 9,7 °C 0,0 km/h (0 Bft)
16.04.2018 20:40 9,7 °C 92 % 1017,3 hPa 0,0 mm 0,0 km/h (0 Bft) W-SW 254 ° 0 min 0,000 mm 0,0 UV-I 0 W/m² 8,5 °C 9,7 °C 0,0 km/h (0 Bft)
16.04.2018 20:41 9,7 °C 92 % 1017,3 hPa 0,0 mm 0,0 km/h (0 Bft) W-SW 254 ° 0 min 0,000 mm 0,0 UV-I 0 W/m² 8,5 °C 9,7 °C 0,0 km/h (0 Bft)
16.04.2018 20:42 9,6 °C 92 % 1017,3 hPa 0,0 mm 0,0 km/h (0 Bft) W-SW 254 ° 0 min 0,000 mm 0,0 UV-I 0 W/m² 8,4 °C 9,6 °C 0,0 km/h (0 Bft)
16.04.2018 20:43 9,6 °C 92 % 1017,3 hPa 0,0 mm 0,0 km/h (0 Bft) W-SW 254 ° 0 min 0,000 mm 0,0 UV-I 0 W/m² 8,4 °C 9,6 °C 0,0 km/h (0 Bft)
16.04.2018 20:44 9,6 °C 92 % 1017,3 hPa 0,0 mm 0,0 km/h (0 Bft) W-SW 254 ° 0 min 0,000 mm 0,0 UV-I 0 W/m² 8,4 °C 9,6 °C 0,0 km/h (0 Bft)
16.04.2018 20:45 9,6 °C 92 % 1017,3 hPa 0,0 mm 0,0 km/h (0 Bft) W-SW 254 ° 0 min 0,000 mm 0,0 UV-I 0 W/m² 8,4 °C 9,6 °C 0,0 km/h (0 Bft)
16.04.2018 20:46 9,6 °C 92 % 1017,3 hPa 0,0 mm 0,0 km/h (0 Bft) W-SW 254 ° 0 min 0,000 mm 0,0 UV-I 0 W/m² 8,4 °C 9,6 °C 0,0 km/h (0 Bft)
16.04.2018 20:47 9,6 °C 92 % 1017,3 hPa 0,0 mm 0,0 km/h (0 Bft) W-SW 254 ° 0 min 0,000 mm 0,0 UV-I 0 W/m² 8,4 °C 9,6 °C 0,0 km/h (0 Bft)
16.04.2018 20:48 9,6 °C 92 % 1017,4 hPa 0,0 mm 0,0 km/h (0 Bft) W-SW 254 ° 0 min 0,000 mm 0,0 UV-I 0 W/m² 8,4 °C 9,6 °C 0,0 km/h (0 Bft)
16.04.2018 20:49 9,6 °C 92 % 1017,3 hPa 0,0 mm 0,0 km/h (0 Bft) W-SW 254 ° 0 min 0,000 mm 0,0 UV-I 0 W/m² 8,4 °C 9,6 °C 0,0 km/h (0 Bft)
16.04.2018 20:50 9,5 °C 92 % 1017,4 hPa 0,0 mm 0,0 km/h (0 Bft) W-SW 254 ° 0 min 0,000 mm 0,0 UV-I 0 W/m² 8,3 °C 9,5 °C 0,0 km/h (0 Bft)
16.04.2018 20:51 9,4 °C 92 % 1017,4 hPa 0,0 mm 0,0 km/h (0 Bft) W-SW 254 ° 0 min 0,000 mm 0,0 UV-I 0 W/m² 8,2 °C 9,4 °C 0,0 km/h (0 Bft)
16.04.2018 20:52 9,4 °C 92 % 1017,4 hPa 0,0 mm 0,0 km/h (0 Bft) W-SW 254 ° 0 min 0,000 mm 0,0 UV-I 0 W/m² 8,2 °C 9,4 °C 0,0 km/h (0 Bft)
16.04.2018 20:53 9,4 °C 92 % 1017,5 hPa 0,0 mm 0,0 km/h (0 Bft) W-SW 254 ° 0 min 0,000 mm 0,0 UV-I 0 W/m² 8,2 °C 9,4 °C 0,0 km/h (0 Bft)
16.04.2018 20:54 9,4 °C 92 % 1017,5 hPa 0,0 mm 0,0 km/h (0 Bft) W-SW 254 ° 0 min 0,000 mm 0,0 UV-I 0 W/m² 8,2 °C 9,4 °C 0,0 km/h (0 Bft)
16.04.2018 20:55 9,4 °C 92 % 1017,5 hPa 0,0 mm 0,0 km/h (0 Bft) W-SW 254 ° 0 min 0,000 mm 0,0 UV-I 0 W/m² 8,2 °C 9,4 °C 0,0 km/h (0 Bft)
16.04.2018 20:56 9,4 °C 93 % 1017,5 hPa 0,0 mm 0,0 km/h (0 Bft) W-SW 254 ° 0 min 0,000 mm 0,0 UV-I 0 W/m² 8,3 °C 9,4 °C 0,0 km/h (0 Bft)
16.04.2018 20:57 9,4 °C 93 % 1017,5 hPa 0,0 mm 0,0 km/h (0 Bft) W-SW 254 ° 0 min 0,000 mm 0,0 UV-I 0 W/m² 8,3 °C 9,4 °C 0,0 km/h (0 Bft)
16.04.2018 20:58 9,3 °C 92 % 1017,5 hPa 0,0 mm 0,0 km/h (0 Bft) W-SW 254 ° 0 min 0,000 mm 0,0 UV-I 0 W/m² 8,1 °C 9,3 °C 0,0 km/h (0 Bft)
16.04.2018 20:59 9,3 °C 93 % 1017,5 hPa 0,0 mm 0,0 km/h (0 Bft) W-SW 254 ° 0 min 0,000 mm 0,0 UV-I 0 W/m² 8,2 °C 9,3 °C 0,0 km/h (0 Bft)
16.04.2018 21:00 9,3 °C 93 % 1017,5 hPa 0,0 mm 0,0 km/h (0 Bft) W-SW 254 ° 0 min 0,000 mm 0,0 UV-I 0 W/m² 8,2 °C 9,3 °C 0,0 km/h (0 Bft)
16.04.2018 21:01 9,3 °C 93 % 1017,5 hPa 0,0 mm 0,0 km/h (0 Bft) W-SW 254 ° 0 min 0,000 mm 0,0 UV-I 0 W/m² 8,2 °C 9,3 °C 0,0 km/h (0 Bft)
16.04.2018 21:02 9,3 °C 93 % 1017,5 hPa 0,0 mm 0,0 km/h (0 Bft) W-SW 254 ° 0 min 0,000 mm 0,0 UV-I 0 W/m² 8,2 °C 9,3 °C 0,0 km/h (0 Bft)
16.04.2018 21:03 9,2 °C 93 % 1017,5 hPa 0,0 mm 0,0 km/h (0 Bft) W-SW 254 ° 0 min 0,000 mm 0,0 UV-I 0 W/m² 8,1 °C 9,2 °C 0,0 km/h (0 Bft)
16.04.2018 21:04 9,2 °C 93 % 1017,5 hPa 0,0 mm 0,0 km/h (0 Bft) W-SW 254 ° 0 min 0,000 mm 0,0 UV-I 0 W/m² 8,1 °C 9,2 °C 0,0 km/h (0 Bft)
16.04.2018 21:05 9,2 °C 93 % 1017,5 hPa 0,0 mm 0,0 km/h (0 Bft) W-SW 254 ° 0 min 0,000 mm 0,0 UV-I 0 W/m² 8,1 °C 9,2 °C 0,0 km/h (0 Bft)
16.04.2018 21:06 9,2 °C 93 % 1017,5 hPa 0,0 mm 0,0 km/h (0 Bft) W-SW 254 ° 0 min 0,000 mm 0,0 UV-I 0 W/m² 8,1 °C 9,2 °C 0,0 km/h (0 Bft)
16.04.2018 21:07 9,2 °C 93 % 1017,5 hPa 0,0 mm 0,0 km/h (0 Bft) W-SW 254 ° 0 min 0,000 mm 0,0 UV-I 0 W/m² 8,1 °C 9,2 °C 0,0 km/h (0 Bft)
16.04.2018 21:08 9,2 °C 93 % 1017,6 hPa 0,0 mm 0,0 km/h (0 Bft) W-SW 254 ° 0 min 0,000 mm 0,0 UV-I 0 W/m² 8,1 °C 9,2 °C 0,0 km/h (0 Bft)
16.04.2018 21:09 9,2 °C 93 % 1017,6 hPa 0,0 mm 0,0 km/h (0 Bft) W-SW 254 ° 0 min 0,000 mm 0,0 UV-I 0 W/m² 8,1 °C 9,2 °C 0,0 km/h (0 Bft)
16.04.2018 21:10 9,2 °C 93 % 1017,6 hPa 0,0 mm 0,0 km/h (0 Bft) W-SW 254 ° 0 min 0,000 mm 0,0 UV-I 0 W/m² 8,1 °C 9,2 °C 0,0 km/h (0 Bft)
16.04.2018 21:11 9,2 °C 93 % 1017,7 hPa 0,0 mm 0,0 km/h (0 Bft) W-SW 254 ° 0 min 0,000 mm 0,0 UV-I 0 W/m² 8,1 °C 9,2 °C 0,0 km/h (0 Bft)
16.04.2018 21:12 9,2 °C 93 % 1017,7 hPa 0,0 mm 0,0 km/h (0 Bft) W-SW 254 ° 0 min 0,000 mm 0,0 UV-I 0 W/m² 8,1 °C 9,2 °C 0,0 km/h (0 Bft)
16.04.2018 21:13 9,2 °C 93 % 1017,7 hPa 0,0 mm 0,0 km/h (0 Bft) W-SW 254 ° 0 min 0,000 mm 0,0 UV-I 0 W/m² 8,1 °C 9,2 °C 0,0 km/h (0 Bft)
16.04.2018 21:14 9,2 °C 93 % 1017,7 hPa 0,0 mm 0,0 km/h (0 Bft) W-SW 254 ° 0 min 0,000 mm 0,0 UV-I 0 W/m² 8,1 °C 9,2 °C 0,0 km/h (0 Bft)
16.04.2018 21:15 9,2 °C 93 % 1017,7 hPa 0,0 mm 0,0 km/h (0 Bft) W-SW 254 ° 0 min 0,000 mm 0,0 UV-I 0 W/m² 8,1 °C 9,2 °C 0,0 km/h (0 Bft)
16.04.2018 21:16 9,2 °C 93 % 1017,7 hPa 0,0 mm 0,0 km/h (0 Bft) W-SW 254 ° 0 min 0,000 mm 0,0 UV-I 0 W/m² 8,1 °C 9,2 °C 0,0 km/h (0 Bft)
16.04.2018 21:17 9,1 °C 92 % 1017,7 hPa 0,0 mm 0,0 km/h (0 Bft) W-SW 254 ° 0 min 0,000 mm 0,0 UV-I 0 W/m² 7,9 °C 9,1 °C 0,0 km/h (0 Bft)
16.04.2018 21:18 9,1 °C 92 % 1017,7 hPa 0,0 mm 0,8 km/h (0 Bft) W-SW 254 ° 0 min 0,000 mm 0,0 UV-I 0 W/m² 7,9 °C 9,1 °C 4,8 km/h (1 Bft)
16.04.2018 21:19 9,1 °C 92 % 1017,7 hPa 0,0 mm 0,4 km/h (0 Bft) W-SW 254 ° 0 min 0,000 mm 0,0 UV-I 0 W/m² 7,9 °C 9,1 °C 3,2 km/h (1 Bft)
16.04.2018 21:20 9,1 °C 92 % 1017,7 hPa 0,0 mm 0,0 km/h (0 Bft) W-SW 254 ° 0 min 0,000 mm 0,0 UV-I 0 W/m² 7,9 °C 9,1 °C 0,0 km/h (0 Bft)
16.04.2018 21:21 9,1 °C 93 % 1017,7 hPa 0,0 mm 0,0 km/h (0 Bft) W-SW 254 ° 0 min 0,000 mm 0,0 UV-I 0 W/m² 8,0 °C 9,1 °C 0,0 km/h (0 Bft)
16.04.2018 21:22 9,1 °C 93 % 1017,7 hPa 0,0 mm 0,0 km/h (0 Bft) W-SW 254 ° 0 min 0,000 mm 0,0 UV-I 0 W/m² 8,0 °C 9,1 °C 0,0 km/h (0 Bft)
16.04.2018 21:23 9,1 °C 93 % 1017,7 hPa 0,0 mm 0,0 km/h (0 Bft) W-SW 254 ° 0 min 0,000 mm 0,0 UV-I 0 W/m² 8,0 °C 9,1 °C 0,0 km/h (0 Bft)
16.04.2018 21:24 9,1 °C 93 % 1017,8 hPa 0,0 mm 0,0 km/h (0 Bft) W-SW 254 ° 0 min 0,000 mm 0,0 UV-I 0 W/m² 8,0 °C 9,1 °C 0,0 km/h (0 Bft)
16.04.2018 21:25 9,1 °C 93 % 1017,8 hPa 0,0 mm 0,0 km/h (0 Bft) W-SW 254 ° 0 min 0,000 mm 0,0 UV-I 0 W/m² 8,0 °C 9,1 °C 0,0 km/h (0 Bft)
16.04.2018 21:26 9,1 °C 93 % 1017,8 hPa 0,0 mm 0,0 km/h (0 Bft) W-SW 254 ° 0 min 0,000 mm 0,0 UV-I 0 W/m² 8,0 °C 9,1 °C 0,0 km/h (0 Bft)
16.04.2018 21:27 9,1 °C 93 % 1017,9 hPa 0,0 mm 0,0 km/h (0 Bft) W-SW 254 ° 0 min 0,000 mm 0,0 UV-I 0 W/m² 8,0 °C 9,1 °C 0,0 km/h (0 Bft)
16.04.2018 21:28 9,1 °C 93 % 1017,8 hPa 0,0 mm 0,0 km/h (0 Bft) W-SW 254 ° 0 min 0,000 mm 0,0 UV-I 0 W/m² 8,0 °C 9,1 °C 0,0 km/h (0 Bft)
16.04.2018 21:29 9,1 °C 93 % 1017,8 hPa 0,0 mm 0,0 km/h (0 Bft) W-SW 254 ° 0 min 0,000 mm 0,0 UV-I 0 W/m² 8,0 °C 9,1 °C 0,0 km/h (0 Bft)
16.04.2018 21:30 9,0 °C 93 % 1017,9 hPa 0,0 mm 0,1 km/h (0 Bft) W-SW 254 ° 0 min 0,000 mm 0,0 UV-I 0 W/m² 7,9 °C 9,0 °C 1,6 km/h (1 Bft)
16.04.2018 21:31 9,0 °C 93 % 1017,9 hPa 0,0 mm 0,0 km/h (0 Bft) W-SW 254 ° 0 min 0,000 mm 0,0 UV-I 0 W/m² 7,9 °C 9,0 °C 0,0 km/h (0 Bft)
16.04.2018 21:32 9,0 °C 93 % 1017,9 hPa 0,0 mm 0,0 km/h (0 Bft) W-SW 254 ° 0 min 0,000 mm 0,0 UV-I 0 W/m² 7,9 °C 9,0 °C 0,0 km/h (0 Bft)
16.04.2018 21:33 9,0 °C 93 % 1017,8 hPa 0,0 mm 0,0 km/h (0 Bft) W-SW 254 ° 0 min 0,000 mm 0,0 UV-I 0 W/m² 7,9 °C 9,0 °C 0,0 km/h (0 Bft)
16.04.2018 21:34 9,0 °C 93 % 1017,9 hPa 0,0 mm 0,0 km/h (0 Bft) W-SW 254 ° 0 min 0,000 mm 0,0 UV-I 0 W/m² 7,9 °C 9,0 °C 0,0 km/h (0 Bft)
16.04.2018 21:35 9,0 °C 93 % 1017,9 hPa 0,0 mm 0,0 km/h (0 Bft) W-SW 254 ° 0 min 0,000 mm 0,0 UV-I 0 W/m² 7,9 °C 9,0 °C 0,0 km/h (0 Bft)
16.04.2018 21:36 9,0 °C 93 % 1017,9 hPa 0,0 mm 0,0 km/h (0 Bft) W-SW 254 ° 0 min 0,000 mm 0,0 UV-I 0 W/m² 7,9 °C 9,0 °C 0,0 km/h (0 Bft)
16.04.2018 21:37 9,0 °C 93 % 1017,9 hPa 0,0 mm 0,0 km/h (0 Bft) W-SW 254 ° 0 min 0,000 mm 0,0 UV-I 0 W/m² 7,9 °C 9,0 °C 0,0 km/h (0 Bft)
16.04.2018 21:38 9,0 °C 93 % 1017,9 hPa 0,0 mm 0,0 km/h (0 Bft) W-SW 254 ° 0 min 0,000 mm 0,0 UV-I 0 W/m² 7,9 °C 9,0 °C 0,0 km/h (0 Bft)
16.04.2018 21:39 9,0 °C 93 % 1017,9 hPa 0,0 mm 0,0 km/h (0 Bft) W-SW 254 ° 0 min 0,000 mm 0,0 UV-I 0 W/m² 7,9 °C 9,0 °C 0,0 km/h (0 Bft)
16.04.2018 21:40 9,1 °C 93 % 1017,9 hPa 0,0 mm 0,0 km/h (0 Bft) W-SW 254 ° 0 min 0,000 mm 0,0 UV-I 0 W/m² 8,0 °C 9,1 °C 0,0 km/h (0 Bft)
16.04.2018 21:41 9,0 °C 93 % 1017,9 hPa 0,0 mm 0,0 km/h (0 Bft) W-SW 254 ° 0 min 0,000 mm 0,0 UV-I 0 W/m² 7,9 °C 9,0 °C 0,0 km/h (0 Bft)
16.04.2018 21:42 9,0 °C 93 % 1017,9 hPa 0,0 mm 0,0 km/h (0 Bft) W-SW 254 ° 0 min 0,000 mm 0,0 UV-I 0 W/m² 7,9 °C 9,0 °C 0,0 km/h (0 Bft)
16.04.2018 21:43 9,1 °C 93 % 1017,9 hPa 0,0 mm 0,0 km/h (0 Bft) W-SW 254 ° 0 min 0,000 mm 0,0 UV-I 0 W/m² 8,0 °C 9,1 °C 0,0 km/h (0 Bft)
16.04.2018 21:44 9,0 °C 93 % 1018,0 hPa 0,0 mm 0,0 km/h (0 Bft) W-SW 254 ° 0 min 0,000 mm 0,0 UV-I 0 W/m² 7,9 °C 9,0 °C 0,0 km/h (0 Bft)
16.04.2018 21:45 9,1 °C 93 % 1018,0 hPa 0,0 mm 0,0 km/h (0 Bft) W-SW 254 ° 0 min 0,000 mm 0,0 UV-I 0 W/m² 8,0 °C 9,1 °C 0,0 km/h (0 Bft)
16.04.2018 21:46 9,0 °C 93 % 1018,0 hPa 0,0 mm 0,0 km/h (0 Bft) W-SW 254 ° 0 min 0,000 mm 0,0 UV-I 0 W/m² 7,9 °C 9,0 °C 0,0 km/h (0 Bft)
16.04.2018 21:47 9,1 °C 93 % 1018,0 hPa 0,0 mm 0,0 km/h (0 Bft) W-SW 254 ° 0 min 0,000 mm 0,0 UV-I 0 W/m² 8,0 °C 9,1 °C 0,0 km/h (0 Bft)
16.04.2018 21:48 9,1 °C 93 % 1018,0 hPa 0,0 mm 0,0 km/h (0 Bft) W-SW 254 ° 0 min 0,000 mm 0,0 UV-I 0 W/m² 8,0 °C 9,1 °C 0,0 km/h (0 Bft)
16.04.2018 21:49 9,1 °C 93 % 1018,0 hPa 0,0 mm 0,0 km/h (0 Bft) W-SW 254 ° 0 min 0,000 mm 0,0 UV-I 0 W/m² 8,0 °C 9,1 °C 0,0 km/h (0 Bft)
16.04.2018 21:50 9,0 °C 93 % 1018,0 hPa 0,0 mm 0,0 km/h (0 Bft) W-SW 254 ° 0 min 0,000 mm 0,0 UV-I 0 W/m² 7,9 °C 9,0 °C 0,0 km/h (0 Bft)
16.04.2018 21:51 9,0 °C 93 % 1018,0 hPa 0,0 mm 0,0 km/h (0 Bft) W-SW 254 ° 0 min 0,000 mm 0,0 UV-I 0 W/m² 7,9 °C 9,0 °C 0,0 km/h (0 Bft)
16.04.2018 21:52 9,0 °C 93 % 1018,0 hPa 0,0 mm 0,0 km/h (0 Bft) W-SW 254 ° 0 min 0,000 mm 0,0 UV-I 0 W/m² 7,9 °C 9,0 °C 0,0 km/h (0 Bft)
16.04.2018 21:53 9,1 °C 93 % 1018,0 hPa 0,0 mm 0,0 km/h (0 Bft) W-SW 254 ° 0 min 0,000 mm 0,0 UV-I 0 W/m² 8,0 °C 9,1 °C 0,0 km/h (0 Bft)
16.04.2018 21:54 9,0 °C 93 % 1018,1 hPa 0,0 mm 0,0 km/h (0 Bft) W-SW 254 ° 0 min 0,000 mm 0,0 UV-I 0 W/m² 7,9 °C 9,0 °C 0,0 km/h (0 Bft)
16.04.2018 21:55 9,0 °C 93 % 1018,1 hPa 0,0 mm 0,0 km/h (0 Bft) W-SW 254 ° 0 min 0,000 mm 0,0 UV-I 0 W/m² 7,9 °C 9,0 °C 0,0 km/h (0 Bft)
16.04.2018 21:56 9,0 °C 93 % 1018,1 hPa 0,0 mm 0,2 km/h (0 Bft) W-SW 254 ° 0 min 0,000 mm 0,0 UV-I 0 W/m² 7,9 °C 9,0 °C 1,6 km/h (1 Bft)
16.04.2018 21:57 9,0 °C 92 % 1018,1 hPa 0,0 mm 0,0 km/h (0 Bft) W-SW 254 ° 0 min 0,000 mm 0,0 UV-I 0 W/m² 7,8 °C 9,0 °C 0,0 km/h (0 Bft)
16.04.2018 21:58 9,0 °C 92 % 1018,1 hPa 0,0 mm 0,4 km/h (0 Bft) W-SW 254 ° 0 min 0,000 mm 0,0 UV-I 0 W/m² 7,8 °C 9,0 °C 1,6 km/h (1 Bft)
16.04.2018 21:59 9,0 °C 92 % 1018,2 hPa 0,0 mm 1,1 km/h (1 Bft) W-SW 254 ° 0 min 0,000 mm 0,0 UV-I 0 W/m² 7,8 °C 9,0 °C 3,2 km/h (1 Bft)
16.04.2018 22:00 9,0 °C 93 % 1018,2 hPa 0,0 mm 0,7 km/h (0 Bft) W-SW 254 ° 0 min 0,000 mm 0,0 UV-I 0 W/m² 7,9 °C 9,0 °C 3,2 km/h (1 Bft)
16.04.2018 22:01 9,0 °C 93 % 1018,2 hPa 0,0 mm 0,1 km/h (0 Bft) W-SW 254 ° 0 min 0,000 mm 0,0 UV-I 0 W/m² 7,9 °C 9,0 °C 1,6 km/h (1 Bft)
16.04.2018 22:02 9,1 °C 93 % 1018,2 hPa 0,0 mm 0,0 km/h (0 Bft) W-SW 254 ° 0 min 0,000 mm 0,0 UV-I 0 W/m² 8,0 °C 9,1 °C 0,0 km/h (0 Bft)
16.04.2018 22:03 9,0 °C 92 % 1018,2 hPa 0,0 mm 0,0 km/h (0 Bft) W-SW 254 ° 0 min 0,000 mm 0,0 UV-I 0 W/m² 7,8 °C 9,0 °C 0,0 km/h (0 Bft)
16.04.2018 22:04 9,1 °C 93 % 1018,2 hPa 0,0 mm 0,0 km/h (0 Bft) W-SW 254 ° 0 min 0,000 mm 0,0 UV-I 0 W/m² 8,0 °C 9,1 °C 0,0 km/h (0 Bft)
16.04.2018 22:05 9,1 °C 92 % 1018,2 hPa 0,0 mm 0,0 km/h (0 Bft) W-SW 254 ° 0 min 0,000 mm 0,0 UV-I 0 W/m² 7,9 °C 9,1 °C 0,0 km/h (0 Bft)
16.04.2018 22:06 9,0 °C 92 % 1018,2 hPa 0,0 mm 0,0 km/h (0 Bft) W-SW 254 ° 0 min 0,000 mm 0,0 UV-I 0 W/m² 7,8 °C 9,0 °C 0,0 km/h (0 Bft)
16.04.2018 22:07 9,1 °C 92 % 1018,2 hPa 0,0 mm 0,0 km/h (0 Bft) W-SW 254 ° 0 min 0,000 mm 0,0 UV-I 0 W/m² 7,9 °C 9,1 °C 0,0 km/h (0 Bft)
16.04.2018 22:08 9,1 °C 92 % 1018,2 hPa 0,0 mm 0,0 km/h (0 Bft) W-SW 254 ° 0 min 0,000 mm 0,0 UV-I 0 W/m² 7,9 °C 9,1 °C 0,0 km/h (0 Bft)
16.04.2018 22:09 9,1 °C 92 % 1018,3 hPa 0,0 mm 0,0 km/h (0 Bft) W-SW 254 ° 0 min 0,000 mm 0,0 UV-I 0 W/m² 7,9 °C 9,1 °C 0,0 km/h (0 Bft)
16.04.2018 22:10 9,0 °C 92 % 1018,3 hPa 0,0 mm 0,0 km/h (0 Bft) W-SW 254 ° 0 min 0,000 mm 0,0 UV-I 0 W/m² 7,8 °C 9,0 °C 0,0 km/h (0 Bft)
16.04.2018 22:11 9,1 °C 92 % 1018,2 hPa 0,0 mm 0,0 km/h (0 Bft) W-SW 254 ° 0 min 0,000 mm 0,0 UV-I 0 W/m² 7,9 °C 9,1 °C 0,0 km/h (0 Bft)
16.04.2018 22:12 9,0 °C 92 % 1018,3 hPa 0,0 mm 0,0 km/h (0 Bft) W-SW 254 ° 0 min 0,000 mm 0,0 UV-I 0 W/m² 7,8 °C 9,0 °C 0,0 km/h (0 Bft)
16.04.2018 22:13 9,0 °C 92 % 1018,3 hPa 0,0 mm 0,0 km/h (0 Bft) W-SW 254 ° 0 min 0,000 mm 0,0 UV-I 0 W/m² 7,8 °C 9,0 °C 0,0 km/h (0 Bft)
16.04.2018 22:14 9,0 °C 93 % 1018,3 hPa 0,0 mm 0,0 km/h (0 Bft) W-SW 254 ° 0 min 0,000 mm 0,0 UV-I 0 W/m² 7,9 °C 9,0 °C 0,0 km/h (0 Bft)
16.04.2018 22:15 8,9 °C 92 % 1018,3 hPa 0,0 mm 0,0 km/h (0 Bft) W-SW 254 ° 0 min 0,000 mm 0,0 UV-I 0 W/m² 7,7 °C 8,9 °C 0,0 km/h (0 Bft)
16.04.2018 22:16 8,9 °C 92 % 1018,3 hPa 0,0 mm 0,0 km/h (0 Bft) W-SW 254 ° 0 min 0,000 mm 0,0 UV-I 0 W/m² 7,7 °C 8,9 °C 0,0 km/h (0 Bft)
16.04.2018 22:17 8,9 °C 93 % 1018,3 hPa 0,0 mm 0,0 km/h (0 Bft) W-SW 254 ° 0 min 0,000 mm 0,0 UV-I 0 W/m² 7,8 °C 8,9 °C 0,0 km/h (0 Bft)
16.04.2018 22:18 8,9 °C 93 % 1018,3 hPa 0,0 mm 0,0 km/h (0 Bft) W-SW 254 ° 0 min 0,000 mm 0,0 UV-I 0 W/m² 7,8 °C 8,9 °C 0,0 km/h (0 Bft)
16.04.2018 22:19 8,9 °C 93 % 1018,3 hPa 0,0 mm 0,0 km/h (0 Bft) W-SW 254 ° 0 min 0,000 mm 0,0 UV-I 0 W/m² 7,8 °C 8,9 °C 0,0 km/h (0 Bft)
16.04.2018 22:20 8,8 °C 92 % 1018,3 hPa 0,0 mm 0,0 km/h (0 Bft) W-SW 254 ° 0 min 0,000 mm 0,0 UV-I 0 W/m² 7,6 °C 8,8 °C 0,0 km/h (0 Bft)
16.04.2018 22:21 8,8 °C 93 % 1018,3 hPa 0,0 mm 0,0 km/h (0 Bft) W-SW 254 ° 0 min 0,000 mm 0,0 UV-I 0 W/m² 7,7 °C 8,8 °C 0,0 km/h (0 Bft)
16.04.2018 22:22 8,8 °C 93 % 1018,3 hPa 0,0 mm 0,0 km/h (0 Bft) W-SW 254 ° 0 min 0,000 mm 0,0 UV-I 0 W/m² 7,7 °C 8,8 °C 0,0 km/h (0 Bft)
16.04.2018 22:23 8,8 °C 93 % 1018,3 hPa 0,0 mm 0,0 km/h (0 Bft) W-SW 254 ° 0 min 0,000 mm 0,0 UV-I 0 W/m² 7,7 °C 8,8 °C 0,0 km/h (0 Bft)
16.04.2018 22:24 8,8 °C 93 % 1018,3 hPa 0,0 mm 0,0 km/h (0 Bft) W-SW 254 ° 0 min 0,000 mm 0,0 UV-I 0 W/m² 7,7 °C 8,8 °C 0,0 km/h (0 Bft)
16.04.2018 22:25 8,8 °C 93 % 1018,3 hPa 0,0 mm 0,0 km/h (0 Bft) W-SW 254 ° 0 min 0,000 mm 0,0 UV-I 0 W/m² 7,7 °C 8,8 °C 0,0 km/h (0 Bft)
16.04.2018 22:26 8,8 °C 93 % 1018,3 hPa 0,0 mm 0,0 km/h (0 Bft) W-SW 254 ° 0 min 0,000 mm 0,0 UV-I 0 W/m² 7,7 °C 8,8 °C 0,0 km/h (0 Bft)
16.04.2018 22:27 8,8 °C 93 % 1018,3 hPa 0,0 mm 0,0 km/h (0 Bft) W-SW 254 ° 0 min 0,000 mm 0,0 UV-I 0 W/m² 7,7 °C 8,8 °C 0,0 km/h (0 Bft)
16.04.2018 22:28 8,8 °C 93 % 1018,3 hPa 0,0 mm 0,0 km/h (0 Bft) W-SW 254 ° 0 min 0,000 mm 0,0 UV-I 0 W/m² 7,7 °C 8,8 °C 0,0 km/h (0 Bft)
16.04.2018 22:29 8,8 °C 93 % 1018,3 hPa 0,0 mm 0,0 km/h (0 Bft) W-SW 254 ° 0 min 0,000 mm 0,0 UV-I 0 W/m² 7,7 °C 8,8 °C 0,0 km/h (0 Bft)
16.04.2018 22:30 8,7 °C 93 % 1018,3 hPa 0,0 mm 0,0 km/h (0 Bft) W-SW 254 ° 0 min 0,000 mm 0,0 UV-I 0 W/m² 7,6 °C 8,7 °C 0,0 km/h (0 Bft)
16.04.2018 22:31 8,7 °C 93 % 1018,4 hPa 0,0 mm 0,0 km/h (0 Bft) W-SW 254 ° 0 min 0,000 mm 0,0 UV-I 0 W/m² 7,6 °C 8,7 °C 0,0 km/h (0 Bft)
16.04.2018 22:32 8,7 °C 93 % 1018,4 hPa 0,0 mm 0,0 km/h (0 Bft) W-SW 254 ° 0 min 0,000 mm 0,0 UV-I 0 W/m² 7,6 °C 8,7 °C 0,0 km/h (0 Bft)
16.04.2018 22:33 8,7 °C 93 % 1018,4 hPa 0,0 mm 0,0 km/h (0 Bft) W-SW 254 ° 0 min 0,000 mm 0,0 UV-I 0 W/m² 7,6 °C 8,7 °C 0,0 km/h (0 Bft)
16.04.2018 22:34 8,7 °C 93 % 1018,4 hPa 0,0 mm 0,0 km/h (0 Bft) W-SW 254 ° 0 min 0,000 mm 0,0 UV-I 0 W/m² 7,6 °C 8,7 °C 0,0 km/h (0 Bft)
16.04.2018 22:35 8,7 °C 93 % 1018,4 hPa 0,0 mm 0,0 km/h (0 Bft) W-SW 254 ° 0 min 0,000 mm 0,0 UV-I 0 W/m² 7,6 °C 8,7 °C 0,0 km/h (0 Bft)
16.04.2018 22:36 8,7 °C 93 % 1018,4 hPa 0,0 mm 0,0 km/h (0 Bft) W-SW 254 ° 0 min 0,000 mm 0,0 UV-I 0 W/m² 7,6 °C 8,7 °C 0,0 km/h (0 Bft)
16.04.2018 22:37 8,7 °C 93 % 1018,4 hPa 0,0 mm 0,0 km/h (0 Bft) W-SW 254 ° 0 min 0,000 mm 0,0 UV-I 0 W/m² 7,6 °C 8,7 °C 0,0 km/h (0 Bft)
16.04.2018 22:38 8,7 °C 93 % 1018,4 hPa 0,0 mm 0,0 km/h (0 Bft) W-SW 254 ° 0 min 0,000 mm 0,0 UV-I 0 W/m² 7,6 °C 8,7 °C 0,0 km/h (0 Bft)
16.04.2018 22:39 8,7 °C 93 % 1018,4 hPa 0,0 mm 0,0 km/h (0 Bft) W-SW 254 ° 0 min 0,000 mm 0,0 UV-I 0 W/m² 7,6 °C 8,7 °C 0,0 km/h (0 Bft)
16.04.2018 22:40 8,7 °C 93 % 1018,4 hPa 0,0 mm 0,0 km/h (0 Bft) W-SW 254 ° 0 min 0,000 mm 0,0 UV-I 0 W/m² 7,6 °C 8,7 °C 0,0 km/h (0 Bft)
16.04.2018 22:41 8,7 °C 93 % 1018,5 hPa 0,0 mm 0,0 km/h (0 Bft) W-SW 254 ° 0 min 0,000 mm 0,0 UV-I 0 W/m² 7,6 °C 8,7 °C 0,0 km/h (0 Bft)
16.04.2018 22:42 8,7 °C 93 % 1018,5 hPa 0,0 mm 0,0 km/h (0 Bft) W-SW 254 ° 0 min 0,000 mm 0,0 UV-I 0 W/m² 7,6 °C 8,7 °C 0,0 km/h (0 Bft)
16.04.2018 22:43 8,7 °C 93 % 1018,5 hPa 0,0 mm 0,0 km/h (0 Bft) W-SW 254 ° 0 min 0,000 mm 0,0 UV-I 0 W/m² 7,6 °C 8,7 °C 0,0 km/h (0 Bft)
16.04.2018 22:44 8,7 °C 93 % 1018,5 hPa 0,0 mm 0,0 km/h (0 Bft) W-SW 254 ° 0 min 0,000 mm 0,0 UV-I 0 W/m² 7,6 °C 8,7 °C 0,0 km/h (0 Bft)
16.04.2018 22:45 8,7 °C 93 % 1018,5 hPa 0,0 mm 0,0 km/h (0 Bft) W-SW 254 ° 0 min 0,000 mm 0,0 UV-I 0 W/m² 7,6 °C 8,7 °C 0,0 km/h (0 Bft)
16.04.2018 22:46 8,7 °C 93 % 1018,5 hPa 0,0 mm 0,0 km/h (0 Bft) W-SW 254 ° 0 min 0,000 mm 0,0 UV-I 0 W/m² 7,6 °C 8,7 °C 0,0 km/h (0 Bft)
16.04.2018 22:47 8,7 °C 93 % 1018,5 hPa 0,0 mm 0,0 km/h (0 Bft) W-SW 254 ° 0 min 0,000 mm 0,0 UV-I 0 W/m² 7,6 °C 8,7 °C 0,0 km/h (0 Bft)
16.04.2018 22:48 8,7 °C 93 % 1018,5 hPa 0,0 mm 0,0 km/h (0 Bft) W-SW 254 ° 0 min 0,000 mm 0,0 UV-I 0 W/m² 7,6 °C 8,7 °C 0,0 km/h (0 Bft)
16.04.2018 22:49 8,7 °C 93 % 1018,5 hPa 0,0 mm 0,5 km/h (0 Bft) W-SW 254 ° 0 min 0,000 mm 0,0 UV-I 0 W/m² 7,6 °C 8,7 °C 1,6 km/h (1 Bft)
16.04.2018 22:50 8,7 °C 93 % 1018,5 hPa 0,0 mm 0,7 km/h (0 Bft) W-SW 254 ° 0 min 0,000 mm 0,0 UV-I 0 W/m² 7,6 °C 8,7 °C 3,2 km/h (1 Bft)
16.04.2018 22:51 8,7 °C 93 % 1018,6 hPa 0,0 mm 0,1 km/h (0 Bft) W-SW 254 ° 0 min 0,000 mm 0,0 UV-I 0 W/m² 7,6 °C 8,7 °C 1,6 km/h (1 Bft)
16.04.2018 22:52 8,7 °C 93 % 1018,6 hPa 0,0 mm 1,6 km/h (1 Bft) W-SW 254 ° 0 min 0,000 mm 0,0 UV-I 0 W/m² 7,6 °C 8,7 °C 3,2 km/h (1 Bft)
16.04.2018 22:53 8,7 °C 93 % 1018,6 hPa 0,0 mm 1,4 km/h (1 Bft) W-SW 254 ° 0 min 0,000 mm 0,0 UV-I 0 W/m² 7,6 °C 8,7 °C 3,2 km/h (1 Bft)
16.04.2018 22:54 8,7 °C 93 % 1018,6 hPa 0,0 mm 0,6 km/h (0 Bft) W-SW 254 ° 0 min 0,000 mm 0,0 UV-I 0 W/m² 7,6 °C 8,7 °C 3,2 km/h (1 Bft)
16.04.2018 22:55 8,7 °C 93 % 1018,6 hPa 0,0 mm 0,0 km/h (0 Bft) W-SW 254 ° 0 min 0,000 mm 0,0 UV-I 0 W/m² 7,6 °C 8,7 °C 0,0 km/h (0 Bft)
16.04.2018 22:56 8,8 °C 92 % 1018,5 hPa 0,0 mm 0,6 km/h (0 Bft) W-SW 254 ° 0 min 0,000 mm 0,0 UV-I 0 W/m² 7,6 °C 8,8 °C 1,6 km/h (1 Bft)
16.04.2018 22:57 8,8 °C 92 % 1018,6 hPa 0,0 mm 0,1 km/h (0 Bft) W-SW 254 ° 0 min 0,000 mm 0,0 UV-I 0 W/m² 7,6 °C 8,8 °C 1,6 km/h (1 Bft)
16.04.2018 22:58 8,7 °C 92 % 1018,6 hPa 0,0 mm 0,0 km/h (0 Bft) W-SW 254 ° 0 min 0,000 mm 0,0 UV-I 0 W/m² 7,5 °C 8,7 °C 0,0 km/h (0 Bft)
16.04.2018 22:59 8,8 °C 92 % 1018,5 hPa 0,0 mm 0,0 km/h (0 Bft) W-SW 254 ° 0 min 0,000 mm 0,0 UV-I 0 W/m² 7,6 °C 8,8 °C 0,0 km/h (0 Bft)
16.04.2018 23:00 8,8 °C 92 % 1018,6 hPa 0,0 mm 0,0 km/h (0 Bft) W-SW 254 ° 0 min 0,000 mm 0,0 UV-I 0 W/m² 7,6 °C 8,8 °C 0,0 km/h (0 Bft)
16.04.2018 23:01 8,8 °C 92 % 1018,6 hPa 0,0 mm 0,0 km/h (0 Bft) W-SW 254 ° 0 min 0,000 mm 0,0 UV-I 0 W/m² 7,6 °C 8,8 °C 0,0 km/h (0 Bft)
16.04.2018 23:02 8,8 °C 92 % 1018,6 hPa 0,0 mm 0,0 km/h (0 Bft) W-SW 254 ° 0 min 0,000 mm 0,0 UV-I 0 W/m² 7,6 °C 8,8 °C 0,0 km/h (0 Bft)
16.04.2018 23:03 8,7 °C 92 % 1018,6 hPa 0,0 mm 0,0 km/h (0 Bft) W-SW 254 ° 0 min 0,000 mm 0,0 UV-I 0 W/m² 7,5 °C 8,7 °C 0,0 km/h (0 Bft)
16.04.2018 23:04 8,8 °C 92 % 1018,6 hPa 0,0 mm 0,1 km/h (0 Bft) W-SW 254 ° 0 min 0,000 mm 0,0 UV-I 0 W/m² 7,6 °C 8,8 °C 1,6 km/h (1 Bft)
16.04.2018 23:05 8,8 °C 92 % 1018,6 hPa 0,0 mm 0,0 km/h (0 Bft) W-SW 254 ° 0 min 0,000 mm 0,0 UV-I 0 W/m² 7,6 °C 8,8 °C 0,0 km/h (0 Bft)
16.04.2018 23:06 8,8 °C 92 % 1018,6 hPa 0,0 mm 0,8 km/h (0 Bft) W-SW 254 ° 0 min 0,000 mm 0,0 UV-I 0 W/m² 7,6 °C 8,8 °C 3,2 km/h (1 Bft)
16.04.2018 23:07 8,7 °C 92 % 1018,6 hPa 0,0 mm 0,3 km/h (0 Bft) W-SW 254 ° 0 min 0,000 mm 0,0 UV-I 0 W/m² 7,5 °C 8,7 °C 3,2 km/h (1 Bft)
16.04.2018 23:08 8,7 °C 92 % 1018,6 hPa 0,0 mm 1,5 km/h (1 Bft) W-SW 254 ° 0 min 0,000 mm 0,0 UV-I 0 W/m² 7,5 °C 8,7 °C 3,2 km/h (1 Bft)
16.04.2018 23:09 8,7 °C 92 % 1018,6 hPa 0,0 mm 1,4 km/h (1 Bft) W-SW 254 ° 0 min 0,000 mm 0,0 UV-I 0 W/m² 7,5 °C 8,7 °C 3,2 km/h (1 Bft)
16.04.2018 23:10 8,7 °C 92 % 1018,6 hPa 0,0 mm 0,3 km/h (0 Bft) W-SW 254 ° 0 min 0,000 mm 0,0 UV-I 0 W/m² 7,5 °C 8,7 °C 1,6 km/h (1 Bft)
16.04.2018 23:11 8,7 °C 92 % 1018,7 hPa 0,0 mm 0,5 km/h (0 Bft) W-SW 254 ° 0 min 0,000 mm 0,0 UV-I 0 W/m² 7,5 °C 8,7 °C 1,6 km/h (1 Bft)
16.04.2018 23:12 8,7 °C 92 % 1018,7 hPa 0,0 mm 0,5 km/h (0 Bft) W-SW 254 ° 0 min 0,000 mm 0,0 UV-I 0 W/m² 7,5 °C 8,7 °C 1,6 km/h (1 Bft)
16.04.2018 23:13 8,7 °C 92 % 1018,7 hPa 0,0 mm 0,0 km/h (0 Bft) W-SW 254 ° 0 min 0,000 mm 0,0 UV-I 0 W/m² 7,5 °C 8,7 °C 0,0 km/h (0 Bft)
16.04.2018 23:14 8,7 °C 92 % 1018,7 hPa 0,0 mm 0,7 km/h (0 Bft) W-SW 254 ° 0 min 0,000 mm 0,0 UV-I 0 W/m² 7,5 °C 8,7 °C 1,6 km/h (1 Bft)
16.04.2018 23:15 8,7 °C 92 % 1018,7 hPa 0,0 mm 0,3 km/h (0 Bft) W-SW 254 ° 0 min 0,000 mm 0,0 UV-I 0 W/m² 7,5 °C 8,7 °C 1,6 km/h (1 Bft)
16.04.2018 23:16 8,7 °C 92 % 1018,7 hPa 0,0 mm 2,0 km/h (1 Bft) W-SW 254 ° 0 min 0,000 mm 0,0 UV-I 0 W/m² 7,5 °C 8,7 °C 3,2 km/h (1 Bft)
16.04.2018 23:17 8,7 °C 92 % 1018,7 hPa 0,0 mm 1,3 km/h (1 Bft) W-SW 254 ° 0 min 0,000 mm 0,0 UV-I 0 W/m² 7,5 °C 8,7 °C 3,2 km/h (1 Bft)
16.04.2018 23:18 8,7 °C 92 % 1018,7 hPa 0,0 mm 0,0 km/h (0 Bft) W-SW 254 ° 0 min 0,000 mm 0,0 UV-I 0 W/m² 7,5 °C 8,7 °C 0,0 km/h (0 Bft)
16.04.2018 23:19 8,7 °C 92 % 1018,7 hPa 0,0 mm 0,0 km/h (0 Bft) W-SW 254 ° 0 min 0,000 mm 0,0 UV-I 0 W/m² 7,5 °C 8,7 °C 0,0 km/h (0 Bft)
16.04.2018 23:20 8,7 °C 92 % 1018,7 hPa 0,0 mm 0,0 km/h (0 Bft) W-SW 254 ° 0 min 0,000 mm 0,0 UV-I 0 W/m² 7,5 °C 8,7 °C 0,0 km/h (0 Bft)
16.04.2018 23:21 8,7 °C 92 % 1018,7 hPa 0,0 mm 0,0 km/h (0 Bft) W-SW 254 ° 0 min 0,000 mm 0,0 UV-I 0 W/m² 7,5 °C 8,7 °C 0,0 km/h (0 Bft)
16.04.2018 23:22 8,7 °C 92 % 1018,7 hPa 0,0 mm 0,0 km/h (0 Bft) W-SW 254 ° 0 min 0,000 mm 0,0 UV-I 0 W/m² 7,5 °C 8,7 °C 0,0 km/h (0 Bft)
16.04.2018 23:23 8,7 °C 92 % 1018,7 hPa 0,0 mm 0,0 km/h (0 Bft) W-SW 254 ° 0 min 0,000 mm 0,0 UV-I 0 W/m² 7,5 °C 8,7 °C 0,0 km/h (0 Bft)
16.04.2018 23:24 8,6 °C 92 % 1018,7 hPa 0,0 mm 0,0 km/h (0 Bft) W-SW 254 ° 0 min 0,000 mm 0,0 UV-I 0 W/m² 7,4 °C 8,6 °C 0,0 km/h (0 Bft)
16.04.2018 23:25 8,7 °C 92 % 1018,7 hPa 0,0 mm 0,0 km/h (0 Bft) W-SW 254 ° 0 min 0,000 mm 0,0 UV-I 0 W/m² 7,5 °C 8,7 °C 0,0 km/h (0 Bft)
16.04.2018 23:26 8,7 °C 92 % 1018,8 hPa 0,0 mm 0,3 km/h (0 Bft) W-SW 254 ° 0 min 0,000 mm 0,0 UV-I 0 W/m² 7,5 °C 8,7 °C 1,6 km/h (1 Bft)
16.04.2018 23:27 8,7 °C 92 % 1018,7 hPa 0,0 mm 0,0 km/h (0 Bft) W-SW 254 ° 0 min 0,000 mm 0,0 UV-I 0 W/m² 7,5 °C 8,7 °C 0,0 km/h (0 Bft)
16.04.2018 23:28 8,6 °C 92 % 1018,8 hPa 0,0 mm 0,0 km/h (0 Bft) W-SW 254 ° 0 min 0,000 mm 0,0 UV-I 0 W/m² 7,4 °C 8,6 °C 0,0 km/h (0 Bft)
16.04.2018 23:29 8,6 °C 92 % 1018,8 hPa 0,0 mm 1,3 km/h (1 Bft) W-SW 254 ° 0 min 0,000 mm 0,0 UV-I 0 W/m² 7,4 °C 8,6 °C 4,8 km/h (1 Bft)
16.04.2018 23:30 8,6 °C 92 % 1018,8 hPa 0,0 mm 0,2 km/h (0 Bft) W-SW 254 ° 0 min 0,000 mm 0,0 UV-I 0 W/m² 7,4 °C 8,6 °C 1,6 km/h (1 Bft)
16.04.2018 23:31 8,6 °C 92 % 1018,8 hPa 0,0 mm 0,0 km/h (0 Bft) W-SW 254 ° 0 min 0,000 mm 0,0 UV-I 0 W/m² 7,4 °C 8,6 °C 0,0 km/h (0 Bft)
16.04.2018 23:32 8,6 °C 92 % 1018,8 hPa 0,0 mm 0,8 km/h (0 Bft) W-SW 254 ° 0 min 0,000 mm 0,0 UV-I 0 W/m² 7,4 °C 8,6 °C 3,2 km/h (1 Bft)
16.04.2018 23:33 8,6 °C 92 % 1018,8 hPa 0,0 mm 0,0 km/h (0 Bft) W-SW 254 ° 0 min 0,000 mm 0,0 UV-I 0 W/m² 7,4 °C 8,6 °C 0,0 km/h (0 Bft)
16.04.2018 23:34 8,6 °C 92 % 1018,8 hPa 0,0 mm 0,0 km/h (0 Bft) W-SW 254 ° 0 min 0,000 mm 0,0 UV-I 0 W/m² 7,4 °C 8,6 °C 0,0 km/h (0 Bft)
16.04.2018 23:35 8,6 °C 92 % 1018,8 hPa 0,0 mm 0,0 km/h (0 Bft) W-SW 254 ° 0 min 0,000 mm 0,0 UV-I 0 W/m² 7,4 °C 8,6 °C 0,0 km/h (0 Bft)
16.04.2018 23:36 8,6 °C 92 % 1018,8 hPa 0,0 mm 0,0 km/h (0 Bft) W-SW 254 ° 0 min 0,000 mm 0,0 UV-I 0 W/m² 7,4 °C 8,6 °C 0,0 km/h (0 Bft)
16.04.2018 23:37 8,6 °C 92 % 1018,9 hPa 0,0 mm 0,0 km/h (0 Bft) W-SW 254 ° 0 min 0,000 mm 0,0 UV-I 0 W/m² 7,4 °C 8,6 °C 0,0 km/h (0 Bft)
16.04.2018 23:38 8,6 °C 92 % 1018,8 hPa 0,0 mm 0,0 km/h (0 Bft) W-SW 254 ° 0 min 0,000 mm 0,0 UV-I 0 W/m² 7,4 °C 8,6 °C 0,0 km/h (0 Bft)
16.04.2018 23:39 8,6 °C 92 % 1018,9 hPa 0,0 mm 0,0 km/h (0 Bft) W-SW 254 ° 0 min 0,000 mm 0,0 UV-I 0 W/m² 7,4 °C 8,6 °C 0,0 km/h (0 Bft)
16.04.2018 23:40 8,6 °C 92 % 1018,9 hPa 0,0 mm 0,0 km/h (0 Bft) W-SW 254 ° 0 min 0,000 mm 0,0 UV-I 0 W/m² 7,4 °C 8,6 °C 0,0 km/h (0 Bft)
16.04.2018 23:41 8,6 °C 92 % 1018,9 hPa 0,0 mm 0,4 km/h (0 Bft) W 261 ° 0 min 0,000 mm 0,0 UV-I 0 W/m² 7,4 °C 8,6 °C 3,2 km/h (1 Bft)
16.04.2018 23:42 8,6 °C 92 % 1018,9 hPa 0,0 mm 1,0 km/h (0 Bft) W 261 ° 0 min 0,000 mm 0,0 UV-I 0 W/m² 7,4 °C 8,6 °C 4,8 km/h (1 Bft)
16.04.2018 23:43 8,6 °C 92 % 1018,9 hPa 0,0 mm 0,0 km/h (0 Bft) W 261 ° 0 min 0,000 mm 0,0 UV-I 0 W/m² 7,4 °C 8,6 °C 0,0 km/h (0 Bft)
16.04.2018 23:44 8,6 °C 92 % 1018,9 hPa 0,0 mm 0,0 km/h (0 Bft) W 261 ° 0 min 0,000 mm 0,0 UV-I 0 W/m² 7,4 °C 8,6 °C 0,0 km/h (0 Bft)
16.04.2018 23:45 8,6 °C 92 % 1018,9 hPa 0,0 mm 0,0 km/h (0 Bft) W 261 ° 0 min 0,000 mm 0,0 UV-I 0 W/m² 7,4 °C 8,6 °C 0,0 km/h (0 Bft)
16.04.2018 23:46 8,6 °C 92 % 1018,9 hPa 0,0 mm 0,4 km/h (0 Bft) W 261 ° 0 min 0,000 mm 0,0 UV-I 0 W/m² 7,4 °C 8,6 °C 1,6 km/h (1 Bft)
16.04.2018 23:47 8,6 °C 92 % 1018,9 hPa 0,0 mm 1,7 km/h (1 Bft) W 261 ° 0 min 0,000 mm 0,0 UV-I 0 W/m² 7,4 °C 8,6 °C 3,2 km/h (1 Bft)
16.04.2018 23:48 8,6 °C 92 % 1019,0 hPa 0,0 mm 0,7 km/h (0 Bft) W 261 ° 0 min 0,000 mm 0,0 UV-I 0 W/m² 7,4 °C 8,6 °C 1,6 km/h (1 Bft)
16.04.2018 23:49 8,5 °C 92 % 1018,9 hPa 0,0 mm 0,0 km/h (0 Bft) W 261 ° 0 min 0,000 mm 0,0 UV-I 0 W/m² 7,3 °C 8,5 °C 0,0 km/h (0 Bft)
16.04.2018 23:50 8,6 °C 92 % 1019,0 hPa 0,0 mm 0,1 km/h (0 Bft) W 261 ° 0 min 0,000 mm 0,0 UV-I 0 W/m² 7,4 °C 8,6 °C 1,6 km/h (1 Bft)
16.04.2018 23:51 8,6 °C 92 % 1019,0 hPa 0,0 mm 0,0 km/h (0 Bft) W 261 ° 0 min 0,000 mm 0,0 UV-I 0 W/m² 7,4 °C 8,6 °C 0,0 km/h (0 Bft)
16.04.2018 23:52 8,6 °C 92 % 1019,0 hPa 0,0 mm 0,0 km/h (0 Bft) W 261 ° 0 min 0,000 mm 0,0 UV-I 0 W/m² 7,4 °C 8,6 °C 0,0 km/h (0 Bft)
16.04.2018 23:53 8,5 °C 92 % 1019,0 hPa 0,0 mm 0,5 km/h (0 Bft) W 261 ° 0 min 0,000 mm 0,0 UV-I 0 W/m² 7,3 °C 8,5 °C 1,6 km/h (1 Bft)
16.04.2018 23:54 8,5 °C 92 % 1019,0 hPa 0,0 mm 1,5 km/h (1 Bft) W-SW 257 ° 0 min 0,000 mm 0,0 UV-I 0 W/m² 7,3 °C 8,5 °C 3,2 km/h (1 Bft)
16.04.2018 23:55 8,5 °C 92 % 1019,1 hPa 0,0 mm 0,0 km/h (0 Bft) W-SW 257 ° 0 min 0,000 mm 0,0 UV-I 0 W/m² 7,3 °C 8,5 °C 0,0 km/h (0 Bft)
16.04.2018 23:56 8,6 °C 92 % 1019,0 hPa 0,0 mm 0,7 km/h (0 Bft) W-SW 257 ° 0 min 0,000 mm 0,0 UV-I 0 W/m² 7,4 °C 8,6 °C 3,2 km/h (1 Bft)
16.04.2018 23:57 8,5 °C 92 % 1019,0 hPa 0,0 mm 0,0 km/h (0 Bft) W-SW 257 ° 0 min 0,000 mm 0,0 UV-I 0 W/m² 7,3 °C 8,5 °C 0,0 km/h (0 Bft)
16.04.2018 23:58 8,5 °C 92 % 1019,0 hPa 0,0 mm 0,0 km/h (0 Bft) W-SW 257 ° 0 min 0,000 mm 0,0 UV-I 0 W/m² 7,3 °C 8,5 °C 0,0 km/h (0 Bft)
16.04.2018 23:59 8,6 °C 92 % 1019,0 hPa 0,0 mm 0,0 km/h (0 Bft) W-SW 257 ° 0 min 0,000 mm 0,0 UV-I 0 W/m² 7,4 °C 8,6 °C 0,0 km/h (0 Bft)
_ Min-Zeit 07:22 18:46 00:54 - 23:59 - - - - - - 23:58 07:22 23:59
Minimum _ 8,3 °C 83 % 1009,2 hPa - 0,0 km/h (0 Bft) - - - - - - 7,3 °C 8,3 °C 0,0 km/h (0 Bft)
_ Max-Zeit 18:10 08:26 23:55 11:34 11:52 - - 23:59 16:01 15:31 15:46 17:43 18:10 11:52
Maximum _ 11,9 °C 95 % 1019,1 hPa 0,2 mm 10,7 km/h
W-SW (2 Bft)
- - 0 min 0,102 mm 2,0 UV-I 272 W/m² 10,0 °C 11,9 °C 17,7 km/h
W (3 Bft)
Durchschnitt _ 9,7 °C 92 % 1013,2 hPa #7,6 mm 2,0 km/h (1 Bft) W - #0 min. #0,635 mm 1,1 UV-I 55 W/m² 8,4 °C 9,7 °C 3,4 km/h (1 Bft)